<?xml version="1.0" encoding="UTF-8" standalone="no" ?>
<gpx xmlns="http://www.topografix.com/GPX/1/1" xmlns:xsi="http://www.w3.org/2001/XMLSchema-instance" xsi:schemaLocation="http://www.topografix.com/GPX/1/1 http://www.topografix.com/GPX/1/1/gpx.xsd" version="1.1" creator="VisuGPX - https://www.visugpx.com">
  <metadata>
    <name>Boucle dans la forêt de Fontainebleau</name>
    <desc><![CDATA[Boucle dans la forêt de Fontainebleau à partir de la croix de Toulouse - Parcours de 24 km ]]></desc>
  </metadata>
  <trk>
    <name><![CDATA[Fontainebleau-26-09-2013]]></name>
    <trkseg>
      <trkpt lat="48.44366" lon="2.71786">
        <ele>39</ele>
        <time>2013-09-26T12:40:08Z</time>
      </trkpt>
      <trkpt lat="48.44366" lon="2.71783">
        <ele>39</ele>
        <time>2013-09-26T12:40:27Z</time>
      </trkpt>
      <trkpt lat="48.44366" lon="2.7178">
        <ele>39</ele>
        <time>2013-09-26T12:40:53Z</time>
      </trkpt>
      <trkpt lat="48.44365" lon="2.71776">
        <ele>39</ele>
        <time>2013-09-26T12:40:55Z</time>
      </trkpt>
      <trkpt lat="48.44366" lon="2.71772">
        <ele>39</ele>
        <time>2013-09-26T12:40:57Z</time>
      </trkpt>
      <trkpt lat="48.44366" lon="2.71763">
        <ele>39</ele>
        <time>2013-09-26T12:41:01Z</time>
      </trkpt>
      <trkpt lat="48.44366" lon="2.71758">
        <ele>39</ele>
        <time>2013-09-26T12:41:03Z</time>
      </trkpt>
      <trkpt lat="48.44365" lon="2.71754">
        <ele>39</ele>
        <time>2013-09-26T12:41:05Z</time>
      </trkpt>
      <trkpt lat="48.44365" lon="2.7175">
        <ele>39</ele>
        <time>2013-09-26T12:41:22Z</time>
      </trkpt>
      <trkpt lat="48.44363" lon="2.71744">
        <ele>39</ele>
        <time>2013-09-26T12:41:25Z</time>
      </trkpt>
      <trkpt lat="48.44361" lon="2.71738">
        <ele>39</ele>
        <time>2013-09-26T12:41:27Z</time>
      </trkpt>
      <trkpt lat="48.4436" lon="2.71731">
        <ele>39</ele>
        <time>2013-09-26T12:41:29Z</time>
      </trkpt>
      <trkpt lat="48.44355" lon="2.71715">
        <ele>39</ele>
        <time>2013-09-26T12:41:33Z</time>
      </trkpt>
      <trkpt lat="48.4435" lon="2.71698">
        <ele>39</ele>
        <time>2013-09-26T12:41:37Z</time>
      </trkpt>
      <trkpt lat="48.44344" lon="2.71681">
        <ele>39</ele>
        <time>2013-09-26T12:41:41Z</time>
      </trkpt>
      <trkpt lat="48.4434" lon="2.71671">
        <ele>39</ele>
        <time>2013-09-26T12:41:43Z</time>
      </trkpt>
      <trkpt lat="48.44335" lon="2.71655">
        <ele>39</ele>
        <time>2013-09-26T12:41:46Z</time>
      </trkpt>
      <trkpt lat="48.44333" lon="2.7165">
        <ele>39</ele>
        <time>2013-09-26T12:41:47Z</time>
      </trkpt>
      <trkpt lat="48.44328" lon="2.71632">
        <ele>39</ele>
        <time>2013-09-26T12:41:50Z</time>
      </trkpt>
      <trkpt lat="48.44323" lon="2.71621">
        <ele>39</ele>
        <time>2013-09-26T12:41:52Z</time>
      </trkpt>
      <trkpt lat="48.44317" lon="2.71603">
        <ele>39</ele>
        <time>2013-09-26T12:41:55Z</time>
      </trkpt>
      <trkpt lat="48.4431" lon="2.7158">
        <ele>39</ele>
        <time>2013-09-26T12:41:59Z</time>
      </trkpt>
      <trkpt lat="48.44306" lon="2.71568">
        <ele>39</ele>
        <time>2013-09-26T12:42:01Z</time>
      </trkpt>
      <trkpt lat="48.44304" lon="2.71562">
        <ele>39</ele>
        <time>2013-09-26T12:42:02Z</time>
      </trkpt>
      <trkpt lat="48.44296" lon="2.71545">
        <ele>39</ele>
        <time>2013-09-26T12:42:05Z</time>
      </trkpt>
      <trkpt lat="48.44292" lon="2.71532">
        <ele>39</ele>
        <time>2013-09-26T12:42:07Z</time>
      </trkpt>
      <trkpt lat="48.44284" lon="2.71506">
        <ele>39</ele>
        <time>2013-09-26T12:42:11Z</time>
      </trkpt>
      <trkpt lat="48.44275" lon="2.7148">
        <ele>39</ele>
        <time>2013-09-26T12:42:15Z</time>
      </trkpt>
      <trkpt lat="48.44272" lon="2.71474">
        <ele>39</ele>
        <time>2013-09-26T12:42:16Z</time>
      </trkpt>
      <trkpt lat="48.44266" lon="2.71454">
        <ele>39</ele>
        <time>2013-09-26T12:42:19Z</time>
      </trkpt>
      <trkpt lat="48.44263" lon="2.71442">
        <ele>39</ele>
        <time>2013-09-26T12:42:21Z</time>
      </trkpt>
      <trkpt lat="48.44259" lon="2.71432">
        <ele>39</ele>
        <time>2013-09-26T12:42:23Z</time>
      </trkpt>
      <trkpt lat="48.44257" lon="2.71423">
        <ele>39</ele>
        <time>2013-09-26T12:42:25Z</time>
      </trkpt>
      <trkpt lat="48.44255" lon="2.71413">
        <ele>39</ele>
        <time>2013-09-26T12:42:29Z</time>
      </trkpt>
      <trkpt lat="48.44256" lon="2.71406">
        <ele>39</ele>
        <time>2013-09-26T12:42:31Z</time>
      </trkpt>
      <trkpt lat="48.44259" lon="2.714">
        <ele>39</ele>
        <time>2013-09-26T12:42:33Z</time>
      </trkpt>
      <trkpt lat="48.44262" lon="2.71397">
        <ele>39</ele>
        <time>2013-09-26T12:42:34Z</time>
      </trkpt>
      <trkpt lat="48.44271" lon="2.71388">
        <ele>39</ele>
        <time>2013-09-26T12:42:37Z</time>
      </trkpt>
      <trkpt lat="48.44276" lon="2.71377">
        <ele>39</ele>
        <time>2013-09-26T12:42:39Z</time>
      </trkpt>
      <trkpt lat="48.44284" lon="2.71356">
        <ele>39</ele>
        <time>2013-09-26T12:42:43Z</time>
      </trkpt>
      <trkpt lat="48.4429" lon="2.71345">
        <ele>39</ele>
        <time>2013-09-26T12:42:45Z</time>
      </trkpt>
      <trkpt lat="48.44298" lon="2.71335">
        <ele>39</ele>
        <time>2013-09-26T12:42:47Z</time>
      </trkpt>
      <trkpt lat="48.44303" lon="2.71324">
        <ele>39</ele>
        <time>2013-09-26T12:42:49Z</time>
      </trkpt>
      <trkpt lat="48.44312" lon="2.71306">
        <ele>39</ele>
        <time>2013-09-26T12:42:53Z</time>
      </trkpt>
      <trkpt lat="48.44318" lon="2.71296">
        <ele>39</ele>
        <time>2013-09-26T12:42:55Z</time>
      </trkpt>
      <trkpt lat="48.4433" lon="2.71281">
        <ele>39</ele>
        <time>2013-09-26T12:42:58Z</time>
      </trkpt>
      <trkpt lat="48.44336" lon="2.7127">
        <ele>39</ele>
        <time>2013-09-26T12:43:00Z</time>
      </trkpt>
      <trkpt lat="48.44342" lon="2.7126">
        <ele>39</ele>
        <time>2013-09-26T12:43:02Z</time>
      </trkpt>
      <trkpt lat="48.44348" lon="2.71249">
        <ele>39</ele>
        <time>2013-09-26T12:43:04Z</time>
      </trkpt>
      <trkpt lat="48.44353" lon="2.71236">
        <ele>39</ele>
        <time>2013-09-26T12:43:06Z</time>
      </trkpt>
      <trkpt lat="48.44356" lon="2.7123">
        <ele>39</ele>
        <time>2013-09-26T12:43:07Z</time>
      </trkpt>
      <trkpt lat="48.44363" lon="2.71219">
        <ele>39</ele>
        <time>2013-09-26T12:43:09Z</time>
      </trkpt>
      <trkpt lat="48.44369" lon="2.71208">
        <ele>39</ele>
        <time>2013-09-26T12:43:11Z</time>
      </trkpt>
      <trkpt lat="48.44376" lon="2.71197">
        <ele>39</ele>
        <time>2013-09-26T12:43:13Z</time>
      </trkpt>
      <trkpt lat="48.4438" lon="2.71193">
        <ele>39</ele>
        <time>2013-09-26T12:43:14Z</time>
      </trkpt>
      <trkpt lat="48.4439" lon="2.71178">
        <ele>39</ele>
        <time>2013-09-26T12:43:17Z</time>
      </trkpt>
      <trkpt lat="48.44394" lon="2.71173">
        <ele>39</ele>
        <time>2013-09-26T12:43:18Z</time>
      </trkpt>
      <trkpt lat="48.4441" lon="2.71151">
        <ele>39</ele>
        <time>2013-09-26T12:43:22Z</time>
      </trkpt>
      <trkpt lat="48.44414" lon="2.71145">
        <ele>39</ele>
        <time>2013-09-26T12:43:23Z</time>
      </trkpt>
      <trkpt lat="48.4442" lon="2.71134">
        <ele>39</ele>
        <time>2013-09-26T12:43:25Z</time>
      </trkpt>
      <trkpt lat="48.44427" lon="2.71117">
        <ele>39</ele>
        <time>2013-09-26T12:43:28Z</time>
      </trkpt>
      <trkpt lat="48.44434" lon="2.71106">
        <ele>39</ele>
        <time>2013-09-26T12:43:30Z</time>
      </trkpt>
      <trkpt lat="48.44447" lon="2.71085">
        <ele>39</ele>
        <time>2013-09-26T12:43:34Z</time>
      </trkpt>
      <trkpt lat="48.44457" lon="2.71072">
        <ele>39</ele>
        <time>2013-09-26T12:43:37Z</time>
      </trkpt>
      <trkpt lat="48.44461" lon="2.71063">
        <ele>39</ele>
        <time>2013-09-26T12:43:39Z</time>
      </trkpt>
      <trkpt lat="48.44474" lon="2.71047">
        <ele>39</ele>
        <time>2013-09-26T12:43:42Z</time>
      </trkpt>
      <trkpt lat="48.44481" lon="2.71037">
        <ele>39</ele>
        <time>2013-09-26T12:43:44Z</time>
      </trkpt>
      <trkpt lat="48.44493" lon="2.71018">
        <ele>39</ele>
        <time>2013-09-26T12:43:48Z</time>
      </trkpt>
      <trkpt lat="48.44495" lon="2.71013">
        <ele>39</ele>
        <time>2013-09-26T12:43:49Z</time>
      </trkpt>
      <trkpt lat="48.445" lon="2.71001">
        <ele>39</ele>
        <time>2013-09-26T12:43:51Z</time>
      </trkpt>
      <trkpt lat="48.44507" lon="2.70991">
        <ele>39</ele>
        <time>2013-09-26T12:43:53Z</time>
      </trkpt>
      <trkpt lat="48.44509" lon="2.70986">
        <ele>39</ele>
        <time>2013-09-26T12:43:54Z</time>
      </trkpt>
      <trkpt lat="48.44513" lon="2.70977">
        <ele>39</ele>
        <time>2013-09-26T12:43:56Z</time>
      </trkpt>
      <trkpt lat="48.44516" lon="2.70972">
        <ele>39</ele>
        <time>2013-09-26T12:43:57Z</time>
      </trkpt>
      <trkpt lat="48.44527" lon="2.70951">
        <ele>39</ele>
        <time>2013-09-26T12:44:01Z</time>
      </trkpt>
      <trkpt lat="48.44537" lon="2.70937">
        <ele>39</ele>
        <time>2013-09-26T12:44:04Z</time>
      </trkpt>
      <trkpt lat="48.44542" lon="2.70928">
        <ele>39</ele>
        <time>2013-09-26T12:44:06Z</time>
      </trkpt>
      <trkpt lat="48.44549" lon="2.70915">
        <ele>39</ele>
        <time>2013-09-26T12:44:09Z</time>
      </trkpt>
      <trkpt lat="48.44553" lon="2.70906">
        <ele>39</ele>
        <time>2013-09-26T12:44:11Z</time>
      </trkpt>
      <trkpt lat="48.44558" lon="2.70898">
        <ele>39</ele>
        <time>2013-09-26T12:44:13Z</time>
      </trkpt>
      <trkpt lat="48.44564" lon="2.7089">
        <ele>39</ele>
        <time>2013-09-26T12:44:15Z</time>
      </trkpt>
      <trkpt lat="48.44576" lon="2.70873">
        <ele>34</ele>
        <time>2013-09-26T12:44:19Z</time>
      </trkpt>
      <trkpt lat="48.44583" lon="2.70871">
        <ele>34</ele>
        <time>2013-09-26T12:44:21Z</time>
      </trkpt>
      <trkpt lat="48.44587" lon="2.70872">
        <ele>34</ele>
        <time>2013-09-26T12:44:22Z</time>
      </trkpt>
      <trkpt lat="48.44597" lon="2.70878">
        <ele>34</ele>
        <time>2013-09-26T12:44:25Z</time>
      </trkpt>
      <trkpt lat="48.44602" lon="2.70883">
        <ele>34</ele>
        <time>2013-09-26T12:44:27Z</time>
      </trkpt>
      <trkpt lat="48.44611" lon="2.70892">
        <ele>34</ele>
        <time>2013-09-26T12:44:31Z</time>
      </trkpt>
      <trkpt lat="48.44615" lon="2.70896">
        <ele>34</ele>
        <time>2013-09-26T12:44:33Z</time>
      </trkpt>
      <trkpt lat="48.44618" lon="2.70901">
        <ele>34</ele>
        <time>2013-09-26T12:44:35Z</time>
      </trkpt>
      <trkpt lat="48.4462" lon="2.70903">
        <ele>35</ele>
        <time>2013-09-26T12:44:36Z</time>
      </trkpt>
      <trkpt lat="48.44626" lon="2.70912">
        <ele>36</ele>
        <time>2013-09-26T12:44:39Z</time>
      </trkpt>
      <trkpt lat="48.44629" lon="2.70918">
        <ele>36</ele>
        <time>2013-09-26T12:44:41Z</time>
      </trkpt>
      <trkpt lat="48.44637" lon="2.70929">
        <ele>36</ele>
        <time>2013-09-26T12:44:44Z</time>
      </trkpt>
      <trkpt lat="48.44646" lon="2.70942">
        <ele>35</ele>
        <time>2013-09-26T12:44:47Z</time>
      </trkpt>
      <trkpt lat="48.44652" lon="2.70951">
        <ele>35</ele>
        <time>2013-09-26T12:44:49Z</time>
      </trkpt>
      <trkpt lat="48.44657" lon="2.70956">
        <ele>35</ele>
        <time>2013-09-26T12:44:51Z</time>
      </trkpt>
      <trkpt lat="48.44659" lon="2.70958">
        <ele>35</ele>
        <time>2013-09-26T12:44:53Z</time>
      </trkpt>
      <trkpt lat="48.4466" lon="2.70957">
        <ele>35</ele>
        <time>2013-09-26T12:44:59Z</time>
      </trkpt>
      <trkpt lat="48.44663" lon="2.70952">
        <ele>35</ele>
        <time>2013-09-26T12:45:03Z</time>
      </trkpt>
      <trkpt lat="48.44662" lon="2.70939">
        <ele>34</ele>
        <time>2013-09-26T12:45:07Z</time>
      </trkpt>
      <trkpt lat="48.44663" lon="2.70932">
        <ele>34</ele>
        <time>2013-09-26T12:45:09Z</time>
      </trkpt>
      <trkpt lat="48.44664" lon="2.70924">
        <ele>34</ele>
        <time>2013-09-26T12:45:11Z</time>
      </trkpt>
      <trkpt lat="48.44665" lon="2.7092">
        <ele>34</ele>
        <time>2013-09-26T12:45:12Z</time>
      </trkpt>
      <trkpt lat="48.44669" lon="2.70902">
        <ele>35.2</ele>
        <time>2013-09-26T12:45:16Z</time>
      </trkpt>
      <trkpt lat="48.44671" lon="2.70895">
        <ele>36</ele>
        <time>2013-09-26T12:45:18Z</time>
      </trkpt>
      <trkpt lat="48.44673" lon="2.70881">
        <ele>36</ele>
        <time>2013-09-26T12:45:21Z</time>
      </trkpt>
      <trkpt lat="48.44672" lon="2.70873">
        <ele>36</ele>
        <time>2013-09-26T12:45:23Z</time>
      </trkpt>
      <trkpt lat="48.44669" lon="2.7086">
        <ele>36</ele>
        <time>2013-09-26T12:45:27Z</time>
      </trkpt>
      <trkpt lat="48.44666" lon="2.70848">
        <ele>36</ele>
        <time>2013-09-26T12:45:31Z</time>
      </trkpt>
      <trkpt lat="48.44663" lon="2.70837">
        <ele>36</ele>
        <time>2013-09-26T12:45:34Z</time>
      </trkpt>
      <trkpt lat="48.44661" lon="2.70828">
        <ele>35.5</ele>
        <time>2013-09-26T12:45:36Z</time>
      </trkpt>
      <trkpt lat="48.44657" lon="2.70818">
        <ele>35</ele>
        <time>2013-09-26T12:45:39Z</time>
      </trkpt>
      <trkpt lat="48.44656" lon="2.70813">
        <ele>35</ele>
        <time>2013-09-26T12:45:46Z</time>
      </trkpt>
      <trkpt lat="48.44655" lon="2.70809">
        <ele>35</ele>
        <time>2013-09-26T12:45:48Z</time>
      </trkpt>
      <trkpt lat="48.44655" lon="2.70806">
        <ele>35</ele>
        <time>2013-09-26T12:45:49Z</time>
      </trkpt>
      <trkpt lat="48.44653" lon="2.708">
        <ele>35</ele>
        <time>2013-09-26T12:45:51Z</time>
      </trkpt>
      <trkpt lat="48.44647" lon="2.7079">
        <ele>35</ele>
        <time>2013-09-26T12:45:55Z</time>
      </trkpt>
      <trkpt lat="48.44647" lon="2.70785">
        <ele>34</ele>
        <time>2013-09-26T12:45:57Z</time>
      </trkpt>
      <trkpt lat="48.44648" lon="2.70782">
        <ele>34</ele>
        <time>2013-09-26T12:45:59Z</time>
      </trkpt>
      <trkpt lat="48.44647" lon="2.70779">
        <ele>34</ele>
        <time>2013-09-26T12:46:00Z</time>
      </trkpt>
      <trkpt lat="48.44644" lon="2.70771">
        <ele>34</ele>
        <time>2013-09-26T12:46:03Z</time>
      </trkpt>
      <trkpt lat="48.44643" lon="2.70768">
        <ele>34</ele>
        <time>2013-09-26T12:46:05Z</time>
      </trkpt>
      <trkpt lat="48.44642" lon="2.70766">
        <ele>34</ele>
        <time>2013-09-26T12:46:07Z</time>
      </trkpt>
      <trkpt lat="48.44642" lon="2.7076">
        <ele>34</ele>
        <time>2013-09-26T12:46:09Z</time>
      </trkpt>
      <trkpt lat="48.44643" lon="2.70754">
        <ele>34</ele>
        <time>2013-09-26T12:46:11Z</time>
      </trkpt>
      <trkpt lat="48.44643" lon="2.70747">
        <ele>34</ele>
        <time>2013-09-26T12:46:13Z</time>
      </trkpt>
      <trkpt lat="48.44643" lon="2.70745">
        <ele>34</ele>
        <time>2013-09-26T12:46:14Z</time>
      </trkpt>
      <trkpt lat="48.44639" lon="2.70743">
        <ele>34</ele>
        <time>2013-09-26T12:46:16Z</time>
      </trkpt>
      <trkpt lat="48.44637" lon="2.70744">
        <ele>34</ele>
        <time>2013-09-26T12:46:17Z</time>
      </trkpt>
      <trkpt lat="48.44633" lon="2.70744">
        <ele>34</ele>
        <time>2013-09-26T12:46:19Z</time>
      </trkpt>
      <trkpt lat="48.44631" lon="2.7074">
        <ele>34</ele>
        <time>2013-09-26T12:46:21Z</time>
      </trkpt>
      <trkpt lat="48.4463" lon="2.70728">
        <ele>34</ele>
        <time>2013-09-26T12:46:25Z</time>
      </trkpt>
      <trkpt lat="48.44629" lon="2.70724">
        <ele>34.6</ele>
        <time>2013-09-26T12:46:26Z</time>
      </trkpt>
      <trkpt lat="48.4463" lon="2.70715">
        <ele>35</ele>
        <time>2013-09-26T12:46:28Z</time>
      </trkpt>
      <trkpt lat="48.44631" lon="2.70711">
        <ele>35</ele>
        <time>2013-09-26T12:46:29Z</time>
      </trkpt>
      <trkpt lat="48.44632" lon="2.70705">
        <ele>35</ele>
        <time>2013-09-26T12:46:31Z</time>
      </trkpt>
      <trkpt lat="48.44631" lon="2.70702">
        <ele>35</ele>
        <time>2013-09-26T12:46:32Z</time>
      </trkpt>
      <trkpt lat="48.44628" lon="2.70699">
        <ele>35</ele>
        <time>2013-09-26T12:46:33Z</time>
      </trkpt>
      <trkpt lat="48.44625" lon="2.70694">
        <ele>35</ele>
        <time>2013-09-26T12:46:35Z</time>
      </trkpt>
      <trkpt lat="48.44621" lon="2.70692">
        <ele>35</ele>
        <time>2013-09-26T12:46:37Z</time>
      </trkpt>
      <trkpt lat="48.44617" lon="2.70694">
        <ele>35</ele>
        <time>2013-09-26T12:46:39Z</time>
      </trkpt>
      <trkpt lat="48.44614" lon="2.70694">
        <ele>35</ele>
        <time>2013-09-26T12:46:40Z</time>
      </trkpt>
      <trkpt lat="48.44611" lon="2.70692">
        <ele>36</ele>
        <time>2013-09-26T12:46:48Z</time>
      </trkpt>
      <trkpt lat="48.4461" lon="2.70693">
        <ele>36</ele>
        <time>2013-09-26T12:47:00Z</time>
      </trkpt>
      <trkpt lat="48.44607" lon="2.70691">
        <ele>36</ele>
        <time>2013-09-26T12:47:03Z</time>
      </trkpt>
      <trkpt lat="48.44603" lon="2.7069">
        <ele>36</ele>
        <time>2013-09-26T12:47:05Z</time>
      </trkpt>
      <trkpt lat="48.44594" lon="2.70684">
        <ele>36</ele>
        <time>2013-09-26T12:47:08Z</time>
      </trkpt>
      <trkpt lat="48.44586" lon="2.7068">
        <ele>36</ele>
        <time>2013-09-26T12:47:11Z</time>
      </trkpt>
      <trkpt lat="48.44579" lon="2.70677">
        <ele>36</ele>
        <time>2013-09-26T12:47:13Z</time>
      </trkpt>
      <trkpt lat="48.4457" lon="2.70681">
        <ele>34</ele>
        <time>2013-09-26T12:47:17Z</time>
      </trkpt>
      <trkpt lat="48.44565" lon="2.70679">
        <ele>34</ele>
        <time>2013-09-26T12:47:19Z</time>
      </trkpt>
      <trkpt lat="48.44552" lon="2.70672">
        <ele>34</ele>
        <time>2013-09-26T12:47:23Z</time>
      </trkpt>
      <trkpt lat="48.44545" lon="2.70668">
        <ele>34</ele>
        <time>2013-09-26T12:47:25Z</time>
      </trkpt>
      <trkpt lat="48.44541" lon="2.70665">
        <ele>34</ele>
        <time>2013-09-26T12:47:26Z</time>
      </trkpt>
      <trkpt lat="48.44538" lon="2.70662">
        <ele>34</ele>
        <time>2013-09-26T12:47:27Z</time>
      </trkpt>
      <trkpt lat="48.44534" lon="2.70655">
        <ele>34</ele>
        <time>2013-09-26T12:47:29Z</time>
      </trkpt>
      <trkpt lat="48.4453" lon="2.70647">
        <ele>34</ele>
        <time>2013-09-26T12:47:31Z</time>
      </trkpt>
      <trkpt lat="48.44525" lon="2.70643">
        <ele>34</ele>
        <time>2013-09-26T12:47:33Z</time>
      </trkpt>
      <trkpt lat="48.44522" lon="2.70643">
        <ele>34</ele>
        <time>2013-09-26T12:47:34Z</time>
      </trkpt>
      <trkpt lat="48.44513" lon="2.70646">
        <ele>33</ele>
        <time>2013-09-26T12:47:37Z</time>
      </trkpt>
      <trkpt lat="48.44508" lon="2.70646">
        <ele>33</ele>
        <time>2013-09-26T12:47:39Z</time>
      </trkpt>
      <trkpt lat="48.44496" lon="2.70648">
        <ele>33</ele>
        <time>2013-09-26T12:47:43Z</time>
      </trkpt>
      <trkpt lat="48.4449" lon="2.70647">
        <ele>33</ele>
        <time>2013-09-26T12:47:45Z</time>
      </trkpt>
      <trkpt lat="48.44488" lon="2.70642">
        <ele>33</ele>
        <time>2013-09-26T12:47:47Z</time>
      </trkpt>
      <trkpt lat="48.44487" lon="2.70635">
        <ele>33</ele>
        <time>2013-09-26T12:47:49Z</time>
      </trkpt>
      <trkpt lat="48.44482" lon="2.70621">
        <ele>33</ele>
        <time>2013-09-26T12:47:52Z</time>
      </trkpt>
      <trkpt lat="48.44477" lon="2.70613">
        <ele>33</ele>
        <time>2013-09-26T12:47:54Z</time>
      </trkpt>
      <trkpt lat="48.44475" lon="2.70609">
        <ele>33</ele>
        <time>2013-09-26T12:47:55Z</time>
      </trkpt>
      <trkpt lat="48.44471" lon="2.70601">
        <ele>33</ele>
        <time>2013-09-26T12:47:57Z</time>
      </trkpt>
      <trkpt lat="48.44469" lon="2.7059">
        <ele>33</ele>
        <time>2013-09-26T12:47:59Z</time>
      </trkpt>
      <trkpt lat="48.44468" lon="2.70581">
        <ele>33</ele>
        <time>2013-09-26T12:48:01Z</time>
      </trkpt>
      <trkpt lat="48.44466" lon="2.70575">
        <ele>33</ele>
        <time>2013-09-26T12:48:03Z</time>
      </trkpt>
      <trkpt lat="48.44461" lon="2.70571">
        <ele>33</ele>
        <time>2013-09-26T12:48:05Z</time>
      </trkpt>
      <trkpt lat="48.44459" lon="2.70567">
        <ele>33</ele>
        <time>2013-09-26T12:48:07Z</time>
      </trkpt>
      <trkpt lat="48.44459" lon="2.70563">
        <ele>33</ele>
        <time>2013-09-26T12:48:09Z</time>
      </trkpt>
      <trkpt lat="48.44459" lon="2.7056">
        <ele>33</ele>
        <time>2013-09-26T12:48:13Z</time>
      </trkpt>
      <trkpt lat="48.44459" lon="2.70557">
        <ele>33</ele>
        <time>2013-09-26T12:48:15Z</time>
      </trkpt>
      <trkpt lat="48.44457" lon="2.70553">
        <ele>33</ele>
        <time>2013-09-26T12:48:17Z</time>
      </trkpt>
      <trkpt lat="48.44449" lon="2.70544">
        <ele>33</ele>
        <time>2013-09-26T12:48:21Z</time>
      </trkpt>
      <trkpt lat="48.44445" lon="2.70535">
        <ele>33</ele>
        <time>2013-09-26T12:48:24Z</time>
      </trkpt>
      <trkpt lat="48.44439" lon="2.70527">
        <ele>33</ele>
        <time>2013-09-26T12:48:26Z</time>
      </trkpt>
      <trkpt lat="48.4443" lon="2.70517">
        <ele>33</ele>
        <time>2013-09-26T12:48:29Z</time>
      </trkpt>
      <trkpt lat="48.44423" lon="2.7051">
        <ele>33</ele>
        <time>2013-09-26T12:48:31Z</time>
      </trkpt>
      <trkpt lat="48.44414" lon="2.705">
        <ele>33</ele>
        <time>2013-09-26T12:48:34Z</time>
      </trkpt>
      <trkpt lat="48.44404" lon="2.70488">
        <ele>33</ele>
        <time>2013-09-26T12:48:37Z</time>
      </trkpt>
      <trkpt lat="48.44399" lon="2.70481">
        <ele>33</ele>
        <time>2013-09-26T12:48:39Z</time>
      </trkpt>
      <trkpt lat="48.44393" lon="2.70475">
        <ele>33</ele>
        <time>2013-09-26T12:48:41Z</time>
      </trkpt>
      <trkpt lat="48.44386" lon="2.7047">
        <ele>33</ele>
        <time>2013-09-26T12:48:43Z</time>
      </trkpt>
      <trkpt lat="48.44375" lon="2.70457">
        <ele>34</ele>
        <time>2013-09-26T12:48:47Z</time>
      </trkpt>
      <trkpt lat="48.4437" lon="2.70451">
        <ele>34</ele>
        <time>2013-09-26T12:48:49Z</time>
      </trkpt>
      <trkpt lat="48.44368" lon="2.70448">
        <ele>34</ele>
        <time>2013-09-26T12:48:50Z</time>
      </trkpt>
      <trkpt lat="48.44365" lon="2.70441">
        <ele>34</ele>
        <time>2013-09-26T12:48:52Z</time>
      </trkpt>
      <trkpt lat="48.44364" lon="2.70439">
        <ele>34</ele>
        <time>2013-09-26T12:48:53Z</time>
      </trkpt>
      <trkpt lat="48.44362" lon="2.70432">
        <ele>34</ele>
        <time>2013-09-26T12:48:55Z</time>
      </trkpt>
      <trkpt lat="48.44359" lon="2.70422">
        <ele>34</ele>
        <time>2013-09-26T12:48:57Z</time>
      </trkpt>
      <trkpt lat="48.44356" lon="2.70412">
        <ele>34</ele>
        <time>2013-09-26T12:48:59Z</time>
      </trkpt>
      <trkpt lat="48.44348" lon="2.70391">
        <ele>34</ele>
        <time>2013-09-26T12:49:03Z</time>
      </trkpt>
      <trkpt lat="48.44345" lon="2.70381">
        <ele>34</ele>
        <time>2013-09-26T12:49:05Z</time>
      </trkpt>
      <trkpt lat="48.44339" lon="2.70358">
        <ele>34</ele>
        <time>2013-09-26T12:49:09Z</time>
      </trkpt>
      <trkpt lat="48.44337" lon="2.70353">
        <ele>34</ele>
        <time>2013-09-26T12:49:10Z</time>
      </trkpt>
      <trkpt lat="48.44333" lon="2.70342">
        <ele>34</ele>
        <time>2013-09-26T12:49:13Z</time>
      </trkpt>
      <trkpt lat="48.4433" lon="2.70333">
        <ele>34</ele>
        <time>2013-09-26T12:49:15Z</time>
      </trkpt>
      <trkpt lat="48.44329" lon="2.70325">
        <ele>35</ele>
        <time>2013-09-26T12:49:17Z</time>
      </trkpt>
      <trkpt lat="48.44325" lon="2.70316">
        <ele>35</ele>
        <time>2013-09-26T12:49:19Z</time>
      </trkpt>
      <trkpt lat="48.4432" lon="2.7031">
        <ele>35</ele>
        <time>2013-09-26T12:49:21Z</time>
      </trkpt>
      <trkpt lat="48.44318" lon="2.70305">
        <ele>35</ele>
        <time>2013-09-26T12:49:22Z</time>
      </trkpt>
      <trkpt lat="48.44316" lon="2.70299">
        <ele>35</ele>
        <time>2013-09-26T12:49:24Z</time>
      </trkpt>
      <trkpt lat="48.44316" lon="2.70295">
        <ele>35</ele>
        <time>2013-09-26T12:49:25Z</time>
      </trkpt>
      <trkpt lat="48.4432" lon="2.7028">
        <ele>35</ele>
        <time>2013-09-26T12:49:29Z</time>
      </trkpt>
      <trkpt lat="48.44323" lon="2.70274">
        <ele>35</ele>
        <time>2013-09-26T12:49:31Z</time>
      </trkpt>
      <trkpt lat="48.44333" lon="2.70254">
        <ele>35</ele>
        <time>2013-09-26T12:49:35Z</time>
      </trkpt>
      <trkpt lat="48.44334" lon="2.70244">
        <ele>34</ele>
        <time>2013-09-26T12:49:37Z</time>
      </trkpt>
      <trkpt lat="48.44335" lon="2.7024">
        <ele>34</ele>
        <time>2013-09-26T12:49:38Z</time>
      </trkpt>
      <trkpt lat="48.44338" lon="2.70232">
        <ele>34</ele>
        <time>2013-09-26T12:49:40Z</time>
      </trkpt>
      <trkpt lat="48.44343" lon="2.70224">
        <ele>34</ele>
        <time>2013-09-26T12:49:43Z</time>
      </trkpt>
      <trkpt lat="48.44345" lon="2.70218">
        <ele>34</ele>
        <time>2013-09-26T12:49:45Z</time>
      </trkpt>
      <trkpt lat="48.44347" lon="2.70215">
        <ele>34</ele>
        <time>2013-09-26T12:49:46Z</time>
      </trkpt>
      <trkpt lat="48.44351" lon="2.7021">
        <ele>34</ele>
        <time>2013-09-26T12:49:48Z</time>
      </trkpt>
      <trkpt lat="48.44354" lon="2.70202">
        <ele>34</ele>
        <time>2013-09-26T12:49:50Z</time>
      </trkpt>
      <trkpt lat="48.44354" lon="2.70193">
        <ele>34</ele>
        <time>2013-09-26T12:49:52Z</time>
      </trkpt>
      <trkpt lat="48.44354" lon="2.70187">
        <ele>34</ele>
        <time>2013-09-26T12:49:53Z</time>
      </trkpt>
      <trkpt lat="48.44354" lon="2.70177">
        <ele>34</ele>
        <time>2013-09-26T12:49:55Z</time>
      </trkpt>
      <trkpt lat="48.44353" lon="2.70167">
        <ele>34</ele>
        <time>2013-09-26T12:49:57Z</time>
      </trkpt>
      <trkpt lat="48.44352" lon="2.70158">
        <ele>34</ele>
        <time>2013-09-26T12:49:59Z</time>
      </trkpt>
      <trkpt lat="48.44352" lon="2.70148">
        <ele>34</ele>
        <time>2013-09-26T12:50:01Z</time>
      </trkpt>
      <trkpt lat="48.44353" lon="2.70144">
        <ele>34</ele>
        <time>2013-09-26T12:50:02Z</time>
      </trkpt>
      <trkpt lat="48.44356" lon="2.70136">
        <ele>34</ele>
        <time>2013-09-26T12:50:04Z</time>
      </trkpt>
      <trkpt lat="48.44358" lon="2.7013">
        <ele>34</ele>
        <time>2013-09-26T12:50:06Z</time>
      </trkpt>
      <trkpt lat="48.44359" lon="2.70126">
        <ele>34</ele>
        <time>2013-09-26T12:50:07Z</time>
      </trkpt>
      <trkpt lat="48.44361" lon="2.70118">
        <ele>34</ele>
        <time>2013-09-26T12:50:09Z</time>
      </trkpt>
      <trkpt lat="48.44362" lon="2.70107">
        <ele>34</ele>
        <time>2013-09-26T12:50:11Z</time>
      </trkpt>
      <trkpt lat="48.44364" lon="2.70099">
        <ele>34</ele>
        <time>2013-09-26T12:50:13Z</time>
      </trkpt>
      <trkpt lat="48.44363" lon="2.70093">
        <ele>34</ele>
        <time>2013-09-26T12:50:14Z</time>
      </trkpt>
      <trkpt lat="48.44363" lon="2.70087">
        <ele>34</ele>
        <time>2013-09-26T12:50:15Z</time>
      </trkpt>
      <trkpt lat="48.44359" lon="2.70072">
        <ele>34</ele>
        <time>2013-09-26T12:50:18Z</time>
      </trkpt>
      <trkpt lat="48.44358" lon="2.70067">
        <ele>34</ele>
        <time>2013-09-26T12:50:19Z</time>
      </trkpt>
      <trkpt lat="48.44356" lon="2.70055">
        <ele>34</ele>
        <time>2013-09-26T12:50:22Z</time>
      </trkpt>
      <trkpt lat="48.44354" lon="2.70045">
        <ele>34</ele>
        <time>2013-09-26T12:50:24Z</time>
      </trkpt>
      <trkpt lat="48.44356" lon="2.70039">
        <ele>34</ele>
        <time>2013-09-26T12:50:26Z</time>
      </trkpt>
      <trkpt lat="48.44359" lon="2.7003">
        <ele>34</ele>
        <time>2013-09-26T12:50:29Z</time>
      </trkpt>
      <trkpt lat="48.44361" lon="2.70021">
        <ele>34</ele>
        <time>2013-09-26T12:50:31Z</time>
      </trkpt>
      <trkpt lat="48.44361" lon="2.70016">
        <ele>34</ele>
        <time>2013-09-26T12:50:32Z</time>
      </trkpt>
      <trkpt lat="48.44362" lon="2.69998">
        <ele>34.5</ele>
        <time>2013-09-26T12:50:36Z</time>
      </trkpt>
      <trkpt lat="48.44361" lon="2.69992">
        <ele>35</ele>
        <time>2013-09-26T12:50:37Z</time>
      </trkpt>
      <trkpt lat="48.4436" lon="2.69984">
        <ele>35</ele>
        <time>2013-09-26T12:50:39Z</time>
      </trkpt>
      <trkpt lat="48.44357" lon="2.69977">
        <ele>35</ele>
        <time>2013-09-26T12:50:41Z</time>
      </trkpt>
      <trkpt lat="48.44354" lon="2.6997">
        <ele>35</ele>
        <time>2013-09-26T12:50:43Z</time>
      </trkpt>
      <trkpt lat="48.44353" lon="2.69968">
        <ele>35</ele>
        <time>2013-09-26T12:50:45Z</time>
      </trkpt>
      <trkpt lat="48.44352" lon="2.69965">
        <ele>34.4</ele>
        <time>2013-09-26T12:50:56Z</time>
      </trkpt>
      <trkpt lat="48.44349" lon="2.6996">
        <ele>34</ele>
        <time>2013-09-26T12:50:59Z</time>
      </trkpt>
      <trkpt lat="48.44345" lon="2.69951">
        <ele>34</ele>
        <time>2013-09-26T12:51:02Z</time>
      </trkpt>
      <trkpt lat="48.44342" lon="2.69943">
        <ele>34</ele>
        <time>2013-09-26T12:51:04Z</time>
      </trkpt>
      <trkpt lat="48.44341" lon="2.69938">
        <ele>34</ele>
        <time>2013-09-26T12:51:05Z</time>
      </trkpt>
      <trkpt lat="48.4434" lon="2.69929">
        <ele>34</ele>
        <time>2013-09-26T12:51:07Z</time>
      </trkpt>
      <trkpt lat="48.44336" lon="2.69914">
        <ele>34</ele>
        <time>2013-09-26T12:51:11Z</time>
      </trkpt>
      <trkpt lat="48.44334" lon="2.69905">
        <ele>34</ele>
        <time>2013-09-26T12:51:13Z</time>
      </trkpt>
      <trkpt lat="48.44332" lon="2.69902">
        <ele>34</ele>
        <time>2013-09-26T12:51:14Z</time>
      </trkpt>
      <trkpt lat="48.44321" lon="2.69892">
        <ele>34</ele>
        <time>2013-09-26T12:51:18Z</time>
      </trkpt>
      <trkpt lat="48.44318" lon="2.6989">
        <ele>34</ele>
        <time>2013-09-26T12:51:19Z</time>
      </trkpt>
      <trkpt lat="48.44314" lon="2.69883">
        <ele>34</ele>
        <time>2013-09-26T12:51:21Z</time>
      </trkpt>
      <trkpt lat="48.44311" lon="2.69875">
        <ele>34</ele>
        <time>2013-09-26T12:51:23Z</time>
      </trkpt>
      <trkpt lat="48.44306" lon="2.69868">
        <ele>34</ele>
        <time>2013-09-26T12:51:25Z</time>
      </trkpt>
      <trkpt lat="48.44304" lon="2.69865">
        <ele>34.6</ele>
        <time>2013-09-26T12:51:26Z</time>
      </trkpt>
      <trkpt lat="48.44299" lon="2.6985">
        <ele>35</ele>
        <time>2013-09-26T12:51:29Z</time>
      </trkpt>
      <trkpt lat="48.44298" lon="2.69845">
        <ele>35</ele>
        <time>2013-09-26T12:51:30Z</time>
      </trkpt>
      <trkpt lat="48.44299" lon="2.69836">
        <ele>35</ele>
        <time>2013-09-26T12:51:32Z</time>
      </trkpt>
      <trkpt lat="48.44303" lon="2.69822">
        <ele>35</ele>
        <time>2013-09-26T12:51:35Z</time>
      </trkpt>
      <trkpt lat="48.44305" lon="2.69812">
        <ele>35</ele>
        <time>2013-09-26T12:51:37Z</time>
      </trkpt>
      <trkpt lat="48.44304" lon="2.69805">
        <ele>35</ele>
        <time>2013-09-26T12:51:39Z</time>
      </trkpt>
      <trkpt lat="48.44297" lon="2.69797">
        <ele>35</ele>
        <time>2013-09-26T12:51:43Z</time>
      </trkpt>
      <trkpt lat="48.44295" lon="2.6979">
        <ele>35</ele>
        <time>2013-09-26T12:51:45Z</time>
      </trkpt>
      <trkpt lat="48.44295" lon="2.69782">
        <ele>35</ele>
        <time>2013-09-26T12:51:47Z</time>
      </trkpt>
      <trkpt lat="48.44296" lon="2.69778">
        <ele>35</ele>
        <time>2013-09-26T12:51:48Z</time>
      </trkpt>
      <trkpt lat="48.44299" lon="2.69768">
        <ele>35</ele>
        <time>2013-09-26T12:51:50Z</time>
      </trkpt>
      <trkpt lat="48.443" lon="2.69756">
        <ele>35</ele>
        <time>2013-09-26T12:51:52Z</time>
      </trkpt>
      <trkpt lat="48.44302" lon="2.6975">
        <ele>35</ele>
        <time>2013-09-26T12:51:53Z</time>
      </trkpt>
      <trkpt lat="48.44305" lon="2.69743">
        <ele>35</ele>
        <time>2013-09-26T12:51:55Z</time>
      </trkpt>
      <trkpt lat="48.44312" lon="2.69739">
        <ele>34</ele>
        <time>2013-09-26T12:51:57Z</time>
      </trkpt>
      <trkpt lat="48.44324" lon="2.69741">
        <ele>34</ele>
        <time>2013-09-26T12:52:00Z</time>
      </trkpt>
      <trkpt lat="48.4433" lon="2.69741">
        <ele>34</ele>
        <time>2013-09-26T12:52:02Z</time>
      </trkpt>
      <trkpt lat="48.44334" lon="2.69741">
        <ele>34</ele>
        <time>2013-09-26T12:52:03Z</time>
      </trkpt>
      <trkpt lat="48.4434" lon="2.69741">
        <ele>34</ele>
        <time>2013-09-26T12:52:05Z</time>
      </trkpt>
      <trkpt lat="48.44345" lon="2.69737">
        <ele>34</ele>
        <time>2013-09-26T12:52:07Z</time>
      </trkpt>
      <trkpt lat="48.44351" lon="2.6973">
        <ele>34</ele>
        <time>2013-09-26T12:52:09Z</time>
      </trkpt>
      <trkpt lat="48.44356" lon="2.6972">
        <ele>34</ele>
        <time>2013-09-26T12:52:11Z</time>
      </trkpt>
      <trkpt lat="48.44358" lon="2.69708">
        <ele>34</ele>
        <time>2013-09-26T12:52:13Z</time>
      </trkpt>
      <trkpt lat="48.44357" lon="2.69702">
        <ele>34</ele>
        <time>2013-09-26T12:52:14Z</time>
      </trkpt>
      <trkpt lat="48.44355" lon="2.6969">
        <ele>33.5</ele>
        <time>2013-09-26T12:52:16Z</time>
      </trkpt>
      <trkpt lat="48.44354" lon="2.69685">
        <ele>33</ele>
        <time>2013-09-26T12:52:17Z</time>
      </trkpt>
      <trkpt lat="48.44348" lon="2.69676">
        <ele>33</ele>
        <time>2013-09-26T12:52:19Z</time>
      </trkpt>
      <trkpt lat="48.44341" lon="2.69669">
        <ele>33</ele>
        <time>2013-09-26T12:52:21Z</time>
      </trkpt>
      <trkpt lat="48.44335" lon="2.69661">
        <ele>33</ele>
        <time>2013-09-26T12:52:23Z</time>
      </trkpt>
      <trkpt lat="48.44329" lon="2.69653">
        <ele>33</ele>
        <time>2013-09-26T12:52:25Z</time>
      </trkpt>
      <trkpt lat="48.44322" lon="2.69638">
        <ele>32</ele>
        <time>2013-09-26T12:52:28Z</time>
      </trkpt>
      <trkpt lat="48.44314" lon="2.69623">
        <ele>32</ele>
        <time>2013-09-26T12:52:31Z</time>
      </trkpt>
      <trkpt lat="48.44308" lon="2.69613">
        <ele>32</ele>
        <time>2013-09-26T12:52:33Z</time>
      </trkpt>
      <trkpt lat="48.44305" lon="2.69608">
        <ele>32</ele>
        <time>2013-09-26T12:52:34Z</time>
      </trkpt>
      <trkpt lat="48.44297" lon="2.69585">
        <ele>33</ele>
        <time>2013-09-26T12:52:38Z</time>
      </trkpt>
      <trkpt lat="48.44294" lon="2.69575">
        <ele>33</ele>
        <time>2013-09-26T12:52:40Z</time>
      </trkpt>
      <trkpt lat="48.44293" lon="2.6957">
        <ele>33</ele>
        <time>2013-09-26T12:52:41Z</time>
      </trkpt>
      <trkpt lat="48.44293" lon="2.69559">
        <ele>33</ele>
        <time>2013-09-26T12:52:43Z</time>
      </trkpt>
      <trkpt lat="48.44294" lon="2.69548">
        <ele>33</ele>
        <time>2013-09-26T12:52:45Z</time>
      </trkpt>
      <trkpt lat="48.44298" lon="2.69533">
        <ele>33</ele>
        <time>2013-09-26T12:52:48Z</time>
      </trkpt>
      <trkpt lat="48.44299" lon="2.69522">
        <ele>33</ele>
        <time>2013-09-26T12:52:50Z</time>
      </trkpt>
      <trkpt lat="48.44299" lon="2.6951">
        <ele>33</ele>
        <time>2013-09-26T12:52:52Z</time>
      </trkpt>
      <trkpt lat="48.44299" lon="2.69505">
        <ele>33</ele>
        <time>2013-09-26T12:52:53Z</time>
      </trkpt>
      <trkpt lat="48.44301" lon="2.69496">
        <ele>33</ele>
        <time>2013-09-26T12:52:55Z</time>
      </trkpt>
      <trkpt lat="48.44306" lon="2.69487">
        <ele>33</ele>
        <time>2013-09-26T12:52:57Z</time>
      </trkpt>
      <trkpt lat="48.44313" lon="2.69482">
        <ele>33</ele>
        <time>2013-09-26T12:52:59Z</time>
      </trkpt>
      <trkpt lat="48.44323" lon="2.69475">
        <ele>33</ele>
        <time>2013-09-26T12:53:02Z</time>
      </trkpt>
      <trkpt lat="48.4433" lon="2.69472">
        <ele>33</ele>
        <time>2013-09-26T12:53:04Z</time>
      </trkpt>
      <trkpt lat="48.44341" lon="2.69467">
        <ele>32</ele>
        <time>2013-09-26T12:53:07Z</time>
      </trkpt>
      <trkpt lat="48.44348" lon="2.69465">
        <ele>32</ele>
        <time>2013-09-26T12:53:09Z</time>
      </trkpt>
      <trkpt lat="48.44352" lon="2.69463">
        <ele>32</ele>
        <time>2013-09-26T12:53:10Z</time>
      </trkpt>
      <trkpt lat="48.44361" lon="2.69457">
        <ele>32</ele>
        <time>2013-09-26T12:53:13Z</time>
      </trkpt>
      <trkpt lat="48.44364" lon="2.69455">
        <ele>32</ele>
        <time>2013-09-26T12:53:14Z</time>
      </trkpt>
      <trkpt lat="48.44366" lon="2.69452">
        <ele>32</ele>
        <time>2013-09-26T12:53:15Z</time>
      </trkpt>
      <trkpt lat="48.44372" lon="2.6944">
        <ele>32</ele>
        <time>2013-09-26T12:53:19Z</time>
      </trkpt>
      <trkpt lat="48.44377" lon="2.69435">
        <ele>32</ele>
        <time>2013-09-26T12:53:21Z</time>
      </trkpt>
      <trkpt lat="48.44384" lon="2.69434">
        <ele>32</ele>
        <time>2013-09-26T12:53:23Z</time>
      </trkpt>
      <trkpt lat="48.4439" lon="2.69436">
        <ele>32</ele>
        <time>2013-09-26T12:53:25Z</time>
      </trkpt>
      <trkpt lat="48.44396" lon="2.6944">
        <ele>32</ele>
        <time>2013-09-26T12:53:27Z</time>
      </trkpt>
      <trkpt lat="48.44398" lon="2.69443">
        <ele>32</ele>
        <time>2013-09-26T12:53:28Z</time>
      </trkpt>
      <trkpt lat="48.444" lon="2.69445">
        <ele>32</ele>
        <time>2013-09-26T12:53:29Z</time>
      </trkpt>
      <trkpt lat="48.4441" lon="2.69454">
        <ele>32</ele>
        <time>2013-09-26T12:53:33Z</time>
      </trkpt>
      <trkpt lat="48.44415" lon="2.69457">
        <ele>32</ele>
        <time>2013-09-26T12:53:35Z</time>
      </trkpt>
      <trkpt lat="48.44419" lon="2.69461">
        <ele>33</ele>
        <time>2013-09-26T12:53:37Z</time>
      </trkpt>
      <trkpt lat="48.44423" lon="2.69464">
        <ele>33</ele>
        <time>2013-09-26T12:53:39Z</time>
      </trkpt>
      <trkpt lat="48.44425" lon="2.69466">
        <ele>33</ele>
        <time>2013-09-26T12:53:40Z</time>
      </trkpt>
      <trkpt lat="48.4443" lon="2.69468">
        <ele>33</ele>
        <time>2013-09-26T12:53:42Z</time>
      </trkpt>
      <trkpt lat="48.44435" lon="2.6947">
        <ele>33</ele>
        <time>2013-09-26T12:53:44Z</time>
      </trkpt>
      <trkpt lat="48.44441" lon="2.69474">
        <ele>33</ele>
        <time>2013-09-26T12:53:46Z</time>
      </trkpt>
      <trkpt lat="48.4445" lon="2.69477">
        <ele>33</ele>
        <time>2013-09-26T12:53:49Z</time>
      </trkpt>
      <trkpt lat="48.44456" lon="2.6948">
        <ele>33</ele>
        <time>2013-09-26T12:53:51Z</time>
      </trkpt>
      <trkpt lat="48.44462" lon="2.6948">
        <ele>33</ele>
        <time>2013-09-26T12:53:53Z</time>
      </trkpt>
      <trkpt lat="48.44473" lon="2.69479">
        <ele>33</ele>
        <time>2013-09-26T12:53:57Z</time>
      </trkpt>
      <trkpt lat="48.44479" lon="2.69479">
        <ele>33</ele>
        <time>2013-09-26T12:53:59Z</time>
      </trkpt>
      <trkpt lat="48.44482" lon="2.69478">
        <ele>33</ele>
        <time>2013-09-26T12:54:00Z</time>
      </trkpt>
      <trkpt lat="48.44489" lon="2.69471">
        <ele>33</ele>
        <time>2013-09-26T12:54:03Z</time>
      </trkpt>
      <trkpt lat="48.44495" lon="2.69465">
        <ele>33</ele>
        <time>2013-09-26T12:54:05Z</time>
      </trkpt>
      <trkpt lat="48.445" lon="2.69461">
        <ele>33</ele>
        <time>2013-09-26T12:54:07Z</time>
      </trkpt>
      <trkpt lat="48.44503" lon="2.69456">
        <ele>33</ele>
        <time>2013-09-26T12:54:09Z</time>
      </trkpt>
      <trkpt lat="48.44507" lon="2.69449">
        <ele>33</ele>
        <time>2013-09-26T12:54:11Z</time>
      </trkpt>
      <trkpt lat="48.4451" lon="2.69441">
        <ele>33</ele>
        <time>2013-09-26T12:54:13Z</time>
      </trkpt>
      <trkpt lat="48.44514" lon="2.69435">
        <ele>33</ele>
        <time>2013-09-26T12:54:15Z</time>
      </trkpt>
      <trkpt lat="48.44523" lon="2.69422">
        <ele>33</ele>
        <time>2013-09-26T12:54:19Z</time>
      </trkpt>
      <trkpt lat="48.44525" lon="2.69419">
        <ele>33</ele>
        <time>2013-09-26T12:54:20Z</time>
      </trkpt>
      <trkpt lat="48.44533" lon="2.69412">
        <ele>33</ele>
        <time>2013-09-26T12:54:23Z</time>
      </trkpt>
      <trkpt lat="48.44538" lon="2.69407">
        <ele>33</ele>
        <time>2013-09-26T12:54:25Z</time>
      </trkpt>
      <trkpt lat="48.44542" lon="2.69402">
        <ele>34</ele>
        <time>2013-09-26T12:54:27Z</time>
      </trkpt>
      <trkpt lat="48.44544" lon="2.694">
        <ele>34</ele>
        <time>2013-09-26T12:54:28Z</time>
      </trkpt>
      <trkpt lat="48.44546" lon="2.6939">
        <ele>34</ele>
        <time>2013-09-26T12:54:31Z</time>
      </trkpt>
      <trkpt lat="48.44553" lon="2.69374">
        <ele>34</ele>
        <time>2013-09-26T12:54:35Z</time>
      </trkpt>
      <trkpt lat="48.44556" lon="2.69365">
        <ele>34</ele>
        <time>2013-09-26T12:54:37Z</time>
      </trkpt>
      <trkpt lat="48.44559" lon="2.69358">
        <ele>34</ele>
        <time>2013-09-26T12:54:39Z</time>
      </trkpt>
      <trkpt lat="48.44564" lon="2.69352">
        <ele>34</ele>
        <time>2013-09-26T12:54:41Z</time>
      </trkpt>
      <trkpt lat="48.44568" lon="2.69347">
        <ele>34</ele>
        <time>2013-09-26T12:54:43Z</time>
      </trkpt>
      <trkpt lat="48.44572" lon="2.69344">
        <ele>34</ele>
        <time>2013-09-26T12:54:45Z</time>
      </trkpt>
      <trkpt lat="48.44575" lon="2.69338">
        <ele>33</ele>
        <time>2013-09-26T12:54:47Z</time>
      </trkpt>
      <trkpt lat="48.44578" lon="2.69333">
        <ele>33</ele>
        <time>2013-09-26T12:54:49Z</time>
      </trkpt>
      <trkpt lat="48.44585" lon="2.69332">
        <ele>33</ele>
        <time>2013-09-26T12:54:53Z</time>
      </trkpt>
      <trkpt lat="48.44589" lon="2.6933">
        <ele>33</ele>
        <time>2013-09-26T12:54:55Z</time>
      </trkpt>
      <trkpt lat="48.44594" lon="2.6933">
        <ele>32</ele>
        <time>2013-09-26T12:54:59Z</time>
      </trkpt>
      <trkpt lat="48.44595" lon="2.69327">
        <ele>32</ele>
        <time>2013-09-26T12:55:01Z</time>
      </trkpt>
      <trkpt lat="48.44597" lon="2.69327">
        <ele>32</ele>
        <time>2013-09-26T12:55:03Z</time>
      </trkpt>
      <trkpt lat="48.446" lon="2.69323">
        <ele>32</ele>
        <time>2013-09-26T12:55:05Z</time>
      </trkpt>
      <trkpt lat="48.44605" lon="2.6932">
        <ele>32</ele>
        <time>2013-09-26T12:55:07Z</time>
      </trkpt>
      <trkpt lat="48.44612" lon="2.69321">
        <ele>32</ele>
        <time>2013-09-26T12:55:09Z</time>
      </trkpt>
      <trkpt lat="48.44618" lon="2.69324">
        <ele>32</ele>
        <time>2013-09-26T12:55:11Z</time>
      </trkpt>
      <trkpt lat="48.44626" lon="2.69332">
        <ele>32</ele>
        <time>2013-09-26T12:55:14Z</time>
      </trkpt>
      <trkpt lat="48.44629" lon="2.69335">
        <ele>32</ele>
        <time>2013-09-26T12:55:15Z</time>
      </trkpt>
      <trkpt lat="48.44641" lon="2.69347">
        <ele>32</ele>
        <time>2013-09-26T12:55:19Z</time>
      </trkpt>
      <trkpt lat="48.44647" lon="2.69353">
        <ele>32</ele>
        <time>2013-09-26T12:55:21Z</time>
      </trkpt>
      <trkpt lat="48.44652" lon="2.69363">
        <ele>32</ele>
        <time>2013-09-26T12:55:23Z</time>
      </trkpt>
      <trkpt lat="48.44657" lon="2.6937">
        <ele>32</ele>
        <time>2013-09-26T12:55:25Z</time>
      </trkpt>
      <trkpt lat="48.44662" lon="2.69374">
        <ele>32</ele>
        <time>2013-09-26T12:55:27Z</time>
      </trkpt>
      <trkpt lat="48.44668" lon="2.69376">
        <ele>32</ele>
        <time>2013-09-26T12:55:29Z</time>
      </trkpt>
      <trkpt lat="48.44673" lon="2.6938">
        <ele>32</ele>
        <time>2013-09-26T12:55:31Z</time>
      </trkpt>
      <trkpt lat="48.44685" lon="2.69386">
        <ele>32</ele>
        <time>2013-09-26T12:55:35Z</time>
      </trkpt>
      <trkpt lat="48.44695" lon="2.69391">
        <ele>32</ele>
        <time>2013-09-26T12:55:38Z</time>
      </trkpt>
      <trkpt lat="48.44705" lon="2.69394">
        <ele>32</ele>
        <time>2013-09-26T12:55:41Z</time>
      </trkpt>
      <trkpt lat="48.44711" lon="2.69393">
        <ele>32</ele>
        <time>2013-09-26T12:55:43Z</time>
      </trkpt>
      <trkpt lat="48.44716" lon="2.69391">
        <ele>32</ele>
        <time>2013-09-26T12:55:45Z</time>
      </trkpt>
      <trkpt lat="48.4472" lon="2.69389">
        <ele>32</ele>
        <time>2013-09-26T12:55:47Z</time>
      </trkpt>
      <trkpt lat="48.44725" lon="2.69385">
        <ele>32</ele>
        <time>2013-09-26T12:55:49Z</time>
      </trkpt>
      <trkpt lat="48.44729" lon="2.69378">
        <ele>32</ele>
        <time>2013-09-26T12:55:51Z</time>
      </trkpt>
      <trkpt lat="48.44737" lon="2.69373">
        <ele>32</ele>
        <time>2013-09-26T12:55:53Z</time>
      </trkpt>
      <trkpt lat="48.44744" lon="2.69371">
        <ele>32</ele>
        <time>2013-09-26T12:55:55Z</time>
      </trkpt>
      <trkpt lat="48.4475" lon="2.69366">
        <ele>32</ele>
        <time>2013-09-26T12:55:57Z</time>
      </trkpt>
      <trkpt lat="48.44757" lon="2.6936">
        <ele>32</ele>
        <time>2013-09-26T12:56:00Z</time>
      </trkpt>
      <trkpt lat="48.44764" lon="2.6936">
        <ele>32</ele>
        <time>2013-09-26T12:56:02Z</time>
      </trkpt>
      <trkpt lat="48.44775" lon="2.69366">
        <ele>32</ele>
        <time>2013-09-26T12:56:06Z</time>
      </trkpt>
      <trkpt lat="48.44777" lon="2.69367">
        <ele>32</ele>
        <time>2013-09-26T12:56:08Z</time>
      </trkpt>
      <trkpt lat="48.44779" lon="2.69369">
        <ele>32</ele>
        <time>2013-09-26T12:56:21Z</time>
      </trkpt>
      <trkpt lat="48.44781" lon="2.69373">
        <ele>32</ele>
        <time>2013-09-26T12:56:23Z</time>
      </trkpt>
      <trkpt lat="48.44785" lon="2.69377">
        <ele>32</ele>
        <time>2013-09-26T12:56:25Z</time>
      </trkpt>
      <trkpt lat="48.4479" lon="2.69377">
        <ele>32</ele>
        <time>2013-09-26T12:56:27Z</time>
      </trkpt>
      <trkpt lat="48.44796" lon="2.69376">
        <ele>32</ele>
        <time>2013-09-26T12:56:29Z</time>
      </trkpt>
      <trkpt lat="48.44801" lon="2.69372">
        <ele>32</ele>
        <time>2013-09-26T12:56:31Z</time>
      </trkpt>
      <trkpt lat="48.44807" lon="2.69371">
        <ele>32</ele>
        <time>2013-09-26T12:56:33Z</time>
      </trkpt>
      <trkpt lat="48.4481" lon="2.69372">
        <ele>32</ele>
        <time>2013-09-26T12:56:34Z</time>
      </trkpt>
      <trkpt lat="48.44813" lon="2.69372">
        <ele>32</ele>
        <time>2013-09-26T12:56:35Z</time>
      </trkpt>
      <trkpt lat="48.44825" lon="2.69368">
        <ele>32</ele>
        <time>2013-09-26T12:56:39Z</time>
      </trkpt>
      <trkpt lat="48.44831" lon="2.69365">
        <ele>32</ele>
        <time>2013-09-26T12:56:41Z</time>
      </trkpt>
      <trkpt lat="48.44841" lon="2.69364">
        <ele>32</ele>
        <time>2013-09-26T12:56:45Z</time>
      </trkpt>
      <trkpt lat="48.44845" lon="2.6936">
        <ele>32</ele>
        <time>2013-09-26T12:56:47Z</time>
      </trkpt>
      <trkpt lat="48.44848" lon="2.69356">
        <ele>32</ele>
        <time>2013-09-26T12:56:49Z</time>
      </trkpt>
      <trkpt lat="48.44858" lon="2.69352">
        <ele>32</ele>
        <time>2013-09-26T12:56:53Z</time>
      </trkpt>
      <trkpt lat="48.44861" lon="2.69351">
        <ele>32</ele>
        <time>2013-09-26T12:56:54Z</time>
      </trkpt>
      <trkpt lat="48.44866" lon="2.69351">
        <ele>32</ele>
        <time>2013-09-26T12:56:56Z</time>
      </trkpt>
      <trkpt lat="48.4487" lon="2.6935">
        <ele>32</ele>
        <time>2013-09-26T12:56:58Z</time>
      </trkpt>
      <trkpt lat="48.44872" lon="2.6935">
        <ele>32</ele>
        <time>2013-09-26T12:56:59Z</time>
      </trkpt>
      <trkpt lat="48.44884" lon="2.69351">
        <ele>32</ele>
        <time>2013-09-26T12:57:03Z</time>
      </trkpt>
      <trkpt lat="48.4489" lon="2.69348">
        <ele>32</ele>
        <time>2013-09-26T12:57:05Z</time>
      </trkpt>
      <trkpt lat="48.44897" lon="2.69346">
        <ele>32</ele>
        <time>2013-09-26T12:57:07Z</time>
      </trkpt>
      <trkpt lat="48.44903" lon="2.69342">
        <ele>32</ele>
        <time>2013-09-26T12:57:09Z</time>
      </trkpt>
      <trkpt lat="48.44907" lon="2.69336">
        <ele>32</ele>
        <time>2013-09-26T12:57:11Z</time>
      </trkpt>
      <trkpt lat="48.44917" lon="2.69327">
        <ele>32</ele>
        <time>2013-09-26T12:57:15Z</time>
      </trkpt>
      <trkpt lat="48.4492" lon="2.69325">
        <ele>32</ele>
        <time>2013-09-26T12:57:16Z</time>
      </trkpt>
      <trkpt lat="48.44926" lon="2.69319">
        <ele>32</ele>
        <time>2013-09-26T12:57:19Z</time>
      </trkpt>
      <trkpt lat="48.4493" lon="2.69314">
        <ele>32</ele>
        <time>2013-09-26T12:57:21Z</time>
      </trkpt>
      <trkpt lat="48.44934" lon="2.69309">
        <ele>32</ele>
        <time>2013-09-26T12:57:23Z</time>
      </trkpt>
      <trkpt lat="48.44937" lon="2.69301">
        <ele>32</ele>
        <time>2013-09-26T12:57:25Z</time>
      </trkpt>
      <trkpt lat="48.44945" lon="2.69287">
        <ele>32</ele>
        <time>2013-09-26T12:57:29Z</time>
      </trkpt>
      <trkpt lat="48.44948" lon="2.69285">
        <ele>32</ele>
        <time>2013-09-26T12:57:30Z</time>
      </trkpt>
      <trkpt lat="48.44951" lon="2.69281">
        <ele>32</ele>
        <time>2013-09-26T12:57:32Z</time>
      </trkpt>
      <trkpt lat="48.44952" lon="2.69281">
        <ele>32</ele>
        <time>2013-09-26T12:57:33Z</time>
      </trkpt>
      <trkpt lat="48.44954" lon="2.69279">
        <ele>32</ele>
        <time>2013-09-26T12:57:39Z</time>
      </trkpt>
      <trkpt lat="48.44956" lon="2.69275">
        <ele>32</ele>
        <time>2013-09-26T12:57:41Z</time>
      </trkpt>
      <trkpt lat="48.44958" lon="2.6927">
        <ele>32</ele>
        <time>2013-09-26T12:57:43Z</time>
      </trkpt>
      <trkpt lat="48.4496" lon="2.69264">
        <ele>32</ele>
        <time>2013-09-26T12:57:45Z</time>
      </trkpt>
      <trkpt lat="48.44964" lon="2.69259">
        <ele>32</ele>
        <time>2013-09-26T12:57:47Z</time>
      </trkpt>
      <trkpt lat="48.44967" lon="2.69252">
        <ele>32</ele>
        <time>2013-09-26T12:57:49Z</time>
      </trkpt>
      <trkpt lat="48.44969" lon="2.69244">
        <ele>32</ele>
        <time>2013-09-26T12:57:51Z</time>
      </trkpt>
      <trkpt lat="48.44972" lon="2.69239">
        <ele>32</ele>
        <time>2013-09-26T12:57:53Z</time>
      </trkpt>
      <trkpt lat="48.44974" lon="2.69236">
        <ele>32</ele>
        <time>2013-09-26T12:57:55Z</time>
      </trkpt>
      <trkpt lat="48.44973" lon="2.69231">
        <ele>32</ele>
        <time>2013-09-26T12:58:01Z</time>
      </trkpt>
      <trkpt lat="48.44971" lon="2.69227">
        <ele>32</ele>
        <time>2013-09-26T12:58:03Z</time>
      </trkpt>
      <trkpt lat="48.44968" lon="2.69219">
        <ele>32</ele>
        <time>2013-09-26T12:58:07Z</time>
      </trkpt>
      <trkpt lat="48.44965" lon="2.69204">
        <ele>32</ele>
        <time>2013-09-26T12:58:11Z</time>
      </trkpt>
      <trkpt lat="48.44962" lon="2.6919">
        <ele>32</ele>
        <time>2013-09-26T12:58:14Z</time>
      </trkpt>
      <trkpt lat="48.44959" lon="2.69181">
        <ele>32</ele>
        <time>2013-09-26T12:58:16Z</time>
      </trkpt>
      <trkpt lat="48.44955" lon="2.69168">
        <ele>32</ele>
        <time>2013-09-26T12:58:19Z</time>
      </trkpt>
      <trkpt lat="48.44952" lon="2.69159">
        <ele>32</ele>
        <time>2013-09-26T12:58:21Z</time>
      </trkpt>
      <trkpt lat="48.44948" lon="2.69145">
        <ele>32</ele>
        <time>2013-09-26T12:58:24Z</time>
      </trkpt>
      <trkpt lat="48.44945" lon="2.69132">
        <ele>32</ele>
        <time>2013-09-26T12:58:27Z</time>
      </trkpt>
      <trkpt lat="48.44942" lon="2.69122">
        <ele>32</ele>
        <time>2013-09-26T12:58:29Z</time>
      </trkpt>
      <trkpt lat="48.44939" lon="2.69109">
        <ele>32</ele>
        <time>2013-09-26T12:58:32Z</time>
      </trkpt>
      <trkpt lat="48.44935" lon="2.69096">
        <ele>32</ele>
        <time>2013-09-26T12:58:35Z</time>
      </trkpt>
      <trkpt lat="48.44932" lon="2.69088">
        <ele>32</ele>
        <time>2013-09-26T12:58:37Z</time>
      </trkpt>
      <trkpt lat="48.4493" lon="2.6908">
        <ele>32</ele>
        <time>2013-09-26T12:58:39Z</time>
      </trkpt>
      <trkpt lat="48.44928" lon="2.69075">
        <ele>32</ele>
        <time>2013-09-26T12:58:40Z</time>
      </trkpt>
      <trkpt lat="48.44926" lon="2.69066">
        <ele>32</ele>
        <time>2013-09-26T12:58:42Z</time>
      </trkpt>
      <trkpt lat="48.44923" lon="2.69053">
        <ele>32</ele>
        <time>2013-09-26T12:58:46Z</time>
      </trkpt>
      <trkpt lat="48.44922" lon="2.69051">
        <ele>32</ele>
        <time>2013-09-26T12:58:47Z</time>
      </trkpt>
      <trkpt lat="48.44921" lon="2.69047">
        <ele>32</ele>
        <time>2013-09-26T12:58:54Z</time>
      </trkpt>
      <trkpt lat="48.4492" lon="2.69044">
        <ele>32</ele>
        <time>2013-09-26T12:59:00Z</time>
      </trkpt>
      <trkpt lat="48.44919" lon="2.69042">
        <ele>32</ele>
        <time>2013-09-26T12:59:03Z</time>
      </trkpt>
      <trkpt lat="48.44918" lon="2.69038">
        <ele>32</ele>
        <time>2013-09-26T12:59:05Z</time>
      </trkpt>
      <trkpt lat="48.44916" lon="2.69033">
        <ele>32</ele>
        <time>2013-09-26T12:59:07Z</time>
      </trkpt>
      <trkpt lat="48.44914" lon="2.69024">
        <ele>32</ele>
        <time>2013-09-26T12:59:10Z</time>
      </trkpt>
      <trkpt lat="48.44913" lon="2.69019">
        <ele>32</ele>
        <time>2013-09-26T12:59:12Z</time>
      </trkpt>
      <trkpt lat="48.44912" lon="2.69014">
        <ele>32</ele>
        <time>2013-09-26T12:59:14Z</time>
      </trkpt>
      <trkpt lat="48.44911" lon="2.6901">
        <ele>32</ele>
        <time>2013-09-26T12:59:17Z</time>
      </trkpt>
      <trkpt lat="48.44913" lon="2.69007">
        <ele>32</ele>
        <time>2013-09-26T12:59:24Z</time>
      </trkpt>
      <trkpt lat="48.44911" lon="2.69006">
        <ele>32</ele>
        <time>2013-09-26T12:59:34Z</time>
      </trkpt>
      <trkpt lat="48.44909" lon="2.69009">
        <ele>32</ele>
        <time>2013-09-26T12:59:38Z</time>
      </trkpt>
      <trkpt lat="48.44911" lon="2.6901">
        <ele>32</ele>
        <time>2013-09-26T12:59:51Z</time>
      </trkpt>
      <trkpt lat="48.44913" lon="2.69011">
        <ele>32</ele>
        <time>2013-09-26T13:00:00Z</time>
      </trkpt>
      <trkpt lat="48.44912" lon="2.69011">
        <ele>32</ele>
        <time>2013-09-26T13:00:11Z</time>
      </trkpt>
      <trkpt lat="48.44911" lon="2.6901">
        <ele>32</ele>
        <time>2013-09-26T13:00:13Z</time>
      </trkpt>
      <trkpt lat="48.44913" lon="2.6901">
        <ele>32</ele>
        <time>2013-09-26T13:00:19Z</time>
      </trkpt>
      <trkpt lat="48.44916" lon="2.69009">
        <ele>32</ele>
        <time>2013-09-26T13:00:22Z</time>
      </trkpt>
      <trkpt lat="48.44915" lon="2.69007">
        <ele>32</ele>
        <time>2013-09-26T13:00:33Z</time>
      </trkpt>
      <trkpt lat="48.44917" lon="2.69007">
        <ele>32</ele>
        <time>2013-09-26T13:00:40Z</time>
      </trkpt>
      <trkpt lat="48.44914" lon="2.69007">
        <ele>32</ele>
        <time>2013-09-26T13:00:53Z</time>
      </trkpt>
      <trkpt lat="48.44912" lon="2.69005">
        <ele>32</ele>
        <time>2013-09-26T13:00:58Z</time>
      </trkpt>
      <trkpt lat="48.44914" lon="2.69004">
        <ele>32</ele>
        <time>2013-09-26T13:01:13Z</time>
      </trkpt>
      <trkpt lat="48.44916" lon="2.69004">
        <ele>32</ele>
        <time>2013-09-26T13:01:18Z</time>
      </trkpt>
      <trkpt lat="48.44914" lon="2.69008">
        <ele>32</ele>
        <time>2013-09-26T13:01:23Z</time>
      </trkpt>
      <trkpt lat="48.44913" lon="2.69012">
        <ele>32</ele>
        <time>2013-09-26T13:01:57Z</time>
      </trkpt>
      <trkpt lat="48.44911" lon="2.69014">
        <ele>32</ele>
        <time>2013-09-26T13:02:13Z</time>
      </trkpt>
      <trkpt lat="48.44911" lon="2.69012">
        <ele>32</ele>
        <time>2013-09-26T13:02:18Z</time>
      </trkpt>
      <trkpt lat="48.44911" lon="2.69008">
        <ele>32</ele>
        <time>2013-09-26T13:02:22Z</time>
      </trkpt>
      <trkpt lat="48.44909" lon="2.69005">
        <ele>32</ele>
        <time>2013-09-26T13:02:37Z</time>
      </trkpt>
      <trkpt lat="48.44908" lon="2.69003">
        <ele>32</ele>
        <time>2013-09-26T13:02:38Z</time>
      </trkpt>
      <trkpt lat="48.44905" lon="2.68991">
        <ele>32</ele>
        <time>2013-09-26T13:02:42Z</time>
      </trkpt>
      <trkpt lat="48.44903" lon="2.68983">
        <ele>32</ele>
        <time>2013-09-26T13:02:44Z</time>
      </trkpt>
      <trkpt lat="48.44901" lon="2.68974">
        <ele>32</ele>
        <time>2013-09-26T13:02:46Z</time>
      </trkpt>
      <trkpt lat="48.44897" lon="2.68964">
        <ele>32</ele>
        <time>2013-09-26T13:02:48Z</time>
      </trkpt>
      <trkpt lat="48.44891" lon="2.68952">
        <ele>32</ele>
        <time>2013-09-26T13:02:51Z</time>
      </trkpt>
      <trkpt lat="48.44889" lon="2.68943">
        <ele>32</ele>
        <time>2013-09-26T13:02:53Z</time>
      </trkpt>
      <trkpt lat="48.44885" lon="2.68927">
        <ele>32</ele>
        <time>2013-09-26T13:02:57Z</time>
      </trkpt>
      <trkpt lat="48.44882" lon="2.68917">
        <ele>32</ele>
        <time>2013-09-26T13:02:59Z</time>
      </trkpt>
      <trkpt lat="48.44877" lon="2.689">
        <ele>32</ele>
        <time>2013-09-26T13:03:03Z</time>
      </trkpt>
      <trkpt lat="48.44876" lon="2.68896">
        <ele>32</ele>
        <time>2013-09-26T13:03:04Z</time>
      </trkpt>
      <trkpt lat="48.44874" lon="2.68886">
        <ele>32</ele>
        <time>2013-09-26T13:03:07Z</time>
      </trkpt>
      <trkpt lat="48.44873" lon="2.68881">
        <ele>32</ele>
        <time>2013-09-26T13:03:09Z</time>
      </trkpt>
      <trkpt lat="48.44868" lon="2.68864">
        <ele>32</ele>
        <time>2013-09-26T13:03:13Z</time>
      </trkpt>
      <trkpt lat="48.44867" lon="2.68856">
        <ele>32</ele>
        <time>2013-09-26T13:03:15Z</time>
      </trkpt>
      <trkpt lat="48.44866" lon="2.68849">
        <ele>32</ele>
        <time>2013-09-26T13:03:17Z</time>
      </trkpt>
      <trkpt lat="48.44861" lon="2.68836">
        <ele>32</ele>
        <time>2013-09-26T13:03:21Z</time>
      </trkpt>
      <trkpt lat="48.4486" lon="2.68834">
        <ele>32</ele>
        <time>2013-09-26T13:03:22Z</time>
      </trkpt>
      <trkpt lat="48.44857" lon="2.68829">
        <ele>32</ele>
        <time>2013-09-26T13:03:24Z</time>
      </trkpt>
      <trkpt lat="48.44856" lon="2.68823">
        <ele>32</ele>
        <time>2013-09-26T13:03:26Z</time>
      </trkpt>
      <trkpt lat="48.44855" lon="2.68819">
        <ele>32</ele>
        <time>2013-09-26T13:03:27Z</time>
      </trkpt>
      <trkpt lat="48.44854" lon="2.68813">
        <ele>32</ele>
        <time>2013-09-26T13:03:29Z</time>
      </trkpt>
      <trkpt lat="48.44853" lon="2.68808">
        <ele>32</ele>
        <time>2013-09-26T13:03:40Z</time>
      </trkpt>
      <trkpt lat="48.44852" lon="2.68804">
        <ele>32</ele>
        <time>2013-09-26T13:03:53Z</time>
      </trkpt>
      <trkpt lat="48.44849" lon="2.68796">
        <ele>32</ele>
        <time>2013-09-26T13:03:55Z</time>
      </trkpt>
      <trkpt lat="48.44847" lon="2.6878">
        <ele>32</ele>
        <time>2013-09-26T13:03:59Z</time>
      </trkpt>
      <trkpt lat="48.44848" lon="2.68775">
        <ele>32</ele>
        <time>2013-09-26T13:04:01Z</time>
      </trkpt>
      <trkpt lat="48.44849" lon="2.6877">
        <ele>32</ele>
        <time>2013-09-26T13:04:03Z</time>
      </trkpt>
      <trkpt lat="48.4485" lon="2.68766">
        <ele>32</ele>
        <time>2013-09-26T13:04:05Z</time>
      </trkpt>
      <trkpt lat="48.4485" lon="2.68761">
        <ele>32</ele>
        <time>2013-09-26T13:04:07Z</time>
      </trkpt>
      <trkpt lat="48.44851" lon="2.68755">
        <ele>32</ele>
        <time>2013-09-26T13:04:09Z</time>
      </trkpt>
      <trkpt lat="48.44852" lon="2.68751">
        <ele>32</ele>
        <time>2013-09-26T13:04:11Z</time>
      </trkpt>
      <trkpt lat="48.44853" lon="2.68743">
        <ele>32</ele>
        <time>2013-09-26T13:04:15Z</time>
      </trkpt>
      <trkpt lat="48.44854" lon="2.68738">
        <ele>39.6</ele>
        <time>2013-09-26T13:04:17Z</time>
      </trkpt>
      <trkpt lat="48.44855" lon="2.68735">
        <ele>40</ele>
        <time>2013-09-26T13:04:18Z</time>
      </trkpt>
      <trkpt lat="48.44857" lon="2.6873">
        <ele>41</ele>
        <time>2013-09-26T13:04:21Z</time>
      </trkpt>
      <trkpt lat="48.44857" lon="2.68717">
        <ele>41</ele>
        <time>2013-09-26T13:04:25Z</time>
      </trkpt>
      <trkpt lat="48.44857" lon="2.68714">
        <ele>41</ele>
        <time>2013-09-26T13:04:27Z</time>
      </trkpt>
      <trkpt lat="48.44858" lon="2.68709">
        <ele>41</ele>
        <time>2013-09-26T13:04:29Z</time>
      </trkpt>
      <trkpt lat="48.44858" lon="2.68704">
        <ele>41</ele>
        <time>2013-09-26T13:04:37Z</time>
      </trkpt>
      <trkpt lat="48.44858" lon="2.68702">
        <ele>41</ele>
        <time>2013-09-26T13:04:38Z</time>
      </trkpt>
      <trkpt lat="48.44859" lon="2.68697">
        <ele>41</ele>
        <time>2013-09-26T13:04:40Z</time>
      </trkpt>
      <trkpt lat="48.44859" lon="2.68693">
        <ele>41</ele>
        <time>2013-09-26T13:04:42Z</time>
      </trkpt>
      <trkpt lat="48.44859" lon="2.68689">
        <ele>41</ele>
        <time>2013-09-26T13:04:48Z</time>
      </trkpt>
      <trkpt lat="48.4486" lon="2.68686">
        <ele>41</ele>
        <time>2013-09-26T13:04:50Z</time>
      </trkpt>
      <trkpt lat="48.44862" lon="2.68684">
        <ele>41</ele>
        <time>2013-09-26T13:04:52Z</time>
      </trkpt>
      <trkpt lat="48.44866" lon="2.68677">
        <ele>41</ele>
        <time>2013-09-26T13:04:55Z</time>
      </trkpt>
      <trkpt lat="48.44868" lon="2.68672">
        <ele>42</ele>
        <time>2013-09-26T13:04:57Z</time>
      </trkpt>
      <trkpt lat="48.4487" lon="2.68668">
        <ele>42</ele>
        <time>2013-09-26T13:04:59Z</time>
      </trkpt>
      <trkpt lat="48.44871" lon="2.68665">
        <ele>42</ele>
        <time>2013-09-26T13:05:00Z</time>
      </trkpt>
      <trkpt lat="48.44874" lon="2.68662">
        <ele>42</ele>
        <time>2013-09-26T13:05:02Z</time>
      </trkpt>
      <trkpt lat="48.44876" lon="2.68656">
        <ele>42</ele>
        <time>2013-09-26T13:05:04Z</time>
      </trkpt>
      <trkpt lat="48.44881" lon="2.68646">
        <ele>43</ele>
        <time>2013-09-26T13:05:07Z</time>
      </trkpt>
      <trkpt lat="48.44885" lon="2.68634">
        <ele>43</ele>
        <time>2013-09-26T13:05:10Z</time>
      </trkpt>
      <trkpt lat="48.44887" lon="2.68625">
        <ele>43</ele>
        <time>2013-09-26T13:05:12Z</time>
      </trkpt>
      <trkpt lat="48.44888" lon="2.68621">
        <ele>43</ele>
        <time>2013-09-26T13:05:13Z</time>
      </trkpt>
      <trkpt lat="48.44892" lon="2.68614">
        <ele>43</ele>
        <time>2013-09-26T13:05:15Z</time>
      </trkpt>
      <trkpt lat="48.44896" lon="2.68609">
        <ele>43</ele>
        <time>2013-09-26T13:05:17Z</time>
      </trkpt>
      <trkpt lat="48.44899" lon="2.68602">
        <ele>43</ele>
        <time>2013-09-26T13:05:19Z</time>
      </trkpt>
      <trkpt lat="48.44901" lon="2.68595">
        <ele>43</ele>
        <time>2013-09-26T13:05:21Z</time>
      </trkpt>
      <trkpt lat="48.44903" lon="2.68586">
        <ele>43</ele>
        <time>2013-09-26T13:05:23Z</time>
      </trkpt>
      <trkpt lat="48.44906" lon="2.68574">
        <ele>43</ele>
        <time>2013-09-26T13:05:25Z</time>
      </trkpt>
      <trkpt lat="48.44908" lon="2.68567">
        <ele>42.4</ele>
        <time>2013-09-26T13:05:26Z</time>
      </trkpt>
      <trkpt lat="48.44911" lon="2.68543">
        <ele>42</ele>
        <time>2013-09-26T13:05:29Z</time>
      </trkpt>
      <trkpt lat="48.44914" lon="2.68529">
        <ele>42</ele>
        <time>2013-09-26T13:05:31Z</time>
      </trkpt>
      <trkpt lat="48.44919" lon="2.68518">
        <ele>42</ele>
        <time>2013-09-26T13:05:33Z</time>
      </trkpt>
      <trkpt lat="48.44926" lon="2.68499">
        <ele>41</ele>
        <time>2013-09-26T13:05:37Z</time>
      </trkpt>
      <trkpt lat="48.44929" lon="2.68495">
        <ele>41</ele>
        <time>2013-09-26T13:05:39Z</time>
      </trkpt>
      <trkpt lat="48.4493" lon="2.68493">
        <ele>41</ele>
        <time>2013-09-26T13:05:40Z</time>
      </trkpt>
      <trkpt lat="48.44932" lon="2.68488">
        <ele>41</ele>
        <time>2013-09-26T13:05:42Z</time>
      </trkpt>
      <trkpt lat="48.44934" lon="2.6848">
        <ele>41</ele>
        <time>2013-09-26T13:05:45Z</time>
      </trkpt>
      <trkpt lat="48.44935" lon="2.68474">
        <ele>41</ele>
        <time>2013-09-26T13:05:47Z</time>
      </trkpt>
      <trkpt lat="48.44937" lon="2.68469">
        <ele>41</ele>
        <time>2013-09-26T13:05:49Z</time>
      </trkpt>
      <trkpt lat="48.44939" lon="2.68463">
        <ele>41</ele>
        <time>2013-09-26T13:05:51Z</time>
      </trkpt>
      <trkpt lat="48.44941" lon="2.68458">
        <ele>41</ele>
        <time>2013-09-26T13:05:53Z</time>
      </trkpt>
      <trkpt lat="48.44942" lon="2.68451">
        <ele>41</ele>
        <time>2013-09-26T13:05:55Z</time>
      </trkpt>
      <trkpt lat="48.44944" lon="2.68447">
        <ele>43</ele>
        <time>2013-09-26T13:05:57Z</time>
      </trkpt>
      <trkpt lat="48.44946" lon="2.68442">
        <ele>43</ele>
        <time>2013-09-26T13:05:59Z</time>
      </trkpt>
      <trkpt lat="48.44948" lon="2.68431">
        <ele>43</ele>
        <time>2013-09-26T13:06:03Z</time>
      </trkpt>
      <trkpt lat="48.4495" lon="2.68425">
        <ele>44</ele>
        <time>2013-09-26T13:06:06Z</time>
      </trkpt>
      <trkpt lat="48.44951" lon="2.68422">
        <ele>45</ele>
        <time>2013-09-26T13:06:07Z</time>
      </trkpt>
      <trkpt lat="48.44951" lon="2.68417">
        <ele>45</ele>
        <time>2013-09-26T13:06:09Z</time>
      </trkpt>
      <trkpt lat="48.44952" lon="2.68412">
        <ele>45</ele>
        <time>2013-09-26T13:06:11Z</time>
      </trkpt>
      <trkpt lat="48.44953" lon="2.68408">
        <ele>45</ele>
        <time>2013-09-26T13:06:13Z</time>
      </trkpt>
      <trkpt lat="48.44954" lon="2.68404">
        <ele>45</ele>
        <time>2013-09-26T13:06:15Z</time>
      </trkpt>
      <trkpt lat="48.44955" lon="2.68398">
        <ele>46</ele>
        <time>2013-09-26T13:06:17Z</time>
      </trkpt>
      <trkpt lat="48.44956" lon="2.68394">
        <ele>46</ele>
        <time>2013-09-26T13:06:19Z</time>
      </trkpt>
      <trkpt lat="48.44957" lon="2.68392">
        <ele>46</ele>
        <time>2013-09-26T13:06:20Z</time>
      </trkpt>
      <trkpt lat="48.44958" lon="2.68386">
        <ele>46</ele>
        <time>2013-09-26T13:06:22Z</time>
      </trkpt>
      <trkpt lat="48.4496" lon="2.68383">
        <ele>46</ele>
        <time>2013-09-26T13:06:24Z</time>
      </trkpt>
      <trkpt lat="48.4496" lon="2.68376">
        <ele>47</ele>
        <time>2013-09-26T13:06:27Z</time>
      </trkpt>
      <trkpt lat="48.4496" lon="2.68368">
        <ele>47</ele>
        <time>2013-09-26T13:06:30Z</time>
      </trkpt>
      <trkpt lat="48.44963" lon="2.68353">
        <ele>47</ele>
        <time>2013-09-26T13:06:34Z</time>
      </trkpt>
      <trkpt lat="48.44963" lon="2.68345">
        <ele>46.5</ele>
        <time>2013-09-26T13:06:36Z</time>
      </trkpt>
      <trkpt lat="48.44963" lon="2.68341">
        <ele>46</ele>
        <time>2013-09-26T13:06:37Z</time>
      </trkpt>
      <trkpt lat="48.44961" lon="2.68334">
        <ele>46</ele>
        <time>2013-09-26T13:06:39Z</time>
      </trkpt>
      <trkpt lat="48.44959" lon="2.68329">
        <ele>46</ele>
        <time>2013-09-26T13:06:41Z</time>
      </trkpt>
      <trkpt lat="48.44957" lon="2.68323">
        <ele>46</ele>
        <time>2013-09-26T13:06:43Z</time>
      </trkpt>
      <trkpt lat="48.44954" lon="2.68313">
        <ele>46</ele>
        <time>2013-09-26T13:06:46Z</time>
      </trkpt>
      <trkpt lat="48.44952" lon="2.68309">
        <ele>46</ele>
        <time>2013-09-26T13:06:47Z</time>
      </trkpt>
      <trkpt lat="48.4495" lon="2.68304">
        <ele>46</ele>
        <time>2013-09-26T13:06:49Z</time>
      </trkpt>
      <trkpt lat="48.44946" lon="2.68291">
        <ele>46</ele>
        <time>2013-09-26T13:06:53Z</time>
      </trkpt>
      <trkpt lat="48.44943" lon="2.68285">
        <ele>46</ele>
        <time>2013-09-26T13:06:55Z</time>
      </trkpt>
      <trkpt lat="48.44939" lon="2.68273">
        <ele>48</ele>
        <time>2013-09-26T13:06:59Z</time>
      </trkpt>
      <trkpt lat="48.44938" lon="2.6827">
        <ele>48</ele>
        <time>2013-09-26T13:07:00Z</time>
      </trkpt>
      <trkpt lat="48.44935" lon="2.68261">
        <ele>48</ele>
        <time>2013-09-26T13:07:03Z</time>
      </trkpt>
      <trkpt lat="48.44932" lon="2.68252">
        <ele>48</ele>
        <time>2013-09-26T13:07:06Z</time>
      </trkpt>
      <trkpt lat="48.44929" lon="2.68244">
        <ele>48</ele>
        <time>2013-09-26T13:07:09Z</time>
      </trkpt>
      <trkpt lat="48.44927" lon="2.68232">
        <ele>48</ele>
        <time>2013-09-26T13:07:13Z</time>
      </trkpt>
      <trkpt lat="48.44927" lon="2.68226">
        <ele>48</ele>
        <time>2013-09-26T13:07:15Z</time>
      </trkpt>
      <trkpt lat="48.44927" lon="2.68213">
        <ele>49</ele>
        <time>2013-09-26T13:07:19Z</time>
      </trkpt>
      <trkpt lat="48.44927" lon="2.68208">
        <ele>49</ele>
        <time>2013-09-26T13:07:21Z</time>
      </trkpt>
      <trkpt lat="48.44925" lon="2.68195">
        <ele>49</ele>
        <time>2013-09-26T13:07:25Z</time>
      </trkpt>
      <trkpt lat="48.44926" lon="2.6819">
        <ele>51</ele>
        <time>2013-09-26T13:07:27Z</time>
      </trkpt>
      <trkpt lat="48.44925" lon="2.68178">
        <ele>51</ele>
        <time>2013-09-26T13:07:31Z</time>
      </trkpt>
      <trkpt lat="48.44925" lon="2.68166">
        <ele>51</ele>
        <time>2013-09-26T13:07:35Z</time>
      </trkpt>
      <trkpt lat="48.44925" lon="2.68161">
        <ele>51</ele>
        <time>2013-09-26T13:07:37Z</time>
      </trkpt>
      <trkpt lat="48.44926" lon="2.68155">
        <ele>51</ele>
        <time>2013-09-26T13:07:39Z</time>
      </trkpt>
      <trkpt lat="48.44926" lon="2.68152">
        <ele>51</ele>
        <time>2013-09-26T13:07:40Z</time>
      </trkpt>
      <trkpt lat="48.44926" lon="2.68146">
        <ele>51</ele>
        <time>2013-09-26T13:07:42Z</time>
      </trkpt>
      <trkpt lat="48.44926" lon="2.68144">
        <ele>51</ele>
        <time>2013-09-26T13:07:43Z</time>
      </trkpt>
      <trkpt lat="48.44924" lon="2.6814">
        <ele>51</ele>
        <time>2013-09-26T13:07:45Z</time>
      </trkpt>
      <trkpt lat="48.44922" lon="2.68138">
        <ele>52</ele>
        <time>2013-09-26T13:07:47Z</time>
      </trkpt>
      <trkpt lat="48.44919" lon="2.68138">
        <ele>52</ele>
        <time>2013-09-26T13:07:49Z</time>
      </trkpt>
      <trkpt lat="48.44916" lon="2.68137">
        <ele>52</ele>
        <time>2013-09-26T13:07:51Z</time>
      </trkpt>
      <trkpt lat="48.44913" lon="2.68135">
        <ele>52</ele>
        <time>2013-09-26T13:07:53Z</time>
      </trkpt>
      <trkpt lat="48.44909" lon="2.68134">
        <ele>52</ele>
        <time>2013-09-26T13:07:55Z</time>
      </trkpt>
      <trkpt lat="48.44906" lon="2.68134">
        <ele>53</ele>
        <time>2013-09-26T13:07:57Z</time>
      </trkpt>
      <trkpt lat="48.44904" lon="2.68134">
        <ele>53</ele>
        <time>2013-09-26T13:07:58Z</time>
      </trkpt>
      <trkpt lat="48.44902" lon="2.68133">
        <ele>53</ele>
        <time>2013-09-26T13:08:00Z</time>
      </trkpt>
      <trkpt lat="48.44898" lon="2.68132">
        <ele>53</ele>
        <time>2013-09-26T13:08:02Z</time>
      </trkpt>
      <trkpt lat="48.44894" lon="2.6813">
        <ele>53</ele>
        <time>2013-09-26T13:08:05Z</time>
      </trkpt>
      <trkpt lat="48.44892" lon="2.68129">
        <ele>53.6</ele>
        <time>2013-09-26T13:08:06Z</time>
      </trkpt>
      <trkpt lat="48.44886" lon="2.68126">
        <ele>54</ele>
        <time>2013-09-26T13:08:10Z</time>
      </trkpt>
      <trkpt lat="48.44882" lon="2.68124">
        <ele>54</ele>
        <time>2013-09-26T13:08:12Z</time>
      </trkpt>
      <trkpt lat="48.44877" lon="2.68124">
        <ele>54</ele>
        <time>2013-09-26T13:08:15Z</time>
      </trkpt>
      <trkpt lat="48.44874" lon="2.68123">
        <ele>54</ele>
        <time>2013-09-26T13:08:17Z</time>
      </trkpt>
      <trkpt lat="48.4487" lon="2.68121">
        <ele>54</ele>
        <time>2013-09-26T13:08:19Z</time>
      </trkpt>
      <trkpt lat="48.44866" lon="2.68119">
        <ele>54</ele>
        <time>2013-09-26T13:08:21Z</time>
      </trkpt>
      <trkpt lat="48.4486" lon="2.68116">
        <ele>54</ele>
        <time>2013-09-26T13:08:25Z</time>
      </trkpt>
      <trkpt lat="48.44856" lon="2.68116">
        <ele>55</ele>
        <time>2013-09-26T13:08:27Z</time>
      </trkpt>
      <trkpt lat="48.44851" lon="2.68114">
        <ele>55</ele>
        <time>2013-09-26T13:08:30Z</time>
      </trkpt>
      <trkpt lat="48.44848" lon="2.68113">
        <ele>55</ele>
        <time>2013-09-26T13:08:32Z</time>
      </trkpt>
      <trkpt lat="48.44844" lon="2.68112">
        <ele>55</ele>
        <time>2013-09-26T13:08:34Z</time>
      </trkpt>
      <trkpt lat="48.44841" lon="2.6811">
        <ele>55.6</ele>
        <time>2013-09-26T13:08:36Z</time>
      </trkpt>
      <trkpt lat="48.44838" lon="2.68108">
        <ele>56</ele>
        <time>2013-09-26T13:08:38Z</time>
      </trkpt>
      <trkpt lat="48.44834" lon="2.68108">
        <ele>56</ele>
        <time>2013-09-26T13:08:40Z</time>
      </trkpt>
      <trkpt lat="48.4483" lon="2.68107">
        <ele>56</ele>
        <time>2013-09-26T13:08:43Z</time>
      </trkpt>
      <trkpt lat="48.44827" lon="2.68106">
        <ele>56</ele>
        <time>2013-09-26T13:08:45Z</time>
      </trkpt>
      <trkpt lat="48.44823" lon="2.68106">
        <ele>58</ele>
        <time>2013-09-26T13:08:47Z</time>
      </trkpt>
      <trkpt lat="48.44822" lon="2.68105">
        <ele>58</ele>
        <time>2013-09-26T13:08:48Z</time>
      </trkpt>
      <trkpt lat="48.4482" lon="2.68106">
        <ele>58</ele>
        <time>2013-09-26T13:08:50Z</time>
      </trkpt>
      <trkpt lat="48.44817" lon="2.68106">
        <ele>58</ele>
        <time>2013-09-26T13:08:52Z</time>
      </trkpt>
      <trkpt lat="48.44815" lon="2.68106">
        <ele>58</ele>
        <time>2013-09-26T13:08:53Z</time>
      </trkpt>
      <trkpt lat="48.44811" lon="2.68104">
        <ele>58.6</ele>
        <time>2013-09-26T13:08:56Z</time>
      </trkpt>
      <trkpt lat="48.44807" lon="2.68103">
        <ele>59</ele>
        <time>2013-09-26T13:08:58Z</time>
      </trkpt>
      <trkpt lat="48.44801" lon="2.68099">
        <ele>59</ele>
        <time>2013-09-26T13:09:02Z</time>
      </trkpt>
      <trkpt lat="48.44798" lon="2.68098">
        <ele>59</ele>
        <time>2013-09-26T13:09:04Z</time>
      </trkpt>
      <trkpt lat="48.44796" lon="2.68096">
        <ele>59.5</ele>
        <time>2013-09-26T13:09:06Z</time>
      </trkpt>
      <trkpt lat="48.44795" lon="2.68096">
        <ele>60</ele>
        <time>2013-09-26T13:09:07Z</time>
      </trkpt>
      <trkpt lat="48.44789" lon="2.68092">
        <ele>60</ele>
        <time>2013-09-26T13:09:11Z</time>
      </trkpt>
      <trkpt lat="48.44788" lon="2.68091">
        <ele>60</ele>
        <time>2013-09-26T13:09:12Z</time>
      </trkpt>
      <trkpt lat="48.44785" lon="2.6809">
        <ele>60</ele>
        <time>2013-09-26T13:09:14Z</time>
      </trkpt>
      <trkpt lat="48.44784" lon="2.68089">
        <ele>60</ele>
        <time>2013-09-26T13:09:15Z</time>
      </trkpt>
      <trkpt lat="48.44779" lon="2.68085">
        <ele>62</ele>
        <time>2013-09-26T13:09:19Z</time>
      </trkpt>
      <trkpt lat="48.44777" lon="2.68083">
        <ele>62</ele>
        <time>2013-09-26T13:09:21Z</time>
      </trkpt>
      <trkpt lat="48.44775" lon="2.68082">
        <ele>62</ele>
        <time>2013-09-26T13:09:22Z</time>
      </trkpt>
      <trkpt lat="48.44772" lon="2.6808">
        <ele>62</ele>
        <time>2013-09-26T13:09:25Z</time>
      </trkpt>
      <trkpt lat="48.44767" lon="2.68078">
        <ele>63</ele>
        <time>2013-09-26T13:09:28Z</time>
      </trkpt>
      <trkpt lat="48.44764" lon="2.68077">
        <ele>63</ele>
        <time>2013-09-26T13:09:30Z</time>
      </trkpt>
      <trkpt lat="48.44761" lon="2.68076">
        <ele>63</ele>
        <time>2013-09-26T13:09:32Z</time>
      </trkpt>
      <trkpt lat="48.44758" lon="2.68074">
        <ele>63</ele>
        <time>2013-09-26T13:09:34Z</time>
      </trkpt>
      <trkpt lat="48.44755" lon="2.68073">
        <ele>63.6</ele>
        <time>2013-09-26T13:09:36Z</time>
      </trkpt>
      <trkpt lat="48.4475" lon="2.68072">
        <ele>64</ele>
        <time>2013-09-26T13:09:39Z</time>
      </trkpt>
      <trkpt lat="48.44746" lon="2.68071">
        <ele>64</ele>
        <time>2013-09-26T13:09:42Z</time>
      </trkpt>
      <trkpt lat="48.44744" lon="2.6807">
        <ele>64</ele>
        <time>2013-09-26T13:09:44Z</time>
      </trkpt>
      <trkpt lat="48.44741" lon="2.68069">
        <ele>64.5</ele>
        <time>2013-09-26T13:09:46Z</time>
      </trkpt>
      <trkpt lat="48.44739" lon="2.68069">
        <ele>65</ele>
        <time>2013-09-26T13:09:48Z</time>
      </trkpt>
      <trkpt lat="48.44737" lon="2.68068">
        <ele>65</ele>
        <time>2013-09-26T13:09:49Z</time>
      </trkpt>
      <trkpt lat="48.44734" lon="2.68067">
        <ele>65</ele>
        <time>2013-09-26T13:09:51Z</time>
      </trkpt>
      <trkpt lat="48.44729" lon="2.68065">
        <ele>65</ele>
        <time>2013-09-26T13:09:55Z</time>
      </trkpt>
      <trkpt lat="48.44728" lon="2.68064">
        <ele>66</ele>
        <time>2013-09-26T13:09:57Z</time>
      </trkpt>
      <trkpt lat="48.44727" lon="2.68066">
        <ele>66</ele>
        <time>2013-09-26T13:10:07Z</time>
      </trkpt>
      <trkpt lat="48.44724" lon="2.68068">
        <ele>66</ele>
        <time>2013-09-26T13:10:11Z</time>
      </trkpt>
      <trkpt lat="48.44722" lon="2.68068">
        <ele>66</ele>
        <time>2013-09-26T13:10:15Z</time>
      </trkpt>
      <trkpt lat="48.44719" lon="2.68068">
        <ele>67</ele>
        <time>2013-09-26T13:10:20Z</time>
      </trkpt>
      <trkpt lat="48.44716" lon="2.68067">
        <ele>67</ele>
        <time>2013-09-26T13:10:24Z</time>
      </trkpt>
      <trkpt lat="48.44713" lon="2.68066">
        <ele>67</ele>
        <time>2013-09-26T13:10:27Z</time>
      </trkpt>
      <trkpt lat="48.44712" lon="2.68066">
        <ele>67</ele>
        <time>2013-09-26T13:10:29Z</time>
      </trkpt>
      <trkpt lat="48.44709" lon="2.68065">
        <ele>67</ele>
        <time>2013-09-26T13:10:33Z</time>
      </trkpt>
      <trkpt lat="48.44707" lon="2.68064">
        <ele>67</ele>
        <time>2013-09-26T13:10:35Z</time>
      </trkpt>
      <trkpt lat="48.44705" lon="2.68065">
        <ele>68</ele>
        <time>2013-09-26T13:10:39Z</time>
      </trkpt>
      <trkpt lat="48.44702" lon="2.68065">
        <ele>68</ele>
        <time>2013-09-26T13:10:43Z</time>
      </trkpt>
      <trkpt lat="48.447" lon="2.68065">
        <ele>68.5</ele>
        <time>2013-09-26T13:10:46Z</time>
      </trkpt>
      <trkpt lat="48.44698" lon="2.68066">
        <ele>69</ele>
        <time>2013-09-26T13:10:49Z</time>
      </trkpt>
      <trkpt lat="48.44697" lon="2.68064">
        <ele>69</ele>
        <time>2013-09-26T13:10:51Z</time>
      </trkpt>
      <trkpt lat="48.44696" lon="2.68062">
        <ele>70</ele>
        <time>2013-09-26T13:10:57Z</time>
      </trkpt>
      <trkpt lat="48.44694" lon="2.68062">
        <ele>70</ele>
        <time>2013-09-26T13:10:59Z</time>
      </trkpt>
      <trkpt lat="48.44692" lon="2.6806">
        <ele>70</ele>
        <time>2013-09-26T13:11:01Z</time>
      </trkpt>
      <trkpt lat="48.4469" lon="2.68058">
        <ele>70</ele>
        <time>2013-09-26T13:11:03Z</time>
      </trkpt>
      <trkpt lat="48.44688" lon="2.68056">
        <ele>70</ele>
        <time>2013-09-26T13:11:05Z</time>
      </trkpt>
      <trkpt lat="48.44686" lon="2.68055">
        <ele>70</ele>
        <time>2013-09-26T13:11:07Z</time>
      </trkpt>
      <trkpt lat="48.44684" lon="2.68054">
        <ele>70</ele>
        <time>2013-09-26T13:11:11Z</time>
      </trkpt>
      <trkpt lat="48.44681" lon="2.68051">
        <ele>70</ele>
        <time>2013-09-26T13:11:15Z</time>
      </trkpt>
      <trkpt lat="48.4468" lon="2.68049">
        <ele>71</ele>
        <time>2013-09-26T13:11:17Z</time>
      </trkpt>
      <trkpt lat="48.44678" lon="2.68048">
        <ele>71</ele>
        <time>2013-09-26T13:11:20Z</time>
      </trkpt>
      <trkpt lat="48.44676" lon="2.68047">
        <ele>71</ele>
        <time>2013-09-26T13:11:22Z</time>
      </trkpt>
      <trkpt lat="48.44673" lon="2.68045">
        <ele>71</ele>
        <time>2013-09-26T13:11:25Z</time>
      </trkpt>
      <trkpt lat="48.44672" lon="2.68044">
        <ele>73</ele>
        <time>2013-09-26T13:11:27Z</time>
      </trkpt>
      <trkpt lat="48.4467" lon="2.68042">
        <ele>73</ele>
        <time>2013-09-26T13:11:29Z</time>
      </trkpt>
      <trkpt lat="48.44669" lon="2.6804">
        <ele>73</ele>
        <time>2013-09-26T13:11:31Z</time>
      </trkpt>
      <trkpt lat="48.44667" lon="2.68038">
        <ele>73</ele>
        <time>2013-09-26T13:11:34Z</time>
      </trkpt>
      <trkpt lat="48.44664" lon="2.68035">
        <ele>74</ele>
        <time>2013-09-26T13:11:37Z</time>
      </trkpt>
      <trkpt lat="48.44662" lon="2.68032">
        <ele>74</ele>
        <time>2013-09-26T13:11:40Z</time>
      </trkpt>
      <trkpt lat="48.4466" lon="2.68032">
        <ele>74</ele>
        <time>2013-09-26T13:11:44Z</time>
      </trkpt>
      <trkpt lat="48.44659" lon="2.6803">
        <ele>74.6</ele>
        <time>2013-09-26T13:11:46Z</time>
      </trkpt>
      <trkpt lat="48.44657" lon="2.68028">
        <ele>75</ele>
        <time>2013-09-26T13:11:49Z</time>
      </trkpt>
      <trkpt lat="48.44655" lon="2.68028">
        <ele>75</ele>
        <time>2013-09-26T13:11:53Z</time>
      </trkpt>
      <trkpt lat="48.44652" lon="2.68028">
        <ele>76</ele>
        <time>2013-09-26T13:11:57Z</time>
      </trkpt>
      <trkpt lat="48.44649" lon="2.68026">
        <ele>76</ele>
        <time>2013-09-26T13:12:01Z</time>
      </trkpt>
      <trkpt lat="48.44647" lon="2.68026">
        <ele>76</ele>
        <time>2013-09-26T13:12:04Z</time>
      </trkpt>
      <trkpt lat="48.44646" lon="2.68025">
        <ele>76.6</ele>
        <time>2013-09-26T13:12:06Z</time>
      </trkpt>
      <trkpt lat="48.44643" lon="2.68024">
        <ele>77</ele>
        <time>2013-09-26T13:12:10Z</time>
      </trkpt>
      <trkpt lat="48.44641" lon="2.68023">
        <ele>77</ele>
        <time>2013-09-26T13:12:12Z</time>
      </trkpt>
      <trkpt lat="48.44638" lon="2.68023">
        <ele>77</ele>
        <time>2013-09-26T13:12:15Z</time>
      </trkpt>
      <trkpt lat="48.44635" lon="2.68022">
        <ele>78</ele>
        <time>2013-09-26T13:12:18Z</time>
      </trkpt>
      <trkpt lat="48.44633" lon="2.68022">
        <ele>78</ele>
        <time>2013-09-26T13:12:20Z</time>
      </trkpt>
      <trkpt lat="48.44631" lon="2.68021">
        <ele>78</ele>
        <time>2013-09-26T13:12:22Z</time>
      </trkpt>
      <trkpt lat="48.44629" lon="2.68018">
        <ele>78</ele>
        <time>2013-09-26T13:12:25Z</time>
      </trkpt>
      <trkpt lat="48.44629" lon="2.68017">
        <ele>78</ele>
        <time>2013-09-26T13:12:31Z</time>
      </trkpt>
      <trkpt lat="48.44626" lon="2.68018">
        <ele>79</ele>
        <time>2013-09-26T13:12:37Z</time>
      </trkpt>
      <trkpt lat="48.44622" lon="2.68018">
        <ele>79</ele>
        <time>2013-09-26T13:12:41Z</time>
      </trkpt>
      <trkpt lat="48.4462" lon="2.68018">
        <ele>79</ele>
        <time>2013-09-26T13:12:43Z</time>
      </trkpt>
      <trkpt lat="48.44616" lon="2.68017">
        <ele>79</ele>
        <time>2013-09-26T13:12:46Z</time>
      </trkpt>
      <trkpt lat="48.44615" lon="2.68017">
        <ele>79</ele>
        <time>2013-09-26T13:12:47Z</time>
      </trkpt>
      <trkpt lat="48.4461" lon="2.68017">
        <ele>79</ele>
        <time>2013-09-26T13:12:51Z</time>
      </trkpt>
      <trkpt lat="48.44607" lon="2.68016">
        <ele>79</ele>
        <time>2013-09-26T13:12:53Z</time>
      </trkpt>
      <trkpt lat="48.44605" lon="2.68016">
        <ele>79</ele>
        <time>2013-09-26T13:12:55Z</time>
      </trkpt>
      <trkpt lat="48.44602" lon="2.68016">
        <ele>79</ele>
        <time>2013-09-26T13:12:57Z</time>
      </trkpt>
      <trkpt lat="48.446" lon="2.68017">
        <ele>79</ele>
        <time>2013-09-26T13:12:59Z</time>
      </trkpt>
      <trkpt lat="48.44598" lon="2.68016">
        <ele>79</ele>
        <time>2013-09-26T13:13:02Z</time>
      </trkpt>
      <trkpt lat="48.44597" lon="2.68019">
        <ele>79</ele>
        <time>2013-09-26T13:13:16Z</time>
      </trkpt>
      <trkpt lat="48.44595" lon="2.68017">
        <ele>79</ele>
        <time>2013-09-26T13:13:25Z</time>
      </trkpt>
      <trkpt lat="48.44593" lon="2.68018">
        <ele>79</ele>
        <time>2013-09-26T13:13:27Z</time>
      </trkpt>
      <trkpt lat="48.44591" lon="2.68017">
        <ele>79</ele>
        <time>2013-09-26T13:13:29Z</time>
      </trkpt>
      <trkpt lat="48.44588" lon="2.68016">
        <ele>79</ele>
        <time>2013-09-26T13:13:33Z</time>
      </trkpt>
      <trkpt lat="48.44586" lon="2.68018">
        <ele>80</ele>
        <time>2013-09-26T13:13:42Z</time>
      </trkpt>
      <trkpt lat="48.44587" lon="2.6802">
        <ele>79</ele>
        <time>2013-09-26T13:13:57Z</time>
      </trkpt>
      <trkpt lat="48.44589" lon="2.68023">
        <ele>80</ele>
        <time>2013-09-26T13:14:11Z</time>
      </trkpt>
      <trkpt lat="48.44587" lon="2.68024">
        <ele>80</ele>
        <time>2013-09-26T13:14:18Z</time>
      </trkpt>
      <trkpt lat="48.44586" lon="2.68023">
        <ele>80</ele>
        <time>2013-09-26T13:14:31Z</time>
      </trkpt>
      <trkpt lat="48.44586" lon="2.68022">
        <ele>80</ele>
        <time>2013-09-26T13:15:01Z</time>
      </trkpt>
      <trkpt lat="48.44586" lon="2.68023">
        <ele>80</ele>
        <time>2013-09-26T13:15:17Z</time>
      </trkpt>
      <trkpt lat="48.44587" lon="2.6802">
        <ele>79</ele>
        <time>2013-09-26T13:15:49Z</time>
      </trkpt>
      <trkpt lat="48.44588" lon="2.68022">
        <ele>80</ele>
        <time>2013-09-26T13:17:00Z</time>
      </trkpt>
      <trkpt lat="48.4459" lon="2.68024">
        <ele>79</ele>
        <time>2013-09-26T13:17:50Z</time>
      </trkpt>
      <trkpt lat="48.44591" lon="2.68021">
        <ele>80</ele>
        <time>2013-09-26T13:17:58Z</time>
      </trkpt>
      <trkpt lat="48.44589" lon="2.68019">
        <ele>80</ele>
        <time>2013-09-26T13:18:01Z</time>
      </trkpt>
      <trkpt lat="48.44589" lon="2.68017">
        <ele>80</ele>
        <time>2013-09-26T13:18:04Z</time>
      </trkpt>
      <trkpt lat="48.44591" lon="2.68021">
        <ele>80</ele>
        <time>2013-09-26T13:18:07Z</time>
      </trkpt>
      <trkpt lat="48.44589" lon="2.68021">
        <ele>80</ele>
        <time>2013-09-26T13:18:11Z</time>
      </trkpt>
      <trkpt lat="48.44588" lon="2.6802">
        <ele>80</ele>
        <time>2013-09-26T13:18:14Z</time>
      </trkpt>
      <trkpt lat="48.44588" lon="2.68022">
        <ele>79</ele>
        <time>2013-09-26T13:18:41Z</time>
      </trkpt>
      <trkpt lat="48.44587" lon="2.68023">
        <ele>79</ele>
        <time>2013-09-26T13:18:44Z</time>
      </trkpt>
      <trkpt lat="48.44586" lon="2.68025">
        <ele>79</ele>
        <time>2013-09-26T13:18:52Z</time>
      </trkpt>
      <trkpt lat="48.44585" lon="2.68026">
        <ele>80</ele>
        <time>2013-09-26T13:19:32Z</time>
      </trkpt>
      <trkpt lat="48.44583" lon="2.68026">
        <ele>80</ele>
        <time>2013-09-26T13:19:59Z</time>
      </trkpt>
      <trkpt lat="48.44584" lon="2.68028">
        <ele>79</ele>
        <time>2013-09-26T13:20:18Z</time>
      </trkpt>
      <trkpt lat="48.44583" lon="2.6803">
        <ele>79</ele>
        <time>2013-09-26T13:20:21Z</time>
      </trkpt>
      <trkpt lat="48.4458" lon="2.6803">
        <ele>79</ele>
        <time>2013-09-26T13:20:23Z</time>
      </trkpt>
      <trkpt lat="48.44577" lon="2.68029">
        <ele>79</ele>
        <time>2013-09-26T13:20:25Z</time>
      </trkpt>
      <trkpt lat="48.44572" lon="2.68026">
        <ele>79</ele>
        <time>2013-09-26T13:20:29Z</time>
      </trkpt>
      <trkpt lat="48.4457" lon="2.68026">
        <ele>79</ele>
        <time>2013-09-26T13:20:31Z</time>
      </trkpt>
      <trkpt lat="48.44568" lon="2.68028">
        <ele>79</ele>
        <time>2013-09-26T13:20:33Z</time>
      </trkpt>
      <trkpt lat="48.44565" lon="2.68031">
        <ele>79</ele>
        <time>2013-09-26T13:20:36Z</time>
      </trkpt>
      <trkpt lat="48.44562" lon="2.6803">
        <ele>79</ele>
        <time>2013-09-26T13:20:49Z</time>
      </trkpt>
      <trkpt lat="48.44559" lon="2.68028">
        <ele>79</ele>
        <time>2013-09-26T13:20:53Z</time>
      </trkpt>
      <trkpt lat="48.44558" lon="2.68027">
        <ele>79</ele>
        <time>2013-09-26T13:20:54Z</time>
      </trkpt>
      <trkpt lat="48.44554" lon="2.68025">
        <ele>79</ele>
        <time>2013-09-26T13:20:56Z</time>
      </trkpt>
      <trkpt lat="48.44552" lon="2.68023">
        <ele>79</ele>
        <time>2013-09-26T13:20:58Z</time>
      </trkpt>
      <trkpt lat="48.4455" lon="2.68023">
        <ele>79</ele>
        <time>2013-09-26T13:21:00Z</time>
      </trkpt>
      <trkpt lat="48.44547" lon="2.68021">
        <ele>79</ele>
        <time>2013-09-26T13:21:04Z</time>
      </trkpt>
      <trkpt lat="48.44545" lon="2.6802">
        <ele>79</ele>
        <time>2013-09-26T13:21:15Z</time>
      </trkpt>
      <trkpt lat="48.44546" lon="2.68024">
        <ele>79</ele>
        <time>2013-09-26T13:21:18Z</time>
      </trkpt>
      <trkpt lat="48.44549" lon="2.68025">
        <ele>79</ele>
        <time>2013-09-26T13:21:26Z</time>
      </trkpt>
      <trkpt lat="48.44553" lon="2.68026">
        <ele>79</ele>
        <time>2013-09-26T13:21:29Z</time>
      </trkpt>
      <trkpt lat="48.44554" lon="2.68026">
        <ele>79</ele>
        <time>2013-09-26T13:21:30Z</time>
      </trkpt>
      <trkpt lat="48.4456" lon="2.68027">
        <ele>79</ele>
        <time>2013-09-26T13:21:33Z</time>
      </trkpt>
      <trkpt lat="48.44562" lon="2.68028">
        <ele>79</ele>
        <time>2013-09-26T13:21:34Z</time>
      </trkpt>
      <trkpt lat="48.44565" lon="2.68028">
        <ele>79</ele>
        <time>2013-09-26T13:21:36Z</time>
      </trkpt>
      <trkpt lat="48.44567" lon="2.68027">
        <ele>79</ele>
        <time>2013-09-26T13:21:37Z</time>
      </trkpt>
      <trkpt lat="48.4457" lon="2.68023">
        <ele>79</ele>
        <time>2013-09-26T13:21:39Z</time>
      </trkpt>
      <trkpt lat="48.4457" lon="2.68019">
        <ele>79</ele>
        <time>2013-09-26T13:21:41Z</time>
      </trkpt>
      <trkpt lat="48.4457" lon="2.68014">
        <ele>79</ele>
        <time>2013-09-26T13:21:43Z</time>
      </trkpt>
      <trkpt lat="48.44568" lon="2.68009">
        <ele>79</ele>
        <time>2013-09-26T13:21:45Z</time>
      </trkpt>
      <trkpt lat="48.44561" lon="2.67999">
        <ele>80</ele>
        <time>2013-09-26T13:21:49Z</time>
      </trkpt>
      <trkpt lat="48.44558" lon="2.67994">
        <ele>80</ele>
        <time>2013-09-26T13:21:51Z</time>
      </trkpt>
      <trkpt lat="48.44556" lon="2.67991">
        <ele>80</ele>
        <time>2013-09-26T13:21:52Z</time>
      </trkpt>
      <trkpt lat="48.44553" lon="2.67986">
        <ele>80</ele>
        <time>2013-09-26T13:21:54Z</time>
      </trkpt>
      <trkpt lat="48.4455" lon="2.67978">
        <ele>80</ele>
        <time>2013-09-26T13:21:57Z</time>
      </trkpt>
      <trkpt lat="48.44547" lon="2.67969">
        <ele>80</ele>
        <time>2013-09-26T13:22:00Z</time>
      </trkpt>
      <trkpt lat="48.44544" lon="2.67964">
        <ele>80</ele>
        <time>2013-09-26T13:22:02Z</time>
      </trkpt>
      <trkpt lat="48.44543" lon="2.67962">
        <ele>80</ele>
        <time>2013-09-26T13:22:03Z</time>
      </trkpt>
      <trkpt lat="48.44538" lon="2.67946">
        <ele>80</ele>
        <time>2013-09-26T13:22:07Z</time>
      </trkpt>
      <trkpt lat="48.44532" lon="2.67932">
        <ele>80</ele>
        <time>2013-09-26T13:22:11Z</time>
      </trkpt>
      <trkpt lat="48.44529" lon="2.67926">
        <ele>80</ele>
        <time>2013-09-26T13:22:13Z</time>
      </trkpt>
      <trkpt lat="48.44523" lon="2.6792">
        <ele>80</ele>
        <time>2013-09-26T13:22:15Z</time>
      </trkpt>
      <trkpt lat="48.44521" lon="2.67918">
        <ele>80</ele>
        <time>2013-09-26T13:22:16Z</time>
      </trkpt>
      <trkpt lat="48.44512" lon="2.67915">
        <ele>80</ele>
        <time>2013-09-26T13:22:19Z</time>
      </trkpt>
      <trkpt lat="48.44506" lon="2.67913">
        <ele>80</ele>
        <time>2013-09-26T13:22:21Z</time>
      </trkpt>
      <trkpt lat="48.445" lon="2.67912">
        <ele>80</ele>
        <time>2013-09-26T13:22:23Z</time>
      </trkpt>
      <trkpt lat="48.44491" lon="2.67911">
        <ele>80.5</ele>
        <time>2013-09-26T13:22:26Z</time>
      </trkpt>
      <trkpt lat="48.44478" lon="2.6791">
        <ele>81</ele>
        <time>2013-09-26T13:22:30Z</time>
      </trkpt>
      <trkpt lat="48.44465" lon="2.67906">
        <ele>81</ele>
        <time>2013-09-26T13:22:34Z</time>
      </trkpt>
      <trkpt lat="48.44455" lon="2.67907">
        <ele>81</ele>
        <time>2013-09-26T13:22:37Z</time>
      </trkpt>
      <trkpt lat="48.44448" lon="2.67907">
        <ele>81</ele>
        <time>2013-09-26T13:22:39Z</time>
      </trkpt>
      <trkpt lat="48.44443" lon="2.67905">
        <ele>81</ele>
        <time>2013-09-26T13:22:41Z</time>
      </trkpt>
      <trkpt lat="48.44437" lon="2.67899">
        <ele>81</ele>
        <time>2013-09-26T13:22:43Z</time>
      </trkpt>
      <trkpt lat="48.44433" lon="2.67892">
        <ele>81</ele>
        <time>2013-09-26T13:22:45Z</time>
      </trkpt>
      <trkpt lat="48.44429" lon="2.67881">
        <ele>81</ele>
        <time>2013-09-26T13:22:48Z</time>
      </trkpt>
      <trkpt lat="48.44425" lon="2.67873">
        <ele>81</ele>
        <time>2013-09-26T13:22:50Z</time>
      </trkpt>
      <trkpt lat="48.44419" lon="2.67862">
        <ele>81</ele>
        <time>2013-09-26T13:22:53Z</time>
      </trkpt>
      <trkpt lat="48.44416" lon="2.67854">
        <ele>81</ele>
        <time>2013-09-26T13:22:55Z</time>
      </trkpt>
      <trkpt lat="48.4441" lon="2.67841">
        <ele>82</ele>
        <time>2013-09-26T13:22:59Z</time>
      </trkpt>
      <trkpt lat="48.44406" lon="2.67834">
        <ele>82</ele>
        <time>2013-09-26T13:23:01Z</time>
      </trkpt>
      <trkpt lat="48.444" lon="2.67821">
        <ele>82</ele>
        <time>2013-09-26T13:23:04Z</time>
      </trkpt>
      <trkpt lat="48.44393" lon="2.67806">
        <ele>83</ele>
        <time>2013-09-26T13:23:08Z</time>
      </trkpt>
      <trkpt lat="48.44386" lon="2.6779">
        <ele>83</ele>
        <time>2013-09-26T13:23:12Z</time>
      </trkpt>
      <trkpt lat="48.44382" lon="2.67783">
        <ele>83</ele>
        <time>2013-09-26T13:23:14Z</time>
      </trkpt>
      <trkpt lat="48.44376" lon="2.67771">
        <ele>83</ele>
        <time>2013-09-26T13:23:17Z</time>
      </trkpt>
      <trkpt lat="48.44371" lon="2.6776">
        <ele>83</ele>
        <time>2013-09-26T13:23:20Z</time>
      </trkpt>
      <trkpt lat="48.44366" lon="2.67748">
        <ele>83</ele>
        <time>2013-09-26T13:23:23Z</time>
      </trkpt>
      <trkpt lat="48.44362" lon="2.67742">
        <ele>83</ele>
        <time>2013-09-26T13:23:25Z</time>
      </trkpt>
      <trkpt lat="48.44356" lon="2.67728">
        <ele>83</ele>
        <time>2013-09-26T13:23:29Z</time>
      </trkpt>
      <trkpt lat="48.44353" lon="2.6772">
        <ele>83</ele>
        <time>2013-09-26T13:23:31Z</time>
      </trkpt>
      <trkpt lat="48.44349" lon="2.67714">
        <ele>83</ele>
        <time>2013-09-26T13:23:33Z</time>
      </trkpt>
      <trkpt lat="48.44343" lon="2.67699">
        <ele>83</ele>
        <time>2013-09-26T13:23:37Z</time>
      </trkpt>
      <trkpt lat="48.4434" lon="2.6769">
        <ele>83</ele>
        <time>2013-09-26T13:23:39Z</time>
      </trkpt>
      <trkpt lat="48.44339" lon="2.67682">
        <ele>83</ele>
        <time>2013-09-26T13:23:41Z</time>
      </trkpt>
      <trkpt lat="48.44341" lon="2.67675">
        <ele>83</ele>
        <time>2013-09-26T13:23:43Z</time>
      </trkpt>
      <trkpt lat="48.44345" lon="2.67669">
        <ele>83</ele>
        <time>2013-09-26T13:23:45Z</time>
      </trkpt>
      <trkpt lat="48.44347" lon="2.67664">
        <ele>82</ele>
        <time>2013-09-26T13:23:47Z</time>
      </trkpt>
      <trkpt lat="48.4435" lon="2.67656">
        <ele>82</ele>
        <time>2013-09-26T13:23:49Z</time>
      </trkpt>
      <trkpt lat="48.44356" lon="2.67646">
        <ele>82</ele>
        <time>2013-09-26T13:23:52Z</time>
      </trkpt>
      <trkpt lat="48.44359" lon="2.67636">
        <ele>82</ele>
        <time>2013-09-26T13:23:54Z</time>
      </trkpt>
      <trkpt lat="48.44359" lon="2.67631">
        <ele>82</ele>
        <time>2013-09-26T13:23:55Z</time>
      </trkpt>
      <trkpt lat="48.44359" lon="2.67622">
        <ele>82</ele>
        <time>2013-09-26T13:23:57Z</time>
      </trkpt>
      <trkpt lat="48.44361" lon="2.67602">
        <ele>82</ele>
        <time>2013-09-26T13:24:01Z</time>
      </trkpt>
      <trkpt lat="48.44361" lon="2.67582">
        <ele>82</ele>
        <time>2013-09-26T13:24:05Z</time>
      </trkpt>
      <trkpt lat="48.44362" lon="2.67571">
        <ele>82</ele>
        <time>2013-09-26T13:24:07Z</time>
      </trkpt>
      <trkpt lat="48.44363" lon="2.6756">
        <ele>82</ele>
        <time>2013-09-26T13:24:09Z</time>
      </trkpt>
      <trkpt lat="48.44363" lon="2.67547">
        <ele>82</ele>
        <time>2013-09-26T13:24:11Z</time>
      </trkpt>
      <trkpt lat="48.44364" lon="2.67536">
        <ele>82</ele>
        <time>2013-09-26T13:24:13Z</time>
      </trkpt>
      <trkpt lat="48.44368" lon="2.67513">
        <ele>83</ele>
        <time>2013-09-26T13:24:17Z</time>
      </trkpt>
      <trkpt lat="48.4437" lon="2.67489">
        <ele>83</ele>
        <time>2013-09-26T13:24:21Z</time>
      </trkpt>
      <trkpt lat="48.44373" lon="2.67463">
        <ele>83</ele>
        <time>2013-09-26T13:24:25Z</time>
      </trkpt>
      <trkpt lat="48.44374" lon="2.67458">
        <ele>83</ele>
        <time>2013-09-26T13:24:26Z</time>
      </trkpt>
      <trkpt lat="48.44375" lon="2.6743">
        <ele>83</ele>
        <time>2013-09-26T13:24:30Z</time>
      </trkpt>
      <trkpt lat="48.44379" lon="2.67403">
        <ele>83</ele>
        <time>2013-09-26T13:24:34Z</time>
      </trkpt>
      <trkpt lat="48.44382" lon="2.67377">
        <ele>84</ele>
        <time>2013-09-26T13:24:38Z</time>
      </trkpt>
      <trkpt lat="48.44383" lon="2.67371">
        <ele>84</ele>
        <time>2013-09-26T13:24:39Z</time>
      </trkpt>
      <trkpt lat="48.44383" lon="2.67359">
        <ele>84</ele>
        <time>2013-09-26T13:24:41Z</time>
      </trkpt>
      <trkpt lat="48.44387" lon="2.67337">
        <ele>84</ele>
        <time>2013-09-26T13:24:45Z</time>
      </trkpt>
      <trkpt lat="48.44389" lon="2.67327">
        <ele>84</ele>
        <time>2013-09-26T13:24:47Z</time>
      </trkpt>
      <trkpt lat="48.44391" lon="2.67317">
        <ele>84</ele>
        <time>2013-09-26T13:24:49Z</time>
      </trkpt>
      <trkpt lat="48.44391" lon="2.67305">
        <ele>84</ele>
        <time>2013-09-26T13:24:51Z</time>
      </trkpt>
      <trkpt lat="48.4439" lon="2.67297">
        <ele>84</ele>
        <time>2013-09-26T13:24:52Z</time>
      </trkpt>
      <trkpt lat="48.4439" lon="2.67284">
        <ele>84</ele>
        <time>2013-09-26T13:24:54Z</time>
      </trkpt>
      <trkpt lat="48.4439" lon="2.67266">
        <ele>84</ele>
        <time>2013-09-26T13:24:57Z</time>
      </trkpt>
      <trkpt lat="48.44388" lon="2.67247">
        <ele>84</ele>
        <time>2013-09-26T13:25:00Z</time>
      </trkpt>
      <trkpt lat="48.44387" lon="2.67235">
        <ele>84</ele>
        <time>2013-09-26T13:25:02Z</time>
      </trkpt>
      <trkpt lat="48.44386" lon="2.67215">
        <ele>84</ele>
        <time>2013-09-26T13:25:05Z</time>
      </trkpt>
      <trkpt lat="48.44385" lon="2.67209">
        <ele>84</ele>
        <time>2013-09-26T13:25:06Z</time>
      </trkpt>
      <trkpt lat="48.44385" lon="2.67184">
        <ele>84</ele>
        <time>2013-09-26T13:25:10Z</time>
      </trkpt>
      <trkpt lat="48.44384" lon="2.67165">
        <ele>84</ele>
        <time>2013-09-26T13:25:13Z</time>
      </trkpt>
      <trkpt lat="48.44384" lon="2.67152">
        <ele>84</ele>
        <time>2013-09-26T13:25:15Z</time>
      </trkpt>
      <trkpt lat="48.44383" lon="2.67138">
        <ele>84</ele>
        <time>2013-09-26T13:25:17Z</time>
      </trkpt>
      <trkpt lat="48.44383" lon="2.67118">
        <ele>84</ele>
        <time>2013-09-26T13:25:20Z</time>
      </trkpt>
      <trkpt lat="48.44381" lon="2.67105">
        <ele>84</ele>
        <time>2013-09-26T13:25:22Z</time>
      </trkpt>
      <trkpt lat="48.44381" lon="2.67086">
        <ele>84</ele>
        <time>2013-09-26T13:25:25Z</time>
      </trkpt>
      <trkpt lat="48.4438" lon="2.67073">
        <ele>84</ele>
        <time>2013-09-26T13:25:27Z</time>
      </trkpt>
      <trkpt lat="48.44379" lon="2.67052">
        <ele>84</ele>
        <time>2013-09-26T13:25:30Z</time>
      </trkpt>
      <trkpt lat="48.44377" lon="2.67027">
        <ele>84</ele>
        <time>2013-09-26T13:25:34Z</time>
      </trkpt>
      <trkpt lat="48.44376" lon="2.67021">
        <ele>84</ele>
        <time>2013-09-26T13:25:35Z</time>
      </trkpt>
      <trkpt lat="48.44375" lon="2.66998">
        <ele>84</ele>
        <time>2013-09-26T13:25:39Z</time>
      </trkpt>
      <trkpt lat="48.44373" lon="2.66987">
        <ele>84</ele>
        <time>2013-09-26T13:25:41Z</time>
      </trkpt>
      <trkpt lat="48.44372" lon="2.66977">
        <ele>84</ele>
        <time>2013-09-26T13:25:43Z</time>
      </trkpt>
      <trkpt lat="48.44373" lon="2.66959">
        <ele>84</ele>
        <time>2013-09-26T13:25:47Z</time>
      </trkpt>
      <trkpt lat="48.44372" lon="2.66955">
        <ele>84</ele>
        <time>2013-09-26T13:25:48Z</time>
      </trkpt>
      <trkpt lat="48.44372" lon="2.66951">
        <ele>84</ele>
        <time>2013-09-26T13:25:49Z</time>
      </trkpt>
      <trkpt lat="48.44372" lon="2.66943">
        <ele>84</ele>
        <time>2013-09-26T13:25:51Z</time>
      </trkpt>
      <trkpt lat="48.44374" lon="2.66936">
        <ele>84</ele>
        <time>2013-09-26T13:25:55Z</time>
      </trkpt>
      <trkpt lat="48.44374" lon="2.66933">
        <ele>84</ele>
        <time>2013-09-26T13:26:09Z</time>
      </trkpt>
      <trkpt lat="48.44375" lon="2.66931">
        <ele>84</ele>
        <time>2013-09-26T13:26:10Z</time>
      </trkpt>
      <trkpt lat="48.44375" lon="2.66926">
        <ele>84</ele>
        <time>2013-09-26T13:26:12Z</time>
      </trkpt>
      <trkpt lat="48.44377" lon="2.66922">
        <ele>84</ele>
        <time>2013-09-26T13:26:14Z</time>
      </trkpt>
      <trkpt lat="48.44379" lon="2.66918">
        <ele>84</ele>
        <time>2013-09-26T13:26:17Z</time>
      </trkpt>
      <trkpt lat="48.44378" lon="2.66914">
        <ele>84</ele>
        <time>2013-09-26T13:26:19Z</time>
      </trkpt>
      <trkpt lat="48.44377" lon="2.66911">
        <ele>84</ele>
        <time>2013-09-26T13:26:20Z</time>
      </trkpt>
      <trkpt lat="48.44376" lon="2.66904">
        <ele>84</ele>
        <time>2013-09-26T13:26:22Z</time>
      </trkpt>
      <trkpt lat="48.44376" lon="2.66899">
        <ele>84</ele>
        <time>2013-09-26T13:26:23Z</time>
      </trkpt>
      <trkpt lat="48.44376" lon="2.6688">
        <ele>84</ele>
        <time>2013-09-26T13:26:27Z</time>
      </trkpt>
      <trkpt lat="48.44376" lon="2.66871">
        <ele>84</ele>
        <time>2013-09-26T13:26:29Z</time>
      </trkpt>
      <trkpt lat="48.44376" lon="2.66861">
        <ele>84</ele>
        <time>2013-09-26T13:26:31Z</time>
      </trkpt>
      <trkpt lat="48.44376" lon="2.66846">
        <ele>84</ele>
        <time>2013-09-26T13:26:34Z</time>
      </trkpt>
      <trkpt lat="48.44377" lon="2.6684">
        <ele>84</ele>
        <time>2013-09-26T13:26:35Z</time>
      </trkpt>
      <trkpt lat="48.44377" lon="2.66829">
        <ele>84</ele>
        <time>2013-09-26T13:26:37Z</time>
      </trkpt>
      <trkpt lat="48.44379" lon="2.66818">
        <ele>84</ele>
        <time>2013-09-26T13:26:39Z</time>
      </trkpt>
      <trkpt lat="48.44381" lon="2.66805">
        <ele>84</ele>
        <time>2013-09-26T13:26:41Z</time>
      </trkpt>
      <trkpt lat="48.44382" lon="2.66793">
        <ele>84</ele>
        <time>2013-09-26T13:26:43Z</time>
      </trkpt>
      <trkpt lat="48.44383" lon="2.6678">
        <ele>84</ele>
        <time>2013-09-26T13:26:45Z</time>
      </trkpt>
      <trkpt lat="48.44384" lon="2.66761">
        <ele>84</ele>
        <time>2013-09-26T13:26:48Z</time>
      </trkpt>
      <trkpt lat="48.44385" lon="2.66749">
        <ele>84</ele>
        <time>2013-09-26T13:26:50Z</time>
      </trkpt>
      <trkpt lat="48.44385" lon="2.66742">
        <ele>84</ele>
        <time>2013-09-26T13:26:51Z</time>
      </trkpt>
      <trkpt lat="48.44387" lon="2.66715">
        <ele>84</ele>
        <time>2013-09-26T13:26:55Z</time>
      </trkpt>
      <trkpt lat="48.44388" lon="2.66704">
        <ele>84</ele>
        <time>2013-09-26T13:26:57Z</time>
      </trkpt>
      <trkpt lat="48.44389" lon="2.66679">
        <ele>84</ele>
        <time>2013-09-26T13:27:01Z</time>
      </trkpt>
      <trkpt lat="48.44391" lon="2.66652">
        <ele>84</ele>
        <time>2013-09-26T13:27:05Z</time>
      </trkpt>
      <trkpt lat="48.44393" lon="2.66628">
        <ele>84</ele>
        <time>2013-09-26T13:27:09Z</time>
      </trkpt>
      <trkpt lat="48.44392" lon="2.66601">
        <ele>84</ele>
        <time>2013-09-26T13:27:13Z</time>
      </trkpt>
      <trkpt lat="48.44393" lon="2.66588">
        <ele>84</ele>
        <time>2013-09-26T13:27:15Z</time>
      </trkpt>
      <trkpt lat="48.44395" lon="2.66562">
        <ele>84</ele>
        <time>2013-09-26T13:27:19Z</time>
      </trkpt>
      <trkpt lat="48.44397" lon="2.66549">
        <ele>84</ele>
        <time>2013-09-26T13:27:21Z</time>
      </trkpt>
      <trkpt lat="48.44398" lon="2.66537">
        <ele>84</ele>
        <time>2013-09-26T13:27:23Z</time>
      </trkpt>
      <trkpt lat="48.44398" lon="2.66522">
        <ele>84</ele>
        <time>2013-09-26T13:27:25Z</time>
      </trkpt>
      <trkpt lat="48.44397" lon="2.66507">
        <ele>84</ele>
        <time>2013-09-26T13:27:27Z</time>
      </trkpt>
      <trkpt lat="48.44398" lon="2.66494">
        <ele>84</ele>
        <time>2013-09-26T13:27:29Z</time>
      </trkpt>
      <trkpt lat="48.444" lon="2.66475">
        <ele>84</ele>
        <time>2013-09-26T13:27:32Z</time>
      </trkpt>
      <trkpt lat="48.44401" lon="2.66469">
        <ele>84</ele>
        <time>2013-09-26T13:27:33Z</time>
      </trkpt>
      <trkpt lat="48.44402" lon="2.66455">
        <ele>84</ele>
        <time>2013-09-26T13:27:35Z</time>
      </trkpt>
      <trkpt lat="48.44404" lon="2.66443">
        <ele>84</ele>
        <time>2013-09-26T13:27:37Z</time>
      </trkpt>
      <trkpt lat="48.44407" lon="2.66432">
        <ele>84</ele>
        <time>2013-09-26T13:27:39Z</time>
      </trkpt>
      <trkpt lat="48.4441" lon="2.66421">
        <ele>84</ele>
        <time>2013-09-26T13:27:41Z</time>
      </trkpt>
      <trkpt lat="48.44415" lon="2.66412">
        <ele>84</ele>
        <time>2013-09-26T13:27:43Z</time>
      </trkpt>
      <trkpt lat="48.44417" lon="2.66408">
        <ele>84</ele>
        <time>2013-09-26T13:27:44Z</time>
      </trkpt>
      <trkpt lat="48.44422" lon="2.66401">
        <ele>84</ele>
        <time>2013-09-26T13:27:47Z</time>
      </trkpt>
      <trkpt lat="48.44423" lon="2.66399">
        <ele>84</ele>
        <time>2013-09-26T13:27:48Z</time>
      </trkpt>
      <trkpt lat="48.44426" lon="2.66395">
        <ele>84</ele>
        <time>2013-09-26T13:27:50Z</time>
      </trkpt>
      <trkpt lat="48.44427" lon="2.66392">
        <ele>84</ele>
        <time>2013-09-26T13:27:51Z</time>
      </trkpt>
      <trkpt lat="48.44426" lon="2.66387">
        <ele>84</ele>
        <time>2013-09-26T13:27:53Z</time>
      </trkpt>
      <trkpt lat="48.44425" lon="2.66384">
        <ele>84</ele>
        <time>2013-09-26T13:27:55Z</time>
      </trkpt>
      <trkpt lat="48.44423" lon="2.66381">
        <ele>84</ele>
        <time>2013-09-26T13:27:57Z</time>
      </trkpt>
      <trkpt lat="48.44422" lon="2.66383">
        <ele>84</ele>
        <time>2013-09-26T13:28:02Z</time>
      </trkpt>
      <trkpt lat="48.44423" lon="2.66382">
        <ele>84</ele>
        <time>2013-09-26T13:28:08Z</time>
      </trkpt>
      <trkpt lat="48.44424" lon="2.66384">
        <ele>79</ele>
        <time>2013-09-26T13:28:18Z</time>
      </trkpt>
      <trkpt lat="48.44423" lon="2.66385">
        <ele>80</ele>
        <time>2013-09-26T13:28:33Z</time>
      </trkpt>
      <trkpt lat="48.44422" lon="2.66388">
        <ele>80</ele>
        <time>2013-09-26T13:28:45Z</time>
      </trkpt>
      <trkpt lat="48.44422" lon="2.66388">
        <ele>79</ele>
        <time>2013-09-26T13:28:53Z</time>
      </trkpt>
      <trkpt lat="48.44422" lon="2.66388">
        <ele>80</ele>
        <time>2013-09-26T13:29:04Z</time>
      </trkpt>
      <trkpt lat="48.44422" lon="2.66388">
        <ele>80</ele>
        <time>2013-09-26T13:29:23Z</time>
      </trkpt>
      <trkpt lat="48.44421" lon="2.66389">
        <ele>80</ele>
        <time>2013-09-26T13:29:35Z</time>
      </trkpt>
      <trkpt lat="48.44421" lon="2.66386">
        <ele>80</ele>
        <time>2013-09-26T13:29:54Z</time>
      </trkpt>
      <trkpt lat="48.44422" lon="2.6639">
        <ele>80</ele>
        <time>2013-09-26T13:30:15Z</time>
      </trkpt>
      <trkpt lat="48.44423" lon="2.6639">
        <ele>79</ele>
        <time>2013-09-26T13:30:17Z</time>
      </trkpt>
      <trkpt lat="48.44425" lon="2.66389">
        <ele>79</ele>
        <time>2013-09-26T13:30:19Z</time>
      </trkpt>
      <trkpt lat="48.44423" lon="2.66389">
        <ele>79</ele>
        <time>2013-09-26T13:30:49Z</time>
      </trkpt>
      <trkpt lat="48.44423" lon="2.66389">
        <ele>79</ele>
        <time>2013-09-26T13:30:55Z</time>
      </trkpt>
      <trkpt lat="48.44421" lon="2.66387">
        <ele>79</ele>
        <time>2013-09-26T13:31:01Z</time>
      </trkpt>
      <trkpt lat="48.44423" lon="2.6639">
        <ele>79</ele>
        <time>2013-09-26T13:31:30Z</time>
      </trkpt>
      <trkpt lat="48.44426" lon="2.66392">
        <ele>79</ele>
        <time>2013-09-26T13:31:37Z</time>
      </trkpt>
      <trkpt lat="48.44428" lon="2.66391">
        <ele>79</ele>
        <time>2013-09-26T13:31:40Z</time>
      </trkpt>
      <trkpt lat="48.4443" lon="2.66388">
        <ele>79.6</ele>
        <time>2013-09-26T13:31:46Z</time>
      </trkpt>
      <trkpt lat="48.4443" lon="2.66385">
        <ele>80</ele>
        <time>2013-09-26T13:31:47Z</time>
      </trkpt>
      <trkpt lat="48.44431" lon="2.66381">
        <ele>80</ele>
        <time>2013-09-26T13:31:49Z</time>
      </trkpt>
      <trkpt lat="48.44436" lon="2.66371">
        <ele>80</ele>
        <time>2013-09-26T13:31:53Z</time>
      </trkpt>
      <trkpt lat="48.4444" lon="2.66358">
        <ele>80</ele>
        <time>2013-09-26T13:31:57Z</time>
      </trkpt>
      <trkpt lat="48.44444" lon="2.66352">
        <ele>80</ele>
        <time>2013-09-26T13:31:59Z</time>
      </trkpt>
      <trkpt lat="48.44447" lon="2.66344">
        <ele>80</ele>
        <time>2013-09-26T13:32:01Z</time>
      </trkpt>
      <trkpt lat="48.4445" lon="2.66335">
        <ele>80</ele>
        <time>2013-09-26T13:32:03Z</time>
      </trkpt>
      <trkpt lat="48.44458" lon="2.66318">
        <ele>81</ele>
        <time>2013-09-26T13:32:07Z</time>
      </trkpt>
      <trkpt lat="48.44463" lon="2.6631">
        <ele>81</ele>
        <time>2013-09-26T13:32:09Z</time>
      </trkpt>
      <trkpt lat="48.44465" lon="2.66306">
        <ele>81</ele>
        <time>2013-09-26T13:32:10Z</time>
      </trkpt>
      <trkpt lat="48.44468" lon="2.66299">
        <ele>81</ele>
        <time>2013-09-26T13:32:12Z</time>
      </trkpt>
      <trkpt lat="48.44473" lon="2.66286">
        <ele>81</ele>
        <time>2013-09-26T13:32:15Z</time>
      </trkpt>
      <trkpt lat="48.44477" lon="2.66278">
        <ele>81</ele>
        <time>2013-09-26T13:32:17Z</time>
      </trkpt>
      <trkpt lat="48.44484" lon="2.66257">
        <ele>81</ele>
        <time>2013-09-26T13:32:21Z</time>
      </trkpt>
      <trkpt lat="48.44488" lon="2.66248">
        <ele>81</ele>
        <time>2013-09-26T13:32:23Z</time>
      </trkpt>
      <trkpt lat="48.44493" lon="2.66238">
        <ele>81</ele>
        <time>2013-09-26T13:32:25Z</time>
      </trkpt>
      <trkpt lat="48.44501" lon="2.66219">
        <ele>81</ele>
        <time>2013-09-26T13:32:29Z</time>
      </trkpt>
      <trkpt lat="48.44508" lon="2.66199">
        <ele>81</ele>
        <time>2013-09-26T13:32:33Z</time>
      </trkpt>
      <trkpt lat="48.44515" lon="2.66182">
        <ele>81</ele>
        <time>2013-09-26T13:32:37Z</time>
      </trkpt>
      <trkpt lat="48.44517" lon="2.66179">
        <ele>81</ele>
        <time>2013-09-26T13:32:38Z</time>
      </trkpt>
      <trkpt lat="48.4452" lon="2.66173">
        <ele>81</ele>
        <time>2013-09-26T13:32:40Z</time>
      </trkpt>
      <trkpt lat="48.44521" lon="2.66169">
        <ele>81</ele>
        <time>2013-09-26T13:32:41Z</time>
      </trkpt>
      <trkpt lat="48.44526" lon="2.66154">
        <ele>81</ele>
        <time>2013-09-26T13:32:45Z</time>
      </trkpt>
      <trkpt lat="48.44527" lon="2.6615">
        <ele>81</ele>
        <time>2013-09-26T13:32:46Z</time>
      </trkpt>
      <trkpt lat="48.44533" lon="2.66134">
        <ele>81</ele>
        <time>2013-09-26T13:32:49Z</time>
      </trkpt>
      <trkpt lat="48.44541" lon="2.66115">
        <ele>81</ele>
        <time>2013-09-26T13:32:53Z</time>
      </trkpt>
      <trkpt lat="48.44543" lon="2.66109">
        <ele>81</ele>
        <time>2013-09-26T13:32:54Z</time>
      </trkpt>
      <trkpt lat="48.44552" lon="2.66089">
        <ele>79</ele>
        <time>2013-09-26T13:32:58Z</time>
      </trkpt>
      <trkpt lat="48.44559" lon="2.66075">
        <ele>79</ele>
        <time>2013-09-26T13:33:01Z</time>
      </trkpt>
      <trkpt lat="48.44565" lon="2.66059">
        <ele>79</ele>
        <time>2013-09-26T13:33:04Z</time>
      </trkpt>
      <trkpt lat="48.44568" lon="2.6605">
        <ele>79</ele>
        <time>2013-09-26T13:33:06Z</time>
      </trkpt>
      <trkpt lat="48.44571" lon="2.66045">
        <ele>79</ele>
        <time>2013-09-26T13:33:08Z</time>
      </trkpt>
      <trkpt lat="48.44569" lon="2.66048">
        <ele>78</ele>
        <time>2013-09-26T13:33:28Z</time>
      </trkpt>
      <trkpt lat="48.44568" lon="2.66051">
        <ele>78</ele>
        <time>2013-09-26T13:33:29Z</time>
      </trkpt>
      <trkpt lat="48.44566" lon="2.66057">
        <ele>78</ele>
        <time>2013-09-26T13:33:31Z</time>
      </trkpt>
      <trkpt lat="48.44559" lon="2.66075">
        <ele>78</ele>
        <time>2013-09-26T13:33:35Z</time>
      </trkpt>
      <trkpt lat="48.44551" lon="2.66092">
        <ele>79</ele>
        <time>2013-09-26T13:33:39Z</time>
      </trkpt>
      <trkpt lat="48.44546" lon="2.66108">
        <ele>79</ele>
        <time>2013-09-26T13:33:42Z</time>
      </trkpt>
      <trkpt lat="48.44541" lon="2.66121">
        <ele>79</ele>
        <time>2013-09-26T13:33:45Z</time>
      </trkpt>
      <trkpt lat="48.44537" lon="2.66129">
        <ele>79</ele>
        <time>2013-09-26T13:33:47Z</time>
      </trkpt>
      <trkpt lat="48.44534" lon="2.66138">
        <ele>79</ele>
        <time>2013-09-26T13:33:49Z</time>
      </trkpt>
      <trkpt lat="48.4453" lon="2.66146">
        <ele>79</ele>
        <time>2013-09-26T13:33:51Z</time>
      </trkpt>
      <trkpt lat="48.44526" lon="2.66158">
        <ele>79</ele>
        <time>2013-09-26T13:33:55Z</time>
      </trkpt>
      <trkpt lat="48.44526" lon="2.6616">
        <ele>79.6</ele>
        <time>2013-09-26T13:33:56Z</time>
      </trkpt>
      <trkpt lat="48.44527" lon="2.66164">
        <ele>80</ele>
        <time>2013-09-26T13:33:58Z</time>
      </trkpt>
      <trkpt lat="48.44529" lon="2.66165">
        <ele>80</ele>
        <time>2013-09-26T13:34:00Z</time>
      </trkpt>
      <trkpt lat="48.44532" lon="2.66163">
        <ele>80</ele>
        <time>2013-09-26T13:34:03Z</time>
      </trkpt>
      <trkpt lat="48.44535" lon="2.6616">
        <ele>80</ele>
        <time>2013-09-26T13:34:05Z</time>
      </trkpt>
      <trkpt lat="48.44539" lon="2.66158">
        <ele>80</ele>
        <time>2013-09-26T13:34:07Z</time>
      </trkpt>
      <trkpt lat="48.44542" lon="2.66157">
        <ele>80</ele>
        <time>2013-09-26T13:34:09Z</time>
      </trkpt>
      <trkpt lat="48.44544" lon="2.66155">
        <ele>80</ele>
        <time>2013-09-26T13:34:11Z</time>
      </trkpt>
      <trkpt lat="48.44553" lon="2.66151">
        <ele>80</ele>
        <time>2013-09-26T13:34:15Z</time>
      </trkpt>
      <trkpt lat="48.44555" lon="2.66149">
        <ele>80</ele>
        <time>2013-09-26T13:34:16Z</time>
      </trkpt>
      <trkpt lat="48.44566" lon="2.66144">
        <ele>80</ele>
        <time>2013-09-26T13:34:20Z</time>
      </trkpt>
      <trkpt lat="48.44576" lon="2.66138">
        <ele>80</ele>
        <time>2013-09-26T13:34:24Z</time>
      </trkpt>
      <trkpt lat="48.44585" lon="2.66133">
        <ele>79</ele>
        <time>2013-09-26T13:34:27Z</time>
      </trkpt>
      <trkpt lat="48.44594" lon="2.66128">
        <ele>79</ele>
        <time>2013-09-26T13:34:30Z</time>
      </trkpt>
      <trkpt lat="48.44603" lon="2.66122">
        <ele>79</ele>
        <time>2013-09-26T13:34:33Z</time>
      </trkpt>
      <trkpt lat="48.44615" lon="2.66114">
        <ele>80</ele>
        <time>2013-09-26T13:34:37Z</time>
      </trkpt>
      <trkpt lat="48.44626" lon="2.66107">
        <ele>80</ele>
        <time>2013-09-26T13:34:41Z</time>
      </trkpt>
      <trkpt lat="48.44632" lon="2.66103">
        <ele>80</ele>
        <time>2013-09-26T13:34:43Z</time>
      </trkpt>
      <trkpt lat="48.44638" lon="2.66101">
        <ele>80</ele>
        <time>2013-09-26T13:34:45Z</time>
      </trkpt>
      <trkpt lat="48.44644" lon="2.66097">
        <ele>81</ele>
        <time>2013-09-26T13:34:47Z</time>
      </trkpt>
      <trkpt lat="48.44655" lon="2.66092">
        <ele>81</ele>
        <time>2013-09-26T13:34:50Z</time>
      </trkpt>
      <trkpt lat="48.44666" lon="2.66084">
        <ele>81</ele>
        <time>2013-09-26T13:34:53Z</time>
      </trkpt>
      <trkpt lat="48.44673" lon="2.66079">
        <ele>81</ele>
        <time>2013-09-26T13:34:55Z</time>
      </trkpt>
      <trkpt lat="48.44686" lon="2.66072">
        <ele>81</ele>
        <time>2013-09-26T13:34:58Z</time>
      </trkpt>
      <trkpt lat="48.44698" lon="2.66064">
        <ele>81</ele>
        <time>2013-09-26T13:35:01Z</time>
      </trkpt>
      <trkpt lat="48.44701" lon="2.66062">
        <ele>81</ele>
        <time>2013-09-26T13:35:02Z</time>
      </trkpt>
      <trkpt lat="48.44714" lon="2.66053">
        <ele>80.4</ele>
        <time>2013-09-26T13:35:06Z</time>
      </trkpt>
      <trkpt lat="48.4472" lon="2.66049">
        <ele>80</ele>
        <time>2013-09-26T13:35:08Z</time>
      </trkpt>
      <trkpt lat="48.44726" lon="2.66046">
        <ele>80</ele>
        <time>2013-09-26T13:35:11Z</time>
      </trkpt>
      <trkpt lat="48.44727" lon="2.66045">
        <ele>80</ele>
        <time>2013-09-26T13:35:13Z</time>
      </trkpt>
      <trkpt lat="48.44728" lon="2.66042">
        <ele>80</ele>
        <time>2013-09-26T13:35:20Z</time>
      </trkpt>
      <trkpt lat="48.44732" lon="2.6603">
        <ele>80</ele>
        <time>2013-09-26T13:35:24Z</time>
      </trkpt>
      <trkpt lat="48.44736" lon="2.66016">
        <ele>79</ele>
        <time>2013-09-26T13:35:27Z</time>
      </trkpt>
      <trkpt lat="48.44738" lon="2.66011">
        <ele>79</ele>
        <time>2013-09-26T13:35:28Z</time>
      </trkpt>
      <trkpt lat="48.44743" lon="2.65993">
        <ele>79</ele>
        <time>2013-09-26T13:35:31Z</time>
      </trkpt>
      <trkpt lat="48.44747" lon="2.65963">
        <ele>79</ele>
        <time>2013-09-26T13:35:35Z</time>
      </trkpt>
      <trkpt lat="48.44751" lon="2.65952">
        <ele>79</ele>
        <time>2013-09-26T13:35:37Z</time>
      </trkpt>
      <trkpt lat="48.44757" lon="2.65941">
        <ele>79</ele>
        <time>2013-09-26T13:35:39Z</time>
      </trkpt>
      <trkpt lat="48.4476" lon="2.65929">
        <ele>79</ele>
        <time>2013-09-26T13:35:41Z</time>
      </trkpt>
      <trkpt lat="48.44765" lon="2.65908">
        <ele>79</ele>
        <time>2013-09-26T13:35:45Z</time>
      </trkpt>
      <trkpt lat="48.44772" lon="2.65888">
        <ele>79</ele>
        <time>2013-09-26T13:35:49Z</time>
      </trkpt>
      <trkpt lat="48.44777" lon="2.65867">
        <ele>79</ele>
        <time>2013-09-26T13:35:53Z</time>
      </trkpt>
      <trkpt lat="48.44779" lon="2.65862">
        <ele>79</ele>
        <time>2013-09-26T13:35:54Z</time>
      </trkpt>
      <trkpt lat="48.44782" lon="2.65852">
        <ele>79</ele>
        <time>2013-09-26T13:35:56Z</time>
      </trkpt>
      <trkpt lat="48.44787" lon="2.65836">
        <ele>79</ele>
        <time>2013-09-26T13:35:59Z</time>
      </trkpt>
      <trkpt lat="48.44789" lon="2.65824">
        <ele>79</ele>
        <time>2013-09-26T13:36:01Z</time>
      </trkpt>
      <trkpt lat="48.44793" lon="2.65805">
        <ele>79</ele>
        <time>2013-09-26T13:36:04Z</time>
      </trkpt>
      <trkpt lat="48.44796" lon="2.65792">
        <ele>79</ele>
        <time>2013-09-26T13:36:06Z</time>
      </trkpt>
      <trkpt lat="48.44801" lon="2.65773">
        <ele>79</ele>
        <time>2013-09-26T13:36:09Z</time>
      </trkpt>
      <trkpt lat="48.44805" lon="2.65759">
        <ele>79</ele>
        <time>2013-09-26T13:36:11Z</time>
      </trkpt>
      <trkpt lat="48.44813" lon="2.65734">
        <ele>79</ele>
        <time>2013-09-26T13:36:15Z</time>
      </trkpt>
      <trkpt lat="48.44815" lon="2.65727">
        <ele>79</ele>
        <time>2013-09-26T13:36:16Z</time>
      </trkpt>
      <trkpt lat="48.44822" lon="2.65706">
        <ele>79</ele>
        <time>2013-09-26T13:36:19Z</time>
      </trkpt>
      <trkpt lat="48.44832" lon="2.65677">
        <ele>79</ele>
        <time>2013-09-26T13:36:23Z</time>
      </trkpt>
      <trkpt lat="48.44842" lon="2.65649">
        <ele>79</ele>
        <time>2013-09-26T13:36:27Z</time>
      </trkpt>
      <trkpt lat="48.44845" lon="2.65634">
        <ele>79</ele>
        <time>2013-09-26T13:36:29Z</time>
      </trkpt>
      <trkpt lat="48.44849" lon="2.65619">
        <ele>79</ele>
        <time>2013-09-26T13:36:31Z</time>
      </trkpt>
      <trkpt lat="48.44857" lon="2.6559">
        <ele>79</ele>
        <time>2013-09-26T13:36:35Z</time>
      </trkpt>
      <trkpt lat="48.44862" lon="2.65575">
        <ele>79</ele>
        <time>2013-09-26T13:36:37Z</time>
      </trkpt>
      <trkpt lat="48.44869" lon="2.65546">
        <ele>79</ele>
        <time>2013-09-26T13:36:41Z</time>
      </trkpt>
      <trkpt lat="48.4487" lon="2.65538">
        <ele>79</ele>
        <time>2013-09-26T13:36:42Z</time>
      </trkpt>
      <trkpt lat="48.44877" lon="2.65506">
        <ele>79</ele>
        <time>2013-09-26T13:36:46Z</time>
      </trkpt>
      <trkpt lat="48.44882" lon="2.65492">
        <ele>79</ele>
        <time>2013-09-26T13:36:48Z</time>
      </trkpt>
      <trkpt lat="48.44896" lon="2.65469">
        <ele>79</ele>
        <time>2013-09-26T13:36:52Z</time>
      </trkpt>
      <trkpt lat="48.44901" lon="2.65455">
        <ele>79</ele>
        <time>2013-09-26T13:36:54Z</time>
      </trkpt>
      <trkpt lat="48.44904" lon="2.6544">
        <ele>79</ele>
        <time>2013-09-26T13:36:56Z</time>
      </trkpt>
      <trkpt lat="48.44906" lon="2.65417">
        <ele>79</ele>
        <time>2013-09-26T13:36:59Z</time>
      </trkpt>
      <trkpt lat="48.44907" lon="2.65403">
        <ele>79</ele>
        <time>2013-09-26T13:37:01Z</time>
      </trkpt>
      <trkpt lat="48.44907" lon="2.6539">
        <ele>79</ele>
        <time>2013-09-26T13:37:03Z</time>
      </trkpt>
      <trkpt lat="48.44903" lon="2.65375">
        <ele>79</ele>
        <time>2013-09-26T13:37:05Z</time>
      </trkpt>
      <trkpt lat="48.44893" lon="2.65348">
        <ele>79</ele>
        <time>2013-09-26T13:37:09Z</time>
      </trkpt>
      <trkpt lat="48.44889" lon="2.65336">
        <ele>79</ele>
        <time>2013-09-26T13:37:11Z</time>
      </trkpt>
      <trkpt lat="48.44883" lon="2.65326">
        <ele>79</ele>
        <time>2013-09-26T13:37:13Z</time>
      </trkpt>
      <trkpt lat="48.44876" lon="2.65316">
        <ele>79</ele>
        <time>2013-09-26T13:37:15Z</time>
      </trkpt>
      <trkpt lat="48.4486" lon="2.65296">
        <ele>79</ele>
        <time>2013-09-26T13:37:19Z</time>
      </trkpt>
      <trkpt lat="48.44856" lon="2.6529">
        <ele>79</ele>
        <time>2013-09-26T13:37:20Z</time>
      </trkpt>
      <trkpt lat="48.4484" lon="2.65268">
        <ele>79</ele>
        <time>2013-09-26T13:37:24Z</time>
      </trkpt>
      <trkpt lat="48.44834" lon="2.65256">
        <ele>79</ele>
        <time>2013-09-26T13:37:26Z</time>
      </trkpt>
      <trkpt lat="48.44828" lon="2.65242">
        <ele>79</ele>
        <time>2013-09-26T13:37:28Z</time>
      </trkpt>
      <trkpt lat="48.44823" lon="2.65229">
        <ele>79</ele>
        <time>2013-09-26T13:37:30Z</time>
      </trkpt>
      <trkpt lat="48.44815" lon="2.65203">
        <ele>79</ele>
        <time>2013-09-26T13:37:34Z</time>
      </trkpt>
      <trkpt lat="48.44804" lon="2.65176">
        <ele>79</ele>
        <time>2013-09-26T13:37:38Z</time>
      </trkpt>
      <trkpt lat="48.44799" lon="2.65163">
        <ele>79</ele>
        <time>2013-09-26T13:37:40Z</time>
      </trkpt>
      <trkpt lat="48.44795" lon="2.6515">
        <ele>79</ele>
        <time>2013-09-26T13:37:42Z</time>
      </trkpt>
      <trkpt lat="48.44788" lon="2.65131">
        <ele>79</ele>
        <time>2013-09-26T13:37:45Z</time>
      </trkpt>
      <trkpt lat="48.44781" lon="2.65113">
        <ele>79</ele>
        <time>2013-09-26T13:37:48Z</time>
      </trkpt>
      <trkpt lat="48.44778" lon="2.65099">
        <ele>79</ele>
        <time>2013-09-26T13:37:50Z</time>
      </trkpt>
      <trkpt lat="48.44777" lon="2.65092">
        <ele>79</ele>
        <time>2013-09-26T13:37:51Z</time>
      </trkpt>
      <trkpt lat="48.44777" lon="2.65085">
        <ele>79</ele>
        <time>2013-09-26T13:37:52Z</time>
      </trkpt>
      <trkpt lat="48.44779" lon="2.65072">
        <ele>79</ele>
        <time>2013-09-26T13:37:54Z</time>
      </trkpt>
      <trkpt lat="48.44782" lon="2.65058">
        <ele>79</ele>
        <time>2013-09-26T13:37:56Z</time>
      </trkpt>
      <trkpt lat="48.44785" lon="2.65046">
        <ele>79</ele>
        <time>2013-09-26T13:37:58Z</time>
      </trkpt>
      <trkpt lat="48.4479" lon="2.65034">
        <ele>79</ele>
        <time>2013-09-26T13:38:00Z</time>
      </trkpt>
      <trkpt lat="48.44795" lon="2.65022">
        <ele>79</ele>
        <time>2013-09-26T13:38:02Z</time>
      </trkpt>
      <trkpt lat="48.44803" lon="2.64998">
        <ele>79</ele>
        <time>2013-09-26T13:38:06Z</time>
      </trkpt>
      <trkpt lat="48.44806" lon="2.64992">
        <ele>79</ele>
        <time>2013-09-26T13:38:07Z</time>
      </trkpt>
      <trkpt lat="48.4481" lon="2.64981">
        <ele>79</ele>
        <time>2013-09-26T13:38:09Z</time>
      </trkpt>
      <trkpt lat="48.44815" lon="2.64962">
        <ele>79</ele>
        <time>2013-09-26T13:38:12Z</time>
      </trkpt>
      <trkpt lat="48.44819" lon="2.64956">
        <ele>79</ele>
        <time>2013-09-26T13:38:13Z</time>
      </trkpt>
      <trkpt lat="48.44828" lon="2.64932">
        <ele>79</ele>
        <time>2013-09-26T13:38:17Z</time>
      </trkpt>
      <trkpt lat="48.44835" lon="2.64913">
        <ele>79</ele>
        <time>2013-09-26T13:38:20Z</time>
      </trkpt>
      <trkpt lat="48.4484" lon="2.64894">
        <ele>79</ele>
        <time>2013-09-26T13:38:23Z</time>
      </trkpt>
      <trkpt lat="48.44848" lon="2.64875">
        <ele>79.5</ele>
        <time>2013-09-26T13:38:26Z</time>
      </trkpt>
      <trkpt lat="48.44858" lon="2.64851">
        <ele>80</ele>
        <time>2013-09-26T13:38:30Z</time>
      </trkpt>
      <trkpt lat="48.44868" lon="2.64825">
        <ele>80</ele>
        <time>2013-09-26T13:38:34Z</time>
      </trkpt>
      <trkpt lat="48.44877" lon="2.64799">
        <ele>80</ele>
        <time>2013-09-26T13:38:38Z</time>
      </trkpt>
      <trkpt lat="48.44881" lon="2.64786">
        <ele>80</ele>
        <time>2013-09-26T13:38:40Z</time>
      </trkpt>
      <trkpt lat="48.4489" lon="2.64761">
        <ele>80</ele>
        <time>2013-09-26T13:38:44Z</time>
      </trkpt>
      <trkpt lat="48.44894" lon="2.64747">
        <ele>80</ele>
        <time>2013-09-26T13:38:46Z</time>
      </trkpt>
      <trkpt lat="48.44905" lon="2.64723">
        <ele>80</ele>
        <time>2013-09-26T13:38:50Z</time>
      </trkpt>
      <trkpt lat="48.44913" lon="2.64713">
        <ele>80</ele>
        <time>2013-09-26T13:38:52Z</time>
      </trkpt>
      <trkpt lat="48.44922" lon="2.6471">
        <ele>80</ele>
        <time>2013-09-26T13:38:54Z</time>
      </trkpt>
      <trkpt lat="48.44932" lon="2.64709">
        <ele>79.4</ele>
        <time>2013-09-26T13:38:56Z</time>
      </trkpt>
      <trkpt lat="48.44941" lon="2.6471">
        <ele>79</ele>
        <time>2013-09-26T13:38:58Z</time>
      </trkpt>
      <trkpt lat="48.44949" lon="2.64709">
        <ele>79</ele>
        <time>2013-09-26T13:39:00Z</time>
      </trkpt>
      <trkpt lat="48.44951" lon="2.64708">
        <ele>79</ele>
        <time>2013-09-26T13:39:01Z</time>
      </trkpt>
      <trkpt lat="48.44954" lon="2.64706">
        <ele>79</ele>
        <time>2013-09-26T13:39:02Z</time>
      </trkpt>
      <trkpt lat="48.44957" lon="2.64701">
        <ele>79</ele>
        <time>2013-09-26T13:39:04Z</time>
      </trkpt>
      <trkpt lat="48.44958" lon="2.64693">
        <ele>79</ele>
        <time>2013-09-26T13:39:06Z</time>
      </trkpt>
      <trkpt lat="48.44949" lon="2.64685">
        <ele>79</ele>
        <time>2013-09-26T13:39:10Z</time>
      </trkpt>
      <trkpt lat="48.44947" lon="2.64677">
        <ele>79</ele>
        <time>2013-09-26T13:39:12Z</time>
      </trkpt>
      <trkpt lat="48.44945" lon="2.64667">
        <ele>79</ele>
        <time>2013-09-26T13:39:14Z</time>
      </trkpt>
      <trkpt lat="48.44943" lon="2.64658">
        <ele>79</ele>
        <time>2013-09-26T13:39:16Z</time>
      </trkpt>
      <trkpt lat="48.4494" lon="2.64652">
        <ele>79</ele>
        <time>2013-09-26T13:39:18Z</time>
      </trkpt>
      <trkpt lat="48.44934" lon="2.64646">
        <ele>79</ele>
        <time>2013-09-26T13:39:20Z</time>
      </trkpt>
      <trkpt lat="48.44928" lon="2.6464">
        <ele>79</ele>
        <time>2013-09-26T13:39:22Z</time>
      </trkpt>
      <trkpt lat="48.44921" lon="2.64632">
        <ele>79</ele>
        <time>2013-09-26T13:39:24Z</time>
      </trkpt>
      <trkpt lat="48.44914" lon="2.64623">
        <ele>76.6</ele>
        <time>2013-09-26T13:39:26Z</time>
      </trkpt>
      <trkpt lat="48.44909" lon="2.6461">
        <ele>75</ele>
        <time>2013-09-26T13:39:28Z</time>
      </trkpt>
      <trkpt lat="48.44903" lon="2.64585">
        <ele>74</ele>
        <time>2013-09-26T13:39:32Z</time>
      </trkpt>
      <trkpt lat="48.44895" lon="2.64562">
        <ele>73.5</ele>
        <time>2013-09-26T13:39:36Z</time>
      </trkpt>
      <trkpt lat="48.44895" lon="2.64556">
        <ele>73</ele>
        <time>2013-09-26T13:39:37Z</time>
      </trkpt>
      <trkpt lat="48.44893" lon="2.64544">
        <ele>73</ele>
        <time>2013-09-26T13:39:39Z</time>
      </trkpt>
      <trkpt lat="48.44892" lon="2.64538">
        <ele>73</ele>
        <time>2013-09-26T13:39:40Z</time>
      </trkpt>
      <trkpt lat="48.44888" lon="2.64526">
        <ele>73</ele>
        <time>2013-09-26T13:39:42Z</time>
      </trkpt>
      <trkpt lat="48.44881" lon="2.64517">
        <ele>73</ele>
        <time>2013-09-26T13:39:44Z</time>
      </trkpt>
      <trkpt lat="48.44878" lon="2.64515">
        <ele>73</ele>
        <time>2013-09-26T13:39:45Z</time>
      </trkpt>
      <trkpt lat="48.44872" lon="2.64516">
        <ele>69</ele>
        <time>2013-09-26T13:39:47Z</time>
      </trkpt>
      <trkpt lat="48.44864" lon="2.64532">
        <ele>69</ele>
        <time>2013-09-26T13:39:50Z</time>
      </trkpt>
      <trkpt lat="48.44848" lon="2.64557">
        <ele>66</ele>
        <time>2013-09-26T13:39:54Z</time>
      </trkpt>
      <trkpt lat="48.44835" lon="2.64572">
        <ele>62</ele>
        <time>2013-09-26T13:39:58Z</time>
      </trkpt>
      <trkpt lat="48.44829" lon="2.64576">
        <ele>61.7</ele>
        <time>2013-09-26T13:39:59Z</time>
      </trkpt>
      <trkpt lat="48.44826" lon="2.64577">
        <ele>61</ele>
        <time>2013-09-26T13:40:01Z</time>
      </trkpt>
      <trkpt lat="48.4482" lon="2.64578">
        <ele>60.5</ele>
        <time>2013-09-26T13:40:03Z</time>
      </trkpt>
      <trkpt lat="48.44817" lon="2.64577">
        <ele>60</ele>
        <time>2013-09-26T13:40:04Z</time>
      </trkpt>
      <trkpt lat="48.44815" lon="2.64574">
        <ele>60</ele>
        <time>2013-09-26T13:40:05Z</time>
      </trkpt>
      <trkpt lat="48.4481" lon="2.64566">
        <ele>59</ele>
        <time>2013-09-26T13:40:07Z</time>
      </trkpt>
      <trkpt lat="48.44807" lon="2.64555">
        <ele>59</ele>
        <time>2013-09-26T13:40:09Z</time>
      </trkpt>
      <trkpt lat="48.44806" lon="2.6455">
        <ele>59</ele>
        <time>2013-09-26T13:40:10Z</time>
      </trkpt>
      <trkpt lat="48.44805" lon="2.64539">
        <ele>58</ele>
        <time>2013-09-26T13:40:12Z</time>
      </trkpt>
      <trkpt lat="48.44802" lon="2.6453">
        <ele>58</ele>
        <time>2013-09-26T13:40:14Z</time>
      </trkpt>
      <trkpt lat="48.44796" lon="2.64525">
        <ele>57</ele>
        <time>2013-09-26T13:40:16Z</time>
      </trkpt>
      <trkpt lat="48.44792" lon="2.64525">
        <ele>56</ele>
        <time>2013-09-26T13:40:17Z</time>
      </trkpt>
      <trkpt lat="48.44788" lon="2.64527">
        <ele>56</ele>
        <time>2013-09-26T13:40:18Z</time>
      </trkpt>
      <trkpt lat="48.44779" lon="2.64532">
        <ele>56</ele>
        <time>2013-09-26T13:40:20Z</time>
      </trkpt>
      <trkpt lat="48.44771" lon="2.64535">
        <ele>54</ele>
        <time>2013-09-26T13:40:22Z</time>
      </trkpt>
      <trkpt lat="48.44762" lon="2.64531">
        <ele>54</ele>
        <time>2013-09-26T13:40:24Z</time>
      </trkpt>
      <trkpt lat="48.44746" lon="2.64516">
        <ele>52</ele>
        <time>2013-09-26T13:40:28Z</time>
      </trkpt>
      <trkpt lat="48.44742" lon="2.64513">
        <ele>52</ele>
        <time>2013-09-26T13:40:29Z</time>
      </trkpt>
      <trkpt lat="48.44729" lon="2.64504">
        <ele>50</ele>
        <time>2013-09-26T13:40:32Z</time>
      </trkpt>
      <trkpt lat="48.44711" lon="2.64488">
        <ele>49.5</ele>
        <time>2013-09-26T13:40:36Z</time>
      </trkpt>
      <trkpt lat="48.44694" lon="2.64471">
        <ele>49</ele>
        <time>2013-09-26T13:40:40Z</time>
      </trkpt>
      <trkpt lat="48.44686" lon="2.64467">
        <ele>47</ele>
        <time>2013-09-26T13:40:42Z</time>
      </trkpt>
      <trkpt lat="48.44677" lon="2.64465">
        <ele>47</ele>
        <time>2013-09-26T13:40:44Z</time>
      </trkpt>
      <trkpt lat="48.44669" lon="2.64467">
        <ele>46.6</ele>
        <time>2013-09-26T13:40:46Z</time>
      </trkpt>
      <trkpt lat="48.4466" lon="2.64467">
        <ele>46</ele>
        <time>2013-09-26T13:40:48Z</time>
      </trkpt>
      <trkpt lat="48.44651" lon="2.64462">
        <ele>46</ele>
        <time>2013-09-26T13:40:50Z</time>
      </trkpt>
      <trkpt lat="48.44648" lon="2.64459">
        <ele>45.4</ele>
        <time>2013-09-26T13:40:51Z</time>
      </trkpt>
      <trkpt lat="48.44641" lon="2.64443">
        <ele>45</ele>
        <time>2013-09-26T13:40:54Z</time>
      </trkpt>
      <trkpt lat="48.44642" lon="2.6443">
        <ele>44.5</ele>
        <time>2013-09-26T13:40:56Z</time>
      </trkpt>
      <trkpt lat="48.44646" lon="2.64423">
        <ele>44</ele>
        <time>2013-09-26T13:40:58Z</time>
      </trkpt>
      <trkpt lat="48.44649" lon="2.64416">
        <ele>44</ele>
        <time>2013-09-26T13:41:00Z</time>
      </trkpt>
      <trkpt lat="48.44651" lon="2.64402">
        <ele>44</ele>
        <time>2013-09-26T13:41:02Z</time>
      </trkpt>
      <trkpt lat="48.44649" lon="2.64389">
        <ele>44</ele>
        <time>2013-09-26T13:41:04Z</time>
      </trkpt>
      <trkpt lat="48.44644" lon="2.64379">
        <ele>43.4</ele>
        <time>2013-09-26T13:41:06Z</time>
      </trkpt>
      <trkpt lat="48.44637" lon="2.64373">
        <ele>43</ele>
        <time>2013-09-26T13:41:08Z</time>
      </trkpt>
      <trkpt lat="48.44629" lon="2.6437">
        <ele>43</ele>
        <time>2013-09-26T13:41:10Z</time>
      </trkpt>
      <trkpt lat="48.44621" lon="2.64367">
        <ele>43</ele>
        <time>2013-09-26T13:41:12Z</time>
      </trkpt>
      <trkpt lat="48.44614" lon="2.64364">
        <ele>43</ele>
        <time>2013-09-26T13:41:14Z</time>
      </trkpt>
      <trkpt lat="48.44609" lon="2.64364">
        <ele>41.8</ele>
        <time>2013-09-26T13:41:16Z</time>
      </trkpt>
      <trkpt lat="48.44604" lon="2.64367">
        <ele>41</ele>
        <time>2013-09-26T13:41:18Z</time>
      </trkpt>
      <trkpt lat="48.446" lon="2.6437">
        <ele>41</ele>
        <time>2013-09-26T13:41:20Z</time>
      </trkpt>
      <trkpt lat="48.44595" lon="2.64376">
        <ele>41</ele>
        <time>2013-09-26T13:41:22Z</time>
      </trkpt>
      <trkpt lat="48.44588" lon="2.6438">
        <ele>41</ele>
        <time>2013-09-26T13:41:24Z</time>
      </trkpt>
      <trkpt lat="48.44581" lon="2.64379">
        <ele>40.5</ele>
        <time>2013-09-26T13:41:26Z</time>
      </trkpt>
      <trkpt lat="48.44574" lon="2.64377">
        <ele>40</ele>
        <time>2013-09-26T13:41:28Z</time>
      </trkpt>
      <trkpt lat="48.44568" lon="2.64374">
        <ele>40</ele>
        <time>2013-09-26T13:41:30Z</time>
      </trkpt>
      <trkpt lat="48.44561" lon="2.64373">
        <ele>40</ele>
        <time>2013-09-26T13:41:32Z</time>
      </trkpt>
      <trkpt lat="48.44556" lon="2.6437">
        <ele>40</ele>
        <time>2013-09-26T13:41:34Z</time>
      </trkpt>
      <trkpt lat="48.44552" lon="2.64367">
        <ele>39.4</ele>
        <time>2013-09-26T13:41:36Z</time>
      </trkpt>
      <trkpt lat="48.44545" lon="2.6436">
        <ele>39</ele>
        <time>2013-09-26T13:41:40Z</time>
      </trkpt>
      <trkpt lat="48.44543" lon="2.64357">
        <ele>39</ele>
        <time>2013-09-26T13:41:42Z</time>
      </trkpt>
      <trkpt lat="48.44542" lon="2.64352">
        <ele>39</ele>
        <time>2013-09-26T13:41:44Z</time>
      </trkpt>
      <trkpt lat="48.44541" lon="2.64346">
        <ele>39</ele>
        <time>2013-09-26T13:41:46Z</time>
      </trkpt>
      <trkpt lat="48.44541" lon="2.6434">
        <ele>39</ele>
        <time>2013-09-26T13:41:48Z</time>
      </trkpt>
      <trkpt lat="48.4454" lon="2.64322">
        <ele>39</ele>
        <time>2013-09-26T13:41:52Z</time>
      </trkpt>
      <trkpt lat="48.44539" lon="2.643">
        <ele>38.4</ele>
        <time>2013-09-26T13:41:56Z</time>
      </trkpt>
      <trkpt lat="48.44539" lon="2.6429">
        <ele>38</ele>
        <time>2013-09-26T13:41:58Z</time>
      </trkpt>
      <trkpt lat="48.4454" lon="2.64269">
        <ele>38</ele>
        <time>2013-09-26T13:42:02Z</time>
      </trkpt>
      <trkpt lat="48.44541" lon="2.64259">
        <ele>38</ele>
        <time>2013-09-26T13:42:04Z</time>
      </trkpt>
      <trkpt lat="48.44546" lon="2.64243">
        <ele>38</ele>
        <time>2013-09-26T13:42:07Z</time>
      </trkpt>
      <trkpt lat="48.44547" lon="2.6423">
        <ele>38</ele>
        <time>2013-09-26T13:42:09Z</time>
      </trkpt>
      <trkpt lat="48.44547" lon="2.64225">
        <ele>38</ele>
        <time>2013-09-26T13:42:10Z</time>
      </trkpt>
      <trkpt lat="48.44546" lon="2.64214">
        <ele>38</ele>
        <time>2013-09-26T13:42:12Z</time>
      </trkpt>
      <trkpt lat="48.44543" lon="2.64196">
        <ele>38</ele>
        <time>2013-09-26T13:42:15Z</time>
      </trkpt>
      <trkpt lat="48.44542" lon="2.64183">
        <ele>38</ele>
        <time>2013-09-26T13:42:17Z</time>
      </trkpt>
      <trkpt lat="48.44544" lon="2.6417">
        <ele>38</ele>
        <time>2013-09-26T13:42:19Z</time>
      </trkpt>
      <trkpt lat="48.44545" lon="2.64163">
        <ele>38</ele>
        <time>2013-09-26T13:42:20Z</time>
      </trkpt>
      <trkpt lat="48.44547" lon="2.64148">
        <ele>38</ele>
        <time>2013-09-26T13:42:22Z</time>
      </trkpt>
      <trkpt lat="48.44552" lon="2.6413">
        <ele>38</ele>
        <time>2013-09-26T13:42:25Z</time>
      </trkpt>
      <trkpt lat="48.44557" lon="2.64112">
        <ele>37</ele>
        <time>2013-09-26T13:42:28Z</time>
      </trkpt>
      <trkpt lat="48.44561" lon="2.641">
        <ele>37</ele>
        <time>2013-09-26T13:42:30Z</time>
      </trkpt>
      <trkpt lat="48.44562" lon="2.64094">
        <ele>37</ele>
        <time>2013-09-26T13:42:31Z</time>
      </trkpt>
      <trkpt lat="48.44565" lon="2.64074">
        <ele>37</ele>
        <time>2013-09-26T13:42:34Z</time>
      </trkpt>
      <trkpt lat="48.44567" lon="2.64063">
        <ele>37</ele>
        <time>2013-09-26T13:42:36Z</time>
      </trkpt>
      <trkpt lat="48.44568" lon="2.64051">
        <ele>37</ele>
        <time>2013-09-26T13:42:38Z</time>
      </trkpt>
      <trkpt lat="48.44571" lon="2.64038">
        <ele>37</ele>
        <time>2013-09-26T13:42:40Z</time>
      </trkpt>
      <trkpt lat="48.44576" lon="2.64014">
        <ele>37</ele>
        <time>2013-09-26T13:42:44Z</time>
      </trkpt>
      <trkpt lat="48.44579" lon="2.64002">
        <ele>37</ele>
        <time>2013-09-26T13:42:46Z</time>
      </trkpt>
      <trkpt lat="48.44583" lon="2.63981">
        <ele>37</ele>
        <time>2013-09-26T13:42:49Z</time>
      </trkpt>
      <trkpt lat="48.44586" lon="2.63966">
        <ele>37</ele>
        <time>2013-09-26T13:42:51Z</time>
      </trkpt>
      <trkpt lat="48.44592" lon="2.63942">
        <ele>37</ele>
        <time>2013-09-26T13:42:55Z</time>
      </trkpt>
      <trkpt lat="48.44595" lon="2.63926">
        <ele>36</ele>
        <time>2013-09-26T13:42:58Z</time>
      </trkpt>
      <trkpt lat="48.44596" lon="2.63904">
        <ele>36</ele>
        <time>2013-09-26T13:43:02Z</time>
      </trkpt>
      <trkpt lat="48.446" lon="2.63884">
        <ele>35.4</ele>
        <time>2013-09-26T13:43:06Z</time>
      </trkpt>
      <trkpt lat="48.44601" lon="2.63874">
        <ele>35</ele>
        <time>2013-09-26T13:43:08Z</time>
      </trkpt>
      <trkpt lat="48.44602" lon="2.63865">
        <ele>35</ele>
        <time>2013-09-26T13:43:10Z</time>
      </trkpt>
      <trkpt lat="48.44605" lon="2.63845">
        <ele>35</ele>
        <time>2013-09-26T13:43:14Z</time>
      </trkpt>
      <trkpt lat="48.44606" lon="2.63835">
        <ele>34.5</ele>
        <time>2013-09-26T13:43:16Z</time>
      </trkpt>
      <trkpt lat="48.44608" lon="2.63825">
        <ele>34</ele>
        <time>2013-09-26T13:43:18Z</time>
      </trkpt>
      <trkpt lat="48.44609" lon="2.63807">
        <ele>34</ele>
        <time>2013-09-26T13:43:22Z</time>
      </trkpt>
      <trkpt lat="48.44611" lon="2.63795">
        <ele>34</ele>
        <time>2013-09-26T13:43:25Z</time>
      </trkpt>
      <trkpt lat="48.44613" lon="2.63783">
        <ele>33</ele>
        <time>2013-09-26T13:43:29Z</time>
      </trkpt>
      <trkpt lat="48.44613" lon="2.63778">
        <ele>33</ele>
        <time>2013-09-26T13:43:32Z</time>
      </trkpt>
      <trkpt lat="48.44612" lon="2.63777">
        <ele>33</ele>
        <time>2013-09-26T13:43:44Z</time>
      </trkpt>
      <trkpt lat="48.44612" lon="2.63774">
        <ele>33</ele>
        <time>2013-09-26T13:44:27Z</time>
      </trkpt>
      <trkpt lat="48.44611" lon="2.63772">
        <ele>33</ele>
        <time>2013-09-26T13:44:28Z</time>
      </trkpt>
      <trkpt lat="48.44612" lon="2.63767">
        <ele>33</ele>
        <time>2013-09-26T13:44:30Z</time>
      </trkpt>
      <trkpt lat="48.44614" lon="2.63761">
        <ele>33</ele>
        <time>2013-09-26T13:44:32Z</time>
      </trkpt>
      <trkpt lat="48.4462" lon="2.6375">
        <ele>33</ele>
        <time>2013-09-26T13:44:36Z</time>
      </trkpt>
      <trkpt lat="48.44624" lon="2.63737">
        <ele>33</ele>
        <time>2013-09-26T13:44:40Z</time>
      </trkpt>
      <trkpt lat="48.44628" lon="2.6373">
        <ele>33</ele>
        <time>2013-09-26T13:44:42Z</time>
      </trkpt>
      <trkpt lat="48.44628" lon="2.63727">
        <ele>33</ele>
        <time>2013-09-26T13:44:43Z</time>
      </trkpt>
      <trkpt lat="48.44629" lon="2.63721">
        <ele>33</ele>
        <time>2013-09-26T13:44:45Z</time>
      </trkpt>
      <trkpt lat="48.4463" lon="2.63717">
        <ele>33</ele>
        <time>2013-09-26T13:44:46Z</time>
      </trkpt>
      <trkpt lat="48.44629" lon="2.63711">
        <ele>33</ele>
        <time>2013-09-26T13:44:48Z</time>
      </trkpt>
      <trkpt lat="48.44628" lon="2.63705">
        <ele>33</ele>
        <time>2013-09-26T13:44:50Z</time>
      </trkpt>
      <trkpt lat="48.44625" lon="2.63702">
        <ele>33</ele>
        <time>2013-09-26T13:44:52Z</time>
      </trkpt>
      <trkpt lat="48.44621" lon="2.63702">
        <ele>33</ele>
        <time>2013-09-26T13:44:54Z</time>
      </trkpt>
      <trkpt lat="48.44618" lon="2.63706">
        <ele>33</ele>
        <time>2013-09-26T13:44:56Z</time>
      </trkpt>
      <trkpt lat="48.44615" lon="2.63713">
        <ele>33</ele>
        <time>2013-09-26T13:44:58Z</time>
      </trkpt>
      <trkpt lat="48.44609" lon="2.63728">
        <ele>33</ele>
        <time>2013-09-26T13:45:02Z</time>
      </trkpt>
      <trkpt lat="48.44604" lon="2.63742">
        <ele>33</ele>
        <time>2013-09-26T13:45:06Z</time>
      </trkpt>
      <trkpt lat="48.44601" lon="2.63749">
        <ele>33</ele>
        <time>2013-09-26T13:45:08Z</time>
      </trkpt>
      <trkpt lat="48.44598" lon="2.63756">
        <ele>33</ele>
        <time>2013-09-26T13:45:11Z</time>
      </trkpt>
      <trkpt lat="48.44597" lon="2.63759">
        <ele>33</ele>
        <time>2013-09-26T13:45:13Z</time>
      </trkpt>
      <trkpt lat="48.44595" lon="2.63759">
        <ele>33</ele>
        <time>2013-09-26T13:45:15Z</time>
      </trkpt>
      <trkpt lat="48.44593" lon="2.63754">
        <ele>33</ele>
        <time>2013-09-26T13:45:17Z</time>
      </trkpt>
      <trkpt lat="48.44591" lon="2.63752">
        <ele>33</ele>
        <time>2013-09-26T13:45:18Z</time>
      </trkpt>
      <trkpt lat="48.44589" lon="2.63745">
        <ele>33</ele>
        <time>2013-09-26T13:45:20Z</time>
      </trkpt>
      <trkpt lat="48.44584" lon="2.63741">
        <ele>33</ele>
        <time>2013-09-26T13:45:22Z</time>
      </trkpt>
      <trkpt lat="48.44571" lon="2.63745">
        <ele>32.4</ele>
        <time>2013-09-26T13:45:26Z</time>
      </trkpt>
      <trkpt lat="48.44557" lon="2.63752">
        <ele>32</ele>
        <time>2013-09-26T13:45:35Z</time>
      </trkpt>
      <trkpt lat="48.44552" lon="2.63736">
        <ele>32</ele>
        <time>2013-09-26T13:45:37Z</time>
      </trkpt>
      <trkpt lat="48.44545" lon="2.63735">
        <ele>32</ele>
        <time>2013-09-26T13:45:39Z</time>
      </trkpt>
      <trkpt lat="48.44539" lon="2.63737">
        <ele>32</ele>
        <time>2013-09-26T13:45:41Z</time>
      </trkpt>
      <trkpt lat="48.44537" lon="2.63739">
        <ele>32</ele>
        <time>2013-09-26T13:45:42Z</time>
      </trkpt>
      <trkpt lat="48.44534" lon="2.63744">
        <ele>32</ele>
        <time>2013-09-26T13:45:44Z</time>
      </trkpt>
      <trkpt lat="48.44531" lon="2.63746">
        <ele>32</ele>
        <time>2013-09-26T13:45:46Z</time>
      </trkpt>
      <trkpt lat="48.44529" lon="2.63747">
        <ele>32</ele>
        <time>2013-09-26T13:45:47Z</time>
      </trkpt>
      <trkpt lat="48.44527" lon="2.63746">
        <ele>32</ele>
        <time>2013-09-26T13:45:48Z</time>
      </trkpt>
      <trkpt lat="48.44523" lon="2.63744">
        <ele>32</ele>
        <time>2013-09-26T13:45:50Z</time>
      </trkpt>
      <trkpt lat="48.44519" lon="2.63741">
        <ele>32</ele>
        <time>2013-09-26T13:45:52Z</time>
      </trkpt>
      <trkpt lat="48.44512" lon="2.6374">
        <ele>32</ele>
        <time>2013-09-26T13:45:55Z</time>
      </trkpt>
      <trkpt lat="48.44508" lon="2.63739">
        <ele>33</ele>
        <time>2013-09-26T13:45:57Z</time>
      </trkpt>
      <trkpt lat="48.44498" lon="2.63736">
        <ele>33</ele>
        <time>2013-09-26T13:46:00Z</time>
      </trkpt>
      <trkpt lat="48.44494" lon="2.63734">
        <ele>33</ele>
        <time>2013-09-26T13:46:01Z</time>
      </trkpt>
      <trkpt lat="48.44491" lon="2.6373">
        <ele>33</ele>
        <time>2013-09-26T13:46:03Z</time>
      </trkpt>
      <trkpt lat="48.44488" lon="2.63728">
        <ele>33</ele>
        <time>2013-09-26T13:46:05Z</time>
      </trkpt>
      <trkpt lat="48.44489" lon="2.63731">
        <ele>32</ele>
        <time>2013-09-26T13:46:09Z</time>
      </trkpt>
      <trkpt lat="48.44493" lon="2.63732">
        <ele>32</ele>
        <time>2013-09-26T13:46:11Z</time>
      </trkpt>
      <trkpt lat="48.44498" lon="2.63734">
        <ele>32</ele>
        <time>2013-09-26T13:46:13Z</time>
      </trkpt>
      <trkpt lat="48.44503" lon="2.63736">
        <ele>32</ele>
        <time>2013-09-26T13:46:15Z</time>
      </trkpt>
      <trkpt lat="48.44508" lon="2.63734">
        <ele>32</ele>
        <time>2013-09-26T13:46:17Z</time>
      </trkpt>
      <trkpt lat="48.44512" lon="2.63729">
        <ele>32</ele>
        <time>2013-09-26T13:46:19Z</time>
      </trkpt>
      <trkpt lat="48.44516" lon="2.63721">
        <ele>32</ele>
        <time>2013-09-26T13:46:21Z</time>
      </trkpt>
      <trkpt lat="48.44521" lon="2.63709">
        <ele>32</ele>
        <time>2013-09-26T13:46:24Z</time>
      </trkpt>
      <trkpt lat="48.44526" lon="2.63697">
        <ele>32</ele>
        <time>2013-09-26T13:46:27Z</time>
      </trkpt>
      <trkpt lat="48.44533" lon="2.63679">
        <ele>32</ele>
        <time>2013-09-26T13:46:31Z</time>
      </trkpt>
      <trkpt lat="48.44533" lon="2.63671">
        <ele>32</ele>
        <time>2013-09-26T13:46:33Z</time>
      </trkpt>
      <trkpt lat="48.44532" lon="2.63667">
        <ele>32</ele>
        <time>2013-09-26T13:46:34Z</time>
      </trkpt>
      <trkpt lat="48.4453" lon="2.63664">
        <ele>32</ele>
        <time>2013-09-26T13:46:35Z</time>
      </trkpt>
      <trkpt lat="48.44525" lon="2.63657">
        <ele>32</ele>
        <time>2013-09-26T13:46:37Z</time>
      </trkpt>
      <trkpt lat="48.44521" lon="2.63647">
        <ele>32</ele>
        <time>2013-09-26T13:46:39Z</time>
      </trkpt>
      <trkpt lat="48.44512" lon="2.63626">
        <ele>32</ele>
        <time>2013-09-26T13:46:43Z</time>
      </trkpt>
      <trkpt lat="48.44507" lon="2.63614">
        <ele>32</ele>
        <time>2013-09-26T13:46:45Z</time>
      </trkpt>
      <trkpt lat="48.44499" lon="2.63593">
        <ele>32</ele>
        <time>2013-09-26T13:46:49Z</time>
      </trkpt>
      <trkpt lat="48.44496" lon="2.63585">
        <ele>32</ele>
        <time>2013-09-26T13:46:51Z</time>
      </trkpt>
      <trkpt lat="48.44494" lon="2.63582">
        <ele>32</ele>
        <time>2013-09-26T13:47:01Z</time>
      </trkpt>
      <trkpt lat="48.44494" lon="2.63579">
        <ele>32</ele>
        <time>2013-09-26T13:47:06Z</time>
      </trkpt>
      <trkpt lat="48.44493" lon="2.63577">
        <ele>32</ele>
        <time>2013-09-26T13:47:07Z</time>
      </trkpt>
      <trkpt lat="48.44487" lon="2.63561">
        <ele>32</ele>
        <time>2013-09-26T13:47:11Z</time>
      </trkpt>
      <trkpt lat="48.4448" lon="2.63547">
        <ele>32</ele>
        <time>2013-09-26T13:47:15Z</time>
      </trkpt>
      <trkpt lat="48.44477" lon="2.63538">
        <ele>32</ele>
        <time>2013-09-26T13:47:17Z</time>
      </trkpt>
      <trkpt lat="48.44471" lon="2.63521">
        <ele>32</ele>
        <time>2013-09-26T13:47:21Z</time>
      </trkpt>
      <trkpt lat="48.44465" lon="2.63505">
        <ele>32</ele>
        <time>2013-09-26T13:47:25Z</time>
      </trkpt>
      <trkpt lat="48.44464" lon="2.63499">
        <ele>32</ele>
        <time>2013-09-26T13:47:27Z</time>
      </trkpt>
      <trkpt lat="48.44459" lon="2.63486">
        <ele>32</ele>
        <time>2013-09-26T13:47:31Z</time>
      </trkpt>
      <trkpt lat="48.44454" lon="2.63474">
        <ele>32</ele>
        <time>2013-09-26T13:47:34Z</time>
      </trkpt>
      <trkpt lat="48.44449" lon="2.63463">
        <ele>32</ele>
        <time>2013-09-26T13:47:37Z</time>
      </trkpt>
      <trkpt lat="48.44447" lon="2.63456">
        <ele>32</ele>
        <time>2013-09-26T13:47:39Z</time>
      </trkpt>
      <trkpt lat="48.44441" lon="2.63441">
        <ele>32</ele>
        <time>2013-09-26T13:47:43Z</time>
      </trkpt>
      <trkpt lat="48.44438" lon="2.63432">
        <ele>32</ele>
        <time>2013-09-26T13:47:45Z</time>
      </trkpt>
      <trkpt lat="48.44434" lon="2.63419">
        <ele>32</ele>
        <time>2013-09-26T13:47:48Z</time>
      </trkpt>
      <trkpt lat="48.44432" lon="2.6341">
        <ele>32</ele>
        <time>2013-09-26T13:47:50Z</time>
      </trkpt>
      <trkpt lat="48.44431" lon="2.63405">
        <ele>32</ele>
        <time>2013-09-26T13:47:51Z</time>
      </trkpt>
      <trkpt lat="48.44427" lon="2.63386">
        <ele>32</ele>
        <time>2013-09-26T13:47:55Z</time>
      </trkpt>
      <trkpt lat="48.44425" lon="2.63377">
        <ele>33</ele>
        <time>2013-09-26T13:47:57Z</time>
      </trkpt>
      <trkpt lat="48.44421" lon="2.63357">
        <ele>33</ele>
        <time>2013-09-26T13:48:01Z</time>
      </trkpt>
      <trkpt lat="48.44419" lon="2.63347">
        <ele>33</ele>
        <time>2013-09-26T13:48:03Z</time>
      </trkpt>
      <trkpt lat="48.44416" lon="2.63327">
        <ele>33</ele>
        <time>2013-09-26T13:48:07Z</time>
      </trkpt>
      <trkpt lat="48.44413" lon="2.63306">
        <ele>33</ele>
        <time>2013-09-26T13:48:11Z</time>
      </trkpt>
      <trkpt lat="48.44411" lon="2.63297">
        <ele>33</ele>
        <time>2013-09-26T13:48:13Z</time>
      </trkpt>
      <trkpt lat="48.44408" lon="2.63287">
        <ele>33</ele>
        <time>2013-09-26T13:48:15Z</time>
      </trkpt>
      <trkpt lat="48.44403" lon="2.63266">
        <ele>32</ele>
        <time>2013-09-26T13:48:19Z</time>
      </trkpt>
      <trkpt lat="48.444" lon="2.63251">
        <ele>32</ele>
        <time>2013-09-26T13:48:22Z</time>
      </trkpt>
      <trkpt lat="48.44397" lon="2.63237">
        <ele>32</ele>
        <time>2013-09-26T13:48:25Z</time>
      </trkpt>
      <trkpt lat="48.44391" lon="2.63216">
        <ele>32</ele>
        <time>2013-09-26T13:48:29Z</time>
      </trkpt>
      <trkpt lat="48.44385" lon="2.63196">
        <ele>32</ele>
        <time>2013-09-26T13:48:33Z</time>
      </trkpt>
      <trkpt lat="48.44383" lon="2.63191">
        <ele>32</ele>
        <time>2013-09-26T13:48:34Z</time>
      </trkpt>
      <trkpt lat="48.44377" lon="2.63177">
        <ele>32</ele>
        <time>2013-09-26T13:48:37Z</time>
      </trkpt>
      <trkpt lat="48.44373" lon="2.63165">
        <ele>32</ele>
        <time>2013-09-26T13:48:39Z</time>
      </trkpt>
      <trkpt lat="48.4437" lon="2.63155">
        <ele>32</ele>
        <time>2013-09-26T13:48:41Z</time>
      </trkpt>
      <trkpt lat="48.44366" lon="2.6314">
        <ele>32</ele>
        <time>2013-09-26T13:48:44Z</time>
      </trkpt>
      <trkpt lat="48.44365" lon="2.63137">
        <ele>32</ele>
        <time>2013-09-26T13:48:45Z</time>
      </trkpt>
      <trkpt lat="48.44358" lon="2.63122">
        <ele>31</ele>
        <time>2013-09-26T13:48:49Z</time>
      </trkpt>
      <trkpt lat="48.44355" lon="2.63115">
        <ele>31</ele>
        <time>2013-09-26T13:48:51Z</time>
      </trkpt>
      <trkpt lat="48.44352" lon="2.63104">
        <ele>31</ele>
        <time>2013-09-26T13:48:54Z</time>
      </trkpt>
      <trkpt lat="48.44351" lon="2.631">
        <ele>31</ele>
        <time>2013-09-26T13:48:55Z</time>
      </trkpt>
      <trkpt lat="48.44348" lon="2.63093">
        <ele>31</ele>
        <time>2013-09-26T13:48:57Z</time>
      </trkpt>
      <trkpt lat="48.44343" lon="2.6308">
        <ele>31</ele>
        <time>2013-09-26T13:49:00Z</time>
      </trkpt>
      <trkpt lat="48.4434" lon="2.63071">
        <ele>31</ele>
        <time>2013-09-26T13:49:02Z</time>
      </trkpt>
      <trkpt lat="48.44337" lon="2.63067">
        <ele>31</ele>
        <time>2013-09-26T13:49:03Z</time>
      </trkpt>
      <trkpt lat="48.44334" lon="2.63058">
        <ele>31</ele>
        <time>2013-09-26T13:49:05Z</time>
      </trkpt>
      <trkpt lat="48.44328" lon="2.63048">
        <ele>31</ele>
        <time>2013-09-26T13:49:07Z</time>
      </trkpt>
      <trkpt lat="48.4432" lon="2.63035">
        <ele>31</ele>
        <time>2013-09-26T13:49:10Z</time>
      </trkpt>
      <trkpt lat="48.44311" lon="2.63024">
        <ele>31</ele>
        <time>2013-09-26T13:49:13Z</time>
      </trkpt>
      <trkpt lat="48.443" lon="2.63011">
        <ele>31</ele>
        <time>2013-09-26T13:49:17Z</time>
      </trkpt>
      <trkpt lat="48.44294" lon="2.63004">
        <ele>31</ele>
        <time>2013-09-26T13:49:19Z</time>
      </trkpt>
      <trkpt lat="48.44287" lon="2.62992">
        <ele>31</ele>
        <time>2013-09-26T13:49:22Z</time>
      </trkpt>
      <trkpt lat="48.4428" lon="2.62982">
        <ele>31</ele>
        <time>2013-09-26T13:49:25Z</time>
      </trkpt>
      <trkpt lat="48.44277" lon="2.62975">
        <ele>31</ele>
        <time>2013-09-26T13:49:27Z</time>
      </trkpt>
      <trkpt lat="48.44271" lon="2.62963">
        <ele>31</ele>
        <time>2013-09-26T13:49:30Z</time>
      </trkpt>
      <trkpt lat="48.44266" lon="2.62954">
        <ele>31</ele>
        <time>2013-09-26T13:49:32Z</time>
      </trkpt>
      <trkpt lat="48.44264" lon="2.6295">
        <ele>31</ele>
        <time>2013-09-26T13:49:33Z</time>
      </trkpt>
      <trkpt lat="48.44255" lon="2.62928">
        <ele>31</ele>
        <time>2013-09-26T13:49:37Z</time>
      </trkpt>
      <trkpt lat="48.44253" lon="2.62921">
        <ele>31</ele>
        <time>2013-09-26T13:49:38Z</time>
      </trkpt>
      <trkpt lat="48.44246" lon="2.62901">
        <ele>31</ele>
        <time>2013-09-26T13:49:41Z</time>
      </trkpt>
      <trkpt lat="48.44243" lon="2.62887">
        <ele>31</ele>
        <time>2013-09-26T13:49:43Z</time>
      </trkpt>
      <trkpt lat="48.44236" lon="2.62859">
        <ele>31</ele>
        <time>2013-09-26T13:49:47Z</time>
      </trkpt>
      <trkpt lat="48.44232" lon="2.62846">
        <ele>31</ele>
        <time>2013-09-26T13:49:49Z</time>
      </trkpt>
      <trkpt lat="48.44225" lon="2.62818">
        <ele>31</ele>
        <time>2013-09-26T13:49:53Z</time>
      </trkpt>
      <trkpt lat="48.44219" lon="2.62794">
        <ele>31</ele>
        <time>2013-09-26T13:49:57Z</time>
      </trkpt>
      <trkpt lat="48.44214" lon="2.62778">
        <ele>31</ele>
        <time>2013-09-26T13:50:00Z</time>
      </trkpt>
      <trkpt lat="48.4421" lon="2.62764">
        <ele>31</ele>
        <time>2013-09-26T13:50:03Z</time>
      </trkpt>
      <trkpt lat="48.44207" lon="2.62755">
        <ele>31</ele>
        <time>2013-09-26T13:50:05Z</time>
      </trkpt>
      <trkpt lat="48.44201" lon="2.6274">
        <ele>31</ele>
        <time>2013-09-26T13:50:08Z</time>
      </trkpt>
      <trkpt lat="48.44198" lon="2.62735">
        <ele>31</ele>
        <time>2013-09-26T13:50:09Z</time>
      </trkpt>
      <trkpt lat="48.44194" lon="2.62723">
        <ele>31</ele>
        <time>2013-09-26T13:50:11Z</time>
      </trkpt>
      <trkpt lat="48.44188" lon="2.627">
        <ele>31</ele>
        <time>2013-09-26T13:50:15Z</time>
      </trkpt>
      <trkpt lat="48.4418" lon="2.62677">
        <ele>30</ele>
        <time>2013-09-26T13:50:19Z</time>
      </trkpt>
      <trkpt lat="48.44179" lon="2.62672">
        <ele>30</ele>
        <time>2013-09-26T13:50:20Z</time>
      </trkpt>
      <trkpt lat="48.44175" lon="2.62662">
        <ele>30</ele>
        <time>2013-09-26T13:50:22Z</time>
      </trkpt>
      <trkpt lat="48.44172" lon="2.62652">
        <ele>30</ele>
        <time>2013-09-26T13:50:24Z</time>
      </trkpt>
      <trkpt lat="48.44168" lon="2.62641">
        <ele>31</ele>
        <time>2013-09-26T13:50:27Z</time>
      </trkpt>
      <trkpt lat="48.44165" lon="2.62633">
        <ele>31</ele>
        <time>2013-09-26T13:50:29Z</time>
      </trkpt>
      <trkpt lat="48.44161" lon="2.62619">
        <ele>31</ele>
        <time>2013-09-26T13:50:33Z</time>
      </trkpt>
      <trkpt lat="48.44154" lon="2.62603">
        <ele>31</ele>
        <time>2013-09-26T13:50:37Z</time>
      </trkpt>
      <trkpt lat="48.44151" lon="2.62597">
        <ele>31</ele>
        <time>2013-09-26T13:50:39Z</time>
      </trkpt>
      <trkpt lat="48.44148" lon="2.6259">
        <ele>31</ele>
        <time>2013-09-26T13:50:41Z</time>
      </trkpt>
      <trkpt lat="48.44145" lon="2.62585">
        <ele>31</ele>
        <time>2013-09-26T13:50:43Z</time>
      </trkpt>
      <trkpt lat="48.44143" lon="2.6258">
        <ele>31</ele>
        <time>2013-09-26T13:50:45Z</time>
      </trkpt>
      <trkpt lat="48.4414" lon="2.6257">
        <ele>32</ele>
        <time>2013-09-26T13:50:48Z</time>
      </trkpt>
      <trkpt lat="48.44139" lon="2.62566">
        <ele>32</ele>
        <time>2013-09-26T13:50:49Z</time>
      </trkpt>
      <trkpt lat="48.44137" lon="2.62558">
        <ele>32</ele>
        <time>2013-09-26T13:50:51Z</time>
      </trkpt>
      <trkpt lat="48.44131" lon="2.6254">
        <ele>32</ele>
        <time>2013-09-26T13:50:55Z</time>
      </trkpt>
      <trkpt lat="48.44124" lon="2.62523">
        <ele>32</ele>
        <time>2013-09-26T13:50:59Z</time>
      </trkpt>
      <trkpt lat="48.4412" lon="2.62509">
        <ele>32</ele>
        <time>2013-09-26T13:51:02Z</time>
      </trkpt>
      <trkpt lat="48.44115" lon="2.62497">
        <ele>32</ele>
        <time>2013-09-26T13:51:05Z</time>
      </trkpt>
      <trkpt lat="48.4411" lon="2.62482">
        <ele>31</ele>
        <time>2013-09-26T13:51:09Z</time>
      </trkpt>
      <trkpt lat="48.44108" lon="2.62475">
        <ele>31</ele>
        <time>2013-09-26T13:51:11Z</time>
      </trkpt>
      <trkpt lat="48.44105" lon="2.62461">
        <ele>31</ele>
        <time>2013-09-26T13:51:15Z</time>
      </trkpt>
      <trkpt lat="48.44102" lon="2.62454">
        <ele>30</ele>
        <time>2013-09-26T13:51:18Z</time>
      </trkpt>
      <trkpt lat="48.44102" lon="2.62451">
        <ele>30</ele>
        <time>2013-09-26T13:51:19Z</time>
      </trkpt>
      <trkpt lat="48.441" lon="2.62445">
        <ele>30</ele>
        <time>2013-09-26T13:51:21Z</time>
      </trkpt>
      <trkpt lat="48.44098" lon="2.62442">
        <ele>30</ele>
        <time>2013-09-26T13:51:23Z</time>
      </trkpt>
      <trkpt lat="48.44096" lon="2.62445">
        <ele>30</ele>
        <time>2013-09-26T13:51:25Z</time>
      </trkpt>
      <trkpt lat="48.44096" lon="2.62456">
        <ele>30</ele>
        <time>2013-09-26T13:51:29Z</time>
      </trkpt>
      <trkpt lat="48.44092" lon="2.6247">
        <ele>30</ele>
        <time>2013-09-26T13:51:33Z</time>
      </trkpt>
      <trkpt lat="48.44089" lon="2.62483">
        <ele>31</ele>
        <time>2013-09-26T13:51:37Z</time>
      </trkpt>
      <trkpt lat="48.44088" lon="2.62489">
        <ele>31</ele>
        <time>2013-09-26T13:51:39Z</time>
      </trkpt>
      <trkpt lat="48.44087" lon="2.62493">
        <ele>31</ele>
        <time>2013-09-26T13:51:41Z</time>
      </trkpt>
      <trkpt lat="48.44086" lon="2.62494">
        <ele>31</ele>
        <time>2013-09-26T13:51:42Z</time>
      </trkpt>
      <trkpt lat="48.44083" lon="2.62497">
        <ele>31</ele>
        <time>2013-09-26T13:51:44Z</time>
      </trkpt>
      <trkpt lat="48.4408" lon="2.62498">
        <ele>31</ele>
        <time>2013-09-26T13:51:46Z</time>
      </trkpt>
      <trkpt lat="48.44077" lon="2.62499">
        <ele>31</ele>
        <time>2013-09-26T13:51:48Z</time>
      </trkpt>
      <trkpt lat="48.44075" lon="2.62496">
        <ele>31</ele>
        <time>2013-09-26T13:51:49Z</time>
      </trkpt>
      <trkpt lat="48.44074" lon="2.6249">
        <ele>31</ele>
        <time>2013-09-26T13:51:51Z</time>
      </trkpt>
      <trkpt lat="48.44073" lon="2.62484">
        <ele>31</ele>
        <time>2013-09-26T13:51:53Z</time>
      </trkpt>
      <trkpt lat="48.44074" lon="2.62477">
        <ele>31</ele>
        <time>2013-09-26T13:51:55Z</time>
      </trkpt>
      <trkpt lat="48.44077" lon="2.62474">
        <ele>31</ele>
        <time>2013-09-26T13:51:57Z</time>
      </trkpt>
      <trkpt lat="48.4408" lon="2.62473">
        <ele>31</ele>
        <time>2013-09-26T13:51:59Z</time>
      </trkpt>
      <trkpt lat="48.44084" lon="2.6247">
        <ele>31</ele>
        <time>2013-09-26T13:52:01Z</time>
      </trkpt>
      <trkpt lat="48.44085" lon="2.62468">
        <ele>31</ele>
        <time>2013-09-26T13:52:02Z</time>
      </trkpt>
      <trkpt lat="48.44087" lon="2.62466">
        <ele>31</ele>
        <time>2013-09-26T13:52:03Z</time>
      </trkpt>
      <trkpt lat="48.44089" lon="2.62465">
        <ele>31</ele>
        <time>2013-09-26T13:52:04Z</time>
      </trkpt>
      <trkpt lat="48.44092" lon="2.62463">
        <ele>31</ele>
        <time>2013-09-26T13:52:06Z</time>
      </trkpt>
      <trkpt lat="48.44095" lon="2.62458">
        <ele>31</ele>
        <time>2013-09-26T13:52:08Z</time>
      </trkpt>
      <trkpt lat="48.44096" lon="2.62455">
        <ele>31</ele>
        <time>2013-09-26T13:52:09Z</time>
      </trkpt>
      <trkpt lat="48.44098" lon="2.6245">
        <ele>31</ele>
        <time>2013-09-26T13:52:11Z</time>
      </trkpt>
      <trkpt lat="48.44099" lon="2.62447">
        <ele>31</ele>
        <time>2013-09-26T13:52:12Z</time>
      </trkpt>
      <trkpt lat="48.44097" lon="2.62441">
        <ele>31</ele>
        <time>2013-09-26T13:52:14Z</time>
      </trkpt>
      <trkpt lat="48.44095" lon="2.62439">
        <ele>31</ele>
        <time>2013-09-26T13:52:15Z</time>
      </trkpt>
      <trkpt lat="48.44088" lon="2.62436">
        <ele>31</ele>
        <time>2013-09-26T13:52:18Z</time>
      </trkpt>
      <trkpt lat="48.44083" lon="2.62432">
        <ele>31</ele>
        <time>2013-09-26T13:52:20Z</time>
      </trkpt>
      <trkpt lat="48.44078" lon="2.62427">
        <ele>31</ele>
        <time>2013-09-26T13:52:22Z</time>
      </trkpt>
      <trkpt lat="48.44073" lon="2.62422">
        <ele>31</ele>
        <time>2013-09-26T13:52:24Z</time>
      </trkpt>
      <trkpt lat="48.44071" lon="2.62421">
        <ele>31</ele>
        <time>2013-09-26T13:52:25Z</time>
      </trkpt>
      <trkpt lat="48.44066" lon="2.6242">
        <ele>32</ele>
        <time>2013-09-26T13:52:27Z</time>
      </trkpt>
      <trkpt lat="48.4406" lon="2.6242">
        <ele>32</ele>
        <time>2013-09-26T13:52:29Z</time>
      </trkpt>
      <trkpt lat="48.44048" lon="2.62422">
        <ele>32</ele>
        <time>2013-09-26T13:52:33Z</time>
      </trkpt>
      <trkpt lat="48.44045" lon="2.62423">
        <ele>32</ele>
        <time>2013-09-26T13:52:34Z</time>
      </trkpt>
      <trkpt lat="48.4404" lon="2.62429">
        <ele>32</ele>
        <time>2013-09-26T13:52:36Z</time>
      </trkpt>
      <trkpt lat="48.44033" lon="2.62438">
        <ele>32</ele>
        <time>2013-09-26T13:52:39Z</time>
      </trkpt>
      <trkpt lat="48.44027" lon="2.62442">
        <ele>32</ele>
        <time>2013-09-26T13:52:41Z</time>
      </trkpt>
      <trkpt lat="48.44021" lon="2.62442">
        <ele>32</ele>
        <time>2013-09-26T13:52:43Z</time>
      </trkpt>
      <trkpt lat="48.44009" lon="2.62438">
        <ele>31</ele>
        <time>2013-09-26T13:52:47Z</time>
      </trkpt>
      <trkpt lat="48.44004" lon="2.62438">
        <ele>31</ele>
        <time>2013-09-26T13:52:49Z</time>
      </trkpt>
      <trkpt lat="48.43997" lon="2.62438">
        <ele>31</ele>
        <time>2013-09-26T13:52:51Z</time>
      </trkpt>
      <trkpt lat="48.43989" lon="2.62437">
        <ele>31</ele>
        <time>2013-09-26T13:52:53Z</time>
      </trkpt>
      <trkpt lat="48.43984" lon="2.62436">
        <ele>31</ele>
        <time>2013-09-26T13:52:55Z</time>
      </trkpt>
      <trkpt lat="48.43974" lon="2.62434">
        <ele>31</ele>
        <time>2013-09-26T13:52:58Z</time>
      </trkpt>
      <trkpt lat="48.43967" lon="2.62434">
        <ele>31</ele>
        <time>2013-09-26T13:53:00Z</time>
      </trkpt>
      <trkpt lat="48.4396" lon="2.62432">
        <ele>31</ele>
        <time>2013-09-26T13:53:02Z</time>
      </trkpt>
      <trkpt lat="48.43952" lon="2.6243">
        <ele>31</ele>
        <time>2013-09-26T13:53:04Z</time>
      </trkpt>
      <trkpt lat="48.43941" lon="2.62428">
        <ele>32</ele>
        <time>2013-09-26T13:53:07Z</time>
      </trkpt>
      <trkpt lat="48.43926" lon="2.62426">
        <ele>32</ele>
        <time>2013-09-26T13:53:11Z</time>
      </trkpt>
      <trkpt lat="48.43919" lon="2.62424">
        <ele>32</ele>
        <time>2013-09-26T13:53:13Z</time>
      </trkpt>
      <trkpt lat="48.43911" lon="2.62422">
        <ele>32</ele>
        <time>2013-09-26T13:53:15Z</time>
      </trkpt>
      <trkpt lat="48.43903" lon="2.6242">
        <ele>32</ele>
        <time>2013-09-26T13:53:17Z</time>
      </trkpt>
      <trkpt lat="48.439" lon="2.6242">
        <ele>32</ele>
        <time>2013-09-26T13:53:18Z</time>
      </trkpt>
      <trkpt lat="48.43885" lon="2.62418">
        <ele>32</ele>
        <time>2013-09-26T13:53:22Z</time>
      </trkpt>
      <trkpt lat="48.43877" lon="2.62418">
        <ele>32</ele>
        <time>2013-09-26T13:53:24Z</time>
      </trkpt>
      <trkpt lat="48.43865" lon="2.62416">
        <ele>32</ele>
        <time>2013-09-26T13:53:27Z</time>
      </trkpt>
      <trkpt lat="48.43858" lon="2.62415">
        <ele>32</ele>
        <time>2013-09-26T13:53:29Z</time>
      </trkpt>
      <trkpt lat="48.43854" lon="2.62414">
        <ele>32</ele>
        <time>2013-09-26T13:53:30Z</time>
      </trkpt>
      <trkpt lat="48.43843" lon="2.62411">
        <ele>32</ele>
        <time>2013-09-26T13:53:33Z</time>
      </trkpt>
      <trkpt lat="48.43828" lon="2.62409">
        <ele>32</ele>
        <time>2013-09-26T13:53:37Z</time>
      </trkpt>
      <trkpt lat="48.43818" lon="2.62408">
        <ele>32</ele>
        <time>2013-09-26T13:53:40Z</time>
      </trkpt>
      <trkpt lat="48.43811" lon="2.62408">
        <ele>32</ele>
        <time>2013-09-26T13:53:42Z</time>
      </trkpt>
      <trkpt lat="48.43801" lon="2.62406">
        <ele>32</ele>
        <time>2013-09-26T13:53:45Z</time>
      </trkpt>
      <trkpt lat="48.43795" lon="2.62405">
        <ele>32</ele>
        <time>2013-09-26T13:53:47Z</time>
      </trkpt>
      <trkpt lat="48.43785" lon="2.62406">
        <ele>32</ele>
        <time>2013-09-26T13:53:50Z</time>
      </trkpt>
      <trkpt lat="48.43782" lon="2.62407">
        <ele>32</ele>
        <time>2013-09-26T13:53:51Z</time>
      </trkpt>
      <trkpt lat="48.43769" lon="2.62405">
        <ele>32</ele>
        <time>2013-09-26T13:53:55Z</time>
      </trkpt>
      <trkpt lat="48.43758" lon="2.62403">
        <ele>34</ele>
        <time>2013-09-26T13:53:59Z</time>
      </trkpt>
      <trkpt lat="48.43745" lon="2.62402">
        <ele>34</ele>
        <time>2013-09-26T13:54:03Z</time>
      </trkpt>
      <trkpt lat="48.43738" lon="2.62403">
        <ele>34</ele>
        <time>2013-09-26T13:54:05Z</time>
      </trkpt>
      <trkpt lat="48.43723" lon="2.62405">
        <ele>34</ele>
        <time>2013-09-26T13:54:09Z</time>
      </trkpt>
      <trkpt lat="48.43719" lon="2.62406">
        <ele>34</ele>
        <time>2013-09-26T13:54:10Z</time>
      </trkpt>
      <trkpt lat="48.43713" lon="2.62409">
        <ele>34</ele>
        <time>2013-09-26T13:54:12Z</time>
      </trkpt>
      <trkpt lat="48.43707" lon="2.62414">
        <ele>34</ele>
        <time>2013-09-26T13:54:14Z</time>
      </trkpt>
      <trkpt lat="48.43704" lon="2.62418">
        <ele>34</ele>
        <time>2013-09-26T13:54:15Z</time>
      </trkpt>
      <trkpt lat="48.437" lon="2.62427">
        <ele>35</ele>
        <time>2013-09-26T13:54:17Z</time>
      </trkpt>
      <trkpt lat="48.43694" lon="2.62434">
        <ele>35</ele>
        <time>2013-09-26T13:54:19Z</time>
      </trkpt>
      <trkpt lat="48.43682" lon="2.62451">
        <ele>35</ele>
        <time>2013-09-26T13:54:23Z</time>
      </trkpt>
      <trkpt lat="48.43678" lon="2.62459">
        <ele>35</ele>
        <time>2013-09-26T13:54:25Z</time>
      </trkpt>
      <trkpt lat="48.43668" lon="2.62476">
        <ele>34</ele>
        <time>2013-09-26T13:54:29Z</time>
      </trkpt>
      <trkpt lat="48.43665" lon="2.6248">
        <ele>34</ele>
        <time>2013-09-26T13:54:30Z</time>
      </trkpt>
      <trkpt lat="48.43662" lon="2.62483">
        <ele>34</ele>
        <time>2013-09-26T13:54:31Z</time>
      </trkpt>
      <trkpt lat="48.43656" lon="2.62492">
        <ele>34</ele>
        <time>2013-09-26T13:54:33Z</time>
      </trkpt>
      <trkpt lat="48.43649" lon="2.62503">
        <ele>33.5</ele>
        <time>2013-09-26T13:54:36Z</time>
      </trkpt>
      <trkpt lat="48.43642" lon="2.62515">
        <ele>33</ele>
        <time>2013-09-26T13:54:39Z</time>
      </trkpt>
      <trkpt lat="48.4363" lon="2.62534">
        <ele>33</ele>
        <time>2013-09-26T13:54:43Z</time>
      </trkpt>
      <trkpt lat="48.43626" lon="2.62543">
        <ele>33</ele>
        <time>2013-09-26T13:54:45Z</time>
      </trkpt>
      <trkpt lat="48.4362" lon="2.62551">
        <ele>33</ele>
        <time>2013-09-26T13:54:47Z</time>
      </trkpt>
      <trkpt lat="48.43617" lon="2.62554">
        <ele>33</ele>
        <time>2013-09-26T13:54:48Z</time>
      </trkpt>
      <trkpt lat="48.43615" lon="2.62557">
        <ele>33</ele>
        <time>2013-09-26T13:54:49Z</time>
      </trkpt>
      <trkpt lat="48.43605" lon="2.62571">
        <ele>33</ele>
        <time>2013-09-26T13:54:53Z</time>
      </trkpt>
      <trkpt lat="48.43601" lon="2.62575">
        <ele>33</ele>
        <time>2013-09-26T13:54:54Z</time>
      </trkpt>
      <trkpt lat="48.43594" lon="2.62584">
        <ele>34</ele>
        <time>2013-09-26T13:54:57Z</time>
      </trkpt>
      <trkpt lat="48.43586" lon="2.62596">
        <ele>34</ele>
        <time>2013-09-26T13:55:01Z</time>
      </trkpt>
      <trkpt lat="48.4358" lon="2.62601">
        <ele>34</ele>
        <time>2013-09-26T13:55:03Z</time>
      </trkpt>
      <trkpt lat="48.43575" lon="2.62607">
        <ele>34</ele>
        <time>2013-09-26T13:55:05Z</time>
      </trkpt>
      <trkpt lat="48.43564" lon="2.6262">
        <ele>35</ele>
        <time>2013-09-26T13:55:09Z</time>
      </trkpt>
      <trkpt lat="48.43556" lon="2.62631">
        <ele>35</ele>
        <time>2013-09-26T13:55:12Z</time>
      </trkpt>
      <trkpt lat="48.43549" lon="2.62641">
        <ele>35</ele>
        <time>2013-09-26T13:55:15Z</time>
      </trkpt>
      <trkpt lat="48.43544" lon="2.62649">
        <ele>35</ele>
        <time>2013-09-26T13:55:17Z</time>
      </trkpt>
      <trkpt lat="48.43536" lon="2.6266">
        <ele>35</ele>
        <time>2013-09-26T13:55:20Z</time>
      </trkpt>
      <trkpt lat="48.43525" lon="2.62674">
        <ele>35</ele>
        <time>2013-09-26T13:55:24Z</time>
      </trkpt>
      <trkpt lat="48.43517" lon="2.62684">
        <ele>36</ele>
        <time>2013-09-26T13:55:27Z</time>
      </trkpt>
      <trkpt lat="48.43512" lon="2.6269">
        <ele>36</ele>
        <time>2013-09-26T13:55:29Z</time>
      </trkpt>
      <trkpt lat="48.43508" lon="2.62697">
        <ele>36</ele>
        <time>2013-09-26T13:55:31Z</time>
      </trkpt>
      <trkpt lat="48.43505" lon="2.627">
        <ele>36</ele>
        <time>2013-09-26T13:55:32Z</time>
      </trkpt>
      <trkpt lat="48.43498" lon="2.62709">
        <ele>36</ele>
        <time>2013-09-26T13:55:35Z</time>
      </trkpt>
      <trkpt lat="48.43496" lon="2.62712">
        <ele>36.7</ele>
        <time>2013-09-26T13:55:36Z</time>
      </trkpt>
      <trkpt lat="48.43491" lon="2.62715">
        <ele>37</ele>
        <time>2013-09-26T13:55:38Z</time>
      </trkpt>
      <trkpt lat="48.43487" lon="2.62719">
        <ele>37</ele>
        <time>2013-09-26T13:55:40Z</time>
      </trkpt>
      <trkpt lat="48.43483" lon="2.62724">
        <ele>37</ele>
        <time>2013-09-26T13:55:42Z</time>
      </trkpt>
      <trkpt lat="48.43481" lon="2.62727">
        <ele>37</ele>
        <time>2013-09-26T13:55:43Z</time>
      </trkpt>
      <trkpt lat="48.43478" lon="2.62747">
        <ele>37</ele>
        <time>2013-09-26T13:55:47Z</time>
      </trkpt>
      <trkpt lat="48.43479" lon="2.62756">
        <ele>37</ele>
        <time>2013-09-26T13:55:49Z</time>
      </trkpt>
      <trkpt lat="48.43482" lon="2.62765">
        <ele>37</ele>
        <time>2013-09-26T13:55:52Z</time>
      </trkpt>
      <trkpt lat="48.43483" lon="2.62769">
        <ele>37</ele>
        <time>2013-09-26T13:55:53Z</time>
      </trkpt>
      <trkpt lat="48.43488" lon="2.62782">
        <ele>37</ele>
        <time>2013-09-26T13:55:57Z</time>
      </trkpt>
      <trkpt lat="48.43491" lon="2.62789">
        <ele>37</ele>
        <time>2013-09-26T13:55:59Z</time>
      </trkpt>
      <trkpt lat="48.43492" lon="2.62795">
        <ele>37</ele>
        <time>2013-09-26T13:56:01Z</time>
      </trkpt>
      <trkpt lat="48.43495" lon="2.62802">
        <ele>37</ele>
        <time>2013-09-26T13:56:03Z</time>
      </trkpt>
      <trkpt lat="48.43502" lon="2.62815">
        <ele>37</ele>
        <time>2013-09-26T13:56:07Z</time>
      </trkpt>
      <trkpt lat="48.43506" lon="2.62825">
        <ele>37</ele>
        <time>2013-09-26T13:56:11Z</time>
      </trkpt>
      <trkpt lat="48.43509" lon="2.62831">
        <ele>37</ele>
        <time>2013-09-26T13:56:13Z</time>
      </trkpt>
      <trkpt lat="48.43512" lon="2.62838">
        <ele>37</ele>
        <time>2013-09-26T13:56:15Z</time>
      </trkpt>
      <trkpt lat="48.43513" lon="2.62844">
        <ele>37</ele>
        <time>2013-09-26T13:56:17Z</time>
      </trkpt>
      <trkpt lat="48.43515" lon="2.6285">
        <ele>37</ele>
        <time>2013-09-26T13:56:19Z</time>
      </trkpt>
      <trkpt lat="48.43516" lon="2.62852">
        <ele>37</ele>
        <time>2013-09-26T13:56:20Z</time>
      </trkpt>
      <trkpt lat="48.43517" lon="2.62857">
        <ele>37</ele>
        <time>2013-09-26T13:56:22Z</time>
      </trkpt>
      <trkpt lat="48.43519" lon="2.62863">
        <ele>37</ele>
        <time>2013-09-26T13:56:25Z</time>
      </trkpt>
      <trkpt lat="48.43521" lon="2.62872">
        <ele>38</ele>
        <time>2013-09-26T13:56:29Z</time>
      </trkpt>
      <trkpt lat="48.4352" lon="2.62876">
        <ele>38</ele>
        <time>2013-09-26T13:56:31Z</time>
      </trkpt>
      <trkpt lat="48.43517" lon="2.62879">
        <ele>38</ele>
        <time>2013-09-26T13:56:40Z</time>
      </trkpt>
      <trkpt lat="48.43516" lon="2.62883">
        <ele>38</ele>
        <time>2013-09-26T13:56:46Z</time>
      </trkpt>
      <trkpt lat="48.43516" lon="2.62885">
        <ele>38</ele>
        <time>2013-09-26T13:56:48Z</time>
      </trkpt>
      <trkpt lat="48.43515" lon="2.62889">
        <ele>38</ele>
        <time>2013-09-26T13:56:51Z</time>
      </trkpt>
      <trkpt lat="48.43513" lon="2.62892">
        <ele>38</ele>
        <time>2013-09-26T13:56:55Z</time>
      </trkpt>
      <trkpt lat="48.43513" lon="2.62897">
        <ele>38</ele>
        <time>2013-09-26T13:57:09Z</time>
      </trkpt>
      <trkpt lat="48.43512" lon="2.62902">
        <ele>38</ele>
        <time>2013-09-26T13:57:11Z</time>
      </trkpt>
      <trkpt lat="48.43511" lon="2.62906">
        <ele>38</ele>
        <time>2013-09-26T13:57:13Z</time>
      </trkpt>
      <trkpt lat="48.43508" lon="2.6291">
        <ele>38</ele>
        <time>2013-09-26T13:57:15Z</time>
      </trkpt>
      <trkpt lat="48.43507" lon="2.62914">
        <ele>38</ele>
        <time>2013-09-26T13:57:17Z</time>
      </trkpt>
      <trkpt lat="48.43506" lon="2.62916">
        <ele>38</ele>
        <time>2013-09-26T13:57:18Z</time>
      </trkpt>
      <trkpt lat="48.43503" lon="2.62921">
        <ele>38</ele>
        <time>2013-09-26T13:57:21Z</time>
      </trkpt>
      <trkpt lat="48.43501" lon="2.62925">
        <ele>38</ele>
        <time>2013-09-26T13:57:23Z</time>
      </trkpt>
      <trkpt lat="48.43498" lon="2.62926">
        <ele>38</ele>
        <time>2013-09-26T13:57:25Z</time>
      </trkpt>
      <trkpt lat="48.43497" lon="2.62928">
        <ele>41</ele>
        <time>2013-09-26T13:57:27Z</time>
      </trkpt>
      <trkpt lat="48.43495" lon="2.62932">
        <ele>41</ele>
        <time>2013-09-26T13:57:29Z</time>
      </trkpt>
      <trkpt lat="48.43491" lon="2.62938">
        <ele>41</ele>
        <time>2013-09-26T13:57:33Z</time>
      </trkpt>
      <trkpt lat="48.43489" lon="2.62941">
        <ele>41</ele>
        <time>2013-09-26T13:57:35Z</time>
      </trkpt>
      <trkpt lat="48.43487" lon="2.62945">
        <ele>41</ele>
        <time>2013-09-26T13:57:37Z</time>
      </trkpt>
      <trkpt lat="48.43483" lon="2.62953">
        <ele>41</ele>
        <time>2013-09-26T13:57:41Z</time>
      </trkpt>
      <trkpt lat="48.43481" lon="2.62958">
        <ele>41</ele>
        <time>2013-09-26T13:57:43Z</time>
      </trkpt>
      <trkpt lat="48.4348" lon="2.62961">
        <ele>41</ele>
        <time>2013-09-26T13:57:45Z</time>
      </trkpt>
      <trkpt lat="48.43477" lon="2.62968">
        <ele>43</ele>
        <time>2013-09-26T13:57:49Z</time>
      </trkpt>
      <trkpt lat="48.43477" lon="2.62972">
        <ele>43</ele>
        <time>2013-09-26T13:57:51Z</time>
      </trkpt>
      <trkpt lat="48.43477" lon="2.62974">
        <ele>43</ele>
        <time>2013-09-26T13:57:52Z</time>
      </trkpt>
      <trkpt lat="48.43473" lon="2.62982">
        <ele>44.2</ele>
        <time>2013-09-26T13:57:56Z</time>
      </trkpt>
      <trkpt lat="48.43473" lon="2.62986">
        <ele>45</ele>
        <time>2013-09-26T13:57:58Z</time>
      </trkpt>
      <trkpt lat="48.43472" lon="2.62992">
        <ele>45</ele>
        <time>2013-09-26T13:58:01Z</time>
      </trkpt>
      <trkpt lat="48.43471" lon="2.63">
        <ele>45</ele>
        <time>2013-09-26T13:58:05Z</time>
      </trkpt>
      <trkpt lat="48.43471" lon="2.63004">
        <ele>46</ele>
        <time>2013-09-26T13:58:07Z</time>
      </trkpt>
      <trkpt lat="48.43472" lon="2.63008">
        <ele>46</ele>
        <time>2013-09-26T13:58:09Z</time>
      </trkpt>
      <trkpt lat="48.43473" lon="2.63012">
        <ele>46</ele>
        <time>2013-09-26T13:58:12Z</time>
      </trkpt>
      <trkpt lat="48.43475" lon="2.63016">
        <ele>46</ele>
        <time>2013-09-26T13:58:14Z</time>
      </trkpt>
      <trkpt lat="48.43476" lon="2.63018">
        <ele>47</ele>
        <time>2013-09-26T13:58:16Z</time>
      </trkpt>
      <trkpt lat="48.43478" lon="2.6302">
        <ele>48</ele>
        <time>2013-09-26T13:58:18Z</time>
      </trkpt>
      <trkpt lat="48.4348" lon="2.63022">
        <ele>48</ele>
        <time>2013-09-26T13:58:20Z</time>
      </trkpt>
      <trkpt lat="48.43484" lon="2.63025">
        <ele>48</ele>
        <time>2013-09-26T13:58:23Z</time>
      </trkpt>
      <trkpt lat="48.43485" lon="2.63026">
        <ele>48</ele>
        <time>2013-09-26T13:58:24Z</time>
      </trkpt>
      <trkpt lat="48.43489" lon="2.6303">
        <ele>49</ele>
        <time>2013-09-26T13:58:27Z</time>
      </trkpt>
      <trkpt lat="48.43492" lon="2.63032">
        <ele>49</ele>
        <time>2013-09-26T13:58:29Z</time>
      </trkpt>
      <trkpt lat="48.43494" lon="2.63033">
        <ele>49</ele>
        <time>2013-09-26T13:58:36Z</time>
      </trkpt>
      <trkpt lat="48.43495" lon="2.63032">
        <ele>49</ele>
        <time>2013-09-26T13:58:59Z</time>
      </trkpt>
      <trkpt lat="48.43496" lon="2.63034">
        <ele>49</ele>
        <time>2013-09-26T13:59:03Z</time>
      </trkpt>
      <trkpt lat="48.43494" lon="2.63033">
        <ele>49</ele>
        <time>2013-09-26T13:59:07Z</time>
      </trkpt>
      <trkpt lat="48.43492" lon="2.63031">
        <ele>49</ele>
        <time>2013-09-26T13:59:09Z</time>
      </trkpt>
      <trkpt lat="48.43491" lon="2.6303">
        <ele>49</ele>
        <time>2013-09-26T13:59:11Z</time>
      </trkpt>
      <trkpt lat="48.43492" lon="2.63031">
        <ele>49</ele>
        <time>2013-09-26T13:59:37Z</time>
      </trkpt>
      <trkpt lat="48.43492" lon="2.63033">
        <ele>49</ele>
        <time>2013-09-26T13:59:52Z</time>
      </trkpt>
      <trkpt lat="48.4349" lon="2.63033">
        <ele>49</ele>
        <time>2013-09-26T13:59:54Z</time>
      </trkpt>
      <trkpt lat="48.43487" lon="2.63031">
        <ele>49</ele>
        <time>2013-09-26T13:59:56Z</time>
      </trkpt>
      <trkpt lat="48.43488" lon="2.63031">
        <ele>49</ele>
        <time>2013-09-26T14:00:01Z</time>
      </trkpt>
      <trkpt lat="48.43491" lon="2.63032">
        <ele>49</ele>
        <time>2013-09-26T14:00:05Z</time>
      </trkpt>
      <trkpt lat="48.43492" lon="2.63032">
        <ele>49</ele>
        <time>2013-09-26T14:01:00Z</time>
      </trkpt>
      <trkpt lat="48.43493" lon="2.63033">
        <ele>49</ele>
        <time>2013-09-26T14:01:10Z</time>
      </trkpt>
      <trkpt lat="48.43495" lon="2.63034">
        <ele>49</ele>
        <time>2013-09-26T14:02:00Z</time>
      </trkpt>
      <trkpt lat="48.43493" lon="2.63033">
        <ele>49</ele>
        <time>2013-09-26T14:02:14Z</time>
      </trkpt>
      <trkpt lat="48.43492" lon="2.63031">
        <ele>49</ele>
        <time>2013-09-26T14:02:18Z</time>
      </trkpt>
      <trkpt lat="48.43493" lon="2.6303">
        <ele>49</ele>
        <time>2013-09-26T14:02:23Z</time>
      </trkpt>
      <trkpt lat="48.43493" lon="2.63035">
        <ele>49</ele>
        <time>2013-09-26T14:02:27Z</time>
      </trkpt>
      <trkpt lat="48.43494" lon="2.63036">
        <ele>49</ele>
        <time>2013-09-26T14:02:50Z</time>
      </trkpt>
      <trkpt lat="48.43492" lon="2.63034">
        <ele>49</ele>
        <time>2013-09-26T14:02:55Z</time>
      </trkpt>
      <trkpt lat="48.4349" lon="2.63033">
        <ele>49</ele>
        <time>2013-09-26T14:03:14Z</time>
      </trkpt>
      <trkpt lat="48.43488" lon="2.63032">
        <ele>49</ele>
        <time>2013-09-26T14:03:16Z</time>
      </trkpt>
      <trkpt lat="48.43486" lon="2.6303">
        <ele>49</ele>
        <time>2013-09-26T14:03:18Z</time>
      </trkpt>
      <trkpt lat="48.43484" lon="2.63027">
        <ele>49</ele>
        <time>2013-09-26T14:03:20Z</time>
      </trkpt>
      <trkpt lat="48.43483" lon="2.63025">
        <ele>49</ele>
        <time>2013-09-26T14:03:21Z</time>
      </trkpt>
      <trkpt lat="48.43479" lon="2.63019">
        <ele>49</ele>
        <time>2013-09-26T14:03:23Z</time>
      </trkpt>
      <trkpt lat="48.43475" lon="2.63013">
        <ele>49</ele>
        <time>2013-09-26T14:03:25Z</time>
      </trkpt>
      <trkpt lat="48.43474" lon="2.6301">
        <ele>48.5</ele>
        <time>2013-09-26T14:03:26Z</time>
      </trkpt>
      <trkpt lat="48.43472" lon="2.63003">
        <ele>48</ele>
        <time>2013-09-26T14:03:28Z</time>
      </trkpt>
      <trkpt lat="48.43471" lon="2.62998">
        <ele>48</ele>
        <time>2013-09-26T14:03:29Z</time>
      </trkpt>
      <trkpt lat="48.43471" lon="2.62989">
        <ele>48</ele>
        <time>2013-09-26T14:03:31Z</time>
      </trkpt>
      <trkpt lat="48.43474" lon="2.62981">
        <ele>48</ele>
        <time>2013-09-26T14:03:33Z</time>
      </trkpt>
      <trkpt lat="48.43475" lon="2.62974">
        <ele>48</ele>
        <time>2013-09-26T14:03:35Z</time>
      </trkpt>
      <trkpt lat="48.43476" lon="2.62969">
        <ele>45</ele>
        <time>2013-09-26T14:03:37Z</time>
      </trkpt>
      <trkpt lat="48.43474" lon="2.62966">
        <ele>45</ele>
        <time>2013-09-26T14:03:39Z</time>
      </trkpt>
      <trkpt lat="48.43471" lon="2.62965">
        <ele>44.4</ele>
        <time>2013-09-26T14:03:41Z</time>
      </trkpt>
      <trkpt lat="48.43469" lon="2.62966">
        <ele>44</ele>
        <time>2013-09-26T14:03:43Z</time>
      </trkpt>
      <trkpt lat="48.43466" lon="2.62968">
        <ele>44</ele>
        <time>2013-09-26T14:03:45Z</time>
      </trkpt>
      <trkpt lat="48.43465" lon="2.62971">
        <ele>44</ele>
        <time>2013-09-26T14:03:47Z</time>
      </trkpt>
      <trkpt lat="48.43463" lon="2.62977">
        <ele>44</ele>
        <time>2013-09-26T14:03:51Z</time>
      </trkpt>
      <trkpt lat="48.43461" lon="2.6298">
        <ele>44</ele>
        <time>2013-09-26T14:03:53Z</time>
      </trkpt>
      <trkpt lat="48.43459" lon="2.62983">
        <ele>44</ele>
        <time>2013-09-26T14:03:55Z</time>
      </trkpt>
      <trkpt lat="48.43458" lon="2.62983">
        <ele>45</ele>
        <time>2013-09-26T14:03:59Z</time>
      </trkpt>
      <trkpt lat="48.43457" lon="2.62983">
        <ele>45</ele>
        <time>2013-09-26T14:04:04Z</time>
      </trkpt>
      <trkpt lat="48.43455" lon="2.62985">
        <ele>45</ele>
        <time>2013-09-26T14:04:43Z</time>
      </trkpt>
      <trkpt lat="48.43454" lon="2.62987">
        <ele>45</ele>
        <time>2013-09-26T14:04:46Z</time>
      </trkpt>
      <trkpt lat="48.43453" lon="2.62988">
        <ele>45</ele>
        <time>2013-09-26T14:04:48Z</time>
      </trkpt>
      <trkpt lat="48.43451" lon="2.62986">
        <ele>45</ele>
        <time>2013-09-26T14:04:58Z</time>
      </trkpt>
      <trkpt lat="48.43449" lon="2.6299">
        <ele>45</ele>
        <time>2013-09-26T14:05:02Z</time>
      </trkpt>
      <trkpt lat="48.4345" lon="2.62992">
        <ele>45</ele>
        <time>2013-09-26T14:05:06Z</time>
      </trkpt>
      <trkpt lat="48.43452" lon="2.62993">
        <ele>45</ele>
        <time>2013-09-26T14:05:18Z</time>
      </trkpt>
      <trkpt lat="48.43455" lon="2.62993">
        <ele>45</ele>
        <time>2013-09-26T14:05:22Z</time>
      </trkpt>
      <trkpt lat="48.43454" lon="2.62992">
        <ele>45</ele>
        <time>2013-09-26T14:05:30Z</time>
      </trkpt>
      <trkpt lat="48.43456" lon="2.62992">
        <ele>45</ele>
        <time>2013-09-26T14:05:44Z</time>
      </trkpt>
      <trkpt lat="48.43456" lon="2.62994">
        <ele>45</ele>
        <time>2013-09-26T14:06:10Z</time>
      </trkpt>
      <trkpt lat="48.43454" lon="2.62993">
        <ele>45</ele>
        <time>2013-09-26T14:06:39Z</time>
      </trkpt>
      <trkpt lat="48.43453" lon="2.62992">
        <ele>45</ele>
        <time>2013-09-26T14:06:56Z</time>
      </trkpt>
      <trkpt lat="48.43454" lon="2.62993">
        <ele>45</ele>
        <time>2013-09-26T14:07:01Z</time>
      </trkpt>
      <trkpt lat="48.43454" lon="2.62992">
        <ele>45</ele>
        <time>2013-09-26T14:07:06Z</time>
      </trkpt>
      <trkpt lat="48.43455" lon="2.62993">
        <ele>45</ele>
        <time>2013-09-26T14:07:18Z</time>
      </trkpt>
      <trkpt lat="48.43453" lon="2.62993">
        <ele>45</ele>
        <time>2013-09-26T14:07:25Z</time>
      </trkpt>
      <trkpt lat="48.43451" lon="2.62993">
        <ele>45</ele>
        <time>2013-09-26T14:07:28Z</time>
      </trkpt>
      <trkpt lat="48.43455" lon="2.62992">
        <ele>45</ele>
        <time>2013-09-26T14:07:58Z</time>
      </trkpt>
      <trkpt lat="48.43453" lon="2.62993">
        <ele>45</ele>
        <time>2013-09-26T14:08:21Z</time>
      </trkpt>
      <trkpt lat="48.43451" lon="2.62995">
        <ele>45</ele>
        <time>2013-09-26T14:08:38Z</time>
      </trkpt>
      <trkpt lat="48.43449" lon="2.62996">
        <ele>45</ele>
        <time>2013-09-26T14:08:40Z</time>
      </trkpt>
      <trkpt lat="48.43446" lon="2.62998">
        <ele>45</ele>
        <time>2013-09-26T14:08:42Z</time>
      </trkpt>
      <trkpt lat="48.43444" lon="2.63">
        <ele>45</ele>
        <time>2013-09-26T14:08:44Z</time>
      </trkpt>
      <trkpt lat="48.43439" lon="2.62998">
        <ele>45</ele>
        <time>2013-09-26T14:08:47Z</time>
      </trkpt>
      <trkpt lat="48.43436" lon="2.63">
        <ele>45</ele>
        <time>2013-09-26T14:08:49Z</time>
      </trkpt>
      <trkpt lat="48.43434" lon="2.63004">
        <ele>45</ele>
        <time>2013-09-26T14:08:51Z</time>
      </trkpt>
      <trkpt lat="48.43432" lon="2.63009">
        <ele>45</ele>
        <time>2013-09-26T14:08:53Z</time>
      </trkpt>
      <trkpt lat="48.4343" lon="2.63014">
        <ele>45</ele>
        <time>2013-09-26T14:08:55Z</time>
      </trkpt>
      <trkpt lat="48.43428" lon="2.63015">
        <ele>45.7</ele>
        <time>2013-09-26T14:08:56Z</time>
      </trkpt>
      <trkpt lat="48.43426" lon="2.63017">
        <ele>46</ele>
        <time>2013-09-26T14:08:58Z</time>
      </trkpt>
      <trkpt lat="48.43424" lon="2.63018">
        <ele>46</ele>
        <time>2013-09-26T14:08:59Z</time>
      </trkpt>
      <trkpt lat="48.43422" lon="2.6302">
        <ele>46</ele>
        <time>2013-09-26T14:09:01Z</time>
      </trkpt>
      <trkpt lat="48.43421" lon="2.63024">
        <ele>46</ele>
        <time>2013-09-26T14:09:04Z</time>
      </trkpt>
      <trkpt lat="48.43419" lon="2.63023">
        <ele>46</ele>
        <time>2013-09-26T14:09:12Z</time>
      </trkpt>
      <trkpt lat="48.43417" lon="2.63025">
        <ele>48</ele>
        <time>2013-09-26T14:09:19Z</time>
      </trkpt>
      <trkpt lat="48.43414" lon="2.63029">
        <ele>48</ele>
        <time>2013-09-26T14:09:22Z</time>
      </trkpt>
      <trkpt lat="48.43411" lon="2.63032">
        <ele>48</ele>
        <time>2013-09-26T14:09:25Z</time>
      </trkpt>
      <trkpt lat="48.43409" lon="2.63035">
        <ele>49</ele>
        <time>2013-09-26T14:09:28Z</time>
      </trkpt>
      <trkpt lat="48.43408" lon="2.63038">
        <ele>49</ele>
        <time>2013-09-26T14:09:30Z</time>
      </trkpt>
      <trkpt lat="48.43405" lon="2.63042">
        <ele>49</ele>
        <time>2013-09-26T14:09:33Z</time>
      </trkpt>
      <trkpt lat="48.43403" lon="2.63045">
        <ele>49</ele>
        <time>2013-09-26T14:09:42Z</time>
      </trkpt>
      <trkpt lat="48.43402" lon="2.63047">
        <ele>49</ele>
        <time>2013-09-26T14:09:44Z</time>
      </trkpt>
      <trkpt lat="48.434" lon="2.63048">
        <ele>49</ele>
        <time>2013-09-26T14:09:47Z</time>
      </trkpt>
      <trkpt lat="48.43398" lon="2.63049">
        <ele>49</ele>
        <time>2013-09-26T14:09:49Z</time>
      </trkpt>
      <trkpt lat="48.43396" lon="2.63054">
        <ele>49</ele>
        <time>2013-09-26T14:09:52Z</time>
      </trkpt>
      <trkpt lat="48.43395" lon="2.63055">
        <ele>49</ele>
        <time>2013-09-26T14:09:53Z</time>
      </trkpt>
      <trkpt lat="48.43392" lon="2.63058">
        <ele>49</ele>
        <time>2013-09-26T14:09:56Z</time>
      </trkpt>
      <trkpt lat="48.4339" lon="2.63061">
        <ele>49</ele>
        <time>2013-09-26T14:09:58Z</time>
      </trkpt>
      <trkpt lat="48.4339" lon="2.63063">
        <ele>49</ele>
        <time>2013-09-26T14:10:00Z</time>
      </trkpt>
      <trkpt lat="48.43388" lon="2.63066">
        <ele>49</ele>
        <time>2013-09-26T14:10:02Z</time>
      </trkpt>
      <trkpt lat="48.43386" lon="2.63067">
        <ele>50</ele>
        <time>2013-09-26T14:10:33Z</time>
      </trkpt>
      <trkpt lat="48.43385" lon="2.63069">
        <ele>50</ele>
        <time>2013-09-26T14:10:34Z</time>
      </trkpt>
      <trkpt lat="48.43384" lon="2.63072">
        <ele>51</ele>
        <time>2013-09-26T14:10:37Z</time>
      </trkpt>
      <trkpt lat="48.43382" lon="2.63075">
        <ele>51</ele>
        <time>2013-09-26T14:10:41Z</time>
      </trkpt>
      <trkpt lat="48.4338" lon="2.63078">
        <ele>51</ele>
        <time>2013-09-26T14:10:43Z</time>
      </trkpt>
      <trkpt lat="48.43378" lon="2.63082">
        <ele>51.7</ele>
        <time>2013-09-26T14:10:46Z</time>
      </trkpt>
      <trkpt lat="48.43376" lon="2.63088">
        <ele>52</ele>
        <time>2013-09-26T14:10:51Z</time>
      </trkpt>
      <trkpt lat="48.43374" lon="2.63091">
        <ele>52</ele>
        <time>2013-09-26T14:10:54Z</time>
      </trkpt>
      <trkpt lat="48.43371" lon="2.63094">
        <ele>53</ele>
        <time>2013-09-26T14:10:57Z</time>
      </trkpt>
      <trkpt lat="48.43369" lon="2.63095">
        <ele>53</ele>
        <time>2013-09-26T14:10:59Z</time>
      </trkpt>
      <trkpt lat="48.43367" lon="2.63097">
        <ele>53</ele>
        <time>2013-09-26T14:11:01Z</time>
      </trkpt>
      <trkpt lat="48.43364" lon="2.63099">
        <ele>53</ele>
        <time>2013-09-26T14:11:05Z</time>
      </trkpt>
      <trkpt lat="48.43362" lon="2.63103">
        <ele>54</ele>
        <time>2013-09-26T14:11:08Z</time>
      </trkpt>
      <trkpt lat="48.43362" lon="2.63106">
        <ele>54</ele>
        <time>2013-09-26T14:11:10Z</time>
      </trkpt>
      <trkpt lat="48.43363" lon="2.63109">
        <ele>54</ele>
        <time>2013-09-26T14:11:12Z</time>
      </trkpt>
      <trkpt lat="48.43363" lon="2.63113">
        <ele>54</ele>
        <time>2013-09-26T14:11:14Z</time>
      </trkpt>
      <trkpt lat="48.43362" lon="2.63117">
        <ele>54</ele>
        <time>2013-09-26T14:11:16Z</time>
      </trkpt>
      <trkpt lat="48.4336" lon="2.63119">
        <ele>54</ele>
        <time>2013-09-26T14:11:18Z</time>
      </trkpt>
      <trkpt lat="48.43359" lon="2.6312">
        <ele>54</ele>
        <time>2013-09-26T14:11:19Z</time>
      </trkpt>
      <trkpt lat="48.43357" lon="2.63122">
        <ele>54</ele>
        <time>2013-09-26T14:11:22Z</time>
      </trkpt>
      <trkpt lat="48.43355" lon="2.63123">
        <ele>54</ele>
        <time>2013-09-26T14:11:24Z</time>
      </trkpt>
      <trkpt lat="48.43352" lon="2.63126">
        <ele>56</ele>
        <time>2013-09-26T14:11:27Z</time>
      </trkpt>
      <trkpt lat="48.4335" lon="2.63128">
        <ele>56</ele>
        <time>2013-09-26T14:11:30Z</time>
      </trkpt>
      <trkpt lat="48.43348" lon="2.6313">
        <ele>56</ele>
        <time>2013-09-26T14:11:34Z</time>
      </trkpt>
      <trkpt lat="48.43346" lon="2.63132">
        <ele>56.7</ele>
        <time>2013-09-26T14:11:36Z</time>
      </trkpt>
      <trkpt lat="48.43344" lon="2.63135">
        <ele>57</ele>
        <time>2013-09-26T14:11:38Z</time>
      </trkpt>
      <trkpt lat="48.43342" lon="2.63137">
        <ele>57</ele>
        <time>2013-09-26T14:11:40Z</time>
      </trkpt>
      <trkpt lat="48.43341" lon="2.63138">
        <ele>57</ele>
        <time>2013-09-26T14:11:41Z</time>
      </trkpt>
      <trkpt lat="48.43339" lon="2.63141">
        <ele>57</ele>
        <time>2013-09-26T14:11:43Z</time>
      </trkpt>
      <trkpt lat="48.43337" lon="2.63143">
        <ele>57</ele>
        <time>2013-09-26T14:11:45Z</time>
      </trkpt>
      <trkpt lat="48.43335" lon="2.63146">
        <ele>58</ele>
        <time>2013-09-26T14:11:49Z</time>
      </trkpt>
      <trkpt lat="48.43333" lon="2.63146">
        <ele>58</ele>
        <time>2013-09-26T14:11:51Z</time>
      </trkpt>
      <trkpt lat="48.43331" lon="2.63147">
        <ele>58</ele>
        <time>2013-09-26T14:11:53Z</time>
      </trkpt>
      <trkpt lat="48.43328" lon="2.63147">
        <ele>58</ele>
        <time>2013-09-26T14:11:56Z</time>
      </trkpt>
      <trkpt lat="48.43327" lon="2.63148">
        <ele>58</ele>
        <time>2013-09-26T14:12:05Z</time>
      </trkpt>
      <trkpt lat="48.43323" lon="2.63146">
        <ele>58</ele>
        <time>2013-09-26T14:12:08Z</time>
      </trkpt>
      <trkpt lat="48.43321" lon="2.63145">
        <ele>58</ele>
        <time>2013-09-26T14:12:10Z</time>
      </trkpt>
      <trkpt lat="48.43318" lon="2.63144">
        <ele>58</ele>
        <time>2013-09-26T14:12:12Z</time>
      </trkpt>
      <trkpt lat="48.43314" lon="2.63142">
        <ele>58</ele>
        <time>2013-09-26T14:12:14Z</time>
      </trkpt>
      <trkpt lat="48.43312" lon="2.6314">
        <ele>58</ele>
        <time>2013-09-26T14:12:16Z</time>
      </trkpt>
      <trkpt lat="48.43309" lon="2.63138">
        <ele>58</ele>
        <time>2013-09-26T14:12:18Z</time>
      </trkpt>
      <trkpt lat="48.43306" lon="2.63137">
        <ele>58</ele>
        <time>2013-09-26T14:12:20Z</time>
      </trkpt>
      <trkpt lat="48.43303" lon="2.63135">
        <ele>58</ele>
        <time>2013-09-26T14:12:22Z</time>
      </trkpt>
      <trkpt lat="48.43301" lon="2.63134">
        <ele>58</ele>
        <time>2013-09-26T14:12:24Z</time>
      </trkpt>
      <trkpt lat="48.43299" lon="2.63132">
        <ele>58.7</ele>
        <time>2013-09-26T14:12:26Z</time>
      </trkpt>
      <trkpt lat="48.43296" lon="2.63131">
        <ele>59</ele>
        <time>2013-09-26T14:12:28Z</time>
      </trkpt>
      <trkpt lat="48.43292" lon="2.6313">
        <ele>59</ele>
        <time>2013-09-26T14:12:30Z</time>
      </trkpt>
      <trkpt lat="48.4329" lon="2.63129">
        <ele>59</ele>
        <time>2013-09-26T14:12:32Z</time>
      </trkpt>
      <trkpt lat="48.43288" lon="2.63128">
        <ele>59</ele>
        <time>2013-09-26T14:12:33Z</time>
      </trkpt>
      <trkpt lat="48.43285" lon="2.63127">
        <ele>59</ele>
        <time>2013-09-26T14:12:35Z</time>
      </trkpt>
      <trkpt lat="48.43282" lon="2.63126">
        <ele>60</ele>
        <time>2013-09-26T14:12:37Z</time>
      </trkpt>
      <trkpt lat="48.43279" lon="2.63127">
        <ele>60</ele>
        <time>2013-09-26T14:12:39Z</time>
      </trkpt>
      <trkpt lat="48.43277" lon="2.63127">
        <ele>60</ele>
        <time>2013-09-26T14:12:40Z</time>
      </trkpt>
      <trkpt lat="48.43274" lon="2.63128">
        <ele>60</ele>
        <time>2013-09-26T14:12:42Z</time>
      </trkpt>
      <trkpt lat="48.43273" lon="2.63129">
        <ele>60</ele>
        <time>2013-09-26T14:12:43Z</time>
      </trkpt>
      <trkpt lat="48.4327" lon="2.6313">
        <ele>60.6</ele>
        <time>2013-09-26T14:12:46Z</time>
      </trkpt>
      <trkpt lat="48.43267" lon="2.63131">
        <ele>61</ele>
        <time>2013-09-26T14:12:50Z</time>
      </trkpt>
      <trkpt lat="48.43264" lon="2.63134">
        <ele>61</ele>
        <time>2013-09-26T14:12:55Z</time>
      </trkpt>
      <trkpt lat="48.43262" lon="2.63135">
        <ele>61</ele>
        <time>2013-09-26T14:13:03Z</time>
      </trkpt>
      <trkpt lat="48.43258" lon="2.63136">
        <ele>61</ele>
        <time>2013-09-26T14:13:06Z</time>
      </trkpt>
      <trkpt lat="48.43255" lon="2.63136">
        <ele>61</ele>
        <time>2013-09-26T14:13:08Z</time>
      </trkpt>
      <trkpt lat="48.43252" lon="2.63137">
        <ele>61</ele>
        <time>2013-09-26T14:13:10Z</time>
      </trkpt>
      <trkpt lat="48.4325" lon="2.63138">
        <ele>61</ele>
        <time>2013-09-26T14:13:11Z</time>
      </trkpt>
      <trkpt lat="48.43248" lon="2.63138">
        <ele>61</ele>
        <time>2013-09-26T14:13:12Z</time>
      </trkpt>
      <trkpt lat="48.43244" lon="2.6314">
        <ele>61</ele>
        <time>2013-09-26T14:13:14Z</time>
      </trkpt>
      <trkpt lat="48.4324" lon="2.63141">
        <ele>60.3</ele>
        <time>2013-09-26T14:13:16Z</time>
      </trkpt>
      <trkpt lat="48.43236" lon="2.63143">
        <ele>60</ele>
        <time>2013-09-26T14:13:18Z</time>
      </trkpt>
      <trkpt lat="48.43235" lon="2.63144">
        <ele>60</ele>
        <time>2013-09-26T14:13:19Z</time>
      </trkpt>
      <trkpt lat="48.43231" lon="2.63148">
        <ele>60</ele>
        <time>2013-09-26T14:13:21Z</time>
      </trkpt>
      <trkpt lat="48.43229" lon="2.63149">
        <ele>60</ele>
        <time>2013-09-26T14:13:22Z</time>
      </trkpt>
      <trkpt lat="48.43226" lon="2.6315">
        <ele>60</ele>
        <time>2013-09-26T14:13:24Z</time>
      </trkpt>
      <trkpt lat="48.43224" lon="2.63151">
        <ele>58.8</ele>
        <time>2013-09-26T14:13:26Z</time>
      </trkpt>
      <trkpt lat="48.43222" lon="2.63153">
        <ele>58</ele>
        <time>2013-09-26T14:13:28Z</time>
      </trkpt>
      <trkpt lat="48.4322" lon="2.63154">
        <ele>58</ele>
        <time>2013-09-26T14:13:30Z</time>
      </trkpt>
      <trkpt lat="48.43218" lon="2.63153">
        <ele>58</ele>
        <time>2013-09-26T14:13:31Z</time>
      </trkpt>
      <trkpt lat="48.43215" lon="2.63154">
        <ele>58</ele>
        <time>2013-09-26T14:13:33Z</time>
      </trkpt>
      <trkpt lat="48.43211" lon="2.63155">
        <ele>58</ele>
        <time>2013-09-26T14:13:35Z</time>
      </trkpt>
      <trkpt lat="48.4321" lon="2.63157">
        <ele>58</ele>
        <time>2013-09-26T14:13:36Z</time>
      </trkpt>
      <trkpt lat="48.43205" lon="2.6316">
        <ele>58</ele>
        <time>2013-09-26T14:13:39Z</time>
      </trkpt>
      <trkpt lat="48.43202" lon="2.63162">
        <ele>58</ele>
        <time>2013-09-26T14:13:41Z</time>
      </trkpt>
      <trkpt lat="48.43199" lon="2.63163">
        <ele>58</ele>
        <time>2013-09-26T14:13:43Z</time>
      </trkpt>
      <trkpt lat="48.43197" lon="2.63165">
        <ele>58</ele>
        <time>2013-09-26T14:13:45Z</time>
      </trkpt>
      <trkpt lat="48.43195" lon="2.63167">
        <ele>58</ele>
        <time>2013-09-26T14:13:47Z</time>
      </trkpt>
      <trkpt lat="48.43193" lon="2.63169">
        <ele>58</ele>
        <time>2013-09-26T14:13:49Z</time>
      </trkpt>
      <trkpt lat="48.43191" lon="2.63169">
        <ele>58</ele>
        <time>2013-09-26T14:13:51Z</time>
      </trkpt>
      <trkpt lat="48.4319" lon="2.63173">
        <ele>58</ele>
        <time>2013-09-26T14:14:09Z</time>
      </trkpt>
      <trkpt lat="48.4319" lon="2.63175">
        <ele>58</ele>
        <time>2013-09-26T14:14:10Z</time>
      </trkpt>
      <trkpt lat="48.43188" lon="2.6318">
        <ele>58</ele>
        <time>2013-09-26T14:14:12Z</time>
      </trkpt>
      <trkpt lat="48.43186" lon="2.63183">
        <ele>58</ele>
        <time>2013-09-26T14:14:14Z</time>
      </trkpt>
      <trkpt lat="48.43184" lon="2.63189">
        <ele>58.6</ele>
        <time>2013-09-26T14:14:16Z</time>
      </trkpt>
      <trkpt lat="48.43183" lon="2.6319">
        <ele>59</ele>
        <time>2013-09-26T14:14:17Z</time>
      </trkpt>
      <trkpt lat="48.43182" lon="2.63193">
        <ele>59</ele>
        <time>2013-09-26T14:14:19Z</time>
      </trkpt>
      <trkpt lat="48.43181" lon="2.63196">
        <ele>59</ele>
        <time>2013-09-26T14:14:21Z</time>
      </trkpt>
      <trkpt lat="48.43179" lon="2.63201">
        <ele>59</ele>
        <time>2013-09-26T14:14:23Z</time>
      </trkpt>
      <trkpt lat="48.43179" lon="2.63204">
        <ele>59</ele>
        <time>2013-09-26T14:14:24Z</time>
      </trkpt>
      <trkpt lat="48.43177" lon="2.63208">
        <ele>59</ele>
        <time>2013-09-26T14:14:26Z</time>
      </trkpt>
      <trkpt lat="48.43176" lon="2.6321">
        <ele>59</ele>
        <time>2013-09-26T14:14:27Z</time>
      </trkpt>
      <trkpt lat="48.43174" lon="2.63213">
        <ele>59</ele>
        <time>2013-09-26T14:14:29Z</time>
      </trkpt>
      <trkpt lat="48.43173" lon="2.63216">
        <ele>59</ele>
        <time>2013-09-26T14:14:34Z</time>
      </trkpt>
      <trkpt lat="48.43175" lon="2.63217">
        <ele>59</ele>
        <time>2013-09-26T14:14:40Z</time>
      </trkpt>
      <trkpt lat="48.43172" lon="2.63216">
        <ele>60</ele>
        <time>2013-09-26T14:14:47Z</time>
      </trkpt>
      <trkpt lat="48.43172" lon="2.63217">
        <ele>60</ele>
        <time>2013-09-26T14:14:56Z</time>
      </trkpt>
      <trkpt lat="48.43173" lon="2.63218">
        <ele>60</ele>
        <time>2013-09-26T14:15:00Z</time>
      </trkpt>
      <trkpt lat="48.43173" lon="2.6322">
        <ele>60</ele>
        <time>2013-09-26T14:15:04Z</time>
      </trkpt>
      <trkpt lat="48.43173" lon="2.6322">
        <ele>60</ele>
        <time>2013-09-26T14:15:10Z</time>
      </trkpt>
      <trkpt lat="48.43171" lon="2.6322">
        <ele>60</ele>
        <time>2013-09-26T14:15:34Z</time>
      </trkpt>
      <trkpt lat="48.4317" lon="2.63221">
        <ele>61</ele>
        <time>2013-09-26T14:15:37Z</time>
      </trkpt>
      <trkpt lat="48.43169" lon="2.63224">
        <ele>61</ele>
        <time>2013-09-26T14:15:41Z</time>
      </trkpt>
      <trkpt lat="48.43168" lon="2.63225">
        <ele>61</ele>
        <time>2013-09-26T14:15:46Z</time>
      </trkpt>
      <trkpt lat="48.43167" lon="2.63228">
        <ele>61</ele>
        <time>2013-09-26T14:15:51Z</time>
      </trkpt>
      <trkpt lat="48.43167" lon="2.63231">
        <ele>61</ele>
        <time>2013-09-26T14:15:55Z</time>
      </trkpt>
      <trkpt lat="48.43166" lon="2.63232">
        <ele>62</ele>
        <time>2013-09-26T14:16:00Z</time>
      </trkpt>
      <trkpt lat="48.43168" lon="2.63235">
        <ele>62</ele>
        <time>2013-09-26T14:16:04Z</time>
      </trkpt>
      <trkpt lat="48.43169" lon="2.63238">
        <ele>64</ele>
        <time>2013-09-26T14:16:08Z</time>
      </trkpt>
      <trkpt lat="48.43171" lon="2.63239">
        <ele>64</ele>
        <time>2013-09-26T14:16:10Z</time>
      </trkpt>
      <trkpt lat="48.43172" lon="2.63237">
        <ele>64</ele>
        <time>2013-09-26T14:16:17Z</time>
      </trkpt>
      <trkpt lat="48.43173" lon="2.63236">
        <ele>64</ele>
        <time>2013-09-26T14:16:22Z</time>
      </trkpt>
      <trkpt lat="48.43174" lon="2.63236">
        <ele>64</ele>
        <time>2013-09-26T14:16:27Z</time>
      </trkpt>
      <trkpt lat="48.43174" lon="2.63238">
        <ele>64</ele>
        <time>2013-09-26T14:16:29Z</time>
      </trkpt>
      <trkpt lat="48.43175" lon="2.63239">
        <ele>64</ele>
        <time>2013-09-26T14:16:39Z</time>
      </trkpt>
      <trkpt lat="48.43171" lon="2.63238">
        <ele>64</ele>
        <time>2013-09-26T14:16:42Z</time>
      </trkpt>
      <trkpt lat="48.43169" lon="2.63235">
        <ele>64</ele>
        <time>2013-09-26T14:16:47Z</time>
      </trkpt>
      <trkpt lat="48.43167" lon="2.63233">
        <ele>64</ele>
        <time>2013-09-26T14:16:52Z</time>
      </trkpt>
      <trkpt lat="48.43166" lon="2.63229">
        <ele>64</ele>
        <time>2013-09-26T14:17:00Z</time>
      </trkpt>
      <trkpt lat="48.43165" lon="2.63226">
        <ele>64</ele>
        <time>2013-09-26T14:17:07Z</time>
      </trkpt>
      <trkpt lat="48.43164" lon="2.63225">
        <ele>64</ele>
        <time>2013-09-26T14:17:11Z</time>
      </trkpt>
      <trkpt lat="48.43164" lon="2.63221">
        <ele>63</ele>
        <time>2013-09-26T14:17:17Z</time>
      </trkpt>
      <trkpt lat="48.43165" lon="2.63219">
        <ele>63</ele>
        <time>2013-09-26T14:17:19Z</time>
      </trkpt>
      <trkpt lat="48.43168" lon="2.63219">
        <ele>62</ele>
        <time>2013-09-26T14:17:27Z</time>
      </trkpt>
      <trkpt lat="48.4317" lon="2.63218">
        <ele>62</ele>
        <time>2013-09-26T14:17:30Z</time>
      </trkpt>
      <trkpt lat="48.43172" lon="2.63217">
        <ele>62</ele>
        <time>2013-09-26T14:17:32Z</time>
      </trkpt>
      <trkpt lat="48.43173" lon="2.63214">
        <ele>62</ele>
        <time>2013-09-26T14:17:35Z</time>
      </trkpt>
      <trkpt lat="48.43172" lon="2.6321">
        <ele>61</ele>
        <time>2013-09-26T14:17:40Z</time>
      </trkpt>
      <trkpt lat="48.43169" lon="2.63208">
        <ele>60</ele>
        <time>2013-09-26T14:17:52Z</time>
      </trkpt>
      <trkpt lat="48.43166" lon="2.63208">
        <ele>61.4</ele>
        <time>2013-09-26T14:17:56Z</time>
      </trkpt>
      <trkpt lat="48.43164" lon="2.63208">
        <ele>62</ele>
        <time>2013-09-26T14:17:58Z</time>
      </trkpt>
      <trkpt lat="48.43162" lon="2.6321">
        <ele>62</ele>
        <time>2013-09-26T14:18:05Z</time>
      </trkpt>
      <trkpt lat="48.4316" lon="2.63211">
        <ele>62</ele>
        <time>2013-09-26T14:18:07Z</time>
      </trkpt>
      <trkpt lat="48.43158" lon="2.63212">
        <ele>62</ele>
        <time>2013-09-26T14:18:10Z</time>
      </trkpt>
      <trkpt lat="48.43157" lon="2.63213">
        <ele>62</ele>
        <time>2013-09-26T14:18:12Z</time>
      </trkpt>
      <trkpt lat="48.43154" lon="2.63214">
        <ele>62</ele>
        <time>2013-09-26T14:18:14Z</time>
      </trkpt>
      <trkpt lat="48.43151" lon="2.63213">
        <ele>63</ele>
        <time>2013-09-26T14:18:17Z</time>
      </trkpt>
      <trkpt lat="48.43149" lon="2.63216">
        <ele>63</ele>
        <time>2013-09-26T14:18:21Z</time>
      </trkpt>
      <trkpt lat="48.43147" lon="2.63219">
        <ele>63.7</ele>
        <time>2013-09-26T14:18:26Z</time>
      </trkpt>
      <trkpt lat="48.43144" lon="2.63221">
        <ele>64</ele>
        <time>2013-09-26T14:18:32Z</time>
      </trkpt>
      <trkpt lat="48.43142" lon="2.63222">
        <ele>64</ele>
        <time>2013-09-26T14:18:35Z</time>
      </trkpt>
      <trkpt lat="48.4314" lon="2.63225">
        <ele>65</ele>
        <time>2013-09-26T14:18:39Z</time>
      </trkpt>
      <trkpt lat="48.43138" lon="2.63228">
        <ele>65</ele>
        <time>2013-09-26T14:18:42Z</time>
      </trkpt>
      <trkpt lat="48.43136" lon="2.6323">
        <ele>65</ele>
        <time>2013-09-26T14:18:45Z</time>
      </trkpt>
      <trkpt lat="48.43136" lon="2.63233">
        <ele>66</ele>
        <time>2013-09-26T14:18:47Z</time>
      </trkpt>
      <trkpt lat="48.43132" lon="2.63234">
        <ele>66</ele>
        <time>2013-09-26T14:18:50Z</time>
      </trkpt>
      <trkpt lat="48.4313" lon="2.63236">
        <ele>66</ele>
        <time>2013-09-26T14:18:54Z</time>
      </trkpt>
      <trkpt lat="48.43128" lon="2.63238">
        <ele>68</ele>
        <time>2013-09-26T14:18:57Z</time>
      </trkpt>
      <trkpt lat="48.43127" lon="2.6324">
        <ele>68</ele>
        <time>2013-09-26T14:19:00Z</time>
      </trkpt>
      <trkpt lat="48.43125" lon="2.63243">
        <ele>68</ele>
        <time>2013-09-26T14:19:05Z</time>
      </trkpt>
      <trkpt lat="48.43124" lon="2.63243">
        <ele>69</ele>
        <time>2013-09-26T14:19:07Z</time>
      </trkpt>
      <trkpt lat="48.43121" lon="2.63244">
        <ele>69</ele>
        <time>2013-09-26T14:19:12Z</time>
      </trkpt>
      <trkpt lat="48.43119" lon="2.63245">
        <ele>70.4</ele>
        <time>2013-09-26T14:19:16Z</time>
      </trkpt>
      <trkpt lat="48.43117" lon="2.63248">
        <ele>71</ele>
        <time>2013-09-26T14:19:20Z</time>
      </trkpt>
      <trkpt lat="48.43116" lon="2.63249">
        <ele>71</ele>
        <time>2013-09-26T14:19:22Z</time>
      </trkpt>
      <trkpt lat="48.43115" lon="2.63252">
        <ele>71</ele>
        <time>2013-09-26T14:19:24Z</time>
      </trkpt>
      <trkpt lat="48.43114" lon="2.63255">
        <ele>71.6</ele>
        <time>2013-09-26T14:19:26Z</time>
      </trkpt>
      <trkpt lat="48.43113" lon="2.63257">
        <ele>73</ele>
        <time>2013-09-26T14:19:37Z</time>
      </trkpt>
      <trkpt lat="48.4311" lon="2.63258">
        <ele>73</ele>
        <time>2013-09-26T14:19:40Z</time>
      </trkpt>
      <trkpt lat="48.43108" lon="2.63259">
        <ele>73</ele>
        <time>2013-09-26T14:19:42Z</time>
      </trkpt>
      <trkpt lat="48.43107" lon="2.63259">
        <ele>74</ele>
        <time>2013-09-26T14:19:52Z</time>
      </trkpt>
      <trkpt lat="48.43105" lon="2.6326">
        <ele>75</ele>
        <time>2013-09-26T14:19:57Z</time>
      </trkpt>
      <trkpt lat="48.43103" lon="2.6326">
        <ele>75</ele>
        <time>2013-09-26T14:20:02Z</time>
      </trkpt>
      <trkpt lat="48.43102" lon="2.63258">
        <ele>75</ele>
        <time>2013-09-26T14:20:04Z</time>
      </trkpt>
      <trkpt lat="48.43099" lon="2.63256">
        <ele>73</ele>
        <time>2013-09-26T14:20:07Z</time>
      </trkpt>
      <trkpt lat="48.43098" lon="2.63255">
        <ele>73</ele>
        <time>2013-09-26T14:20:08Z</time>
      </trkpt>
      <trkpt lat="48.43096" lon="2.63256">
        <ele>73</ele>
        <time>2013-09-26T14:20:10Z</time>
      </trkpt>
      <trkpt lat="48.43095" lon="2.63258">
        <ele>73</ele>
        <time>2013-09-26T14:20:12Z</time>
      </trkpt>
      <trkpt lat="48.43093" lon="2.63261">
        <ele>73</ele>
        <time>2013-09-26T14:20:14Z</time>
      </trkpt>
      <trkpt lat="48.43092" lon="2.63263">
        <ele>73</ele>
        <time>2013-09-26T14:20:15Z</time>
      </trkpt>
      <trkpt lat="48.43091" lon="2.63265">
        <ele>72</ele>
        <time>2013-09-26T14:20:17Z</time>
      </trkpt>
      <trkpt lat="48.4309" lon="2.6327">
        <ele>72</ele>
        <time>2013-09-26T14:20:20Z</time>
      </trkpt>
      <trkpt lat="48.43089" lon="2.63272">
        <ele>72</ele>
        <time>2013-09-26T14:20:22Z</time>
      </trkpt>
      <trkpt lat="48.43088" lon="2.63276">
        <ele>72</ele>
        <time>2013-09-26T14:20:25Z</time>
      </trkpt>
      <trkpt lat="48.43087" lon="2.63278">
        <ele>72.7</ele>
        <time>2013-09-26T14:20:26Z</time>
      </trkpt>
      <trkpt lat="48.43087" lon="2.63282">
        <ele>73</ele>
        <time>2013-09-26T14:20:28Z</time>
      </trkpt>
      <trkpt lat="48.43086" lon="2.63286">
        <ele>73</ele>
        <time>2013-09-26T14:20:30Z</time>
      </trkpt>
      <trkpt lat="48.43086" lon="2.63289">
        <ele>73</ele>
        <time>2013-09-26T14:20:31Z</time>
      </trkpt>
      <trkpt lat="48.43086" lon="2.63294">
        <ele>73</ele>
        <time>2013-09-26T14:20:34Z</time>
      </trkpt>
      <trkpt lat="48.43086" lon="2.63298">
        <ele>74.4</ele>
        <time>2013-09-26T14:20:36Z</time>
      </trkpt>
      <trkpt lat="48.43085" lon="2.63301">
        <ele>75</ele>
        <time>2013-09-26T14:20:38Z</time>
      </trkpt>
      <trkpt lat="48.43085" lon="2.63305">
        <ele>75</ele>
        <time>2013-09-26T14:20:41Z</time>
      </trkpt>
      <trkpt lat="48.43085" lon="2.63311">
        <ele>75</ele>
        <time>2013-09-26T14:20:43Z</time>
      </trkpt>
      <trkpt lat="48.43085" lon="2.63315">
        <ele>75</ele>
        <time>2013-09-26T14:20:46Z</time>
      </trkpt>
      <trkpt lat="48.43085" lon="2.63319">
        <ele>75</ele>
        <time>2013-09-26T14:20:48Z</time>
      </trkpt>
      <trkpt lat="48.43085" lon="2.63323">
        <ele>75</ele>
        <time>2013-09-26T14:20:50Z</time>
      </trkpt>
      <trkpt lat="48.43084" lon="2.63327">
        <ele>75</ele>
        <time>2013-09-26T14:20:52Z</time>
      </trkpt>
      <trkpt lat="48.43083" lon="2.63331">
        <ele>75</ele>
        <time>2013-09-26T14:20:54Z</time>
      </trkpt>
      <trkpt lat="48.43082" lon="2.63337">
        <ele>76</ele>
        <time>2013-09-26T14:20:58Z</time>
      </trkpt>
      <trkpt lat="48.43081" lon="2.6334">
        <ele>76</ele>
        <time>2013-09-26T14:20:59Z</time>
      </trkpt>
      <trkpt lat="48.4308" lon="2.63344">
        <ele>76</ele>
        <time>2013-09-26T14:21:01Z</time>
      </trkpt>
      <trkpt lat="48.4308" lon="2.63346">
        <ele>76</ele>
        <time>2013-09-26T14:21:02Z</time>
      </trkpt>
      <trkpt lat="48.43077" lon="2.63353">
        <ele>76</ele>
        <time>2013-09-26T14:21:05Z</time>
      </trkpt>
      <trkpt lat="48.43076" lon="2.63355">
        <ele>77</ele>
        <time>2013-09-26T14:21:12Z</time>
      </trkpt>
      <trkpt lat="48.43074" lon="2.63359">
        <ele>77</ele>
        <time>2013-09-26T14:21:16Z</time>
      </trkpt>
      <trkpt lat="48.43071" lon="2.63364">
        <ele>77</ele>
        <time>2013-09-26T14:21:18Z</time>
      </trkpt>
      <trkpt lat="48.4307" lon="2.63367">
        <ele>77</ele>
        <time>2013-09-26T14:21:19Z</time>
      </trkpt>
      <trkpt lat="48.43067" lon="2.63372">
        <ele>77</ele>
        <time>2013-09-26T14:21:21Z</time>
      </trkpt>
      <trkpt lat="48.43066" lon="2.63376">
        <ele>77</ele>
        <time>2013-09-26T14:21:22Z</time>
      </trkpt>
      <trkpt lat="48.43065" lon="2.63379">
        <ele>77</ele>
        <time>2013-09-26T14:21:23Z</time>
      </trkpt>
      <trkpt lat="48.43064" lon="2.63382">
        <ele>77</ele>
        <time>2013-09-26T14:21:24Z</time>
      </trkpt>
      <trkpt lat="48.43062" lon="2.63386">
        <ele>77.6</ele>
        <time>2013-09-26T14:21:26Z</time>
      </trkpt>
      <trkpt lat="48.4306" lon="2.6339">
        <ele>78</ele>
        <time>2013-09-26T14:21:27Z</time>
      </trkpt>
      <trkpt lat="48.43058" lon="2.63401">
        <ele>78</ele>
        <time>2013-09-26T14:21:30Z</time>
      </trkpt>
      <trkpt lat="48.43057" lon="2.63404">
        <ele>78</ele>
        <time>2013-09-26T14:21:31Z</time>
      </trkpt>
      <trkpt lat="48.43055" lon="2.63407">
        <ele>78</ele>
        <time>2013-09-26T14:21:32Z</time>
      </trkpt>
      <trkpt lat="48.43053" lon="2.63415">
        <ele>78</ele>
        <time>2013-09-26T14:21:34Z</time>
      </trkpt>
      <trkpt lat="48.43051" lon="2.63418">
        <ele>78</ele>
        <time>2013-09-26T14:21:35Z</time>
      </trkpt>
      <trkpt lat="48.4305" lon="2.63422">
        <ele>78</ele>
        <time>2013-09-26T14:21:36Z</time>
      </trkpt>
      <trkpt lat="48.43047" lon="2.63428">
        <ele>78</ele>
        <time>2013-09-26T14:21:38Z</time>
      </trkpt>
      <trkpt lat="48.43045" lon="2.63435">
        <ele>78</ele>
        <time>2013-09-26T14:21:40Z</time>
      </trkpt>
      <trkpt lat="48.43043" lon="2.63442">
        <ele>78</ele>
        <time>2013-09-26T14:21:42Z</time>
      </trkpt>
      <trkpt lat="48.43042" lon="2.63446">
        <ele>78</ele>
        <time>2013-09-26T14:21:43Z</time>
      </trkpt>
      <trkpt lat="48.43039" lon="2.63454">
        <ele>78</ele>
        <time>2013-09-26T14:21:45Z</time>
      </trkpt>
      <trkpt lat="48.43038" lon="2.63464">
        <ele>78</ele>
        <time>2013-09-26T14:21:47Z</time>
      </trkpt>
      <trkpt lat="48.43038" lon="2.63468">
        <ele>78</ele>
        <time>2013-09-26T14:21:48Z</time>
      </trkpt>
      <trkpt lat="48.43036" lon="2.63478">
        <ele>78</ele>
        <time>2013-09-26T14:21:50Z</time>
      </trkpt>
      <trkpt lat="48.43035" lon="2.63482">
        <ele>78</ele>
        <time>2013-09-26T14:21:51Z</time>
      </trkpt>
      <trkpt lat="48.43034" lon="2.63486">
        <ele>78</ele>
        <time>2013-09-26T14:21:52Z</time>
      </trkpt>
      <trkpt lat="48.43034" lon="2.6349">
        <ele>78</ele>
        <time>2013-09-26T14:21:53Z</time>
      </trkpt>
      <trkpt lat="48.43031" lon="2.63502">
        <ele>78</ele>
        <time>2013-09-26T14:21:56Z</time>
      </trkpt>
      <trkpt lat="48.43028" lon="2.63511">
        <ele>78</ele>
        <time>2013-09-26T14:21:58Z</time>
      </trkpt>
      <trkpt lat="48.43027" lon="2.63516">
        <ele>78</ele>
        <time>2013-09-26T14:21:59Z</time>
      </trkpt>
      <trkpt lat="48.43026" lon="2.63525">
        <ele>78</ele>
        <time>2013-09-26T14:22:01Z</time>
      </trkpt>
      <trkpt lat="48.43024" lon="2.63533">
        <ele>78</ele>
        <time>2013-09-26T14:22:03Z</time>
      </trkpt>
      <trkpt lat="48.43023" lon="2.63537">
        <ele>78</ele>
        <time>2013-09-26T14:22:04Z</time>
      </trkpt>
      <trkpt lat="48.43022" lon="2.63545">
        <ele>78.6</ele>
        <time>2013-09-26T14:22:06Z</time>
      </trkpt>
      <trkpt lat="48.43021" lon="2.63551">
        <ele>79</ele>
        <time>2013-09-26T14:22:08Z</time>
      </trkpt>
      <trkpt lat="48.4302" lon="2.63556">
        <ele>79</ele>
        <time>2013-09-26T14:22:10Z</time>
      </trkpt>
      <trkpt lat="48.43021" lon="2.63559">
        <ele>79</ele>
        <time>2013-09-26T14:22:13Z</time>
      </trkpt>
      <trkpt lat="48.4302" lon="2.63562">
        <ele>79</ele>
        <time>2013-09-26T14:22:20Z</time>
      </trkpt>
      <trkpt lat="48.4302" lon="2.63566">
        <ele>79</ele>
        <time>2013-09-26T14:22:25Z</time>
      </trkpt>
      <trkpt lat="48.43019" lon="2.63569">
        <ele>79</ele>
        <time>2013-09-26T14:22:26Z</time>
      </trkpt>
      <trkpt lat="48.43017" lon="2.63573">
        <ele>79</ele>
        <time>2013-09-26T14:22:27Z</time>
      </trkpt>
      <trkpt lat="48.43016" lon="2.63575">
        <ele>79</ele>
        <time>2013-09-26T14:22:28Z</time>
      </trkpt>
      <trkpt lat="48.43015" lon="2.63578">
        <ele>79</ele>
        <time>2013-09-26T14:22:29Z</time>
      </trkpt>
      <trkpt lat="48.43014" lon="2.63582">
        <ele>79</ele>
        <time>2013-09-26T14:22:30Z</time>
      </trkpt>
      <trkpt lat="48.43013" lon="2.63585">
        <ele>79</ele>
        <time>2013-09-26T14:22:31Z</time>
      </trkpt>
      <trkpt lat="48.4301" lon="2.63594">
        <ele>79</ele>
        <time>2013-09-26T14:22:33Z</time>
      </trkpt>
      <trkpt lat="48.43006" lon="2.63608">
        <ele>79</ele>
        <time>2013-09-26T14:22:36Z</time>
      </trkpt>
      <trkpt lat="48.43004" lon="2.63618">
        <ele>79</ele>
        <time>2013-09-26T14:22:38Z</time>
      </trkpt>
      <trkpt lat="48.43002" lon="2.63628">
        <ele>79</ele>
        <time>2013-09-26T14:22:40Z</time>
      </trkpt>
      <trkpt lat="48.43001" lon="2.63633">
        <ele>79</ele>
        <time>2013-09-26T14:22:41Z</time>
      </trkpt>
      <trkpt lat="48.42999" lon="2.63639">
        <ele>79</ele>
        <time>2013-09-26T14:22:42Z</time>
      </trkpt>
      <trkpt lat="48.42997" lon="2.63649">
        <ele>79</ele>
        <time>2013-09-26T14:22:44Z</time>
      </trkpt>
      <trkpt lat="48.42994" lon="2.63659">
        <ele>79</ele>
        <time>2013-09-26T14:22:46Z</time>
      </trkpt>
      <trkpt lat="48.42991" lon="2.6367">
        <ele>79</ele>
        <time>2013-09-26T14:22:48Z</time>
      </trkpt>
      <trkpt lat="48.4299" lon="2.63681">
        <ele>79</ele>
        <time>2013-09-26T14:22:50Z</time>
      </trkpt>
      <trkpt lat="48.42988" lon="2.63692">
        <ele>79</ele>
        <time>2013-09-26T14:22:52Z</time>
      </trkpt>
      <trkpt lat="48.42987" lon="2.63698">
        <ele>79</ele>
        <time>2013-09-26T14:22:53Z</time>
      </trkpt>
      <trkpt lat="48.42986" lon="2.63704">
        <ele>79</ele>
        <time>2013-09-26T14:22:54Z</time>
      </trkpt>
      <trkpt lat="48.42984" lon="2.63714">
        <ele>79</ele>
        <time>2013-09-26T14:22:56Z</time>
      </trkpt>
      <trkpt lat="48.42983" lon="2.63719">
        <ele>79</ele>
        <time>2013-09-26T14:22:57Z</time>
      </trkpt>
      <trkpt lat="48.42981" lon="2.63729">
        <ele>79</ele>
        <time>2013-09-26T14:22:59Z</time>
      </trkpt>
      <trkpt lat="48.4298" lon="2.63735">
        <ele>79</ele>
        <time>2013-09-26T14:23:00Z</time>
      </trkpt>
      <trkpt lat="48.42978" lon="2.63747">
        <ele>79</ele>
        <time>2013-09-26T14:23:02Z</time>
      </trkpt>
      <trkpt lat="48.42978" lon="2.63751">
        <ele>79</ele>
        <time>2013-09-26T14:23:03Z</time>
      </trkpt>
      <trkpt lat="48.42977" lon="2.63756">
        <ele>79</ele>
        <time>2013-09-26T14:23:04Z</time>
      </trkpt>
      <trkpt lat="48.42976" lon="2.63765">
        <ele>78.4</ele>
        <time>2013-09-26T14:23:06Z</time>
      </trkpt>
      <trkpt lat="48.42975" lon="2.6377">
        <ele>78</ele>
        <time>2013-09-26T14:23:07Z</time>
      </trkpt>
      <trkpt lat="48.42975" lon="2.63774">
        <ele>78</ele>
        <time>2013-09-26T14:23:08Z</time>
      </trkpt>
      <trkpt lat="48.42974" lon="2.63779">
        <ele>78</ele>
        <time>2013-09-26T14:23:09Z</time>
      </trkpt>
      <trkpt lat="48.42973" lon="2.63789">
        <ele>78</ele>
        <time>2013-09-26T14:23:11Z</time>
      </trkpt>
      <trkpt lat="48.42973" lon="2.63794">
        <ele>78</ele>
        <time>2013-09-26T14:23:12Z</time>
      </trkpt>
      <trkpt lat="48.42974" lon="2.63799">
        <ele>78</ele>
        <time>2013-09-26T14:23:13Z</time>
      </trkpt>
      <trkpt lat="48.42976" lon="2.63804">
        <ele>78</ele>
        <time>2013-09-26T14:23:14Z</time>
      </trkpt>
      <trkpt lat="48.42977" lon="2.63809">
        <ele>78</ele>
        <time>2013-09-26T14:23:15Z</time>
      </trkpt>
      <trkpt lat="48.42978" lon="2.63819">
        <ele>78</ele>
        <time>2013-09-26T14:23:17Z</time>
      </trkpt>
      <trkpt lat="48.42977" lon="2.63829">
        <ele>78</ele>
        <time>2013-09-26T14:23:19Z</time>
      </trkpt>
      <trkpt lat="48.42975" lon="2.6384">
        <ele>78</ele>
        <time>2013-09-26T14:23:21Z</time>
      </trkpt>
      <trkpt lat="48.42972" lon="2.6385">
        <ele>78</ele>
        <time>2013-09-26T14:23:23Z</time>
      </trkpt>
      <trkpt lat="48.42969" lon="2.6386">
        <ele>78</ele>
        <time>2013-09-26T14:23:25Z</time>
      </trkpt>
      <trkpt lat="48.42966" lon="2.6387">
        <ele>78</ele>
        <time>2013-09-26T14:23:27Z</time>
      </trkpt>
      <trkpt lat="48.42965" lon="2.63874">
        <ele>78</ele>
        <time>2013-09-26T14:23:28Z</time>
      </trkpt>
      <trkpt lat="48.42963" lon="2.63881">
        <ele>78</ele>
        <time>2013-09-26T14:23:30Z</time>
      </trkpt>
      <trkpt lat="48.42962" lon="2.63885">
        <ele>78</ele>
        <time>2013-09-26T14:23:31Z</time>
      </trkpt>
      <trkpt lat="48.42961" lon="2.6389">
        <ele>78</ele>
        <time>2013-09-26T14:23:32Z</time>
      </trkpt>
      <trkpt lat="48.42961" lon="2.639">
        <ele>78</ele>
        <time>2013-09-26T14:23:34Z</time>
      </trkpt>
      <trkpt lat="48.42962" lon="2.63905">
        <ele>78</ele>
        <time>2013-09-26T14:23:35Z</time>
      </trkpt>
      <trkpt lat="48.42963" lon="2.6391">
        <ele>78</ele>
        <time>2013-09-26T14:23:36Z</time>
      </trkpt>
      <trkpt lat="48.42965" lon="2.63918">
        <ele>78</ele>
        <time>2013-09-26T14:23:38Z</time>
      </trkpt>
      <trkpt lat="48.42968" lon="2.63926">
        <ele>78</ele>
        <time>2013-09-26T14:23:40Z</time>
      </trkpt>
      <trkpt lat="48.4297" lon="2.6393">
        <ele>78</ele>
        <time>2013-09-26T14:23:41Z</time>
      </trkpt>
      <trkpt lat="48.42972" lon="2.63939">
        <ele>78</ele>
        <time>2013-09-26T14:23:43Z</time>
      </trkpt>
      <trkpt lat="48.42973" lon="2.63943">
        <ele>78</ele>
        <time>2013-09-26T14:23:44Z</time>
      </trkpt>
      <trkpt lat="48.42975" lon="2.63952">
        <ele>77.4</ele>
        <time>2013-09-26T14:23:46Z</time>
      </trkpt>
      <trkpt lat="48.42975" lon="2.63956">
        <ele>77</ele>
        <time>2013-09-26T14:23:47Z</time>
      </trkpt>
      <trkpt lat="48.42975" lon="2.63963">
        <ele>77</ele>
        <time>2013-09-26T14:23:49Z</time>
      </trkpt>
      <trkpt lat="48.42975" lon="2.63967">
        <ele>77</ele>
        <time>2013-09-26T14:23:50Z</time>
      </trkpt>
      <trkpt lat="48.42974" lon="2.63974">
        <ele>77</ele>
        <time>2013-09-26T14:23:52Z</time>
      </trkpt>
      <trkpt lat="48.42972" lon="2.63977">
        <ele>77</ele>
        <time>2013-09-26T14:23:53Z</time>
      </trkpt>
      <trkpt lat="48.42971" lon="2.6398">
        <ele>77</ele>
        <time>2013-09-26T14:23:54Z</time>
      </trkpt>
      <trkpt lat="48.42968" lon="2.63987">
        <ele>76.4</ele>
        <time>2013-09-26T14:23:56Z</time>
      </trkpt>
      <trkpt lat="48.42966" lon="2.63992">
        <ele>76</ele>
        <time>2013-09-26T14:23:57Z</time>
      </trkpt>
      <trkpt lat="48.42966" lon="2.63996">
        <ele>76</ele>
        <time>2013-09-26T14:23:58Z</time>
      </trkpt>
      <trkpt lat="48.42965" lon="2.64001">
        <ele>76</ele>
        <time>2013-09-26T14:23:59Z</time>
      </trkpt>
      <trkpt lat="48.42965" lon="2.64005">
        <ele>76</ele>
        <time>2013-09-26T14:24:00Z</time>
      </trkpt>
      <trkpt lat="48.42964" lon="2.6401">
        <ele>76</ele>
        <time>2013-09-26T14:24:01Z</time>
      </trkpt>
      <trkpt lat="48.42962" lon="2.64018">
        <ele>76</ele>
        <time>2013-09-26T14:24:03Z</time>
      </trkpt>
      <trkpt lat="48.42961" lon="2.64021">
        <ele>76</ele>
        <time>2013-09-26T14:24:04Z</time>
      </trkpt>
      <trkpt lat="48.4296" lon="2.64025">
        <ele>76</ele>
        <time>2013-09-26T14:24:05Z</time>
      </trkpt>
      <trkpt lat="48.42959" lon="2.6403">
        <ele>76</ele>
        <time>2013-09-26T14:24:06Z</time>
      </trkpt>
      <trkpt lat="48.42958" lon="2.64041">
        <ele>76</ele>
        <time>2013-09-26T14:24:08Z</time>
      </trkpt>
      <trkpt lat="48.42956" lon="2.64052">
        <ele>76</ele>
        <time>2013-09-26T14:24:10Z</time>
      </trkpt>
      <trkpt lat="48.42955" lon="2.64061">
        <ele>76</ele>
        <time>2013-09-26T14:24:12Z</time>
      </trkpt>
      <trkpt lat="48.42952" lon="2.64074">
        <ele>76</ele>
        <time>2013-09-26T14:24:15Z</time>
      </trkpt>
      <trkpt lat="48.42951" lon="2.6408">
        <ele>75.3</ele>
        <time>2013-09-26T14:24:16Z</time>
      </trkpt>
      <trkpt lat="48.4295" lon="2.64088">
        <ele>75</ele>
        <time>2013-09-26T14:24:18Z</time>
      </trkpt>
      <trkpt lat="48.42946" lon="2.641">
        <ele>75</ele>
        <time>2013-09-26T14:24:21Z</time>
      </trkpt>
      <trkpt lat="48.42943" lon="2.64108">
        <ele>75</ele>
        <time>2013-09-26T14:24:23Z</time>
      </trkpt>
      <trkpt lat="48.42942" lon="2.64112">
        <ele>75</ele>
        <time>2013-09-26T14:24:24Z</time>
      </trkpt>
      <trkpt lat="48.42938" lon="2.64119">
        <ele>74.4</ele>
        <time>2013-09-26T14:24:26Z</time>
      </trkpt>
      <trkpt lat="48.42934" lon="2.64126">
        <ele>74</ele>
        <time>2013-09-26T14:24:28Z</time>
      </trkpt>
      <trkpt lat="48.42932" lon="2.6413">
        <ele>74</ele>
        <time>2013-09-26T14:24:29Z</time>
      </trkpt>
      <trkpt lat="48.42927" lon="2.64136">
        <ele>74</ele>
        <time>2013-09-26T14:24:31Z</time>
      </trkpt>
      <trkpt lat="48.42926" lon="2.64139">
        <ele>74</ele>
        <time>2013-09-26T14:24:32Z</time>
      </trkpt>
      <trkpt lat="48.42924" lon="2.64143">
        <ele>74</ele>
        <time>2013-09-26T14:24:33Z</time>
      </trkpt>
      <trkpt lat="48.42921" lon="2.64151">
        <ele>74</ele>
        <time>2013-09-26T14:24:35Z</time>
      </trkpt>
      <trkpt lat="48.42921" lon="2.64155">
        <ele>72.6</ele>
        <time>2013-09-26T14:24:36Z</time>
      </trkpt>
      <trkpt lat="48.4292" lon="2.64159">
        <ele>72</ele>
        <time>2013-09-26T14:24:37Z</time>
      </trkpt>
      <trkpt lat="48.4292" lon="2.64169">
        <ele>72</ele>
        <time>2013-09-26T14:24:39Z</time>
      </trkpt>
      <trkpt lat="48.42919" lon="2.64181">
        <ele>72</ele>
        <time>2013-09-26T14:24:41Z</time>
      </trkpt>
      <trkpt lat="48.42917" lon="2.64186">
        <ele>72</ele>
        <time>2013-09-26T14:24:42Z</time>
      </trkpt>
      <trkpt lat="48.42916" lon="2.64191">
        <ele>72</ele>
        <time>2013-09-26T14:24:43Z</time>
      </trkpt>
      <trkpt lat="48.42913" lon="2.64205">
        <ele>71.4</ele>
        <time>2013-09-26T14:24:46Z</time>
      </trkpt>
      <trkpt lat="48.4291" lon="2.64213">
        <ele>71</ele>
        <time>2013-09-26T14:24:48Z</time>
      </trkpt>
      <trkpt lat="48.42911" lon="2.64216">
        <ele>71</ele>
        <time>2013-09-26T14:24:49Z</time>
      </trkpt>
      <trkpt lat="48.42911" lon="2.64219">
        <ele>71</ele>
        <time>2013-09-26T14:24:50Z</time>
      </trkpt>
      <trkpt lat="48.4291" lon="2.64226">
        <ele>71</ele>
        <time>2013-09-26T14:24:52Z</time>
      </trkpt>
      <trkpt lat="48.42911" lon="2.64233">
        <ele>71</ele>
        <time>2013-09-26T14:24:54Z</time>
      </trkpt>
      <trkpt lat="48.4291" lon="2.64237">
        <ele>71</ele>
        <time>2013-09-26T14:24:55Z</time>
      </trkpt>
      <trkpt lat="48.42911" lon="2.6425">
        <ele>70</ele>
        <time>2013-09-26T14:24:58Z</time>
      </trkpt>
      <trkpt lat="48.4291" lon="2.64259">
        <ele>70</ele>
        <time>2013-09-26T14:25:00Z</time>
      </trkpt>
      <trkpt lat="48.42909" lon="2.64262">
        <ele>70</ele>
        <time>2013-09-26T14:25:01Z</time>
      </trkpt>
      <trkpt lat="48.42908" lon="2.64266">
        <ele>70</ele>
        <time>2013-09-26T14:25:02Z</time>
      </trkpt>
      <trkpt lat="48.42906" lon="2.64274">
        <ele>70</ele>
        <time>2013-09-26T14:25:05Z</time>
      </trkpt>
      <trkpt lat="48.42905" lon="2.64277">
        <ele>69.4</ele>
        <time>2013-09-26T14:25:06Z</time>
      </trkpt>
      <trkpt lat="48.42905" lon="2.6428">
        <ele>69</ele>
        <time>2013-09-26T14:25:07Z</time>
      </trkpt>
      <trkpt lat="48.42904" lon="2.64282">
        <ele>69</ele>
        <time>2013-09-26T14:25:08Z</time>
      </trkpt>
      <trkpt lat="48.42904" lon="2.64288">
        <ele>69</ele>
        <time>2013-09-26T14:25:10Z</time>
      </trkpt>
      <trkpt lat="48.42905" lon="2.6429">
        <ele>69</ele>
        <time>2013-09-26T14:25:11Z</time>
      </trkpt>
      <trkpt lat="48.42904" lon="2.64294">
        <ele>69</ele>
        <time>2013-09-26T14:25:12Z</time>
      </trkpt>
      <trkpt lat="48.42902" lon="2.643">
        <ele>69</ele>
        <time>2013-09-26T14:25:14Z</time>
      </trkpt>
      <trkpt lat="48.429" lon="2.64308">
        <ele>67.8</ele>
        <time>2013-09-26T14:25:16Z</time>
      </trkpt>
      <trkpt lat="48.429" lon="2.64311">
        <ele>67</ele>
        <time>2013-09-26T14:25:17Z</time>
      </trkpt>
      <trkpt lat="48.429" lon="2.64314">
        <ele>67</ele>
        <time>2013-09-26T14:25:18Z</time>
      </trkpt>
      <trkpt lat="48.42897" lon="2.64322">
        <ele>67</ele>
        <time>2013-09-26T14:25:20Z</time>
      </trkpt>
      <trkpt lat="48.42896" lon="2.64327">
        <ele>67</ele>
        <time>2013-09-26T14:25:21Z</time>
      </trkpt>
      <trkpt lat="48.42896" lon="2.64332">
        <ele>67</ele>
        <time>2013-09-26T14:25:22Z</time>
      </trkpt>
      <trkpt lat="48.42893" lon="2.64348">
        <ele>67</ele>
        <time>2013-09-26T14:25:25Z</time>
      </trkpt>
      <trkpt lat="48.42892" lon="2.64353">
        <ele>66.3</ele>
        <time>2013-09-26T14:25:26Z</time>
      </trkpt>
      <trkpt lat="48.42889" lon="2.64368">
        <ele>66</ele>
        <time>2013-09-26T14:25:29Z</time>
      </trkpt>
      <trkpt lat="48.42888" lon="2.64373">
        <ele>66</ele>
        <time>2013-09-26T14:25:30Z</time>
      </trkpt>
      <trkpt lat="48.42887" lon="2.64379">
        <ele>66</ele>
        <time>2013-09-26T14:25:31Z</time>
      </trkpt>
      <trkpt lat="48.42886" lon="2.64397">
        <ele>66</ele>
        <time>2013-09-26T14:25:34Z</time>
      </trkpt>
      <trkpt lat="48.42886" lon="2.64404">
        <ele>66</ele>
        <time>2013-09-26T14:25:35Z</time>
      </trkpt>
      <trkpt lat="48.42885" lon="2.64411">
        <ele>64.6</ele>
        <time>2013-09-26T14:25:36Z</time>
      </trkpt>
      <trkpt lat="48.42884" lon="2.64429">
        <ele>64</ele>
        <time>2013-09-26T14:25:39Z</time>
      </trkpt>
      <trkpt lat="48.42884" lon="2.64439">
        <ele>64</ele>
        <time>2013-09-26T14:25:41Z</time>
      </trkpt>
      <trkpt lat="48.42885" lon="2.64443">
        <ele>64</ele>
        <time>2013-09-26T14:25:42Z</time>
      </trkpt>
      <trkpt lat="48.42884" lon="2.6445">
        <ele>64</ele>
        <time>2013-09-26T14:25:44Z</time>
      </trkpt>
      <trkpt lat="48.42883" lon="2.6446">
        <ele>62.6</ele>
        <time>2013-09-26T14:25:46Z</time>
      </trkpt>
      <trkpt lat="48.42883" lon="2.64471">
        <ele>62</ele>
        <time>2013-09-26T14:25:48Z</time>
      </trkpt>
      <trkpt lat="48.42883" lon="2.64475">
        <ele>62</ele>
        <time>2013-09-26T14:25:49Z</time>
      </trkpt>
      <trkpt lat="48.42883" lon="2.64479">
        <ele>62</ele>
        <time>2013-09-26T14:25:50Z</time>
      </trkpt>
      <trkpt lat="48.42883" lon="2.64483">
        <ele>62</ele>
        <time>2013-09-26T14:25:51Z</time>
      </trkpt>
      <trkpt lat="48.42883" lon="2.64487">
        <ele>62</ele>
        <time>2013-09-26T14:25:52Z</time>
      </trkpt>
      <trkpt lat="48.42882" lon="2.64497">
        <ele>62</ele>
        <time>2013-09-26T14:25:54Z</time>
      </trkpt>
      <trkpt lat="48.42882" lon="2.64501">
        <ele>62</ele>
        <time>2013-09-26T14:25:55Z</time>
      </trkpt>
      <trkpt lat="48.42882" lon="2.64506">
        <ele>59.9</ele>
        <time>2013-09-26T14:25:56Z</time>
      </trkpt>
      <trkpt lat="48.42882" lon="2.64512">
        <ele>59</ele>
        <time>2013-09-26T14:25:58Z</time>
      </trkpt>
      <trkpt lat="48.42883" lon="2.64516">
        <ele>59</ele>
        <time>2013-09-26T14:25:59Z</time>
      </trkpt>
      <trkpt lat="48.42884" lon="2.6452">
        <ele>59</ele>
        <time>2013-09-26T14:26:00Z</time>
      </trkpt>
      <trkpt lat="48.42886" lon="2.64528">
        <ele>58</ele>
        <time>2013-09-26T14:26:02Z</time>
      </trkpt>
      <trkpt lat="48.42887" lon="2.64535">
        <ele>58</ele>
        <time>2013-09-26T14:26:04Z</time>
      </trkpt>
      <trkpt lat="48.42887" lon="2.64538">
        <ele>58</ele>
        <time>2013-09-26T14:26:05Z</time>
      </trkpt>
      <trkpt lat="48.42888" lon="2.64541">
        <ele>57.3</ele>
        <time>2013-09-26T14:26:06Z</time>
      </trkpt>
      <trkpt lat="48.42891" lon="2.64548">
        <ele>57</ele>
        <time>2013-09-26T14:26:08Z</time>
      </trkpt>
      <trkpt lat="48.42892" lon="2.64552">
        <ele>57</ele>
        <time>2013-09-26T14:26:09Z</time>
      </trkpt>
      <trkpt lat="48.42894" lon="2.64555">
        <ele>57</ele>
        <time>2013-09-26T14:26:10Z</time>
      </trkpt>
      <trkpt lat="48.42897" lon="2.64558">
        <ele>57</ele>
        <time>2013-09-26T14:26:11Z</time>
      </trkpt>
      <trkpt lat="48.42899" lon="2.64561">
        <ele>57</ele>
        <time>2013-09-26T14:26:12Z</time>
      </trkpt>
      <trkpt lat="48.42902" lon="2.64571">
        <ele>57</ele>
        <time>2013-09-26T14:26:14Z</time>
      </trkpt>
      <trkpt lat="48.42905" lon="2.64585">
        <ele>55</ele>
        <time>2013-09-26T14:26:17Z</time>
      </trkpt>
      <trkpt lat="48.42906" lon="2.64588">
        <ele>55</ele>
        <time>2013-09-26T14:26:18Z</time>
      </trkpt>
      <trkpt lat="48.42908" lon="2.64593">
        <ele>55</ele>
        <time>2013-09-26T14:26:20Z</time>
      </trkpt>
      <trkpt lat="48.42911" lon="2.64597">
        <ele>55</ele>
        <time>2013-09-26T14:26:22Z</time>
      </trkpt>
      <trkpt lat="48.42913" lon="2.646">
        <ele>55</ele>
        <time>2013-09-26T14:26:23Z</time>
      </trkpt>
      <trkpt lat="48.42914" lon="2.64603">
        <ele>55</ele>
        <time>2013-09-26T14:26:24Z</time>
      </trkpt>
      <trkpt lat="48.42916" lon="2.64605">
        <ele>55</ele>
        <time>2013-09-26T14:26:25Z</time>
      </trkpt>
      <trkpt lat="48.42918" lon="2.64607">
        <ele>54.3</ele>
        <time>2013-09-26T14:26:26Z</time>
      </trkpt>
      <trkpt lat="48.42922" lon="2.6461">
        <ele>54</ele>
        <time>2013-09-26T14:26:28Z</time>
      </trkpt>
      <trkpt lat="48.42923" lon="2.64613">
        <ele>54</ele>
        <time>2013-09-26T14:26:29Z</time>
      </trkpt>
      <trkpt lat="48.42925" lon="2.64617">
        <ele>54</ele>
        <time>2013-09-26T14:26:31Z</time>
      </trkpt>
      <trkpt lat="48.42927" lon="2.64618">
        <ele>54</ele>
        <time>2013-09-26T14:26:32Z</time>
      </trkpt>
      <trkpt lat="48.42932" lon="2.6462">
        <ele>54</ele>
        <time>2013-09-26T14:26:34Z</time>
      </trkpt>
      <trkpt lat="48.42937" lon="2.6462">
        <ele>51.9</ele>
        <time>2013-09-26T14:26:36Z</time>
      </trkpt>
      <trkpt lat="48.4294" lon="2.64621">
        <ele>51</ele>
        <time>2013-09-26T14:26:37Z</time>
      </trkpt>
      <trkpt lat="48.42942" lon="2.64623">
        <ele>51</ele>
        <time>2013-09-26T14:26:38Z</time>
      </trkpt>
      <trkpt lat="48.42945" lon="2.64624">
        <ele>51</ele>
        <time>2013-09-26T14:26:39Z</time>
      </trkpt>
      <trkpt lat="48.42948" lon="2.64624">
        <ele>51</ele>
        <time>2013-09-26T14:26:40Z</time>
      </trkpt>
      <trkpt lat="48.42952" lon="2.64623">
        <ele>50</ele>
        <time>2013-09-26T14:26:42Z</time>
      </trkpt>
      <trkpt lat="48.42956" lon="2.64623">
        <ele>50</ele>
        <time>2013-09-26T14:26:44Z</time>
      </trkpt>
      <trkpt lat="48.4296" lon="2.64624">
        <ele>49.4</ele>
        <time>2013-09-26T14:26:46Z</time>
      </trkpt>
      <trkpt lat="48.42964" lon="2.64625">
        <ele>49</ele>
        <time>2013-09-26T14:26:48Z</time>
      </trkpt>
      <trkpt lat="48.42967" lon="2.64627">
        <ele>49</ele>
        <time>2013-09-26T14:26:49Z</time>
      </trkpt>
      <trkpt lat="48.42971" lon="2.64633">
        <ele>49</ele>
        <time>2013-09-26T14:26:51Z</time>
      </trkpt>
      <trkpt lat="48.42974" lon="2.64637">
        <ele>49</ele>
        <time>2013-09-26T14:26:52Z</time>
      </trkpt>
      <trkpt lat="48.42976" lon="2.6464">
        <ele>49</ele>
        <time>2013-09-26T14:26:53Z</time>
      </trkpt>
      <trkpt lat="48.42979" lon="2.64642">
        <ele>49</ele>
        <time>2013-09-26T14:26:54Z</time>
      </trkpt>
      <trkpt lat="48.42982" lon="2.64644">
        <ele>49</ele>
        <time>2013-09-26T14:26:55Z</time>
      </trkpt>
      <trkpt lat="48.42985" lon="2.64646">
        <ele>49</ele>
        <time>2013-09-26T14:26:56Z</time>
      </trkpt>
      <trkpt lat="48.42986" lon="2.64649">
        <ele>49</ele>
        <time>2013-09-26T14:26:57Z</time>
      </trkpt>
      <trkpt lat="48.42989" lon="2.64651">
        <ele>49</ele>
        <time>2013-09-26T14:26:58Z</time>
      </trkpt>
      <trkpt lat="48.42991" lon="2.64653">
        <ele>49</ele>
        <time>2013-09-26T14:26:59Z</time>
      </trkpt>
      <trkpt lat="48.42993" lon="2.64654">
        <ele>49</ele>
        <time>2013-09-26T14:27:00Z</time>
      </trkpt>
      <trkpt lat="48.42995" lon="2.64655">
        <ele>49</ele>
        <time>2013-09-26T14:27:01Z</time>
      </trkpt>
      <trkpt lat="48.42999" lon="2.64657">
        <ele>49</ele>
        <time>2013-09-26T14:27:03Z</time>
      </trkpt>
      <trkpt lat="48.43001" lon="2.64656">
        <ele>49</ele>
        <time>2013-09-26T14:27:04Z</time>
      </trkpt>
      <trkpt lat="48.43004" lon="2.64656">
        <ele>48.4</ele>
        <time>2013-09-26T14:27:06Z</time>
      </trkpt>
      <trkpt lat="48.43005" lon="2.64657">
        <ele>48</ele>
        <time>2013-09-26T14:27:07Z</time>
      </trkpt>
      <trkpt lat="48.43008" lon="2.64661">
        <ele>48</ele>
        <time>2013-09-26T14:27:09Z</time>
      </trkpt>
      <trkpt lat="48.43009" lon="2.64663">
        <ele>48</ele>
        <time>2013-09-26T14:27:10Z</time>
      </trkpt>
      <trkpt lat="48.43011" lon="2.64665">
        <ele>48</ele>
        <time>2013-09-26T14:27:11Z</time>
      </trkpt>
      <trkpt lat="48.43013" lon="2.64668">
        <ele>48</ele>
        <time>2013-09-26T14:27:12Z</time>
      </trkpt>
      <trkpt lat="48.4302" lon="2.64674">
        <ele>48</ele>
        <time>2013-09-26T14:27:15Z</time>
      </trkpt>
      <trkpt lat="48.43025" lon="2.64681">
        <ele>46</ele>
        <time>2013-09-26T14:27:18Z</time>
      </trkpt>
      <trkpt lat="48.43029" lon="2.64686">
        <ele>46</ele>
        <time>2013-09-26T14:27:20Z</time>
      </trkpt>
      <trkpt lat="48.43031" lon="2.64688">
        <ele>46</ele>
        <time>2013-09-26T14:27:21Z</time>
      </trkpt>
      <trkpt lat="48.43035" lon="2.64694">
        <ele>46</ele>
        <time>2013-09-26T14:27:23Z</time>
      </trkpt>
      <trkpt lat="48.43037" lon="2.64697">
        <ele>46</ele>
        <time>2013-09-26T14:27:24Z</time>
      </trkpt>
      <trkpt lat="48.43041" lon="2.64701">
        <ele>46</ele>
        <time>2013-09-26T14:27:26Z</time>
      </trkpt>
      <trkpt lat="48.43047" lon="2.6471">
        <ele>46</ele>
        <time>2013-09-26T14:27:29Z</time>
      </trkpt>
      <trkpt lat="48.43049" lon="2.64714">
        <ele>46</ele>
        <time>2013-09-26T14:27:30Z</time>
      </trkpt>
      <trkpt lat="48.43054" lon="2.64721">
        <ele>46</ele>
        <time>2013-09-26T14:27:32Z</time>
      </trkpt>
      <trkpt lat="48.43058" lon="2.64732">
        <ele>46</ele>
        <time>2013-09-26T14:27:35Z</time>
      </trkpt>
      <trkpt lat="48.4306" lon="2.64735">
        <ele>45.3</ele>
        <time>2013-09-26T14:27:36Z</time>
      </trkpt>
      <trkpt lat="48.43062" lon="2.64743">
        <ele>45</ele>
        <time>2013-09-26T14:27:38Z</time>
      </trkpt>
      <trkpt lat="48.43063" lon="2.64747">
        <ele>45</ele>
        <time>2013-09-26T14:27:39Z</time>
      </trkpt>
      <trkpt lat="48.43065" lon="2.6475">
        <ele>45</ele>
        <time>2013-09-26T14:27:40Z</time>
      </trkpt>
      <trkpt lat="48.43067" lon="2.64756">
        <ele>45</ele>
        <time>2013-09-26T14:27:42Z</time>
      </trkpt>
      <trkpt lat="48.43072" lon="2.64767">
        <ele>45</ele>
        <time>2013-09-26T14:27:45Z</time>
      </trkpt>
      <trkpt lat="48.43075" lon="2.64775">
        <ele>45</ele>
        <time>2013-09-26T14:27:47Z</time>
      </trkpt>
      <trkpt lat="48.43077" lon="2.64782">
        <ele>45</ele>
        <time>2013-09-26T14:27:49Z</time>
      </trkpt>
      <trkpt lat="48.43079" lon="2.64786">
        <ele>45</ele>
        <time>2013-09-26T14:27:50Z</time>
      </trkpt>
      <trkpt lat="48.4308" lon="2.64796">
        <ele>45</ele>
        <time>2013-09-26T14:27:52Z</time>
      </trkpt>
      <trkpt lat="48.4308" lon="2.648">
        <ele>45</ele>
        <time>2013-09-26T14:27:53Z</time>
      </trkpt>
      <trkpt lat="48.4308" lon="2.64804">
        <ele>45</ele>
        <time>2013-09-26T14:27:54Z</time>
      </trkpt>
      <trkpt lat="48.43081" lon="2.64807">
        <ele>45</ele>
        <time>2013-09-26T14:27:55Z</time>
      </trkpt>
      <trkpt lat="48.43081" lon="2.6481">
        <ele>44.3</ele>
        <time>2013-09-26T14:27:56Z</time>
      </trkpt>
      <trkpt lat="48.43082" lon="2.64814">
        <ele>44</ele>
        <time>2013-09-26T14:27:57Z</time>
      </trkpt>
      <trkpt lat="48.43082" lon="2.64816">
        <ele>44</ele>
        <time>2013-09-26T14:27:58Z</time>
      </trkpt>
      <trkpt lat="48.43083" lon="2.64819">
        <ele>44</ele>
        <time>2013-09-26T14:27:59Z</time>
      </trkpt>
      <trkpt lat="48.43085" lon="2.64829">
        <ele>44</ele>
        <time>2013-09-26T14:28:02Z</time>
      </trkpt>
      <trkpt lat="48.43085" lon="2.64836">
        <ele>44</ele>
        <time>2013-09-26T14:28:04Z</time>
      </trkpt>
      <trkpt lat="48.43086" lon="2.6484">
        <ele>44</ele>
        <time>2013-09-26T14:28:05Z</time>
      </trkpt>
      <trkpt lat="48.43088" lon="2.6485">
        <ele>43</ele>
        <time>2013-09-26T14:28:08Z</time>
      </trkpt>
      <trkpt lat="48.43089" lon="2.64853">
        <ele>43</ele>
        <time>2013-09-26T14:28:09Z</time>
      </trkpt>
      <trkpt lat="48.4309" lon="2.64856">
        <ele>43</ele>
        <time>2013-09-26T14:28:10Z</time>
      </trkpt>
      <trkpt lat="48.43092" lon="2.64859">
        <ele>43</ele>
        <time>2013-09-26T14:28:11Z</time>
      </trkpt>
      <trkpt lat="48.43094" lon="2.64861">
        <ele>43</ele>
        <time>2013-09-26T14:28:12Z</time>
      </trkpt>
      <trkpt lat="48.43097" lon="2.64862">
        <ele>43</ele>
        <time>2013-09-26T14:28:13Z</time>
      </trkpt>
      <trkpt lat="48.43103" lon="2.64863">
        <ele>43</ele>
        <time>2013-09-26T14:28:15Z</time>
      </trkpt>
      <trkpt lat="48.43106" lon="2.64862">
        <ele>43</ele>
        <time>2013-09-26T14:28:16Z</time>
      </trkpt>
      <trkpt lat="48.4311" lon="2.64861">
        <ele>43</ele>
        <time>2013-09-26T14:28:17Z</time>
      </trkpt>
      <trkpt lat="48.43115" lon="2.64858">
        <ele>43</ele>
        <time>2013-09-26T14:28:19Z</time>
      </trkpt>
      <trkpt lat="48.43118" lon="2.64857">
        <ele>43</ele>
        <time>2013-09-26T14:28:20Z</time>
      </trkpt>
      <trkpt lat="48.43121" lon="2.64855">
        <ele>43</ele>
        <time>2013-09-26T14:28:21Z</time>
      </trkpt>
      <trkpt lat="48.43126" lon="2.64851">
        <ele>43</ele>
        <time>2013-09-26T14:28:23Z</time>
      </trkpt>
      <trkpt lat="48.43128" lon="2.6485">
        <ele>43</ele>
        <time>2013-09-26T14:28:24Z</time>
      </trkpt>
      <trkpt lat="48.43134" lon="2.64847">
        <ele>43</ele>
        <time>2013-09-26T14:28:26Z</time>
      </trkpt>
      <trkpt lat="48.43142" lon="2.64843">
        <ele>43</ele>
        <time>2013-09-26T14:28:29Z</time>
      </trkpt>
      <trkpt lat="48.43149" lon="2.6484">
        <ele>43</ele>
        <time>2013-09-26T14:28:31Z</time>
      </trkpt>
      <trkpt lat="48.43152" lon="2.64838">
        <ele>43</ele>
        <time>2013-09-26T14:28:32Z</time>
      </trkpt>
      <trkpt lat="48.43155" lon="2.64835">
        <ele>43</ele>
        <time>2013-09-26T14:28:33Z</time>
      </trkpt>
      <trkpt lat="48.43163" lon="2.64829">
        <ele>42.4</ele>
        <time>2013-09-26T14:28:36Z</time>
      </trkpt>
      <trkpt lat="48.43166" lon="2.64827">
        <ele>42</ele>
        <time>2013-09-26T14:28:37Z</time>
      </trkpt>
      <trkpt lat="48.43173" lon="2.64823">
        <ele>42</ele>
        <time>2013-09-26T14:28:39Z</time>
      </trkpt>
      <trkpt lat="48.43184" lon="2.64818">
        <ele>42</ele>
        <time>2013-09-26T14:28:42Z</time>
      </trkpt>
      <trkpt lat="48.4319" lon="2.64814">
        <ele>42</ele>
        <time>2013-09-26T14:28:44Z</time>
      </trkpt>
      <trkpt lat="48.432" lon="2.64807">
        <ele>42</ele>
        <time>2013-09-26T14:28:47Z</time>
      </trkpt>
      <trkpt lat="48.43205" lon="2.64802">
        <ele>42</ele>
        <time>2013-09-26T14:28:49Z</time>
      </trkpt>
      <trkpt lat="48.43208" lon="2.648">
        <ele>42</ele>
        <time>2013-09-26T14:28:50Z</time>
      </trkpt>
      <trkpt lat="48.43214" lon="2.64796">
        <ele>42</ele>
        <time>2013-09-26T14:28:52Z</time>
      </trkpt>
      <trkpt lat="48.43217" lon="2.64793">
        <ele>42</ele>
        <time>2013-09-26T14:28:53Z</time>
      </trkpt>
      <trkpt lat="48.4322" lon="2.64791">
        <ele>42</ele>
        <time>2013-09-26T14:28:54Z</time>
      </trkpt>
      <trkpt lat="48.43233" lon="2.64782">
        <ele>41</ele>
        <time>2013-09-26T14:28:58Z</time>
      </trkpt>
      <trkpt lat="48.43235" lon="2.6478">
        <ele>41</ele>
        <time>2013-09-26T14:28:59Z</time>
      </trkpt>
      <trkpt lat="48.43242" lon="2.64774">
        <ele>41</ele>
        <time>2013-09-26T14:29:01Z</time>
      </trkpt>
      <trkpt lat="48.43248" lon="2.6477">
        <ele>41</ele>
        <time>2013-09-26T14:29:03Z</time>
      </trkpt>
      <trkpt lat="48.4325" lon="2.64769">
        <ele>41</ele>
        <time>2013-09-26T14:29:04Z</time>
      </trkpt>
      <trkpt lat="48.43257" lon="2.64765">
        <ele>41</ele>
        <time>2013-09-26T14:29:06Z</time>
      </trkpt>
      <trkpt lat="48.43259" lon="2.64761">
        <ele>41</ele>
        <time>2013-09-26T14:29:07Z</time>
      </trkpt>
      <trkpt lat="48.43262" lon="2.64759">
        <ele>41</ele>
        <time>2013-09-26T14:29:08Z</time>
      </trkpt>
      <trkpt lat="48.43265" lon="2.64757">
        <ele>41</ele>
        <time>2013-09-26T14:29:09Z</time>
      </trkpt>
      <trkpt lat="48.43272" lon="2.64754">
        <ele>41</ele>
        <time>2013-09-26T14:29:11Z</time>
      </trkpt>
      <trkpt lat="48.43275" lon="2.64752">
        <ele>41</ele>
        <time>2013-09-26T14:29:12Z</time>
      </trkpt>
      <trkpt lat="48.43281" lon="2.64747">
        <ele>41</ele>
        <time>2013-09-26T14:29:14Z</time>
      </trkpt>
      <trkpt lat="48.43286" lon="2.64744">
        <ele>41</ele>
        <time>2013-09-26T14:29:16Z</time>
      </trkpt>
      <trkpt lat="48.43289" lon="2.64741">
        <ele>41</ele>
        <time>2013-09-26T14:29:17Z</time>
      </trkpt>
      <trkpt lat="48.43295" lon="2.64738">
        <ele>41</ele>
        <time>2013-09-26T14:29:19Z</time>
      </trkpt>
      <trkpt lat="48.43302" lon="2.64735">
        <ele>41</ele>
        <time>2013-09-26T14:29:21Z</time>
      </trkpt>
      <trkpt lat="48.43308" lon="2.64731">
        <ele>41</ele>
        <time>2013-09-26T14:29:23Z</time>
      </trkpt>
      <trkpt lat="48.43318" lon="2.64724">
        <ele>41</ele>
        <time>2013-09-26T14:29:26Z</time>
      </trkpt>
      <trkpt lat="48.43321" lon="2.64721">
        <ele>41</ele>
        <time>2013-09-26T14:29:27Z</time>
      </trkpt>
      <trkpt lat="48.43324" lon="2.64718">
        <ele>41</ele>
        <time>2013-09-26T14:29:28Z</time>
      </trkpt>
      <trkpt lat="48.43329" lon="2.64714">
        <ele>41</ele>
        <time>2013-09-26T14:29:30Z</time>
      </trkpt>
      <trkpt lat="48.43331" lon="2.64712">
        <ele>41</ele>
        <time>2013-09-26T14:29:31Z</time>
      </trkpt>
      <trkpt lat="48.43334" lon="2.64709">
        <ele>41</ele>
        <time>2013-09-26T14:29:32Z</time>
      </trkpt>
      <trkpt lat="48.4334" lon="2.64705">
        <ele>41</ele>
        <time>2013-09-26T14:29:34Z</time>
      </trkpt>
      <trkpt lat="48.43343" lon="2.64702">
        <ele>41</ele>
        <time>2013-09-26T14:29:35Z</time>
      </trkpt>
      <trkpt lat="48.4335" lon="2.64692">
        <ele>41</ele>
        <time>2013-09-26T14:29:38Z</time>
      </trkpt>
      <trkpt lat="48.43356" lon="2.64689">
        <ele>41</ele>
        <time>2013-09-26T14:29:40Z</time>
      </trkpt>
      <trkpt lat="48.43359" lon="2.64687">
        <ele>41</ele>
        <time>2013-09-26T14:29:41Z</time>
      </trkpt>
      <trkpt lat="48.43365" lon="2.64684">
        <ele>41</ele>
        <time>2013-09-26T14:29:43Z</time>
      </trkpt>
      <trkpt lat="48.43368" lon="2.64682">
        <ele>41</ele>
        <time>2013-09-26T14:29:44Z</time>
      </trkpt>
      <trkpt lat="48.43374" lon="2.64679">
        <ele>41</ele>
        <time>2013-09-26T14:29:46Z</time>
      </trkpt>
      <trkpt lat="48.43377" lon="2.64678">
        <ele>41</ele>
        <time>2013-09-26T14:29:47Z</time>
      </trkpt>
      <trkpt lat="48.43383" lon="2.64676">
        <ele>41</ele>
        <time>2013-09-26T14:29:49Z</time>
      </trkpt>
      <trkpt lat="48.43387" lon="2.64675">
        <ele>41</ele>
        <time>2013-09-26T14:29:50Z</time>
      </trkpt>
      <trkpt lat="48.43395" lon="2.64673">
        <ele>41</ele>
        <time>2013-09-26T14:29:53Z</time>
      </trkpt>
      <trkpt lat="48.43402" lon="2.6467">
        <ele>41</ele>
        <time>2013-09-26T14:29:55Z</time>
      </trkpt>
      <trkpt lat="48.43408" lon="2.64668">
        <ele>41</ele>
        <time>2013-09-26T14:29:57Z</time>
      </trkpt>
      <trkpt lat="48.43414" lon="2.64666">
        <ele>41</ele>
        <time>2013-09-26T14:29:59Z</time>
      </trkpt>
      <trkpt lat="48.43417" lon="2.64665">
        <ele>41</ele>
        <time>2013-09-26T14:30:00Z</time>
      </trkpt>
      <trkpt lat="48.43422" lon="2.64661">
        <ele>41</ele>
        <time>2013-09-26T14:30:02Z</time>
      </trkpt>
      <trkpt lat="48.43428" lon="2.64657">
        <ele>41</ele>
        <time>2013-09-26T14:30:04Z</time>
      </trkpt>
      <trkpt lat="48.4343" lon="2.64655">
        <ele>41</ele>
        <time>2013-09-26T14:30:05Z</time>
      </trkpt>
      <trkpt lat="48.43433" lon="2.64653">
        <ele>41</ele>
        <time>2013-09-26T14:30:06Z</time>
      </trkpt>
      <trkpt lat="48.43444" lon="2.64647">
        <ele>41</ele>
        <time>2013-09-26T14:30:09Z</time>
      </trkpt>
      <trkpt lat="48.43448" lon="2.64646">
        <ele>41</ele>
        <time>2013-09-26T14:30:10Z</time>
      </trkpt>
      <trkpt lat="48.43458" lon="2.64638">
        <ele>41</ele>
        <time>2013-09-26T14:30:13Z</time>
      </trkpt>
      <trkpt lat="48.43462" lon="2.64636">
        <ele>41</ele>
        <time>2013-09-26T14:30:14Z</time>
      </trkpt>
      <trkpt lat="48.43472" lon="2.6463">
        <ele>41</ele>
        <time>2013-09-26T14:30:17Z</time>
      </trkpt>
      <trkpt lat="48.4348" lon="2.64627">
        <ele>41</ele>
        <time>2013-09-26T14:30:19Z</time>
      </trkpt>
      <trkpt lat="48.43487" lon="2.64623">
        <ele>41</ele>
        <time>2013-09-26T14:30:21Z</time>
      </trkpt>
      <trkpt lat="48.43496" lon="2.64619">
        <ele>41</ele>
        <time>2013-09-26T14:30:23Z</time>
      </trkpt>
      <trkpt lat="48.43499" lon="2.64618">
        <ele>41</ele>
        <time>2013-09-26T14:30:24Z</time>
      </trkpt>
      <trkpt lat="48.43507" lon="2.64613">
        <ele>41</ele>
        <time>2013-09-26T14:30:26Z</time>
      </trkpt>
      <trkpt lat="48.43514" lon="2.6461">
        <ele>41</ele>
        <time>2013-09-26T14:30:28Z</time>
      </trkpt>
      <trkpt lat="48.4352" lon="2.64605">
        <ele>41</ele>
        <time>2013-09-26T14:30:30Z</time>
      </trkpt>
      <trkpt lat="48.43528" lon="2.64599">
        <ele>41</ele>
        <time>2013-09-26T14:30:33Z</time>
      </trkpt>
      <trkpt lat="48.43533" lon="2.64595">
        <ele>41</ele>
        <time>2013-09-26T14:30:35Z</time>
      </trkpt>
      <trkpt lat="48.43536" lon="2.64592">
        <ele>41</ele>
        <time>2013-09-26T14:30:36Z</time>
      </trkpt>
      <trkpt lat="48.43543" lon="2.64588">
        <ele>41</ele>
        <time>2013-09-26T14:30:38Z</time>
      </trkpt>
      <trkpt lat="48.43546" lon="2.64586">
        <ele>41</ele>
        <time>2013-09-26T14:30:39Z</time>
      </trkpt>
      <trkpt lat="48.4355" lon="2.64584">
        <ele>41</ele>
        <time>2013-09-26T14:30:40Z</time>
      </trkpt>
      <trkpt lat="48.43559" lon="2.64572">
        <ele>41</ele>
        <time>2013-09-26T14:30:43Z</time>
      </trkpt>
      <trkpt lat="48.43562" lon="2.64568">
        <ele>41</ele>
        <time>2013-09-26T14:30:44Z</time>
      </trkpt>
      <trkpt lat="48.43566" lon="2.64557">
        <ele>41</ele>
        <time>2013-09-26T14:30:46Z</time>
      </trkpt>
      <trkpt lat="48.43567" lon="2.64552">
        <ele>41</ele>
        <time>2013-09-26T14:30:47Z</time>
      </trkpt>
      <trkpt lat="48.43571" lon="2.64542">
        <ele>41</ele>
        <time>2013-09-26T14:30:49Z</time>
      </trkpt>
      <trkpt lat="48.43577" lon="2.64528">
        <ele>41</ele>
        <time>2013-09-26T14:30:52Z</time>
      </trkpt>
      <trkpt lat="48.43579" lon="2.64523">
        <ele>41</ele>
        <time>2013-09-26T14:30:53Z</time>
      </trkpt>
      <trkpt lat="48.43583" lon="2.64513">
        <ele>41</ele>
        <time>2013-09-26T14:30:55Z</time>
      </trkpt>
      <trkpt lat="48.43585" lon="2.64508">
        <ele>41</ele>
        <time>2013-09-26T14:30:56Z</time>
      </trkpt>
      <trkpt lat="48.43588" lon="2.64496">
        <ele>41</ele>
        <time>2013-09-26T14:30:58Z</time>
      </trkpt>
      <trkpt lat="48.43591" lon="2.64484">
        <ele>41</ele>
        <time>2013-09-26T14:31:00Z</time>
      </trkpt>
      <trkpt lat="48.43595" lon="2.64473">
        <ele>41</ele>
        <time>2013-09-26T14:31:02Z</time>
      </trkpt>
      <trkpt lat="48.43597" lon="2.64469">
        <ele>41</ele>
        <time>2013-09-26T14:31:03Z</time>
      </trkpt>
      <trkpt lat="48.43607" lon="2.64456">
        <ele>41</ele>
        <time>2013-09-26T14:31:06Z</time>
      </trkpt>
      <trkpt lat="48.43613" lon="2.64448">
        <ele>41</ele>
        <time>2013-09-26T14:31:08Z</time>
      </trkpt>
      <trkpt lat="48.43622" lon="2.64434">
        <ele>41</ele>
        <time>2013-09-26T14:31:11Z</time>
      </trkpt>
      <trkpt lat="48.43625" lon="2.6443">
        <ele>41</ele>
        <time>2013-09-26T14:31:12Z</time>
      </trkpt>
      <trkpt lat="48.43628" lon="2.6442">
        <ele>41</ele>
        <time>2013-09-26T14:31:14Z</time>
      </trkpt>
      <trkpt lat="48.43633" lon="2.64414">
        <ele>41</ele>
        <time>2013-09-26T14:31:16Z</time>
      </trkpt>
      <trkpt lat="48.43636" lon="2.64407">
        <ele>41</ele>
        <time>2013-09-26T14:31:18Z</time>
      </trkpt>
      <trkpt lat="48.4364" lon="2.644">
        <ele>41</ele>
        <time>2013-09-26T14:31:20Z</time>
      </trkpt>
      <trkpt lat="48.43644" lon="2.64393">
        <ele>41</ele>
        <time>2013-09-26T14:31:22Z</time>
      </trkpt>
      <trkpt lat="48.43645" lon="2.6439">
        <ele>41</ele>
        <time>2013-09-26T14:31:23Z</time>
      </trkpt>
      <trkpt lat="48.43647" lon="2.64387">
        <ele>41</ele>
        <time>2013-09-26T14:31:24Z</time>
      </trkpt>
      <trkpt lat="48.43652" lon="2.64381">
        <ele>41</ele>
        <time>2013-09-26T14:31:26Z</time>
      </trkpt>
      <trkpt lat="48.43654" lon="2.64379">
        <ele>41</ele>
        <time>2013-09-26T14:31:27Z</time>
      </trkpt>
      <trkpt lat="48.43656" lon="2.64376">
        <ele>41</ele>
        <time>2013-09-26T14:31:28Z</time>
      </trkpt>
      <trkpt lat="48.43659" lon="2.64374">
        <ele>41</ele>
        <time>2013-09-26T14:31:29Z</time>
      </trkpt>
      <trkpt lat="48.43664" lon="2.64368">
        <ele>41</ele>
        <time>2013-09-26T14:31:31Z</time>
      </trkpt>
      <trkpt lat="48.43674" lon="2.64359">
        <ele>41</ele>
        <time>2013-09-26T14:31:34Z</time>
      </trkpt>
      <trkpt lat="48.43678" lon="2.64357">
        <ele>41</ele>
        <time>2013-09-26T14:31:35Z</time>
      </trkpt>
      <trkpt lat="48.4369" lon="2.64355">
        <ele>41</ele>
        <time>2013-09-26T14:31:38Z</time>
      </trkpt>
      <trkpt lat="48.43699" lon="2.64353">
        <ele>41</ele>
        <time>2013-09-26T14:31:40Z</time>
      </trkpt>
      <trkpt lat="48.43707" lon="2.64354">
        <ele>41</ele>
        <time>2013-09-26T14:31:42Z</time>
      </trkpt>
      <trkpt lat="48.43712" lon="2.64354">
        <ele>41</ele>
        <time>2013-09-26T14:31:43Z</time>
      </trkpt>
      <trkpt lat="48.43716" lon="2.64355">
        <ele>41</ele>
        <time>2013-09-26T14:31:44Z</time>
      </trkpt>
      <trkpt lat="48.43735" lon="2.64353">
        <ele>41</ele>
        <time>2013-09-26T14:31:48Z</time>
      </trkpt>
      <trkpt lat="48.43745" lon="2.64352">
        <ele>41</ele>
        <time>2013-09-26T14:31:50Z</time>
      </trkpt>
      <trkpt lat="48.4375" lon="2.64351">
        <ele>41</ele>
        <time>2013-09-26T14:31:51Z</time>
      </trkpt>
      <trkpt lat="48.43765" lon="2.64346">
        <ele>41</ele>
        <time>2013-09-26T14:31:54Z</time>
      </trkpt>
      <trkpt lat="48.43776" lon="2.64342">
        <ele>40.3</ele>
        <time>2013-09-26T14:31:56Z</time>
      </trkpt>
      <trkpt lat="48.43786" lon="2.64337">
        <ele>40</ele>
        <time>2013-09-26T14:31:58Z</time>
      </trkpt>
      <trkpt lat="48.43796" lon="2.64331">
        <ele>40</ele>
        <time>2013-09-26T14:32:00Z</time>
      </trkpt>
      <trkpt lat="48.43809" lon="2.6432">
        <ele>40</ele>
        <time>2013-09-26T14:32:03Z</time>
      </trkpt>
      <trkpt lat="48.43813" lon="2.64316">
        <ele>40</ele>
        <time>2013-09-26T14:32:04Z</time>
      </trkpt>
      <trkpt lat="48.43823" lon="2.64308">
        <ele>37.9</ele>
        <time>2013-09-26T14:32:06Z</time>
      </trkpt>
      <trkpt lat="48.43832" lon="2.643">
        <ele>37</ele>
        <time>2013-09-26T14:32:08Z</time>
      </trkpt>
      <trkpt lat="48.43852" lon="2.64291">
        <ele>37</ele>
        <time>2013-09-26T14:32:12Z</time>
      </trkpt>
      <trkpt lat="48.43862" lon="2.64287">
        <ele>37</ele>
        <time>2013-09-26T14:32:14Z</time>
      </trkpt>
      <trkpt lat="48.43867" lon="2.64284">
        <ele>37</ele>
        <time>2013-09-26T14:32:15Z</time>
      </trkpt>
      <trkpt lat="48.43871" lon="2.6428">
        <ele>37</ele>
        <time>2013-09-26T14:32:16Z</time>
      </trkpt>
      <trkpt lat="48.43876" lon="2.64278">
        <ele>37</ele>
        <time>2013-09-26T14:32:17Z</time>
      </trkpt>
      <trkpt lat="48.43886" lon="2.6427">
        <ele>37</ele>
        <time>2013-09-26T14:32:20Z</time>
      </trkpt>
      <trkpt lat="48.43889" lon="2.64268">
        <ele>37</ele>
        <time>2013-09-26T14:32:21Z</time>
      </trkpt>
      <trkpt lat="48.43895" lon="2.64263">
        <ele>37</ele>
        <time>2013-09-26T14:32:23Z</time>
      </trkpt>
      <trkpt lat="48.43902" lon="2.64258">
        <ele>37</ele>
        <time>2013-09-26T14:32:25Z</time>
      </trkpt>
      <trkpt lat="48.43906" lon="2.64255">
        <ele>37</ele>
        <time>2013-09-26T14:32:26Z</time>
      </trkpt>
      <trkpt lat="48.43915" lon="2.64251">
        <ele>37</ele>
        <time>2013-09-26T14:32:28Z</time>
      </trkpt>
      <trkpt lat="48.43923" lon="2.64245">
        <ele>37</ele>
        <time>2013-09-26T14:32:30Z</time>
      </trkpt>
      <trkpt lat="48.43932" lon="2.64239">
        <ele>37</ele>
        <time>2013-09-26T14:32:32Z</time>
      </trkpt>
      <trkpt lat="48.4394" lon="2.64234">
        <ele>37</ele>
        <time>2013-09-26T14:32:34Z</time>
      </trkpt>
      <trkpt lat="48.43949" lon="2.64228">
        <ele>37</ele>
        <time>2013-09-26T14:32:36Z</time>
      </trkpt>
      <trkpt lat="48.43958" lon="2.64222">
        <ele>37</ele>
        <time>2013-09-26T14:32:38Z</time>
      </trkpt>
      <trkpt lat="48.43962" lon="2.64219">
        <ele>37</ele>
        <time>2013-09-26T14:32:39Z</time>
      </trkpt>
      <trkpt lat="48.43971" lon="2.64213">
        <ele>37</ele>
        <time>2013-09-26T14:32:41Z</time>
      </trkpt>
      <trkpt lat="48.43985" lon="2.64205">
        <ele>37</ele>
        <time>2013-09-26T14:32:44Z</time>
      </trkpt>
      <trkpt lat="48.43994" lon="2.64198">
        <ele>37</ele>
        <time>2013-09-26T14:32:46Z</time>
      </trkpt>
      <trkpt lat="48.44008" lon="2.6419">
        <ele>37</ele>
        <time>2013-09-26T14:32:49Z</time>
      </trkpt>
      <trkpt lat="48.44022" lon="2.64182">
        <ele>37</ele>
        <time>2013-09-26T14:32:52Z</time>
      </trkpt>
      <trkpt lat="48.4403" lon="2.64176">
        <ele>37</ele>
        <time>2013-09-26T14:32:54Z</time>
      </trkpt>
      <trkpt lat="48.44039" lon="2.6417">
        <ele>36.3</ele>
        <time>2013-09-26T14:32:56Z</time>
      </trkpt>
      <trkpt lat="48.44047" lon="2.64164">
        <ele>36</ele>
        <time>2013-09-26T14:32:58Z</time>
      </trkpt>
      <trkpt lat="48.44056" lon="2.64159">
        <ele>36</ele>
        <time>2013-09-26T14:33:00Z</time>
      </trkpt>
      <trkpt lat="48.44065" lon="2.64153">
        <ele>36</ele>
        <time>2013-09-26T14:33:02Z</time>
      </trkpt>
      <trkpt lat="48.44073" lon="2.64148">
        <ele>36</ele>
        <time>2013-09-26T14:33:04Z</time>
      </trkpt>
      <trkpt lat="48.44085" lon="2.6414">
        <ele>36</ele>
        <time>2013-09-26T14:33:07Z</time>
      </trkpt>
      <trkpt lat="48.44089" lon="2.64138">
        <ele>36</ele>
        <time>2013-09-26T14:33:08Z</time>
      </trkpt>
      <trkpt lat="48.44097" lon="2.64133">
        <ele>36</ele>
        <time>2013-09-26T14:33:10Z</time>
      </trkpt>
      <trkpt lat="48.44104" lon="2.64128">
        <ele>36</ele>
        <time>2013-09-26T14:33:12Z</time>
      </trkpt>
      <trkpt lat="48.44108" lon="2.64126">
        <ele>36</ele>
        <time>2013-09-26T14:33:13Z</time>
      </trkpt>
      <trkpt lat="48.44112" lon="2.64124">
        <ele>36</ele>
        <time>2013-09-26T14:33:14Z</time>
      </trkpt>
      <trkpt lat="48.44125" lon="2.64116">
        <ele>36</ele>
        <time>2013-09-26T14:33:17Z</time>
      </trkpt>
      <trkpt lat="48.44133" lon="2.64111">
        <ele>36</ele>
        <time>2013-09-26T14:33:19Z</time>
      </trkpt>
      <trkpt lat="48.44144" lon="2.64102">
        <ele>36</ele>
        <time>2013-09-26T14:33:22Z</time>
      </trkpt>
      <trkpt lat="48.44149" lon="2.64098">
        <ele>36</ele>
        <time>2013-09-26T14:33:23Z</time>
      </trkpt>
      <trkpt lat="48.44153" lon="2.64096">
        <ele>36</ele>
        <time>2013-09-26T14:33:24Z</time>
      </trkpt>
      <trkpt lat="48.44158" lon="2.64093">
        <ele>36</ele>
        <time>2013-09-26T14:33:25Z</time>
      </trkpt>
      <trkpt lat="48.4417" lon="2.64085">
        <ele>36</ele>
        <time>2013-09-26T14:33:28Z</time>
      </trkpt>
      <trkpt lat="48.44179" lon="2.64081">
        <ele>36</ele>
        <time>2013-09-26T14:33:30Z</time>
      </trkpt>
      <trkpt lat="48.44187" lon="2.64076">
        <ele>36</ele>
        <time>2013-09-26T14:33:32Z</time>
      </trkpt>
      <trkpt lat="48.44194" lon="2.64071">
        <ele>36</ele>
        <time>2013-09-26T14:33:34Z</time>
      </trkpt>
      <trkpt lat="48.44206" lon="2.64064">
        <ele>37</ele>
        <time>2013-09-26T14:33:37Z</time>
      </trkpt>
      <trkpt lat="48.44216" lon="2.64058">
        <ele>37</ele>
        <time>2013-09-26T14:33:40Z</time>
      </trkpt>
      <trkpt lat="48.44219" lon="2.64056">
        <ele>37</ele>
        <time>2013-09-26T14:33:41Z</time>
      </trkpt>
      <trkpt lat="48.44224" lon="2.64054">
        <ele>37</ele>
        <time>2013-09-26T14:33:43Z</time>
      </trkpt>
      <trkpt lat="48.44228" lon="2.64051">
        <ele>37</ele>
        <time>2013-09-26T14:33:45Z</time>
      </trkpt>
      <trkpt lat="48.44231" lon="2.64048">
        <ele>37</ele>
        <time>2013-09-26T14:33:47Z</time>
      </trkpt>
      <trkpt lat="48.44234" lon="2.64047">
        <ele>37</ele>
        <time>2013-09-26T14:33:48Z</time>
      </trkpt>
      <trkpt lat="48.44238" lon="2.64044">
        <ele>37</ele>
        <time>2013-09-26T14:33:50Z</time>
      </trkpt>
      <trkpt lat="48.44243" lon="2.64042">
        <ele>37</ele>
        <time>2013-09-26T14:33:52Z</time>
      </trkpt>
      <trkpt lat="48.44245" lon="2.64041">
        <ele>37</ele>
        <time>2013-09-26T14:33:53Z</time>
      </trkpt>
      <trkpt lat="48.44247" lon="2.64039">
        <ele>37</ele>
        <time>2013-09-26T14:33:54Z</time>
      </trkpt>
      <trkpt lat="48.44255" lon="2.64034">
        <ele>37</ele>
        <time>2013-09-26T14:33:57Z</time>
      </trkpt>
      <trkpt lat="48.44262" lon="2.64031">
        <ele>37</ele>
        <time>2013-09-26T14:33:59Z</time>
      </trkpt>
      <trkpt lat="48.44271" lon="2.64025">
        <ele>37</ele>
        <time>2013-09-26T14:34:02Z</time>
      </trkpt>
      <trkpt lat="48.44278" lon="2.64019">
        <ele>37</ele>
        <time>2013-09-26T14:34:04Z</time>
      </trkpt>
      <trkpt lat="48.44285" lon="2.64014">
        <ele>37</ele>
        <time>2013-09-26T14:34:06Z</time>
      </trkpt>
      <trkpt lat="48.44288" lon="2.64012">
        <ele>37</ele>
        <time>2013-09-26T14:34:07Z</time>
      </trkpt>
      <trkpt lat="48.44291" lon="2.64009">
        <ele>37</ele>
        <time>2013-09-26T14:34:08Z</time>
      </trkpt>
      <trkpt lat="48.44302" lon="2.64003">
        <ele>37</ele>
        <time>2013-09-26T14:34:11Z</time>
      </trkpt>
      <trkpt lat="48.44305" lon="2.64001">
        <ele>37</ele>
        <time>2013-09-26T14:34:12Z</time>
      </trkpt>
      <trkpt lat="48.4431" lon="2.63995">
        <ele>37</ele>
        <time>2013-09-26T14:34:14Z</time>
      </trkpt>
      <trkpt lat="48.44317" lon="2.6399">
        <ele>37</ele>
        <time>2013-09-26T14:34:16Z</time>
      </trkpt>
      <trkpt lat="48.4432" lon="2.63986">
        <ele>37</ele>
        <time>2013-09-26T14:34:17Z</time>
      </trkpt>
      <trkpt lat="48.44327" lon="2.63978">
        <ele>37</ele>
        <time>2013-09-26T14:34:19Z</time>
      </trkpt>
      <trkpt lat="48.4433" lon="2.63972">
        <ele>37</ele>
        <time>2013-09-26T14:34:20Z</time>
      </trkpt>
      <trkpt lat="48.44339" lon="2.63964">
        <ele>37</ele>
        <time>2013-09-26T14:34:22Z</time>
      </trkpt>
      <trkpt lat="48.44347" lon="2.63956">
        <ele>37</ele>
        <time>2013-09-26T14:34:24Z</time>
      </trkpt>
      <trkpt lat="48.44355" lon="2.63948">
        <ele>36.3</ele>
        <time>2013-09-26T14:34:26Z</time>
      </trkpt>
      <trkpt lat="48.44366" lon="2.63937">
        <ele>36</ele>
        <time>2013-09-26T14:34:29Z</time>
      </trkpt>
      <trkpt lat="48.4437" lon="2.63933">
        <ele>36</ele>
        <time>2013-09-26T14:34:30Z</time>
      </trkpt>
      <trkpt lat="48.44382" lon="2.63922">
        <ele>36</ele>
        <time>2013-09-26T14:34:33Z</time>
      </trkpt>
      <trkpt lat="48.44394" lon="2.63911">
        <ele>35.4</ele>
        <time>2013-09-26T14:34:36Z</time>
      </trkpt>
      <trkpt lat="48.44401" lon="2.63903">
        <ele>35</ele>
        <time>2013-09-26T14:34:38Z</time>
      </trkpt>
      <trkpt lat="48.44413" lon="2.63892">
        <ele>35</ele>
        <time>2013-09-26T14:34:41Z</time>
      </trkpt>
      <trkpt lat="48.44423" lon="2.6388">
        <ele>35</ele>
        <time>2013-09-26T14:34:44Z</time>
      </trkpt>
      <trkpt lat="48.44431" lon="2.63872">
        <ele>35</ele>
        <time>2013-09-26T14:34:46Z</time>
      </trkpt>
      <trkpt lat="48.44443" lon="2.63861">
        <ele>35</ele>
        <time>2013-09-26T14:34:49Z</time>
      </trkpt>
      <trkpt lat="48.44451" lon="2.63853">
        <ele>35</ele>
        <time>2013-09-26T14:34:51Z</time>
      </trkpt>
      <trkpt lat="48.44455" lon="2.63849">
        <ele>35</ele>
        <time>2013-09-26T14:34:52Z</time>
      </trkpt>
      <trkpt lat="48.44462" lon="2.63842">
        <ele>35</ele>
        <time>2013-09-26T14:34:54Z</time>
      </trkpt>
      <trkpt lat="48.44465" lon="2.63838">
        <ele>35</ele>
        <time>2013-09-26T14:34:55Z</time>
      </trkpt>
      <trkpt lat="48.44477" lon="2.63827">
        <ele>35</ele>
        <time>2013-09-26T14:34:58Z</time>
      </trkpt>
      <trkpt lat="48.44485" lon="2.63821">
        <ele>35</ele>
        <time>2013-09-26T14:35:00Z</time>
      </trkpt>
      <trkpt lat="48.44492" lon="2.63813">
        <ele>35</ele>
        <time>2013-09-26T14:35:02Z</time>
      </trkpt>
      <trkpt lat="48.44497" lon="2.63805">
        <ele>35</ele>
        <time>2013-09-26T14:35:04Z</time>
      </trkpt>
      <trkpt lat="48.445" lon="2.63802">
        <ele>35</ele>
        <time>2013-09-26T14:35:05Z</time>
      </trkpt>
      <trkpt lat="48.44509" lon="2.63792">
        <ele>35</ele>
        <time>2013-09-26T14:35:08Z</time>
      </trkpt>
      <trkpt lat="48.44515" lon="2.63786">
        <ele>35</ele>
        <time>2013-09-26T14:35:10Z</time>
      </trkpt>
      <trkpt lat="48.44521" lon="2.63781">
        <ele>35</ele>
        <time>2013-09-26T14:35:12Z</time>
      </trkpt>
      <trkpt lat="48.44525" lon="2.63775">
        <ele>35</ele>
        <time>2013-09-26T14:35:14Z</time>
      </trkpt>
      <trkpt lat="48.44529" lon="2.63769">
        <ele>35</ele>
        <time>2013-09-26T14:35:17Z</time>
      </trkpt>
      <trkpt lat="48.44531" lon="2.63768">
        <ele>35</ele>
        <time>2013-09-26T14:35:18Z</time>
      </trkpt>
      <trkpt lat="48.44532" lon="2.63767">
        <ele>35</ele>
        <time>2013-09-26T14:35:20Z</time>
      </trkpt>
      <trkpt lat="48.44534" lon="2.63762">
        <ele>35</ele>
        <time>2013-09-26T14:35:22Z</time>
      </trkpt>
      <trkpt lat="48.44534" lon="2.63759">
        <ele>35</ele>
        <time>2013-09-26T14:35:23Z</time>
      </trkpt>
      <trkpt lat="48.44535" lon="2.63756">
        <ele>35</ele>
        <time>2013-09-26T14:35:24Z</time>
      </trkpt>
      <trkpt lat="48.44534" lon="2.63753">
        <ele>35</ele>
        <time>2013-09-26T14:35:25Z</time>
      </trkpt>
      <trkpt lat="48.44532" lon="2.63747">
        <ele>36</ele>
        <time>2013-09-26T14:35:27Z</time>
      </trkpt>
      <trkpt lat="48.44532" lon="2.63743">
        <ele>36</ele>
        <time>2013-09-26T14:35:28Z</time>
      </trkpt>
      <trkpt lat="48.44532" lon="2.63739">
        <ele>36</ele>
        <time>2013-09-26T14:35:29Z</time>
      </trkpt>
      <trkpt lat="48.44534" lon="2.63735">
        <ele>36</ele>
        <time>2013-09-26T14:35:30Z</time>
      </trkpt>
      <trkpt lat="48.4454" lon="2.63729">
        <ele>36</ele>
        <time>2013-09-26T14:35:32Z</time>
      </trkpt>
      <trkpt lat="48.44546" lon="2.63731">
        <ele>36</ele>
        <time>2013-09-26T14:35:33Z</time>
      </trkpt>
      <trkpt lat="48.44551" lon="2.63733">
        <ele>36</ele>
        <time>2013-09-26T14:35:34Z</time>
      </trkpt>
      <trkpt lat="48.44575" lon="2.63749">
        <ele>34</ele>
        <time>2013-09-26T14:35:39Z</time>
      </trkpt>
      <trkpt lat="48.44578" lon="2.6374">
        <ele>34</ele>
        <time>2013-09-26T14:35:40Z</time>
      </trkpt>
      <trkpt lat="48.44581" lon="2.63739">
        <ele>34</ele>
        <time>2013-09-26T14:35:41Z</time>
      </trkpt>
      <trkpt lat="48.44586" lon="2.63741">
        <ele>34</ele>
        <time>2013-09-26T14:35:43Z</time>
      </trkpt>
      <trkpt lat="48.4459" lon="2.63744">
        <ele>34</ele>
        <time>2013-09-26T14:35:45Z</time>
      </trkpt>
      <trkpt lat="48.44593" lon="2.63748">
        <ele>34</ele>
        <time>2013-09-26T14:35:47Z</time>
      </trkpt>
      <trkpt lat="48.44595" lon="2.63752">
        <ele>34</ele>
        <time>2013-09-26T14:35:49Z</time>
      </trkpt>
      <trkpt lat="48.44598" lon="2.6376">
        <ele>34</ele>
        <time>2013-09-26T14:35:52Z</time>
      </trkpt>
      <trkpt lat="48.44599" lon="2.63764">
        <ele>34</ele>
        <time>2013-09-26T14:35:54Z</time>
      </trkpt>
      <trkpt lat="48.44601" lon="2.63767">
        <ele>34.7</ele>
        <time>2013-09-26T14:35:56Z</time>
      </trkpt>
      <trkpt lat="48.44602" lon="2.63769">
        <ele>35.7</ele>
        <time>2013-09-26T14:36:06Z</time>
      </trkpt>
      <trkpt lat="48.44603" lon="2.63773">
        <ele>36</ele>
        <time>2013-09-26T14:36:08Z</time>
      </trkpt>
      <trkpt lat="48.44604" lon="2.63777">
        <ele>36</ele>
        <time>2013-09-26T14:36:10Z</time>
      </trkpt>
      <trkpt lat="48.44605" lon="2.63782">
        <ele>36</ele>
        <time>2013-09-26T14:36:12Z</time>
      </trkpt>
      <trkpt lat="48.44607" lon="2.63786">
        <ele>36</ele>
        <time>2013-09-26T14:36:14Z</time>
      </trkpt>
      <trkpt lat="48.44609" lon="2.63791">
        <ele>36</ele>
        <time>2013-09-26T14:36:16Z</time>
      </trkpt>
      <trkpt lat="48.4461" lon="2.63796">
        <ele>36</ele>
        <time>2013-09-26T14:36:18Z</time>
      </trkpt>
      <trkpt lat="48.44612" lon="2.63801">
        <ele>36</ele>
        <time>2013-09-26T14:36:20Z</time>
      </trkpt>
      <trkpt lat="48.44613" lon="2.63804">
        <ele>36</ele>
        <time>2013-09-26T14:36:21Z</time>
      </trkpt>
      <trkpt lat="48.44614" lon="2.63811">
        <ele>36</ele>
        <time>2013-09-26T14:36:23Z</time>
      </trkpt>
      <trkpt lat="48.44613" lon="2.63815">
        <ele>36</ele>
        <time>2013-09-26T14:36:24Z</time>
      </trkpt>
      <trkpt lat="48.44614" lon="2.63826">
        <ele>36</ele>
        <time>2013-09-26T14:36:27Z</time>
      </trkpt>
      <trkpt lat="48.44614" lon="2.6383">
        <ele>36</ele>
        <time>2013-09-26T14:36:28Z</time>
      </trkpt>
      <trkpt lat="48.44613" lon="2.63834">
        <ele>36</ele>
        <time>2013-09-26T14:36:29Z</time>
      </trkpt>
      <trkpt lat="48.44615" lon="2.63843">
        <ele>36</ele>
        <time>2013-09-26T14:36:32Z</time>
      </trkpt>
      <trkpt lat="48.44616" lon="2.63846">
        <ele>36</ele>
        <time>2013-09-26T14:36:33Z</time>
      </trkpt>
      <trkpt lat="48.44616" lon="2.63851">
        <ele>36</ele>
        <time>2013-09-26T14:36:35Z</time>
      </trkpt>
      <trkpt lat="48.44616" lon="2.63855">
        <ele>36</ele>
        <time>2013-09-26T14:36:39Z</time>
      </trkpt>
      <trkpt lat="48.44616" lon="2.63853">
        <ele>37</ele>
        <time>2013-09-26T14:37:00Z</time>
      </trkpt>
      <trkpt lat="48.44616" lon="2.63851">
        <ele>37</ele>
        <time>2013-09-26T14:37:09Z</time>
      </trkpt>
      <trkpt lat="48.44615" lon="2.6385">
        <ele>37</ele>
        <time>2013-09-26T14:37:11Z</time>
      </trkpt>
      <trkpt lat="48.44615" lon="2.63849">
        <ele>37</ele>
        <time>2013-09-26T14:37:36Z</time>
      </trkpt>
      <trkpt lat="48.44615" lon="2.63848">
        <ele>37</ele>
        <time>2013-09-26T14:37:38Z</time>
      </trkpt>
      <trkpt lat="48.44617" lon="2.63849">
        <ele>36</ele>
        <time>2013-09-26T14:37:55Z</time>
      </trkpt>
      <trkpt lat="48.44617" lon="2.6385">
        <ele>37</ele>
        <time>2013-09-26T14:38:06Z</time>
      </trkpt>
      <trkpt lat="48.44617" lon="2.63852">
        <ele>37</ele>
        <time>2013-09-26T14:38:10Z</time>
      </trkpt>
      <trkpt lat="48.44618" lon="2.63854">
        <ele>36</ele>
        <time>2013-09-26T14:38:51Z</time>
      </trkpt>
      <trkpt lat="48.44618" lon="2.63856">
        <ele>37</ele>
        <time>2013-09-26T14:39:23Z</time>
      </trkpt>
      <trkpt lat="48.4462" lon="2.63856">
        <ele>37</ele>
        <time>2013-09-26T14:40:00Z</time>
      </trkpt>
      <trkpt lat="48.4462" lon="2.63855">
        <ele>37</ele>
        <time>2013-09-26T14:41:00Z</time>
      </trkpt>
      <trkpt lat="48.44621" lon="2.63853">
        <ele>37</ele>
        <time>2013-09-26T14:41:59Z</time>
      </trkpt>
      <trkpt lat="48.44621" lon="2.63856">
        <ele>37</ele>
        <time>2013-09-26T14:42:23Z</time>
      </trkpt>
      <trkpt lat="48.44619" lon="2.63856">
        <ele>37</ele>
        <time>2013-09-26T14:42:43Z</time>
      </trkpt>
      <trkpt lat="48.44619" lon="2.63855">
        <ele>37</ele>
        <time>2013-09-26T14:43:11Z</time>
      </trkpt>
      <trkpt lat="48.44619" lon="2.63857">
        <ele>37</ele>
        <time>2013-09-26T14:43:19Z</time>
      </trkpt>
      <trkpt lat="48.4462" lon="2.63857">
        <ele>37</ele>
        <time>2013-09-26T14:44:49Z</time>
      </trkpt>
      <trkpt lat="48.4462" lon="2.63857">
        <ele>37</ele>
        <time>2013-09-26T14:45:33Z</time>
      </trkpt>
      <trkpt lat="48.4462" lon="2.63857">
        <ele>37</ele>
        <time>2013-09-26T14:46:05Z</time>
      </trkpt>
      <trkpt lat="48.44619" lon="2.63855">
        <ele>37</ele>
        <time>2013-09-26T14:46:26Z</time>
      </trkpt>
      <trkpt lat="48.4462" lon="2.63857">
        <ele>37</ele>
        <time>2013-09-26T14:46:35Z</time>
      </trkpt>
      <trkpt lat="48.44621" lon="2.63856">
        <ele>37</ele>
        <time>2013-09-26T14:46:40Z</time>
      </trkpt>
      <trkpt lat="48.44621" lon="2.63854">
        <ele>37</ele>
        <time>2013-09-26T14:46:42Z</time>
      </trkpt>
      <trkpt lat="48.4462" lon="2.63854">
        <ele>37</ele>
        <time>2013-09-26T14:46:59Z</time>
      </trkpt>
      <trkpt lat="48.4462" lon="2.63853">
        <ele>37</ele>
        <time>2013-09-26T14:47:24Z</time>
      </trkpt>
      <trkpt lat="48.44622" lon="2.63854">
        <ele>37</ele>
        <time>2013-09-26T14:47:27Z</time>
      </trkpt>
      <trkpt lat="48.44622" lon="2.63851">
        <ele>37</ele>
        <time>2013-09-26T14:47:48Z</time>
      </trkpt>
      <trkpt lat="48.44623" lon="2.63851">
        <ele>37</ele>
        <time>2013-09-26T14:47:52Z</time>
      </trkpt>
      <trkpt lat="48.44621" lon="2.63852">
        <ele>37</ele>
        <time>2013-09-26T14:47:59Z</time>
      </trkpt>
      <trkpt lat="48.44621" lon="2.63852">
        <ele>37</ele>
        <time>2013-09-26T14:48:13Z</time>
      </trkpt>
      <trkpt lat="48.44619" lon="2.63854">
        <ele>37</ele>
        <time>2013-09-26T14:48:28Z</time>
      </trkpt>
      <trkpt lat="48.44619" lon="2.63856">
        <ele>37</ele>
        <time>2013-09-26T14:48:49Z</time>
      </trkpt>
      <trkpt lat="48.44618" lon="2.63856">
        <ele>37</ele>
        <time>2013-09-26T14:49:00Z</time>
      </trkpt>
      <trkpt lat="48.44617" lon="2.63857">
        <ele>37</ele>
        <time>2013-09-26T14:49:08Z</time>
      </trkpt>
      <trkpt lat="48.44617" lon="2.63858">
        <ele>37</ele>
        <time>2013-09-26T14:49:28Z</time>
      </trkpt>
      <trkpt lat="48.44615" lon="2.63856">
        <ele>37</ele>
        <time>2013-09-26T14:49:34Z</time>
      </trkpt>
      <trkpt lat="48.44613" lon="2.63855">
        <ele>37</ele>
        <time>2013-09-26T14:50:06Z</time>
      </trkpt>
      <trkpt lat="48.44612" lon="2.63853">
        <ele>37</ele>
        <time>2013-09-26T14:50:15Z</time>
      </trkpt>
      <trkpt lat="48.4461" lon="2.63851">
        <ele>37</ele>
        <time>2013-09-26T14:50:17Z</time>
      </trkpt>
      <trkpt lat="48.44608" lon="2.63849">
        <ele>37</ele>
        <time>2013-09-26T14:50:19Z</time>
      </trkpt>
      <trkpt lat="48.44607" lon="2.63848">
        <ele>37</ele>
        <time>2013-09-26T14:50:26Z</time>
      </trkpt>
      <trkpt lat="48.44608" lon="2.63848">
        <ele>37</ele>
        <time>2013-09-26T14:50:36Z</time>
      </trkpt>
      <trkpt lat="48.4461" lon="2.63845">
        <ele>37</ele>
        <time>2013-09-26T14:50:52Z</time>
      </trkpt>
      <trkpt lat="48.44612" lon="2.63846">
        <ele>37</ele>
        <time>2013-09-26T14:50:56Z</time>
      </trkpt>
      <trkpt lat="48.44614" lon="2.63848">
        <ele>37</ele>
        <time>2013-09-26T14:50:58Z</time>
      </trkpt>
      <trkpt lat="48.44615" lon="2.63849">
        <ele>37</ele>
        <time>2013-09-26T14:50:59Z</time>
      </trkpt>
      <trkpt lat="48.44616" lon="2.63853">
        <ele>37</ele>
        <time>2013-09-26T14:51:01Z</time>
      </trkpt>
      <trkpt lat="48.44617" lon="2.63855">
        <ele>37</ele>
        <time>2013-09-26T14:51:06Z</time>
      </trkpt>
      <trkpt lat="48.44617" lon="2.63853">
        <ele>37</ele>
        <time>2013-09-26T14:51:29Z</time>
      </trkpt>
      <trkpt lat="48.44615" lon="2.63854">
        <ele>37</ele>
        <time>2013-09-26T14:51:34Z</time>
      </trkpt>
      <trkpt lat="48.44615" lon="2.63851">
        <ele>37</ele>
        <time>2013-09-26T14:51:36Z</time>
      </trkpt>
      <trkpt lat="48.44613" lon="2.63847">
        <ele>37</ele>
        <time>2013-09-26T14:51:39Z</time>
      </trkpt>
      <trkpt lat="48.44611" lon="2.63846">
        <ele>37</ele>
        <time>2013-09-26T14:51:41Z</time>
      </trkpt>
      <trkpt lat="48.4461" lon="2.63845">
        <ele>37</ele>
        <time>2013-09-26T14:51:43Z</time>
      </trkpt>
      <trkpt lat="48.44608" lon="2.63847">
        <ele>37</ele>
        <time>2013-09-26T14:51:45Z</time>
      </trkpt>
      <trkpt lat="48.44608" lon="2.6385">
        <ele>37</ele>
        <time>2013-09-26T14:51:47Z</time>
      </trkpt>
      <trkpt lat="48.44609" lon="2.63852">
        <ele>37</ele>
        <time>2013-09-26T14:51:48Z</time>
      </trkpt>
      <trkpt lat="48.44609" lon="2.63865">
        <ele>37</ele>
        <time>2013-09-26T14:51:52Z</time>
      </trkpt>
      <trkpt lat="48.44608" lon="2.63868">
        <ele>37</ele>
        <time>2013-09-26T14:51:53Z</time>
      </trkpt>
      <trkpt lat="48.44606" lon="2.63873">
        <ele>37</ele>
        <time>2013-09-26T14:51:55Z</time>
      </trkpt>
      <trkpt lat="48.44605" lon="2.63876">
        <ele>37</ele>
        <time>2013-09-26T14:51:56Z</time>
      </trkpt>
      <trkpt lat="48.44604" lon="2.63879">
        <ele>37</ele>
        <time>2013-09-26T14:51:57Z</time>
      </trkpt>
      <trkpt lat="48.44603" lon="2.63882">
        <ele>37</ele>
        <time>2013-09-26T14:51:58Z</time>
      </trkpt>
      <trkpt lat="48.44602" lon="2.63888">
        <ele>37</ele>
        <time>2013-09-26T14:52:00Z</time>
      </trkpt>
      <trkpt lat="48.446" lon="2.63894">
        <ele>37</ele>
        <time>2013-09-26T14:52:02Z</time>
      </trkpt>
      <trkpt lat="48.44599" lon="2.63897">
        <ele>37</ele>
        <time>2013-09-26T14:52:03Z</time>
      </trkpt>
      <trkpt lat="48.44599" lon="2.63907">
        <ele>37</ele>
        <time>2013-09-26T14:52:06Z</time>
      </trkpt>
      <trkpt lat="48.44598" lon="2.6391">
        <ele>37</ele>
        <time>2013-09-26T14:52:07Z</time>
      </trkpt>
      <trkpt lat="48.44597" lon="2.63918">
        <ele>37</ele>
        <time>2013-09-26T14:52:09Z</time>
      </trkpt>
      <trkpt lat="48.44597" lon="2.63922">
        <ele>37</ele>
        <time>2013-09-26T14:52:10Z</time>
      </trkpt>
      <trkpt lat="48.44596" lon="2.63925">
        <ele>37</ele>
        <time>2013-09-26T14:52:11Z</time>
      </trkpt>
      <trkpt lat="48.44595" lon="2.63931">
        <ele>37</ele>
        <time>2013-09-26T14:52:13Z</time>
      </trkpt>
      <trkpt lat="48.44593" lon="2.63942">
        <ele>37</ele>
        <time>2013-09-26T14:52:16Z</time>
      </trkpt>
      <trkpt lat="48.44592" lon="2.63944">
        <ele>37</ele>
        <time>2013-09-26T14:52:17Z</time>
      </trkpt>
      <trkpt lat="48.44591" lon="2.63951">
        <ele>37</ele>
        <time>2013-09-26T14:52:19Z</time>
      </trkpt>
      <trkpt lat="48.44589" lon="2.63961">
        <ele>37</ele>
        <time>2013-09-26T14:52:22Z</time>
      </trkpt>
      <trkpt lat="48.44588" lon="2.63968">
        <ele>37</ele>
        <time>2013-09-26T14:52:24Z</time>
      </trkpt>
      <trkpt lat="48.44586" lon="2.63976">
        <ele>37</ele>
        <time>2013-09-26T14:52:27Z</time>
      </trkpt>
      <trkpt lat="48.44585" lon="2.63977">
        <ele>37</ele>
        <time>2013-09-26T14:52:28Z</time>
      </trkpt>
      <trkpt lat="48.44584" lon="2.63982">
        <ele>37</ele>
        <time>2013-09-26T14:52:30Z</time>
      </trkpt>
      <trkpt lat="48.44584" lon="2.63985">
        <ele>37</ele>
        <time>2013-09-26T14:52:31Z</time>
      </trkpt>
      <trkpt lat="48.44582" lon="2.6399">
        <ele>37</ele>
        <time>2013-09-26T14:52:33Z</time>
      </trkpt>
      <trkpt lat="48.44582" lon="2.63992">
        <ele>37</ele>
        <time>2013-09-26T14:52:34Z</time>
      </trkpt>
      <trkpt lat="48.44581" lon="2.63996">
        <ele>37</ele>
        <time>2013-09-26T14:52:46Z</time>
      </trkpt>
      <trkpt lat="48.44583" lon="2.63993">
        <ele>37</ele>
        <time>2013-09-26T14:52:54Z</time>
      </trkpt>
      <trkpt lat="48.44582" lon="2.63995">
        <ele>37</ele>
        <time>2013-09-26T14:53:18Z</time>
      </trkpt>
      <trkpt lat="48.44581" lon="2.63996">
        <ele>37</ele>
        <time>2013-09-26T14:53:19Z</time>
      </trkpt>
      <trkpt lat="48.4458" lon="2.64001">
        <ele>37</ele>
        <time>2013-09-26T14:53:21Z</time>
      </trkpt>
      <trkpt lat="48.44579" lon="2.64005">
        <ele>37</ele>
        <time>2013-09-26T14:53:23Z</time>
      </trkpt>
      <trkpt lat="48.44579" lon="2.64008">
        <ele>37</ele>
        <time>2013-09-26T14:53:24Z</time>
      </trkpt>
      <trkpt lat="48.44578" lon="2.64014">
        <ele>37</ele>
        <time>2013-09-26T14:53:26Z</time>
      </trkpt>
      <trkpt lat="48.44578" lon="2.64017">
        <ele>37</ele>
        <time>2013-09-26T14:53:27Z</time>
      </trkpt>
      <trkpt lat="48.44577" lon="2.6402">
        <ele>37</ele>
        <time>2013-09-26T14:53:28Z</time>
      </trkpt>
      <trkpt lat="48.44574" lon="2.64031">
        <ele>37</ele>
        <time>2013-09-26T14:53:31Z</time>
      </trkpt>
      <trkpt lat="48.44573" lon="2.64035">
        <ele>37</ele>
        <time>2013-09-26T14:53:32Z</time>
      </trkpt>
      <trkpt lat="48.44572" lon="2.64039">
        <ele>37</ele>
        <time>2013-09-26T14:53:33Z</time>
      </trkpt>
      <trkpt lat="48.44571" lon="2.64051">
        <ele>37</ele>
        <time>2013-09-26T14:53:36Z</time>
      </trkpt>
      <trkpt lat="48.4457" lon="2.64056">
        <ele>37</ele>
        <time>2013-09-26T14:53:38Z</time>
      </trkpt>
      <trkpt lat="48.44569" lon="2.64063">
        <ele>37</ele>
        <time>2013-09-26T14:53:40Z</time>
      </trkpt>
      <trkpt lat="48.44568" lon="2.64069">
        <ele>37</ele>
        <time>2013-09-26T14:53:42Z</time>
      </trkpt>
      <trkpt lat="48.44567" lon="2.64074">
        <ele>37</ele>
        <time>2013-09-26T14:53:44Z</time>
      </trkpt>
      <trkpt lat="48.44567" lon="2.64077">
        <ele>37</ele>
        <time>2013-09-26T14:53:47Z</time>
      </trkpt>
      <trkpt lat="48.44566" lon="2.64076">
        <ele>37</ele>
        <time>2013-09-26T14:54:13Z</time>
      </trkpt>
      <trkpt lat="48.44567" lon="2.64075">
        <ele>37</ele>
        <time>2013-09-26T14:57:00Z</time>
      </trkpt>
      <trkpt lat="48.44566" lon="2.64079">
        <ele>37</ele>
        <time>2013-09-26T14:57:32Z</time>
      </trkpt>
      <trkpt lat="48.44566" lon="2.64082">
        <ele>37</ele>
        <time>2013-09-26T14:57:33Z</time>
      </trkpt>
      <trkpt lat="48.44564" lon="2.64087">
        <ele>37</ele>
        <time>2013-09-26T14:57:35Z</time>
      </trkpt>
      <trkpt lat="48.44562" lon="2.64094">
        <ele>37</ele>
        <time>2013-09-26T14:57:37Z</time>
      </trkpt>
      <trkpt lat="48.44561" lon="2.64097">
        <ele>37</ele>
        <time>2013-09-26T14:57:38Z</time>
      </trkpt>
      <trkpt lat="48.4456" lon="2.641">
        <ele>37</ele>
        <time>2013-09-26T14:57:39Z</time>
      </trkpt>
      <trkpt lat="48.44559" lon="2.64103">
        <ele>37</ele>
        <time>2013-09-26T14:57:40Z</time>
      </trkpt>
      <trkpt lat="48.44558" lon="2.64106">
        <ele>37</ele>
        <time>2013-09-26T14:57:41Z</time>
      </trkpt>
      <trkpt lat="48.44555" lon="2.64117">
        <ele>37</ele>
        <time>2013-09-26T14:57:44Z</time>
      </trkpt>
      <trkpt lat="48.44554" lon="2.6412">
        <ele>37</ele>
        <time>2013-09-26T14:57:45Z</time>
      </trkpt>
      <trkpt lat="48.44554" lon="2.64128">
        <ele>37</ele>
        <time>2013-09-26T14:57:47Z</time>
      </trkpt>
      <trkpt lat="48.44553" lon="2.64132">
        <ele>37</ele>
        <time>2013-09-26T14:57:48Z</time>
      </trkpt>
      <trkpt lat="48.44552" lon="2.6414">
        <ele>37</ele>
        <time>2013-09-26T14:57:50Z</time>
      </trkpt>
      <trkpt lat="48.44551" lon="2.64144">
        <ele>37</ele>
        <time>2013-09-26T14:57:51Z</time>
      </trkpt>
      <trkpt lat="48.44551" lon="2.64148">
        <ele>37</ele>
        <time>2013-09-26T14:57:52Z</time>
      </trkpt>
      <trkpt lat="48.44551" lon="2.64152">
        <ele>37</ele>
        <time>2013-09-26T14:57:53Z</time>
      </trkpt>
      <trkpt lat="48.4455" lon="2.64156">
        <ele>37</ele>
        <time>2013-09-26T14:57:54Z</time>
      </trkpt>
      <trkpt lat="48.44549" lon="2.64164">
        <ele>37</ele>
        <time>2013-09-26T14:57:56Z</time>
      </trkpt>
      <trkpt lat="48.44547" lon="2.64171">
        <ele>37</ele>
        <time>2013-09-26T14:57:58Z</time>
      </trkpt>
      <trkpt lat="48.44545" lon="2.64184">
        <ele>37</ele>
        <time>2013-09-26T14:58:01Z</time>
      </trkpt>
      <trkpt lat="48.44545" lon="2.64189">
        <ele>37</ele>
        <time>2013-09-26T14:58:02Z</time>
      </trkpt>
      <trkpt lat="48.44545" lon="2.64197">
        <ele>37</ele>
        <time>2013-09-26T14:58:04Z</time>
      </trkpt>
      <trkpt lat="48.44545" lon="2.64201">
        <ele>37</ele>
        <time>2013-09-26T14:58:05Z</time>
      </trkpt>
      <trkpt lat="48.44546" lon="2.64205">
        <ele>37</ele>
        <time>2013-09-26T14:58:06Z</time>
      </trkpt>
      <trkpt lat="48.44547" lon="2.64213">
        <ele>37</ele>
        <time>2013-09-26T14:58:08Z</time>
      </trkpt>
      <trkpt lat="48.44548" lon="2.64217">
        <ele>37</ele>
        <time>2013-09-26T14:58:09Z</time>
      </trkpt>
      <trkpt lat="48.44549" lon="2.64229">
        <ele>37</ele>
        <time>2013-09-26T14:58:12Z</time>
      </trkpt>
      <trkpt lat="48.44549" lon="2.64234">
        <ele>37</ele>
        <time>2013-09-26T14:58:13Z</time>
      </trkpt>
      <trkpt lat="48.44548" lon="2.64244">
        <ele>37</ele>
        <time>2013-09-26T14:58:15Z</time>
      </trkpt>
      <trkpt lat="48.44547" lon="2.64248">
        <ele>37</ele>
        <time>2013-09-26T14:58:16Z</time>
      </trkpt>
      <trkpt lat="48.44545" lon="2.64259">
        <ele>37</ele>
        <time>2013-09-26T14:58:18Z</time>
      </trkpt>
      <trkpt lat="48.44544" lon="2.64269">
        <ele>37</ele>
        <time>2013-09-26T14:58:20Z</time>
      </trkpt>
      <trkpt lat="48.44543" lon="2.64274">
        <ele>37</ele>
        <time>2013-09-26T14:58:21Z</time>
      </trkpt>
      <trkpt lat="48.44542" lon="2.64283">
        <ele>37</ele>
        <time>2013-09-26T14:58:23Z</time>
      </trkpt>
      <trkpt lat="48.44542" lon="2.64287">
        <ele>37</ele>
        <time>2013-09-26T14:58:24Z</time>
      </trkpt>
      <trkpt lat="48.44542" lon="2.64292">
        <ele>37</ele>
        <time>2013-09-26T14:58:25Z</time>
      </trkpt>
      <trkpt lat="48.44542" lon="2.64301">
        <ele>37</ele>
        <time>2013-09-26T14:58:27Z</time>
      </trkpt>
      <trkpt lat="48.44543" lon="2.6431">
        <ele>37</ele>
        <time>2013-09-26T14:58:29Z</time>
      </trkpt>
      <trkpt lat="48.44544" lon="2.64319">
        <ele>37</ele>
        <time>2013-09-26T14:58:31Z</time>
      </trkpt>
      <trkpt lat="48.44544" lon="2.64327">
        <ele>37</ele>
        <time>2013-09-26T14:58:33Z</time>
      </trkpt>
      <trkpt lat="48.44543" lon="2.64331">
        <ele>37</ele>
        <time>2013-09-26T14:58:34Z</time>
      </trkpt>
      <trkpt lat="48.44543" lon="2.64335">
        <ele>37</ele>
        <time>2013-09-26T14:58:35Z</time>
      </trkpt>
      <trkpt lat="48.44543" lon="2.64339">
        <ele>37</ele>
        <time>2013-09-26T14:58:36Z</time>
      </trkpt>
      <trkpt lat="48.44543" lon="2.64347">
        <ele>37</ele>
        <time>2013-09-26T14:58:38Z</time>
      </trkpt>
      <trkpt lat="48.44543" lon="2.6435">
        <ele>37</ele>
        <time>2013-09-26T14:58:39Z</time>
      </trkpt>
      <trkpt lat="48.44544" lon="2.64354">
        <ele>37</ele>
        <time>2013-09-26T14:58:40Z</time>
      </trkpt>
      <trkpt lat="48.44546" lon="2.64358">
        <ele>37</ele>
        <time>2013-09-26T14:58:41Z</time>
      </trkpt>
      <trkpt lat="48.44549" lon="2.64361">
        <ele>37</ele>
        <time>2013-09-26T14:58:42Z</time>
      </trkpt>
      <trkpt lat="48.44551" lon="2.64365">
        <ele>37</ele>
        <time>2013-09-26T14:58:43Z</time>
      </trkpt>
      <trkpt lat="48.44552" lon="2.64367">
        <ele>37</ele>
        <time>2013-09-26T14:58:44Z</time>
      </trkpt>
      <trkpt lat="48.44554" lon="2.6437">
        <ele>37</ele>
        <time>2013-09-26T14:58:45Z</time>
      </trkpt>
      <trkpt lat="48.44556" lon="2.64372">
        <ele>37</ele>
        <time>2013-09-26T14:58:46Z</time>
      </trkpt>
      <trkpt lat="48.44558" lon="2.64373">
        <ele>37</ele>
        <time>2013-09-26T14:58:47Z</time>
      </trkpt>
      <trkpt lat="48.44559" lon="2.64373">
        <ele>37</ele>
        <time>2013-09-26T14:58:48Z</time>
      </trkpt>
      <trkpt lat="48.44562" lon="2.64374">
        <ele>37</ele>
        <time>2013-09-26T14:58:49Z</time>
      </trkpt>
      <trkpt lat="48.44567" lon="2.64375">
        <ele>37</ele>
        <time>2013-09-26T14:58:51Z</time>
      </trkpt>
      <trkpt lat="48.44569" lon="2.64376">
        <ele>37</ele>
        <time>2013-09-26T14:58:52Z</time>
      </trkpt>
      <trkpt lat="48.44574" lon="2.64376">
        <ele>37</ele>
        <time>2013-09-26T14:58:54Z</time>
      </trkpt>
      <trkpt lat="48.44576" lon="2.64377">
        <ele>37</ele>
        <time>2013-09-26T14:58:55Z</time>
      </trkpt>
      <trkpt lat="48.44579" lon="2.64378">
        <ele>37</ele>
        <time>2013-09-26T14:58:56Z</time>
      </trkpt>
      <trkpt lat="48.4458" lon="2.64379">
        <ele>37</ele>
        <time>2013-09-26T14:58:57Z</time>
      </trkpt>
      <trkpt lat="48.44582" lon="2.6438">
        <ele>37</ele>
        <time>2013-09-26T14:58:58Z</time>
      </trkpt>
      <trkpt lat="48.44586" lon="2.64379">
        <ele>37</ele>
        <time>2013-09-26T14:59:00Z</time>
      </trkpt>
      <trkpt lat="48.44589" lon="2.64378">
        <ele>37</ele>
        <time>2013-09-26T14:59:02Z</time>
      </trkpt>
      <trkpt lat="48.4459" lon="2.64377">
        <ele>37</ele>
        <time>2013-09-26T14:59:03Z</time>
      </trkpt>
      <trkpt lat="48.44592" lon="2.64375">
        <ele>37</ele>
        <time>2013-09-26T14:59:04Z</time>
      </trkpt>
      <trkpt lat="48.44596" lon="2.64371">
        <ele>37</ele>
        <time>2013-09-26T14:59:06Z</time>
      </trkpt>
      <trkpt lat="48.44599" lon="2.64368">
        <ele>37</ele>
        <time>2013-09-26T14:59:08Z</time>
      </trkpt>
      <trkpt lat="48.44602" lon="2.64366">
        <ele>37</ele>
        <time>2013-09-26T14:59:10Z</time>
      </trkpt>
      <trkpt lat="48.44605" lon="2.64366">
        <ele>37</ele>
        <time>2013-09-26T14:59:11Z</time>
      </trkpt>
      <trkpt lat="48.44607" lon="2.64365">
        <ele>37</ele>
        <time>2013-09-26T14:59:12Z</time>
      </trkpt>
      <trkpt lat="48.44609" lon="2.64364">
        <ele>37</ele>
        <time>2013-09-26T14:59:13Z</time>
      </trkpt>
      <trkpt lat="48.44611" lon="2.64364">
        <ele>37</ele>
        <time>2013-09-26T14:59:14Z</time>
      </trkpt>
      <trkpt lat="48.44613" lon="2.64365">
        <ele>37</ele>
        <time>2013-09-26T14:59:15Z</time>
      </trkpt>
      <trkpt lat="48.44615" lon="2.64366">
        <ele>37</ele>
        <time>2013-09-26T14:59:16Z</time>
      </trkpt>
      <trkpt lat="48.44617" lon="2.64367">
        <ele>37</ele>
        <time>2013-09-26T14:59:17Z</time>
      </trkpt>
      <trkpt lat="48.44621" lon="2.64368">
        <ele>37</ele>
        <time>2013-09-26T14:59:19Z</time>
      </trkpt>
      <trkpt lat="48.44624" lon="2.6437">
        <ele>37</ele>
        <time>2013-09-26T14:59:21Z</time>
      </trkpt>
      <trkpt lat="48.44626" lon="2.64371">
        <ele>37</ele>
        <time>2013-09-26T14:59:22Z</time>
      </trkpt>
      <trkpt lat="48.4463" lon="2.64374">
        <ele>37</ele>
        <time>2013-09-26T14:59:24Z</time>
      </trkpt>
      <trkpt lat="48.44632" lon="2.64374">
        <ele>37</ele>
        <time>2013-09-26T14:59:25Z</time>
      </trkpt>
      <trkpt lat="48.44635" lon="2.64374">
        <ele>42.6</ele>
        <time>2013-09-26T14:59:26Z</time>
      </trkpt>
      <trkpt lat="48.44639" lon="2.64375">
        <ele>45</ele>
        <time>2013-09-26T14:59:28Z</time>
      </trkpt>
      <trkpt lat="48.44641" lon="2.64376">
        <ele>45</ele>
        <time>2013-09-26T14:59:29Z</time>
      </trkpt>
      <trkpt lat="48.44644" lon="2.64379">
        <ele>45</ele>
        <time>2013-09-26T14:59:31Z</time>
      </trkpt>
      <trkpt lat="48.44645" lon="2.64381">
        <ele>45</ele>
        <time>2013-09-26T14:59:32Z</time>
      </trkpt>
      <trkpt lat="48.44648" lon="2.64387">
        <ele>45</ele>
        <time>2013-09-26T14:59:34Z</time>
      </trkpt>
      <trkpt lat="48.44649" lon="2.64394">
        <ele>45.7</ele>
        <time>2013-09-26T14:59:36Z</time>
      </trkpt>
      <trkpt lat="48.4465" lon="2.64398">
        <ele>46</ele>
        <time>2013-09-26T14:59:37Z</time>
      </trkpt>
      <trkpt lat="48.4465" lon="2.64402">
        <ele>46</ele>
        <time>2013-09-26T14:59:38Z</time>
      </trkpt>
      <trkpt lat="48.4465" lon="2.64404">
        <ele>46</ele>
        <time>2013-09-26T14:59:39Z</time>
      </trkpt>
      <trkpt lat="48.44649" lon="2.64409">
        <ele>46</ele>
        <time>2013-09-26T14:59:41Z</time>
      </trkpt>
      <trkpt lat="48.44648" lon="2.64414">
        <ele>46</ele>
        <time>2013-09-26T14:59:43Z</time>
      </trkpt>
      <trkpt lat="48.44648" lon="2.64417">
        <ele>46</ele>
        <time>2013-09-26T14:59:44Z</time>
      </trkpt>
      <trkpt lat="48.44647" lon="2.64419">
        <ele>46</ele>
        <time>2013-09-26T14:59:45Z</time>
      </trkpt>
      <trkpt lat="48.44646" lon="2.64423">
        <ele>46</ele>
        <time>2013-09-26T14:59:46Z</time>
      </trkpt>
      <trkpt lat="48.44646" lon="2.64426">
        <ele>46</ele>
        <time>2013-09-26T14:59:47Z</time>
      </trkpt>
      <trkpt lat="48.44644" lon="2.64428">
        <ele>46</ele>
        <time>2013-09-26T14:59:48Z</time>
      </trkpt>
      <trkpt lat="48.44643" lon="2.64431">
        <ele>46</ele>
        <time>2013-09-26T14:59:49Z</time>
      </trkpt>
      <trkpt lat="48.44642" lon="2.64434">
        <ele>46</ele>
        <time>2013-09-26T14:59:50Z</time>
      </trkpt>
      <trkpt lat="48.44641" lon="2.64438">
        <ele>46</ele>
        <time>2013-09-26T14:59:51Z</time>
      </trkpt>
      <trkpt lat="48.44641" lon="2.64441">
        <ele>46</ele>
        <time>2013-09-26T14:59:52Z</time>
      </trkpt>
      <trkpt lat="48.44642" lon="2.64443">
        <ele>46</ele>
        <time>2013-09-26T14:59:53Z</time>
      </trkpt>
      <trkpt lat="48.44643" lon="2.64447">
        <ele>46</ele>
        <time>2013-09-26T14:59:54Z</time>
      </trkpt>
      <trkpt lat="48.44643" lon="2.64449">
        <ele>46</ele>
        <time>2013-09-26T14:59:55Z</time>
      </trkpt>
      <trkpt lat="48.44645" lon="2.64453">
        <ele>45</ele>
        <time>2013-09-26T14:59:57Z</time>
      </trkpt>
      <trkpt lat="48.44646" lon="2.64455">
        <ele>45</ele>
        <time>2013-09-26T14:59:58Z</time>
      </trkpt>
      <trkpt lat="48.44648" lon="2.64459">
        <ele>45</ele>
        <time>2013-09-26T15:00:00Z</time>
      </trkpt>
      <trkpt lat="48.4465" lon="2.64461">
        <ele>45</ele>
        <time>2013-09-26T15:00:01Z</time>
      </trkpt>
      <trkpt lat="48.44654" lon="2.64463">
        <ele>45</ele>
        <time>2013-09-26T15:00:03Z</time>
      </trkpt>
      <trkpt lat="48.44657" lon="2.64465">
        <ele>45</ele>
        <time>2013-09-26T15:00:05Z</time>
      </trkpt>
      <trkpt lat="48.44658" lon="2.64466">
        <ele>46.4</ele>
        <time>2013-09-26T15:00:06Z</time>
      </trkpt>
      <trkpt lat="48.4466" lon="2.64466">
        <ele>47</ele>
        <time>2013-09-26T15:00:08Z</time>
      </trkpt>
      <trkpt lat="48.44663" lon="2.64465">
        <ele>47</ele>
        <time>2013-09-26T15:00:10Z</time>
      </trkpt>
      <trkpt lat="48.44666" lon="2.64465">
        <ele>47</ele>
        <time>2013-09-26T15:00:12Z</time>
      </trkpt>
      <trkpt lat="48.44668" lon="2.64464">
        <ele>47</ele>
        <time>2013-09-26T15:00:13Z</time>
      </trkpt>
      <trkpt lat="48.44671" lon="2.64463">
        <ele>47</ele>
        <time>2013-09-26T15:00:15Z</time>
      </trkpt>
      <trkpt lat="48.44674" lon="2.64463">
        <ele>48.4</ele>
        <time>2013-09-26T15:00:16Z</time>
      </trkpt>
      <trkpt lat="48.44676" lon="2.64463">
        <ele>49</ele>
        <time>2013-09-26T15:00:17Z</time>
      </trkpt>
      <trkpt lat="48.44678" lon="2.64463">
        <ele>49</ele>
        <time>2013-09-26T15:00:19Z</time>
      </trkpt>
      <trkpt lat="48.4468" lon="2.64464">
        <ele>49</ele>
        <time>2013-09-26T15:00:20Z</time>
      </trkpt>
      <trkpt lat="48.44685" lon="2.64466">
        <ele>49</ele>
        <time>2013-09-26T15:00:22Z</time>
      </trkpt>
      <trkpt lat="48.44687" lon="2.64468">
        <ele>49</ele>
        <time>2013-09-26T15:00:23Z</time>
      </trkpt>
      <trkpt lat="48.44691" lon="2.6447">
        <ele>49</ele>
        <time>2013-09-26T15:00:25Z</time>
      </trkpt>
      <trkpt lat="48.44694" lon="2.64473">
        <ele>49</ele>
        <time>2013-09-26T15:00:27Z</time>
      </trkpt>
      <trkpt lat="48.44697" lon="2.64475">
        <ele>49</ele>
        <time>2013-09-26T15:00:29Z</time>
      </trkpt>
      <trkpt lat="48.447" lon="2.64478">
        <ele>49</ele>
        <time>2013-09-26T15:00:31Z</time>
      </trkpt>
      <trkpt lat="48.44702" lon="2.64479">
        <ele>49</ele>
        <time>2013-09-26T15:00:32Z</time>
      </trkpt>
      <trkpt lat="48.44704" lon="2.64481">
        <ele>49</ele>
        <time>2013-09-26T15:00:33Z</time>
      </trkpt>
      <trkpt lat="48.44706" lon="2.64485">
        <ele>49</ele>
        <time>2013-09-26T15:00:35Z</time>
      </trkpt>
      <trkpt lat="48.44708" lon="2.64486">
        <ele>49.7</ele>
        <time>2013-09-26T15:00:36Z</time>
      </trkpt>
      <trkpt lat="48.4471" lon="2.64488">
        <ele>50</ele>
        <time>2013-09-26T15:00:37Z</time>
      </trkpt>
      <trkpt lat="48.44712" lon="2.6449">
        <ele>50</ele>
        <time>2013-09-26T15:00:38Z</time>
      </trkpt>
      <trkpt lat="48.44714" lon="2.64491">
        <ele>50</ele>
        <time>2013-09-26T15:00:39Z</time>
      </trkpt>
      <trkpt lat="48.44717" lon="2.64495">
        <ele>50</ele>
        <time>2013-09-26T15:00:41Z</time>
      </trkpt>
      <trkpt lat="48.44719" lon="2.64496">
        <ele>50</ele>
        <time>2013-09-26T15:00:42Z</time>
      </trkpt>
      <trkpt lat="48.44721" lon="2.64498">
        <ele>50</ele>
        <time>2013-09-26T15:00:43Z</time>
      </trkpt>
      <trkpt lat="48.44723" lon="2.64499">
        <ele>50</ele>
        <time>2013-09-26T15:00:44Z</time>
      </trkpt>
      <trkpt lat="48.44724" lon="2.64499">
        <ele>50</ele>
        <time>2013-09-26T15:00:45Z</time>
      </trkpt>
      <trkpt lat="48.44727" lon="2.64499">
        <ele>52</ele>
        <time>2013-09-26T15:00:47Z</time>
      </trkpt>
      <trkpt lat="48.44729" lon="2.64499">
        <ele>52</ele>
        <time>2013-09-26T15:00:48Z</time>
      </trkpt>
      <trkpt lat="48.44731" lon="2.64501">
        <ele>52</ele>
        <time>2013-09-26T15:00:49Z</time>
      </trkpt>
      <trkpt lat="48.44734" lon="2.64503">
        <ele>52</ele>
        <time>2013-09-26T15:00:51Z</time>
      </trkpt>
      <trkpt lat="48.44738" lon="2.64504">
        <ele>52</ele>
        <time>2013-09-26T15:00:53Z</time>
      </trkpt>
      <trkpt lat="48.4474" lon="2.64506">
        <ele>52</ele>
        <time>2013-09-26T15:00:55Z</time>
      </trkpt>
      <trkpt lat="48.44744" lon="2.64509">
        <ele>53</ele>
        <time>2013-09-26T15:00:57Z</time>
      </trkpt>
      <trkpt lat="48.44746" lon="2.64511">
        <ele>53</ele>
        <time>2013-09-26T15:00:58Z</time>
      </trkpt>
      <trkpt lat="48.44749" lon="2.64513">
        <ele>53</ele>
        <time>2013-09-26T15:00:59Z</time>
      </trkpt>
      <trkpt lat="48.44752" lon="2.64518">
        <ele>53</ele>
        <time>2013-09-26T15:01:01Z</time>
      </trkpt>
      <trkpt lat="48.44755" lon="2.64521">
        <ele>53</ele>
        <time>2013-09-26T15:01:03Z</time>
      </trkpt>
      <trkpt lat="48.44758" lon="2.64523">
        <ele>53</ele>
        <time>2013-09-26T15:01:05Z</time>
      </trkpt>
      <trkpt lat="48.44761" lon="2.64525">
        <ele>54</ele>
        <time>2013-09-26T15:01:07Z</time>
      </trkpt>
      <trkpt lat="48.44764" lon="2.64528">
        <ele>54</ele>
        <time>2013-09-26T15:01:09Z</time>
      </trkpt>
      <trkpt lat="48.44766" lon="2.64529">
        <ele>54</ele>
        <time>2013-09-26T15:01:10Z</time>
      </trkpt>
      <trkpt lat="48.44769" lon="2.64531">
        <ele>54</ele>
        <time>2013-09-26T15:01:12Z</time>
      </trkpt>
      <trkpt lat="48.44771" lon="2.64532">
        <ele>54</ele>
        <time>2013-09-26T15:01:13Z</time>
      </trkpt>
      <trkpt lat="48.44774" lon="2.64532">
        <ele>54</ele>
        <time>2013-09-26T15:01:15Z</time>
      </trkpt>
      <trkpt lat="48.44778" lon="2.64531">
        <ele>55</ele>
        <time>2013-09-26T15:01:17Z</time>
      </trkpt>
      <trkpt lat="48.4478" lon="2.64529">
        <ele>55</ele>
        <time>2013-09-26T15:01:19Z</time>
      </trkpt>
      <trkpt lat="48.44784" lon="2.64528">
        <ele>55</ele>
        <time>2013-09-26T15:01:22Z</time>
      </trkpt>
      <trkpt lat="48.44788" lon="2.64525">
        <ele>55</ele>
        <time>2013-09-26T15:01:24Z</time>
      </trkpt>
      <trkpt lat="48.44791" lon="2.64523">
        <ele>56.4</ele>
        <time>2013-09-26T15:01:26Z</time>
      </trkpt>
      <trkpt lat="48.44792" lon="2.64522">
        <ele>57</ele>
        <time>2013-09-26T15:01:27Z</time>
      </trkpt>
      <trkpt lat="48.44794" lon="2.64521">
        <ele>57</ele>
        <time>2013-09-26T15:01:28Z</time>
      </trkpt>
      <trkpt lat="48.44797" lon="2.64521">
        <ele>57</ele>
        <time>2013-09-26T15:01:30Z</time>
      </trkpt>
      <trkpt lat="48.44801" lon="2.64523">
        <ele>57</ele>
        <time>2013-09-26T15:01:33Z</time>
      </trkpt>
      <trkpt lat="48.44804" lon="2.64526">
        <ele>57</ele>
        <time>2013-09-26T15:01:35Z</time>
      </trkpt>
      <trkpt lat="48.44806" lon="2.64529">
        <ele>58</ele>
        <time>2013-09-26T15:01:37Z</time>
      </trkpt>
      <trkpt lat="48.44807" lon="2.64534">
        <ele>58</ele>
        <time>2013-09-26T15:01:39Z</time>
      </trkpt>
      <trkpt lat="48.44807" lon="2.64539">
        <ele>58</ele>
        <time>2013-09-26T15:01:41Z</time>
      </trkpt>
      <trkpt lat="48.44808" lon="2.64544">
        <ele>58</ele>
        <time>2013-09-26T15:01:43Z</time>
      </trkpt>
      <trkpt lat="48.44808" lon="2.64549">
        <ele>58</ele>
        <time>2013-09-26T15:01:45Z</time>
      </trkpt>
      <trkpt lat="48.44809" lon="2.64552">
        <ele>59.8</ele>
        <time>2013-09-26T15:01:46Z</time>
      </trkpt>
      <trkpt lat="48.4481" lon="2.64556">
        <ele>61</ele>
        <time>2013-09-26T15:01:48Z</time>
      </trkpt>
      <trkpt lat="48.44811" lon="2.64559">
        <ele>61</ele>
        <time>2013-09-26T15:01:56Z</time>
      </trkpt>
      <trkpt lat="48.44812" lon="2.64562">
        <ele>61</ele>
        <time>2013-09-26T15:01:58Z</time>
      </trkpt>
      <trkpt lat="48.44813" lon="2.64565">
        <ele>61</ele>
        <time>2013-09-26T15:02:00Z</time>
      </trkpt>
      <trkpt lat="48.44815" lon="2.64569">
        <ele>61</ele>
        <time>2013-09-26T15:02:04Z</time>
      </trkpt>
      <trkpt lat="48.44817" lon="2.64572">
        <ele>62</ele>
        <time>2013-09-26T15:02:08Z</time>
      </trkpt>
      <trkpt lat="48.44819" lon="2.64574">
        <ele>62</ele>
        <time>2013-09-26T15:02:11Z</time>
      </trkpt>
      <trkpt lat="48.44821" lon="2.64575">
        <ele>62</ele>
        <time>2013-09-26T15:02:13Z</time>
      </trkpt>
      <trkpt lat="48.44823" lon="2.64575">
        <ele>62</ele>
        <time>2013-09-26T15:02:15Z</time>
      </trkpt>
      <trkpt lat="48.44825" lon="2.64575">
        <ele>63</ele>
        <time>2013-09-26T15:02:17Z</time>
      </trkpt>
      <trkpt lat="48.44828" lon="2.64572">
        <ele>63</ele>
        <time>2013-09-26T15:02:20Z</time>
      </trkpt>
      <trkpt lat="48.4483" lon="2.64571">
        <ele>63</ele>
        <time>2013-09-26T15:02:22Z</time>
      </trkpt>
      <trkpt lat="48.44832" lon="2.64569">
        <ele>63</ele>
        <time>2013-09-26T15:02:24Z</time>
      </trkpt>
      <trkpt lat="48.44833" lon="2.64569">
        <ele>63</ele>
        <time>2013-09-26T15:02:25Z</time>
      </trkpt>
      <trkpt lat="48.44835" lon="2.64567">
        <ele>65</ele>
        <time>2013-09-26T15:02:27Z</time>
      </trkpt>
      <trkpt lat="48.44837" lon="2.64565">
        <ele>65</ele>
        <time>2013-09-26T15:02:29Z</time>
      </trkpt>
      <trkpt lat="48.44838" lon="2.64562">
        <ele>65</ele>
        <time>2013-09-26T15:02:31Z</time>
      </trkpt>
      <trkpt lat="48.4484" lon="2.6456">
        <ele>65</ele>
        <time>2013-09-26T15:02:34Z</time>
      </trkpt>
      <trkpt lat="48.44841" lon="2.64558">
        <ele>65</ele>
        <time>2013-09-26T15:02:37Z</time>
      </trkpt>
      <trkpt lat="48.44843" lon="2.64556">
        <ele>65</ele>
        <time>2013-09-26T15:02:54Z</time>
      </trkpt>
      <trkpt lat="48.44843" lon="2.64553">
        <ele>66</ele>
        <time>2013-09-26T15:02:57Z</time>
      </trkpt>
      <trkpt lat="48.44844" lon="2.64551">
        <ele>66</ele>
        <time>2013-09-26T15:03:00Z</time>
      </trkpt>
      <trkpt lat="48.44845" lon="2.64549">
        <ele>66</ele>
        <time>2013-09-26T15:03:02Z</time>
      </trkpt>
      <trkpt lat="48.44847" lon="2.64547">
        <ele>66</ele>
        <time>2013-09-26T15:03:04Z</time>
      </trkpt>
      <trkpt lat="48.44849" lon="2.64545">
        <ele>66</ele>
        <time>2013-09-26T15:03:07Z</time>
      </trkpt>
      <trkpt lat="48.44851" lon="2.64543">
        <ele>66</ele>
        <time>2013-09-26T15:03:09Z</time>
      </trkpt>
      <trkpt lat="48.44852" lon="2.64541">
        <ele>66</ele>
        <time>2013-09-26T15:03:11Z</time>
      </trkpt>
      <trkpt lat="48.44854" lon="2.64538">
        <ele>66</ele>
        <time>2013-09-26T15:03:14Z</time>
      </trkpt>
      <trkpt lat="48.44854" lon="2.64535">
        <ele>67.4</ele>
        <time>2013-09-26T15:03:16Z</time>
      </trkpt>
      <trkpt lat="48.44855" lon="2.64533">
        <ele>68</ele>
        <time>2013-09-26T15:03:18Z</time>
      </trkpt>
      <trkpt lat="48.44857" lon="2.64531">
        <ele>68</ele>
        <time>2013-09-26T15:03:20Z</time>
      </trkpt>
      <trkpt lat="48.44859" lon="2.64529">
        <ele>68</ele>
        <time>2013-09-26T15:03:22Z</time>
      </trkpt>
      <trkpt lat="48.44861" lon="2.64526">
        <ele>68</ele>
        <time>2013-09-26T15:03:25Z</time>
      </trkpt>
      <trkpt lat="48.44861" lon="2.64524">
        <ele>69</ele>
        <time>2013-09-26T15:03:27Z</time>
      </trkpt>
      <trkpt lat="48.44862" lon="2.6452">
        <ele>69</ele>
        <time>2013-09-26T15:03:30Z</time>
      </trkpt>
      <trkpt lat="48.44862" lon="2.64517">
        <ele>69</ele>
        <time>2013-09-26T15:03:32Z</time>
      </trkpt>
      <trkpt lat="48.44864" lon="2.64515">
        <ele>69</ele>
        <time>2013-09-26T15:03:34Z</time>
      </trkpt>
      <trkpt lat="48.44866" lon="2.64514">
        <ele>69.6</ele>
        <time>2013-09-26T15:03:36Z</time>
      </trkpt>
      <trkpt lat="48.44868" lon="2.64512">
        <ele>70</ele>
        <time>2013-09-26T15:03:38Z</time>
      </trkpt>
      <trkpt lat="48.44869" lon="2.64512">
        <ele>70</ele>
        <time>2013-09-26T15:03:39Z</time>
      </trkpt>
      <trkpt lat="48.44872" lon="2.6451">
        <ele>70</ele>
        <time>2013-09-26T15:03:41Z</time>
      </trkpt>
      <trkpt lat="48.44874" lon="2.64511">
        <ele>70</ele>
        <time>2013-09-26T15:03:42Z</time>
      </trkpt>
      <trkpt lat="48.44877" lon="2.64511">
        <ele>70</ele>
        <time>2013-09-26T15:03:44Z</time>
      </trkpt>
      <trkpt lat="48.44879" lon="2.64512">
        <ele>70.6</ele>
        <time>2013-09-26T15:03:46Z</time>
      </trkpt>
      <trkpt lat="48.44882" lon="2.64514">
        <ele>71</ele>
        <time>2013-09-26T15:03:48Z</time>
      </trkpt>
      <trkpt lat="48.44884" lon="2.64516">
        <ele>71</ele>
        <time>2013-09-26T15:03:50Z</time>
      </trkpt>
      <trkpt lat="48.44887" lon="2.64517">
        <ele>71</ele>
        <time>2013-09-26T15:03:52Z</time>
      </trkpt>
      <trkpt lat="48.4489" lon="2.6452">
        <ele>71</ele>
        <time>2013-09-26T15:03:55Z</time>
      </trkpt>
      <trkpt lat="48.44892" lon="2.64524">
        <ele>71</ele>
        <time>2013-09-26T15:03:58Z</time>
      </trkpt>
      <trkpt lat="48.44894" lon="2.64527">
        <ele>71</ele>
        <time>2013-09-26T15:04:00Z</time>
      </trkpt>
      <trkpt lat="48.44895" lon="2.6453">
        <ele>71</ele>
        <time>2013-09-26T15:04:03Z</time>
      </trkpt>
      <trkpt lat="48.44895" lon="2.64533">
        <ele>71</ele>
        <time>2013-09-26T15:04:05Z</time>
      </trkpt>
      <trkpt lat="48.44896" lon="2.64537">
        <ele>73</ele>
        <time>2013-09-26T15:04:07Z</time>
      </trkpt>
      <trkpt lat="48.44896" lon="2.64541">
        <ele>73</ele>
        <time>2013-09-26T15:04:09Z</time>
      </trkpt>
      <trkpt lat="48.44895" lon="2.64545">
        <ele>73</ele>
        <time>2013-09-26T15:04:11Z</time>
      </trkpt>
      <trkpt lat="48.44895" lon="2.64548">
        <ele>73</ele>
        <time>2013-09-26T15:04:13Z</time>
      </trkpt>
      <trkpt lat="48.44894" lon="2.64551">
        <ele>73</ele>
        <time>2013-09-26T15:04:15Z</time>
      </trkpt>
      <trkpt lat="48.44894" lon="2.64554">
        <ele>75</ele>
        <time>2013-09-26T15:04:17Z</time>
      </trkpt>
      <trkpt lat="48.44895" lon="2.64558">
        <ele>75</ele>
        <time>2013-09-26T15:04:19Z</time>
      </trkpt>
      <trkpt lat="48.44896" lon="2.64562">
        <ele>75</ele>
        <time>2013-09-26T15:04:22Z</time>
      </trkpt>
      <trkpt lat="48.44897" lon="2.64565">
        <ele>75</ele>
        <time>2013-09-26T15:04:24Z</time>
      </trkpt>
      <trkpt lat="48.44898" lon="2.64568">
        <ele>75</ele>
        <time>2013-09-26T15:04:26Z</time>
      </trkpt>
      <trkpt lat="48.449" lon="2.64571">
        <ele>75</ele>
        <time>2013-09-26T15:04:28Z</time>
      </trkpt>
      <trkpt lat="48.44901" lon="2.64574">
        <ele>75</ele>
        <time>2013-09-26T15:04:30Z</time>
      </trkpt>
      <trkpt lat="48.44903" lon="2.64577">
        <ele>75</ele>
        <time>2013-09-26T15:04:32Z</time>
      </trkpt>
      <trkpt lat="48.44903" lon="2.6458">
        <ele>75</ele>
        <time>2013-09-26T15:04:34Z</time>
      </trkpt>
      <trkpt lat="48.44904" lon="2.64584">
        <ele>76</ele>
        <time>2013-09-26T15:04:37Z</time>
      </trkpt>
      <trkpt lat="48.44905" lon="2.64587">
        <ele>76</ele>
        <time>2013-09-26T15:04:40Z</time>
      </trkpt>
      <trkpt lat="48.44905" lon="2.6459">
        <ele>76</ele>
        <time>2013-09-26T15:04:42Z</time>
      </trkpt>
      <trkpt lat="48.44906" lon="2.64594">
        <ele>76</ele>
        <time>2013-09-26T15:04:44Z</time>
      </trkpt>
      <trkpt lat="48.44907" lon="2.64597">
        <ele>76</ele>
        <time>2013-09-26T15:04:46Z</time>
      </trkpt>
      <trkpt lat="48.44907" lon="2.646">
        <ele>76</ele>
        <time>2013-09-26T15:04:48Z</time>
      </trkpt>
      <trkpt lat="48.44907" lon="2.64604">
        <ele>76</ele>
        <time>2013-09-26T15:04:50Z</time>
      </trkpt>
      <trkpt lat="48.44908" lon="2.64608">
        <ele>76</ele>
        <time>2013-09-26T15:04:52Z</time>
      </trkpt>
      <trkpt lat="48.44909" lon="2.6461">
        <ele>76</ele>
        <time>2013-09-26T15:04:54Z</time>
      </trkpt>
      <trkpt lat="48.44911" lon="2.64612">
        <ele>76.7</ele>
        <time>2013-09-26T15:04:56Z</time>
      </trkpt>
      <trkpt lat="48.44912" lon="2.64615">
        <ele>77</ele>
        <time>2013-09-26T15:04:59Z</time>
      </trkpt>
      <trkpt lat="48.44914" lon="2.64619">
        <ele>77</ele>
        <time>2013-09-26T15:05:01Z</time>
      </trkpt>
      <trkpt lat="48.44915" lon="2.64621">
        <ele>77</ele>
        <time>2013-09-26T15:05:03Z</time>
      </trkpt>
      <trkpt lat="48.44917" lon="2.64624">
        <ele>77</ele>
        <time>2013-09-26T15:05:06Z</time>
      </trkpt>
      <trkpt lat="48.44919" lon="2.64626">
        <ele>77</ele>
        <time>2013-09-26T15:05:09Z</time>
      </trkpt>
      <trkpt lat="48.44921" lon="2.64629">
        <ele>77</ele>
        <time>2013-09-26T15:05:11Z</time>
      </trkpt>
      <trkpt lat="48.44922" lon="2.64632">
        <ele>77</ele>
        <time>2013-09-26T15:05:15Z</time>
      </trkpt>
      <trkpt lat="48.44925" lon="2.64635">
        <ele>79</ele>
        <time>2013-09-26T15:05:21Z</time>
      </trkpt>
      <trkpt lat="48.44927" lon="2.64638">
        <ele>79</ele>
        <time>2013-09-26T15:05:25Z</time>
      </trkpt>
      <trkpt lat="48.44929" lon="2.64639">
        <ele>79</ele>
        <time>2013-09-26T15:05:27Z</time>
      </trkpt>
      <trkpt lat="48.44932" lon="2.6464">
        <ele>79</ele>
        <time>2013-09-26T15:05:29Z</time>
      </trkpt>
      <trkpt lat="48.44934" lon="2.64641">
        <ele>79</ele>
        <time>2013-09-26T15:05:31Z</time>
      </trkpt>
      <trkpt lat="48.44936" lon="2.64644">
        <ele>79</ele>
        <time>2013-09-26T15:05:33Z</time>
      </trkpt>
      <trkpt lat="48.44937" lon="2.64645">
        <ele>79</ele>
        <time>2013-09-26T15:05:34Z</time>
      </trkpt>
      <trkpt lat="48.44939" lon="2.64647">
        <ele>79.6</ele>
        <time>2013-09-26T15:05:36Z</time>
      </trkpt>
      <trkpt lat="48.44942" lon="2.64649">
        <ele>80</ele>
        <time>2013-09-26T15:05:39Z</time>
      </trkpt>
      <trkpt lat="48.44944" lon="2.64651">
        <ele>80</ele>
        <time>2013-09-26T15:05:42Z</time>
      </trkpt>
      <trkpt lat="48.44946" lon="2.64654">
        <ele>80</ele>
        <time>2013-09-26T15:05:44Z</time>
      </trkpt>
      <trkpt lat="48.44948" lon="2.64656">
        <ele>80.6</ele>
        <time>2013-09-26T15:05:46Z</time>
      </trkpt>
      <trkpt lat="48.44948" lon="2.64659">
        <ele>81</ele>
        <time>2013-09-26T15:05:48Z</time>
      </trkpt>
      <trkpt lat="48.44949" lon="2.64662">
        <ele>81</ele>
        <time>2013-09-26T15:05:50Z</time>
      </trkpt>
      <trkpt lat="48.44948" lon="2.64664">
        <ele>81</ele>
        <time>2013-09-26T15:05:51Z</time>
      </trkpt>
      <trkpt lat="48.44948" lon="2.64669">
        <ele>81</ele>
        <time>2013-09-26T15:05:54Z</time>
      </trkpt>
      <trkpt lat="48.44949" lon="2.64672">
        <ele>81.6</ele>
        <time>2013-09-26T15:05:56Z</time>
      </trkpt>
      <trkpt lat="48.44949" lon="2.64674">
        <ele>82</ele>
        <time>2013-09-26T15:05:57Z</time>
      </trkpt>
      <trkpt lat="48.4495" lon="2.64677">
        <ele>82</ele>
        <time>2013-09-26T15:05:59Z</time>
      </trkpt>
      <trkpt lat="48.4495" lon="2.64679">
        <ele>82</ele>
        <time>2013-09-26T15:06:00Z</time>
      </trkpt>
      <trkpt lat="48.44951" lon="2.64683">
        <ele>82</ele>
        <time>2013-09-26T15:06:02Z</time>
      </trkpt>
      <trkpt lat="48.44952" lon="2.64686">
        <ele>82</ele>
        <time>2013-09-26T15:06:04Z</time>
      </trkpt>
      <trkpt lat="48.44953" lon="2.6469">
        <ele>82</ele>
        <time>2013-09-26T15:06:06Z</time>
      </trkpt>
      <trkpt lat="48.44953" lon="2.64694">
        <ele>82</ele>
        <time>2013-09-26T15:06:09Z</time>
      </trkpt>
      <trkpt lat="48.44954" lon="2.64697">
        <ele>82</ele>
        <time>2013-09-26T15:06:11Z</time>
      </trkpt>
      <trkpt lat="48.44955" lon="2.64701">
        <ele>82.7</ele>
        <time>2013-09-26T15:06:16Z</time>
      </trkpt>
      <trkpt lat="48.44955" lon="2.64704">
        <ele>83</ele>
        <time>2013-09-26T15:06:29Z</time>
      </trkpt>
      <trkpt lat="48.44954" lon="2.64707">
        <ele>83</ele>
        <time>2013-09-26T15:06:32Z</time>
      </trkpt>
      <trkpt lat="48.44952" lon="2.64711">
        <ele>83</ele>
        <time>2013-09-26T15:06:34Z</time>
      </trkpt>
      <trkpt lat="48.4495" lon="2.64712">
        <ele>83</ele>
        <time>2013-09-26T15:06:35Z</time>
      </trkpt>
      <trkpt lat="48.44947" lon="2.64712">
        <ele>84</ele>
        <time>2013-09-26T15:06:37Z</time>
      </trkpt>
      <trkpt lat="48.44944" lon="2.64712">
        <ele>84</ele>
        <time>2013-09-26T15:06:39Z</time>
      </trkpt>
      <trkpt lat="48.44942" lon="2.64712">
        <ele>84</ele>
        <time>2013-09-26T15:06:40Z</time>
      </trkpt>
      <trkpt lat="48.44938" lon="2.64713">
        <ele>84</ele>
        <time>2013-09-26T15:06:42Z</time>
      </trkpt>
      <trkpt lat="48.44936" lon="2.6471">
        <ele>84</ele>
        <time>2013-09-26T15:06:43Z</time>
      </trkpt>
      <trkpt lat="48.44933" lon="2.6471">
        <ele>84</ele>
        <time>2013-09-26T15:06:44Z</time>
      </trkpt>
      <trkpt lat="48.44931" lon="2.64709">
        <ele>84</ele>
        <time>2013-09-26T15:06:45Z</time>
      </trkpt>
      <trkpt lat="48.44927" lon="2.6471">
        <ele>84</ele>
        <time>2013-09-26T15:06:47Z</time>
      </trkpt>
      <trkpt lat="48.44922" lon="2.64711">
        <ele>84</ele>
        <time>2013-09-26T15:06:49Z</time>
      </trkpt>
      <trkpt lat="48.44917" lon="2.64713">
        <ele>84</ele>
        <time>2013-09-26T15:06:51Z</time>
      </trkpt>
      <trkpt lat="48.44914" lon="2.64715">
        <ele>84</ele>
        <time>2013-09-26T15:06:52Z</time>
      </trkpt>
      <trkpt lat="48.44912" lon="2.64717">
        <ele>84</ele>
        <time>2013-09-26T15:06:53Z</time>
      </trkpt>
      <trkpt lat="48.44908" lon="2.64723">
        <ele>84</ele>
        <time>2013-09-26T15:06:55Z</time>
      </trkpt>
      <trkpt lat="48.44904" lon="2.64729">
        <ele>84</ele>
        <time>2013-09-26T15:06:57Z</time>
      </trkpt>
      <trkpt lat="48.44902" lon="2.64732">
        <ele>84</ele>
        <time>2013-09-26T15:06:58Z</time>
      </trkpt>
      <trkpt lat="48.449" lon="2.64736">
        <ele>84</ele>
        <time>2013-09-26T15:06:59Z</time>
      </trkpt>
      <trkpt lat="48.44897" lon="2.64745">
        <ele>84</ele>
        <time>2013-09-26T15:07:01Z</time>
      </trkpt>
      <trkpt lat="48.44896" lon="2.64749">
        <ele>84</ele>
        <time>2013-09-26T15:07:02Z</time>
      </trkpt>
      <trkpt lat="48.44893" lon="2.64756">
        <ele>84</ele>
        <time>2013-09-26T15:07:04Z</time>
      </trkpt>
      <trkpt lat="48.44893" lon="2.6476">
        <ele>84</ele>
        <time>2013-09-26T15:07:05Z</time>
      </trkpt>
      <trkpt lat="48.4489" lon="2.64768">
        <ele>84</ele>
        <time>2013-09-26T15:07:07Z</time>
      </trkpt>
      <trkpt lat="48.44887" lon="2.64777">
        <ele>84</ele>
        <time>2013-09-26T15:07:09Z</time>
      </trkpt>
      <trkpt lat="48.44885" lon="2.64786">
        <ele>84</ele>
        <time>2013-09-26T15:07:11Z</time>
      </trkpt>
      <trkpt lat="48.44882" lon="2.64795">
        <ele>84</ele>
        <time>2013-09-26T15:07:13Z</time>
      </trkpt>
      <trkpt lat="48.44879" lon="2.64802">
        <ele>84</ele>
        <time>2013-09-26T15:07:15Z</time>
      </trkpt>
      <trkpt lat="48.44876" lon="2.6481">
        <ele>84</ele>
        <time>2013-09-26T15:07:17Z</time>
      </trkpt>
      <trkpt lat="48.44873" lon="2.64818">
        <ele>84</ele>
        <time>2013-09-26T15:07:19Z</time>
      </trkpt>
      <trkpt lat="48.44871" lon="2.64824">
        <ele>84</ele>
        <time>2013-09-26T15:07:21Z</time>
      </trkpt>
      <trkpt lat="48.44869" lon="2.64831">
        <ele>84</ele>
        <time>2013-09-26T15:07:23Z</time>
      </trkpt>
      <trkpt lat="48.44867" lon="2.64834">
        <ele>84</ele>
        <time>2013-09-26T15:07:24Z</time>
      </trkpt>
      <trkpt lat="48.44865" lon="2.64843">
        <ele>84</ele>
        <time>2013-09-26T15:07:26Z</time>
      </trkpt>
      <trkpt lat="48.44863" lon="2.64847">
        <ele>84</ele>
        <time>2013-09-26T15:07:27Z</time>
      </trkpt>
      <trkpt lat="48.4486" lon="2.64854">
        <ele>84</ele>
        <time>2013-09-26T15:07:29Z</time>
      </trkpt>
      <trkpt lat="48.44859" lon="2.64858">
        <ele>84</ele>
        <time>2013-09-26T15:07:30Z</time>
      </trkpt>
      <trkpt lat="48.44856" lon="2.64865">
        <ele>84</ele>
        <time>2013-09-26T15:07:32Z</time>
      </trkpt>
      <trkpt lat="48.44852" lon="2.64873">
        <ele>84</ele>
        <time>2013-09-26T15:07:34Z</time>
      </trkpt>
      <trkpt lat="48.44849" lon="2.64881">
        <ele>84</ele>
        <time>2013-09-26T15:07:36Z</time>
      </trkpt>
      <trkpt lat="48.44848" lon="2.64886">
        <ele>84</ele>
        <time>2013-09-26T15:07:37Z</time>
      </trkpt>
      <trkpt lat="48.44845" lon="2.64895">
        <ele>84</ele>
        <time>2013-09-26T15:07:39Z</time>
      </trkpt>
      <trkpt lat="48.44844" lon="2.64899">
        <ele>84</ele>
        <time>2013-09-26T15:07:40Z</time>
      </trkpt>
      <trkpt lat="48.44843" lon="2.64903">
        <ele>84</ele>
        <time>2013-09-26T15:07:41Z</time>
      </trkpt>
      <trkpt lat="48.4484" lon="2.6491">
        <ele>84</ele>
        <time>2013-09-26T15:07:43Z</time>
      </trkpt>
      <trkpt lat="48.44837" lon="2.64919">
        <ele>84</ele>
        <time>2013-09-26T15:07:45Z</time>
      </trkpt>
      <trkpt lat="48.44834" lon="2.64927">
        <ele>84</ele>
        <time>2013-09-26T15:07:47Z</time>
      </trkpt>
      <trkpt lat="48.44831" lon="2.64935">
        <ele>84</ele>
        <time>2013-09-26T15:07:49Z</time>
      </trkpt>
      <trkpt lat="48.4483" lon="2.64939">
        <ele>84</ele>
        <time>2013-09-26T15:07:50Z</time>
      </trkpt>
      <trkpt lat="48.44827" lon="2.64949">
        <ele>84</ele>
        <time>2013-09-26T15:07:52Z</time>
      </trkpt>
      <trkpt lat="48.44823" lon="2.64959">
        <ele>84</ele>
        <time>2013-09-26T15:07:54Z</time>
      </trkpt>
      <trkpt lat="48.44819" lon="2.64969">
        <ele>84</ele>
        <time>2013-09-26T15:07:56Z</time>
      </trkpt>
      <trkpt lat="48.44815" lon="2.64977">
        <ele>84</ele>
        <time>2013-09-26T15:07:58Z</time>
      </trkpt>
      <trkpt lat="48.44814" lon="2.64982">
        <ele>84</ele>
        <time>2013-09-26T15:07:59Z</time>
      </trkpt>
      <trkpt lat="48.44812" lon="2.64986">
        <ele>84</ele>
        <time>2013-09-26T15:08:00Z</time>
      </trkpt>
      <trkpt lat="48.44809" lon="2.64995">
        <ele>84</ele>
        <time>2013-09-26T15:08:02Z</time>
      </trkpt>
      <trkpt lat="48.44807" lon="2.64999">
        <ele>84</ele>
        <time>2013-09-26T15:08:03Z</time>
      </trkpt>
      <trkpt lat="48.44804" lon="2.65007">
        <ele>84</ele>
        <time>2013-09-26T15:08:05Z</time>
      </trkpt>
      <trkpt lat="48.44802" lon="2.65012">
        <ele>84</ele>
        <time>2013-09-26T15:08:06Z</time>
      </trkpt>
      <trkpt lat="48.44799" lon="2.65023">
        <ele>84</ele>
        <time>2013-09-26T15:08:08Z</time>
      </trkpt>
      <trkpt lat="48.44795" lon="2.65035">
        <ele>84</ele>
        <time>2013-09-26T15:08:10Z</time>
      </trkpt>
      <trkpt lat="48.44791" lon="2.65046">
        <ele>84</ele>
        <time>2013-09-26T15:08:12Z</time>
      </trkpt>
      <trkpt lat="48.44787" lon="2.65056">
        <ele>84</ele>
        <time>2013-09-26T15:08:14Z</time>
      </trkpt>
      <trkpt lat="48.44784" lon="2.65067">
        <ele>83.4</ele>
        <time>2013-09-26T15:08:16Z</time>
      </trkpt>
      <trkpt lat="48.44782" lon="2.65072">
        <ele>83</ele>
        <time>2013-09-26T15:08:17Z</time>
      </trkpt>
      <trkpt lat="48.44779" lon="2.65084">
        <ele>83</ele>
        <time>2013-09-26T15:08:19Z</time>
      </trkpt>
      <trkpt lat="48.44778" lon="2.65089">
        <ele>83</ele>
        <time>2013-09-26T15:08:20Z</time>
      </trkpt>
      <trkpt lat="48.44778" lon="2.65095">
        <ele>83</ele>
        <time>2013-09-26T15:08:21Z</time>
      </trkpt>
      <trkpt lat="48.44778" lon="2.65101">
        <ele>83</ele>
        <time>2013-09-26T15:08:22Z</time>
      </trkpt>
      <trkpt lat="48.44779" lon="2.65107">
        <ele>83</ele>
        <time>2013-09-26T15:08:23Z</time>
      </trkpt>
      <trkpt lat="48.44781" lon="2.65114">
        <ele>83</ele>
        <time>2013-09-26T15:08:24Z</time>
      </trkpt>
      <trkpt lat="48.44783" lon="2.65119">
        <ele>83</ele>
        <time>2013-09-26T15:08:25Z</time>
      </trkpt>
      <trkpt lat="48.44785" lon="2.65124">
        <ele>83</ele>
        <time>2013-09-26T15:08:26Z</time>
      </trkpt>
      <trkpt lat="48.44789" lon="2.65134">
        <ele>83</ele>
        <time>2013-09-26T15:08:28Z</time>
      </trkpt>
      <trkpt lat="48.44791" lon="2.65139">
        <ele>83</ele>
        <time>2013-09-26T15:08:29Z</time>
      </trkpt>
      <trkpt lat="48.44795" lon="2.65149">
        <ele>83</ele>
        <time>2013-09-26T15:08:31Z</time>
      </trkpt>
      <trkpt lat="48.44798" lon="2.6516">
        <ele>83</ele>
        <time>2013-09-26T15:08:33Z</time>
      </trkpt>
      <trkpt lat="48.448" lon="2.65165">
        <ele>83</ele>
        <time>2013-09-26T15:08:34Z</time>
      </trkpt>
      <trkpt lat="48.44805" lon="2.65175">
        <ele>83.6</ele>
        <time>2013-09-26T15:08:36Z</time>
      </trkpt>
      <trkpt lat="48.44809" lon="2.65186">
        <ele>84</ele>
        <time>2013-09-26T15:08:38Z</time>
      </trkpt>
      <trkpt lat="48.44811" lon="2.65191">
        <ele>84</ele>
        <time>2013-09-26T15:08:39Z</time>
      </trkpt>
      <trkpt lat="48.44812" lon="2.65196">
        <ele>84</ele>
        <time>2013-09-26T15:08:40Z</time>
      </trkpt>
      <trkpt lat="48.44815" lon="2.65202">
        <ele>84</ele>
        <time>2013-09-26T15:08:41Z</time>
      </trkpt>
      <trkpt lat="48.44817" lon="2.65208">
        <ele>84</ele>
        <time>2013-09-26T15:08:42Z</time>
      </trkpt>
      <trkpt lat="48.4482" lon="2.65219">
        <ele>84</ele>
        <time>2013-09-26T15:08:44Z</time>
      </trkpt>
      <trkpt lat="48.44822" lon="2.65225">
        <ele>84</ele>
        <time>2013-09-26T15:08:45Z</time>
      </trkpt>
      <trkpt lat="48.44826" lon="2.65237">
        <ele>84</ele>
        <time>2013-09-26T15:08:47Z</time>
      </trkpt>
      <trkpt lat="48.44829" lon="2.65243">
        <ele>84</ele>
        <time>2013-09-26T15:08:48Z</time>
      </trkpt>
      <trkpt lat="48.44832" lon="2.65254">
        <ele>84</ele>
        <time>2013-09-26T15:08:50Z</time>
      </trkpt>
      <trkpt lat="48.44835" lon="2.65259">
        <ele>84</ele>
        <time>2013-09-26T15:08:51Z</time>
      </trkpt>
      <trkpt lat="48.4484" lon="2.65269">
        <ele>84</ele>
        <time>2013-09-26T15:08:53Z</time>
      </trkpt>
      <trkpt lat="48.44843" lon="2.65273">
        <ele>84</ele>
        <time>2013-09-26T15:08:54Z</time>
      </trkpt>
      <trkpt lat="48.4485" lon="2.65282">
        <ele>83.3</ele>
        <time>2013-09-26T15:08:56Z</time>
      </trkpt>
      <trkpt lat="48.44856" lon="2.6529">
        <ele>83</ele>
        <time>2013-09-26T15:08:58Z</time>
      </trkpt>
      <trkpt lat="48.44862" lon="2.65299">
        <ele>83</ele>
        <time>2013-09-26T15:09:00Z</time>
      </trkpt>
      <trkpt lat="48.44868" lon="2.65306">
        <ele>83</ele>
        <time>2013-09-26T15:09:02Z</time>
      </trkpt>
      <trkpt lat="48.44872" lon="2.65314">
        <ele>83</ele>
        <time>2013-09-26T15:09:04Z</time>
      </trkpt>
      <trkpt lat="48.44876" lon="2.65318">
        <ele>83</ele>
        <time>2013-09-26T15:09:05Z</time>
      </trkpt>
      <trkpt lat="48.44882" lon="2.65324">
        <ele>84</ele>
        <time>2013-09-26T15:09:07Z</time>
      </trkpt>
      <trkpt lat="48.44885" lon="2.65328">
        <ele>84</ele>
        <time>2013-09-26T15:09:08Z</time>
      </trkpt>
      <trkpt lat="48.44888" lon="2.65335">
        <ele>84</ele>
        <time>2013-09-26T15:09:10Z</time>
      </trkpt>
      <trkpt lat="48.44889" lon="2.65339">
        <ele>84</ele>
        <time>2013-09-26T15:09:13Z</time>
      </trkpt>
      <trkpt lat="48.44888" lon="2.65342">
        <ele>84</ele>
        <time>2013-09-26T15:09:20Z</time>
      </trkpt>
      <trkpt lat="48.44889" lon="2.65345">
        <ele>83</ele>
        <time>2013-09-26T15:09:28Z</time>
      </trkpt>
      <trkpt lat="48.44891" lon="2.65347">
        <ele>83</ele>
        <time>2013-09-26T15:09:30Z</time>
      </trkpt>
      <trkpt lat="48.44892" lon="2.65349">
        <ele>83</ele>
        <time>2013-09-26T15:09:35Z</time>
      </trkpt>
      <trkpt lat="48.44894" lon="2.65352">
        <ele>82</ele>
        <time>2013-09-26T15:09:37Z</time>
      </trkpt>
      <trkpt lat="48.44895" lon="2.65358">
        <ele>82</ele>
        <time>2013-09-26T15:09:39Z</time>
      </trkpt>
      <trkpt lat="48.44896" lon="2.65362">
        <ele>82</ele>
        <time>2013-09-26T15:09:40Z</time>
      </trkpt>
      <trkpt lat="48.44898" lon="2.65365">
        <ele>82</ele>
        <time>2013-09-26T15:09:41Z</time>
      </trkpt>
      <trkpt lat="48.449" lon="2.65373">
        <ele>82</ele>
        <time>2013-09-26T15:09:43Z</time>
      </trkpt>
      <trkpt lat="48.44902" lon="2.65382">
        <ele>82</ele>
        <time>2013-09-26T15:09:45Z</time>
      </trkpt>
      <trkpt lat="48.44903" lon="2.65386">
        <ele>82</ele>
        <time>2013-09-26T15:09:46Z</time>
      </trkpt>
      <trkpt lat="48.44904" lon="2.65391">
        <ele>82</ele>
        <time>2013-09-26T15:09:47Z</time>
      </trkpt>
      <trkpt lat="48.44904" lon="2.65397">
        <ele>82</ele>
        <time>2013-09-26T15:09:48Z</time>
      </trkpt>
      <trkpt lat="48.44904" lon="2.65402">
        <ele>82</ele>
        <time>2013-09-26T15:09:49Z</time>
      </trkpt>
      <trkpt lat="48.44902" lon="2.65412">
        <ele>82</ele>
        <time>2013-09-26T15:09:51Z</time>
      </trkpt>
      <trkpt lat="48.44902" lon="2.65418">
        <ele>82</ele>
        <time>2013-09-26T15:09:52Z</time>
      </trkpt>
      <trkpt lat="48.44901" lon="2.65424">
        <ele>82</ele>
        <time>2013-09-26T15:09:53Z</time>
      </trkpt>
      <trkpt lat="48.44898" lon="2.65437">
        <ele>82</ele>
        <time>2013-09-26T15:09:55Z</time>
      </trkpt>
      <trkpt lat="48.44897" lon="2.65443">
        <ele>82</ele>
        <time>2013-09-26T15:09:56Z</time>
      </trkpt>
      <trkpt lat="48.44894" lon="2.65456">
        <ele>82</ele>
        <time>2013-09-26T15:09:58Z</time>
      </trkpt>
      <trkpt lat="48.44891" lon="2.65468">
        <ele>82</ele>
        <time>2013-09-26T15:10:00Z</time>
      </trkpt>
      <trkpt lat="48.4489" lon="2.65473">
        <ele>82</ele>
        <time>2013-09-26T15:10:01Z</time>
      </trkpt>
      <trkpt lat="48.44888" lon="2.65484">
        <ele>82</ele>
        <time>2013-09-26T15:10:03Z</time>
      </trkpt>
      <trkpt lat="48.44885" lon="2.65497">
        <ele>82</ele>
        <time>2013-09-26T15:10:05Z</time>
      </trkpt>
      <trkpt lat="48.44882" lon="2.65509">
        <ele>83</ele>
        <time>2013-09-26T15:10:07Z</time>
      </trkpt>
      <trkpt lat="48.44879" lon="2.65521">
        <ele>83</ele>
        <time>2013-09-26T15:10:09Z</time>
      </trkpt>
      <trkpt lat="48.44877" lon="2.65527">
        <ele>83</ele>
        <time>2013-09-26T15:10:10Z</time>
      </trkpt>
      <trkpt lat="48.44874" lon="2.65538">
        <ele>83</ele>
        <time>2013-09-26T15:10:12Z</time>
      </trkpt>
      <trkpt lat="48.4487" lon="2.65549">
        <ele>83</ele>
        <time>2013-09-26T15:10:14Z</time>
      </trkpt>
      <trkpt lat="48.44868" lon="2.65559">
        <ele>83</ele>
        <time>2013-09-26T15:10:16Z</time>
      </trkpt>
      <trkpt lat="48.44866" lon="2.65563">
        <ele>83</ele>
        <time>2013-09-26T15:10:17Z</time>
      </trkpt>
      <trkpt lat="48.44864" lon="2.65571">
        <ele>83</ele>
        <time>2013-09-26T15:10:19Z</time>
      </trkpt>
      <trkpt lat="48.44863" lon="2.65575">
        <ele>83</ele>
        <time>2013-09-26T15:10:20Z</time>
      </trkpt>
      <trkpt lat="48.44861" lon="2.65582">
        <ele>83</ele>
        <time>2013-09-26T15:10:22Z</time>
      </trkpt>
      <trkpt lat="48.4486" lon="2.65586">
        <ele>83</ele>
        <time>2013-09-26T15:10:23Z</time>
      </trkpt>
      <trkpt lat="48.44859" lon="2.65589">
        <ele>83</ele>
        <time>2013-09-26T15:10:24Z</time>
      </trkpt>
      <trkpt lat="48.44858" lon="2.65592">
        <ele>83</ele>
        <time>2013-09-26T15:10:25Z</time>
      </trkpt>
      <trkpt lat="48.44857" lon="2.65594">
        <ele>83</ele>
        <time>2013-09-26T15:10:26Z</time>
      </trkpt>
      <trkpt lat="48.44856" lon="2.65597">
        <ele>83</ele>
        <time>2013-09-26T15:10:27Z</time>
      </trkpt>
      <trkpt lat="48.44855" lon="2.65601">
        <ele>83</ele>
        <time>2013-09-26T15:10:28Z</time>
      </trkpt>
      <trkpt lat="48.44854" lon="2.65604">
        <ele>83</ele>
        <time>2013-09-26T15:10:29Z</time>
      </trkpt>
      <trkpt lat="48.44853" lon="2.65606">
        <ele>83</ele>
        <time>2013-09-26T15:10:30Z</time>
      </trkpt>
      <trkpt lat="48.44853" lon="2.6561">
        <ele>83</ele>
        <time>2013-09-26T15:10:31Z</time>
      </trkpt>
      <trkpt lat="48.4485" lon="2.65617">
        <ele>83</ele>
        <time>2013-09-26T15:10:33Z</time>
      </trkpt>
      <trkpt lat="48.44848" lon="2.65629">
        <ele>83</ele>
        <time>2013-09-26T15:10:36Z</time>
      </trkpt>
      <trkpt lat="48.44846" lon="2.65632">
        <ele>83</ele>
        <time>2013-09-26T15:10:37Z</time>
      </trkpt>
      <trkpt lat="48.44845" lon="2.65637">
        <ele>83</ele>
        <time>2013-09-26T15:10:38Z</time>
      </trkpt>
      <trkpt lat="48.44845" lon="2.65641">
        <ele>83</ele>
        <time>2013-09-26T15:10:39Z</time>
      </trkpt>
      <trkpt lat="48.44842" lon="2.65651">
        <ele>83</ele>
        <time>2013-09-26T15:10:41Z</time>
      </trkpt>
      <trkpt lat="48.44839" lon="2.6566">
        <ele>83</ele>
        <time>2013-09-26T15:10:43Z</time>
      </trkpt>
      <trkpt lat="48.44837" lon="2.65665">
        <ele>83</ele>
        <time>2013-09-26T15:10:44Z</time>
      </trkpt>
      <trkpt lat="48.44834" lon="2.65676">
        <ele>83</ele>
        <time>2013-09-26T15:10:46Z</time>
      </trkpt>
      <trkpt lat="48.44831" lon="2.65686">
        <ele>83</ele>
        <time>2013-09-26T15:10:48Z</time>
      </trkpt>
      <trkpt lat="48.4483" lon="2.65691">
        <ele>83</ele>
        <time>2013-09-26T15:10:49Z</time>
      </trkpt>
      <trkpt lat="48.44826" lon="2.65702">
        <ele>83</ele>
        <time>2013-09-26T15:10:51Z</time>
      </trkpt>
      <trkpt lat="48.44825" lon="2.65706">
        <ele>83</ele>
        <time>2013-09-26T15:10:52Z</time>
      </trkpt>
      <trkpt lat="48.44822" lon="2.65716">
        <ele>83</ele>
        <time>2013-09-26T15:10:54Z</time>
      </trkpt>
      <trkpt lat="48.44821" lon="2.65721">
        <ele>83</ele>
        <time>2013-09-26T15:10:55Z</time>
      </trkpt>
      <trkpt lat="48.4482" lon="2.65726">
        <ele>83.6</ele>
        <time>2013-09-26T15:10:56Z</time>
      </trkpt>
      <trkpt lat="48.44817" lon="2.65736">
        <ele>84</ele>
        <time>2013-09-26T15:10:58Z</time>
      </trkpt>
      <trkpt lat="48.44815" lon="2.65742">
        <ele>84</ele>
        <time>2013-09-26T15:10:59Z</time>
      </trkpt>
      <trkpt lat="48.44813" lon="2.65747">
        <ele>84</ele>
        <time>2013-09-26T15:11:00Z</time>
      </trkpt>
      <trkpt lat="48.4481" lon="2.65757">
        <ele>84</ele>
        <time>2013-09-26T15:11:02Z</time>
      </trkpt>
      <trkpt lat="48.44808" lon="2.65766">
        <ele>84</ele>
        <time>2013-09-26T15:11:04Z</time>
      </trkpt>
      <trkpt lat="48.44805" lon="2.65776">
        <ele>84</ele>
        <time>2013-09-26T15:11:06Z</time>
      </trkpt>
      <trkpt lat="48.44803" lon="2.6578">
        <ele>84</ele>
        <time>2013-09-26T15:11:07Z</time>
      </trkpt>
      <trkpt lat="48.44802" lon="2.65786">
        <ele>84</ele>
        <time>2013-09-26T15:11:08Z</time>
      </trkpt>
      <trkpt lat="48.44798" lon="2.65796">
        <ele>84</ele>
        <time>2013-09-26T15:11:10Z</time>
      </trkpt>
      <trkpt lat="48.44798" lon="2.65801">
        <ele>84</ele>
        <time>2013-09-26T15:11:11Z</time>
      </trkpt>
      <trkpt lat="48.44795" lon="2.65812">
        <ele>84</ele>
        <time>2013-09-26T15:11:13Z</time>
      </trkpt>
      <trkpt lat="48.44794" lon="2.65817">
        <ele>84</ele>
        <time>2013-09-26T15:11:14Z</time>
      </trkpt>
      <trkpt lat="48.44791" lon="2.6583">
        <ele>84</ele>
        <time>2013-09-26T15:11:16Z</time>
      </trkpt>
      <trkpt lat="48.44788" lon="2.65841">
        <ele>84</ele>
        <time>2013-09-26T15:11:18Z</time>
      </trkpt>
      <trkpt lat="48.44786" lon="2.65848">
        <ele>84</ele>
        <time>2013-09-26T15:11:19Z</time>
      </trkpt>
      <trkpt lat="48.44783" lon="2.65859">
        <ele>84</ele>
        <time>2013-09-26T15:11:21Z</time>
      </trkpt>
      <trkpt lat="48.44781" lon="2.65864">
        <ele>84</ele>
        <time>2013-09-26T15:11:22Z</time>
      </trkpt>
      <trkpt lat="48.44777" lon="2.65877">
        <ele>84</ele>
        <time>2013-09-26T15:11:24Z</time>
      </trkpt>
      <trkpt lat="48.44776" lon="2.65883">
        <ele>84</ele>
        <time>2013-09-26T15:11:25Z</time>
      </trkpt>
      <trkpt lat="48.44773" lon="2.65896">
        <ele>84</ele>
        <time>2013-09-26T15:11:27Z</time>
      </trkpt>
      <trkpt lat="48.44772" lon="2.65902">
        <ele>84</ele>
        <time>2013-09-26T15:11:28Z</time>
      </trkpt>
      <trkpt lat="48.44768" lon="2.65914">
        <ele>84</ele>
        <time>2013-09-26T15:11:30Z</time>
      </trkpt>
      <trkpt lat="48.44767" lon="2.6592">
        <ele>84</ele>
        <time>2013-09-26T15:11:31Z</time>
      </trkpt>
      <trkpt lat="48.44763" lon="2.65933">
        <ele>84</ele>
        <time>2013-09-26T15:11:33Z</time>
      </trkpt>
      <trkpt lat="48.44756" lon="2.65954">
        <ele>82.8</ele>
        <time>2013-09-26T15:11:36Z</time>
      </trkpt>
      <trkpt lat="48.44754" lon="2.65961">
        <ele>82</ele>
        <time>2013-09-26T15:11:37Z</time>
      </trkpt>
      <trkpt lat="48.44751" lon="2.65972">
        <ele>82</ele>
        <time>2013-09-26T15:11:39Z</time>
      </trkpt>
      <trkpt lat="48.44747" lon="2.65984">
        <ele>82</ele>
        <time>2013-09-26T15:11:41Z</time>
      </trkpt>
      <trkpt lat="48.44745" lon="2.65988">
        <ele>82</ele>
        <time>2013-09-26T15:11:42Z</time>
      </trkpt>
      <trkpt lat="48.44743" lon="2.65992">
        <ele>82</ele>
        <time>2013-09-26T15:11:43Z</time>
      </trkpt>
      <trkpt lat="48.44742" lon="2.65996">
        <ele>82</ele>
        <time>2013-09-26T15:11:44Z</time>
      </trkpt>
      <trkpt lat="48.4474" lon="2.66003">
        <ele>82.6</ele>
        <time>2013-09-26T15:11:46Z</time>
      </trkpt>
      <trkpt lat="48.44739" lon="2.66007">
        <ele>83</ele>
        <time>2013-09-26T15:11:47Z</time>
      </trkpt>
      <trkpt lat="48.44738" lon="2.66011">
        <ele>83</ele>
        <time>2013-09-26T15:11:48Z</time>
      </trkpt>
      <trkpt lat="48.44737" lon="2.66015">
        <ele>83</ele>
        <time>2013-09-26T15:11:49Z</time>
      </trkpt>
      <trkpt lat="48.44736" lon="2.66019">
        <ele>83</ele>
        <time>2013-09-26T15:11:50Z</time>
      </trkpt>
      <trkpt lat="48.44733" lon="2.66027">
        <ele>83</ele>
        <time>2013-09-26T15:11:52Z</time>
      </trkpt>
      <trkpt lat="48.44731" lon="2.66032">
        <ele>83</ele>
        <time>2013-09-26T15:11:53Z</time>
      </trkpt>
      <trkpt lat="48.44727" lon="2.66041">
        <ele>83</ele>
        <time>2013-09-26T15:11:55Z</time>
      </trkpt>
      <trkpt lat="48.44725" lon="2.66044">
        <ele>83.7</ele>
        <time>2013-09-26T15:11:56Z</time>
      </trkpt>
      <trkpt lat="48.44723" lon="2.66047">
        <ele>84</ele>
        <time>2013-09-26T15:11:57Z</time>
      </trkpt>
      <trkpt lat="48.4472" lon="2.66049">
        <ele>84</ele>
        <time>2013-09-26T15:11:58Z</time>
      </trkpt>
      <trkpt lat="48.44714" lon="2.66052">
        <ele>84</ele>
        <time>2013-09-26T15:12:00Z</time>
      </trkpt>
      <trkpt lat="48.44708" lon="2.66055">
        <ele>84</ele>
        <time>2013-09-26T15:12:02Z</time>
      </trkpt>
      <trkpt lat="48.44701" lon="2.66059">
        <ele>84</ele>
        <time>2013-09-26T15:12:04Z</time>
      </trkpt>
      <trkpt lat="48.44695" lon="2.66063">
        <ele>84</ele>
        <time>2013-09-26T15:12:06Z</time>
      </trkpt>
      <trkpt lat="48.44691" lon="2.66066">
        <ele>84</ele>
        <time>2013-09-26T15:12:07Z</time>
      </trkpt>
      <trkpt lat="48.44688" lon="2.66067">
        <ele>84</ele>
        <time>2013-09-26T15:12:08Z</time>
      </trkpt>
      <trkpt lat="48.44684" lon="2.6607">
        <ele>84</ele>
        <time>2013-09-26T15:12:09Z</time>
      </trkpt>
      <trkpt lat="48.44677" lon="2.66074">
        <ele>84</ele>
        <time>2013-09-26T15:12:11Z</time>
      </trkpt>
      <trkpt lat="48.44673" lon="2.66076">
        <ele>84</ele>
        <time>2013-09-26T15:12:12Z</time>
      </trkpt>
      <trkpt lat="48.44666" lon="2.66079">
        <ele>84</ele>
        <time>2013-09-26T15:12:14Z</time>
      </trkpt>
      <trkpt lat="48.4466" lon="2.66085">
        <ele>84</ele>
        <time>2013-09-26T15:12:16Z</time>
      </trkpt>
      <trkpt lat="48.44653" lon="2.6609">
        <ele>84</ele>
        <time>2013-09-26T15:12:18Z</time>
      </trkpt>
      <trkpt lat="48.4465" lon="2.66092">
        <ele>84</ele>
        <time>2013-09-26T15:12:19Z</time>
      </trkpt>
      <trkpt lat="48.44642" lon="2.66095">
        <ele>84</ele>
        <time>2013-09-26T15:12:21Z</time>
      </trkpt>
      <trkpt lat="48.44638" lon="2.66097">
        <ele>84</ele>
        <time>2013-09-26T15:12:22Z</time>
      </trkpt>
      <trkpt lat="48.4463" lon="2.66101">
        <ele>84</ele>
        <time>2013-09-26T15:12:24Z</time>
      </trkpt>
      <trkpt lat="48.44626" lon="2.66103">
        <ele>84</ele>
        <time>2013-09-26T15:12:25Z</time>
      </trkpt>
      <trkpt lat="48.44623" lon="2.66106">
        <ele>84</ele>
        <time>2013-09-26T15:12:26Z</time>
      </trkpt>
      <trkpt lat="48.44615" lon="2.6611">
        <ele>84</ele>
        <time>2013-09-26T15:12:28Z</time>
      </trkpt>
      <trkpt lat="48.44611" lon="2.66112">
        <ele>84</ele>
        <time>2013-09-26T15:12:29Z</time>
      </trkpt>
      <trkpt lat="48.44603" lon="2.66117">
        <ele>84</ele>
        <time>2013-09-26T15:12:31Z</time>
      </trkpt>
      <trkpt lat="48.44595" lon="2.66122">
        <ele>84</ele>
        <time>2013-09-26T15:12:33Z</time>
      </trkpt>
      <trkpt lat="48.44584" lon="2.66129">
        <ele>84</ele>
        <time>2013-09-26T15:12:36Z</time>
      </trkpt>
      <trkpt lat="48.44581" lon="2.66132">
        <ele>84</ele>
        <time>2013-09-26T15:12:37Z</time>
      </trkpt>
      <trkpt lat="48.44575" lon="2.66137">
        <ele>84</ele>
        <time>2013-09-26T15:12:39Z</time>
      </trkpt>
      <trkpt lat="48.44572" lon="2.66139">
        <ele>84</ele>
        <time>2013-09-26T15:12:40Z</time>
      </trkpt>
      <trkpt lat="48.44568" lon="2.66141">
        <ele>84</ele>
        <time>2013-09-26T15:12:41Z</time>
      </trkpt>
      <trkpt lat="48.44561" lon="2.66145">
        <ele>84</ele>
        <time>2013-09-26T15:12:43Z</time>
      </trkpt>
      <trkpt lat="48.44558" lon="2.66147">
        <ele>84</ele>
        <time>2013-09-26T15:12:44Z</time>
      </trkpt>
      <trkpt lat="48.44552" lon="2.6615">
        <ele>84</ele>
        <time>2013-09-26T15:12:46Z</time>
      </trkpt>
      <trkpt lat="48.44544" lon="2.66157">
        <ele>84</ele>
        <time>2013-09-26T15:12:48Z</time>
      </trkpt>
      <trkpt lat="48.44537" lon="2.66162">
        <ele>84</ele>
        <time>2013-09-26T15:12:50Z</time>
      </trkpt>
      <trkpt lat="48.44533" lon="2.66163">
        <ele>84</ele>
        <time>2013-09-26T15:12:51Z</time>
      </trkpt>
      <trkpt lat="48.44529" lon="2.66164">
        <ele>84</ele>
        <time>2013-09-26T15:12:52Z</time>
      </trkpt>
      <trkpt lat="48.44524" lon="2.66169">
        <ele>84</ele>
        <time>2013-09-26T15:12:54Z</time>
      </trkpt>
      <trkpt lat="48.44521" lon="2.66172">
        <ele>84</ele>
        <time>2013-09-26T15:12:55Z</time>
      </trkpt>
      <trkpt lat="48.44519" lon="2.66175">
        <ele>84</ele>
        <time>2013-09-26T15:12:56Z</time>
      </trkpt>
      <trkpt lat="48.44515" lon="2.66182">
        <ele>84</ele>
        <time>2013-09-26T15:12:58Z</time>
      </trkpt>
      <trkpt lat="48.44513" lon="2.66187">
        <ele>84</ele>
        <time>2013-09-26T15:12:59Z</time>
      </trkpt>
      <trkpt lat="48.44509" lon="2.66195">
        <ele>84</ele>
        <time>2013-09-26T15:13:01Z</time>
      </trkpt>
      <trkpt lat="48.44507" lon="2.66199">
        <ele>84</ele>
        <time>2013-09-26T15:13:02Z</time>
      </trkpt>
      <trkpt lat="48.44505" lon="2.66204">
        <ele>84</ele>
        <time>2013-09-26T15:13:03Z</time>
      </trkpt>
      <trkpt lat="48.44501" lon="2.66213">
        <ele>84</ele>
        <time>2013-09-26T15:13:05Z</time>
      </trkpt>
      <trkpt lat="48.44499" lon="2.66218">
        <ele>84.7</ele>
        <time>2013-09-26T15:13:06Z</time>
      </trkpt>
      <trkpt lat="48.44495" lon="2.66227">
        <ele>85</ele>
        <time>2013-09-26T15:13:08Z</time>
      </trkpt>
      <trkpt lat="48.44492" lon="2.66235">
        <ele>85</ele>
        <time>2013-09-26T15:13:10Z</time>
      </trkpt>
      <trkpt lat="48.44487" lon="2.66245">
        <ele>85</ele>
        <time>2013-09-26T15:13:12Z</time>
      </trkpt>
      <trkpt lat="48.44484" lon="2.66255">
        <ele>85</ele>
        <time>2013-09-26T15:13:14Z</time>
      </trkpt>
      <trkpt lat="48.44479" lon="2.66266">
        <ele>85</ele>
        <time>2013-09-26T15:13:16Z</time>
      </trkpt>
      <trkpt lat="48.44478" lon="2.66271">
        <ele>85</ele>
        <time>2013-09-26T15:13:17Z</time>
      </trkpt>
      <trkpt lat="48.44474" lon="2.66281">
        <ele>85</ele>
        <time>2013-09-26T15:13:19Z</time>
      </trkpt>
      <trkpt lat="48.44472" lon="2.66286">
        <ele>85</ele>
        <time>2013-09-26T15:13:20Z</time>
      </trkpt>
      <trkpt lat="48.44468" lon="2.66296">
        <ele>85</ele>
        <time>2013-09-26T15:13:22Z</time>
      </trkpt>
      <trkpt lat="48.44463" lon="2.66306">
        <ele>85</ele>
        <time>2013-09-26T15:13:24Z</time>
      </trkpt>
      <trkpt lat="48.4446" lon="2.66315">
        <ele>84.4</ele>
        <time>2013-09-26T15:13:26Z</time>
      </trkpt>
      <trkpt lat="48.44458" lon="2.66321">
        <ele>84</ele>
        <time>2013-09-26T15:13:27Z</time>
      </trkpt>
      <trkpt lat="48.44454" lon="2.66331">
        <ele>84</ele>
        <time>2013-09-26T15:13:29Z</time>
      </trkpt>
      <trkpt lat="48.44452" lon="2.66336">
        <ele>84</ele>
        <time>2013-09-26T15:13:30Z</time>
      </trkpt>
      <trkpt lat="48.44448" lon="2.66346">
        <ele>84</ele>
        <time>2013-09-26T15:13:32Z</time>
      </trkpt>
      <trkpt lat="48.44447" lon="2.66352">
        <ele>84</ele>
        <time>2013-09-26T15:13:33Z</time>
      </trkpt>
      <trkpt lat="48.44444" lon="2.66357">
        <ele>84</ele>
        <time>2013-09-26T15:13:34Z</time>
      </trkpt>
      <trkpt lat="48.44443" lon="2.66362">
        <ele>84</ele>
        <time>2013-09-26T15:13:35Z</time>
      </trkpt>
      <trkpt lat="48.44438" lon="2.66373">
        <ele>84</ele>
        <time>2013-09-26T15:13:37Z</time>
      </trkpt>
      <trkpt lat="48.44433" lon="2.66382">
        <ele>84</ele>
        <time>2013-09-26T15:13:39Z</time>
      </trkpt>
      <trkpt lat="48.44431" lon="2.66387">
        <ele>84</ele>
        <time>2013-09-26T15:13:40Z</time>
      </trkpt>
      <trkpt lat="48.44427" lon="2.66398">
        <ele>84</ele>
        <time>2013-09-26T15:13:42Z</time>
      </trkpt>
      <trkpt lat="48.44423" lon="2.66407">
        <ele>84</ele>
        <time>2013-09-26T15:13:44Z</time>
      </trkpt>
      <trkpt lat="48.4442" lon="2.66414">
        <ele>84</ele>
        <time>2013-09-26T15:13:46Z</time>
      </trkpt>
      <trkpt lat="48.44419" lon="2.66417">
        <ele>84</ele>
        <time>2013-09-26T15:13:47Z</time>
      </trkpt>
      <trkpt lat="48.44418" lon="2.66421">
        <ele>84</ele>
        <time>2013-09-26T15:13:48Z</time>
      </trkpt>
      <trkpt lat="48.44416" lon="2.66425">
        <ele>84</ele>
        <time>2013-09-26T15:13:49Z</time>
      </trkpt>
      <trkpt lat="48.44415" lon="2.66429">
        <ele>84</ele>
        <time>2013-09-26T15:13:50Z</time>
      </trkpt>
      <trkpt lat="48.44413" lon="2.66432">
        <ele>84</ele>
        <time>2013-09-26T15:13:51Z</time>
      </trkpt>
      <trkpt lat="48.44412" lon="2.66436">
        <ele>84</ele>
        <time>2013-09-26T15:13:52Z</time>
      </trkpt>
      <trkpt lat="48.4441" lon="2.66439">
        <ele>84</ele>
        <time>2013-09-26T15:13:53Z</time>
      </trkpt>
      <trkpt lat="48.44409" lon="2.66443">
        <ele>84</ele>
        <time>2013-09-26T15:13:54Z</time>
      </trkpt>
      <trkpt lat="48.44406" lon="2.6645">
        <ele>84</ele>
        <time>2013-09-26T15:13:56Z</time>
      </trkpt>
      <trkpt lat="48.44404" lon="2.66457">
        <ele>84</ele>
        <time>2013-09-26T15:13:58Z</time>
      </trkpt>
      <trkpt lat="48.44403" lon="2.66461">
        <ele>84</ele>
        <time>2013-09-26T15:13:59Z</time>
      </trkpt>
      <trkpt lat="48.44402" lon="2.66472">
        <ele>84</ele>
        <time>2013-09-26T15:14:02Z</time>
      </trkpt>
      <trkpt lat="48.44401" lon="2.66479">
        <ele>84</ele>
        <time>2013-09-26T15:14:04Z</time>
      </trkpt>
      <trkpt lat="48.44401" lon="2.66486">
        <ele>84.6</ele>
        <time>2013-09-26T15:14:06Z</time>
      </trkpt>
      <trkpt lat="48.44401" lon="2.6649">
        <ele>85</ele>
        <time>2013-09-26T15:14:07Z</time>
      </trkpt>
      <trkpt lat="48.444" lon="2.66494">
        <ele>85</ele>
        <time>2013-09-26T15:14:08Z</time>
      </trkpt>
      <trkpt lat="48.444" lon="2.665">
        <ele>85</ele>
        <time>2013-09-26T15:14:10Z</time>
      </trkpt>
      <trkpt lat="48.444" lon="2.66507">
        <ele>85</ele>
        <time>2013-09-26T15:14:12Z</time>
      </trkpt>
      <trkpt lat="48.444" lon="2.66516">
        <ele>85</ele>
        <time>2013-09-26T15:14:14Z</time>
      </trkpt>
      <trkpt lat="48.44399" lon="2.6652">
        <ele>85</ele>
        <time>2013-09-26T15:14:15Z</time>
      </trkpt>
      <trkpt lat="48.44398" lon="2.66524">
        <ele>85</ele>
        <time>2013-09-26T15:14:16Z</time>
      </trkpt>
      <trkpt lat="48.44398" lon="2.66529">
        <ele>85</ele>
        <time>2013-09-26T15:14:17Z</time>
      </trkpt>
      <trkpt lat="48.44397" lon="2.66538">
        <ele>85</ele>
        <time>2013-09-26T15:14:19Z</time>
      </trkpt>
      <trkpt lat="48.44397" lon="2.66543">
        <ele>85</ele>
        <time>2013-09-26T15:14:20Z</time>
      </trkpt>
      <trkpt lat="48.44397" lon="2.66548">
        <ele>85</ele>
        <time>2013-09-26T15:14:21Z</time>
      </trkpt>
      <trkpt lat="48.44397" lon="2.66558">
        <ele>85</ele>
        <time>2013-09-26T15:14:23Z</time>
      </trkpt>
      <trkpt lat="48.44396" lon="2.66568">
        <ele>85</ele>
        <time>2013-09-26T15:14:25Z</time>
      </trkpt>
      <trkpt lat="48.44396" lon="2.66579">
        <ele>85</ele>
        <time>2013-09-26T15:14:27Z</time>
      </trkpt>
      <trkpt lat="48.44395" lon="2.6659">
        <ele>85</ele>
        <time>2013-09-26T15:14:29Z</time>
      </trkpt>
      <trkpt lat="48.44395" lon="2.666">
        <ele>85</ele>
        <time>2013-09-26T15:14:31Z</time>
      </trkpt>
      <trkpt lat="48.44394" lon="2.66606">
        <ele>85</ele>
        <time>2013-09-26T15:14:32Z</time>
      </trkpt>
      <trkpt lat="48.44395" lon="2.66611">
        <ele>85</ele>
        <time>2013-09-26T15:14:33Z</time>
      </trkpt>
      <trkpt lat="48.44394" lon="2.66621">
        <ele>85</ele>
        <time>2013-09-26T15:14:35Z</time>
      </trkpt>
      <trkpt lat="48.44394" lon="2.66626">
        <ele>85</ele>
        <time>2013-09-26T15:14:36Z</time>
      </trkpt>
      <trkpt lat="48.44393" lon="2.66637">
        <ele>85</ele>
        <time>2013-09-26T15:14:38Z</time>
      </trkpt>
      <trkpt lat="48.44392" lon="2.66649">
        <ele>85</ele>
        <time>2013-09-26T15:14:40Z</time>
      </trkpt>
      <trkpt lat="48.44391" lon="2.66654">
        <ele>85</ele>
        <time>2013-09-26T15:14:41Z</time>
      </trkpt>
      <trkpt lat="48.44391" lon="2.66666">
        <ele>85</ele>
        <time>2013-09-26T15:14:43Z</time>
      </trkpt>
      <trkpt lat="48.4439" lon="2.66677">
        <ele>85</ele>
        <time>2013-09-26T15:14:45Z</time>
      </trkpt>
      <trkpt lat="48.4439" lon="2.66683">
        <ele>84.3</ele>
        <time>2013-09-26T15:14:46Z</time>
      </trkpt>
      <trkpt lat="48.44389" lon="2.66692">
        <ele>84</ele>
        <time>2013-09-26T15:14:48Z</time>
      </trkpt>
      <trkpt lat="48.44388" lon="2.66701">
        <ele>84</ele>
        <time>2013-09-26T15:14:50Z</time>
      </trkpt>
      <trkpt lat="48.44388" lon="2.6671">
        <ele>84</ele>
        <time>2013-09-26T15:14:52Z</time>
      </trkpt>
      <trkpt lat="48.44388" lon="2.66714">
        <ele>84</ele>
        <time>2013-09-26T15:14:53Z</time>
      </trkpt>
      <trkpt lat="48.44387" lon="2.66723">
        <ele>84</ele>
        <time>2013-09-26T15:14:55Z</time>
      </trkpt>
      <trkpt lat="48.44387" lon="2.66731">
        <ele>85</ele>
        <time>2013-09-26T15:14:57Z</time>
      </trkpt>
      <trkpt lat="48.44386" lon="2.66737">
        <ele>85</ele>
        <time>2013-09-26T15:14:59Z</time>
      </trkpt>
      <trkpt lat="48.44386" lon="2.6674">
        <ele>85</ele>
        <time>2013-09-26T15:15:00Z</time>
      </trkpt>
      <trkpt lat="48.44387" lon="2.66747">
        <ele>85</ele>
        <time>2013-09-26T15:15:02Z</time>
      </trkpt>
      <trkpt lat="48.44386" lon="2.66757">
        <ele>85</ele>
        <time>2013-09-26T15:15:04Z</time>
      </trkpt>
      <trkpt lat="48.44386" lon="2.66762">
        <ele>85</ele>
        <time>2013-09-26T15:15:05Z</time>
      </trkpt>
      <trkpt lat="48.44386" lon="2.66772">
        <ele>85</ele>
        <time>2013-09-26T15:15:07Z</time>
      </trkpt>
      <trkpt lat="48.44386" lon="2.66782">
        <ele>85</ele>
        <time>2013-09-26T15:15:09Z</time>
      </trkpt>
      <trkpt lat="48.44385" lon="2.66788">
        <ele>85</ele>
        <time>2013-09-26T15:15:10Z</time>
      </trkpt>
      <trkpt lat="48.44384" lon="2.66798">
        <ele>85</ele>
        <time>2013-09-26T15:15:12Z</time>
      </trkpt>
      <trkpt lat="48.44383" lon="2.66809">
        <ele>85</ele>
        <time>2013-09-26T15:15:14Z</time>
      </trkpt>
      <trkpt lat="48.44383" lon="2.66815">
        <ele>85</ele>
        <time>2013-09-26T15:15:15Z</time>
      </trkpt>
      <trkpt lat="48.44382" lon="2.66824">
        <ele>85</ele>
        <time>2013-09-26T15:15:17Z</time>
      </trkpt>
      <trkpt lat="48.44382" lon="2.66834">
        <ele>85</ele>
        <time>2013-09-26T15:15:19Z</time>
      </trkpt>
      <trkpt lat="48.44381" lon="2.66843">
        <ele>85</ele>
        <time>2013-09-26T15:15:21Z</time>
      </trkpt>
      <trkpt lat="48.44381" lon="2.66849">
        <ele>85</ele>
        <time>2013-09-26T15:15:22Z</time>
      </trkpt>
      <trkpt lat="48.4438" lon="2.6686">
        <ele>85</ele>
        <time>2013-09-26T15:15:24Z</time>
      </trkpt>
      <trkpt lat="48.44379" lon="2.66871">
        <ele>85.6</ele>
        <time>2013-09-26T15:15:26Z</time>
      </trkpt>
      <trkpt lat="48.44378" lon="2.66882">
        <ele>86</ele>
        <time>2013-09-26T15:15:28Z</time>
      </trkpt>
      <trkpt lat="48.44378" lon="2.66887">
        <ele>86</ele>
        <time>2013-09-26T15:15:29Z</time>
      </trkpt>
      <trkpt lat="48.44378" lon="2.66897">
        <ele>86</ele>
        <time>2013-09-26T15:15:31Z</time>
      </trkpt>
      <trkpt lat="48.44377" lon="2.66901">
        <ele>86</ele>
        <time>2013-09-26T15:15:32Z</time>
      </trkpt>
      <trkpt lat="48.44378" lon="2.66905">
        <ele>86</ele>
        <time>2013-09-26T15:15:33Z</time>
      </trkpt>
      <trkpt lat="48.44379" lon="2.66914">
        <ele>86</ele>
        <time>2013-09-26T15:15:35Z</time>
      </trkpt>
      <trkpt lat="48.44378" lon="2.66917">
        <ele>86.6</ele>
        <time>2013-09-26T15:15:36Z</time>
      </trkpt>
      <trkpt lat="48.44377" lon="2.66922">
        <ele>87</ele>
        <time>2013-09-26T15:15:38Z</time>
      </trkpt>
      <trkpt lat="48.44376" lon="2.66927">
        <ele>87</ele>
        <time>2013-09-26T15:15:46Z</time>
      </trkpt>
      <trkpt lat="48.44376" lon="2.6693">
        <ele>87</ele>
        <time>2013-09-26T15:15:55Z</time>
      </trkpt>
      <trkpt lat="48.44376" lon="2.66932">
        <ele>87</ele>
        <time>2013-09-26T15:16:00Z</time>
      </trkpt>
      <trkpt lat="48.44376" lon="2.66934">
        <ele>87</ele>
        <time>2013-09-26T15:16:03Z</time>
      </trkpt>
      <trkpt lat="48.44375" lon="2.66938">
        <ele>87</ele>
        <time>2013-09-26T15:16:05Z</time>
      </trkpt>
      <trkpt lat="48.44374" lon="2.66941">
        <ele>88</ele>
        <time>2013-09-26T15:16:07Z</time>
      </trkpt>
      <trkpt lat="48.44374" lon="2.66945">
        <ele>88</ele>
        <time>2013-09-26T15:16:09Z</time>
      </trkpt>
      <trkpt lat="48.44374" lon="2.66949">
        <ele>88</ele>
        <time>2013-09-26T15:16:10Z</time>
      </trkpt>
      <trkpt lat="48.44374" lon="2.66956">
        <ele>88</ele>
        <time>2013-09-26T15:16:12Z</time>
      </trkpt>
      <trkpt lat="48.44374" lon="2.6696">
        <ele>88</ele>
        <time>2013-09-26T15:16:13Z</time>
      </trkpt>
      <trkpt lat="48.44374" lon="2.66968">
        <ele>88</ele>
        <time>2013-09-26T15:16:15Z</time>
      </trkpt>
      <trkpt lat="48.44375" lon="2.66976">
        <ele>87</ele>
        <time>2013-09-26T15:16:17Z</time>
      </trkpt>
      <trkpt lat="48.44375" lon="2.66979">
        <ele>87</ele>
        <time>2013-09-26T15:16:18Z</time>
      </trkpt>
      <trkpt lat="48.44376" lon="2.66989">
        <ele>87</ele>
        <time>2013-09-26T15:16:21Z</time>
      </trkpt>
      <trkpt lat="48.44377" lon="2.66998">
        <ele>87</ele>
        <time>2013-09-26T15:16:23Z</time>
      </trkpt>
      <trkpt lat="48.44377" lon="2.67002">
        <ele>87</ele>
        <time>2013-09-26T15:16:24Z</time>
      </trkpt>
      <trkpt lat="48.44378" lon="2.67011">
        <ele>87</ele>
        <time>2013-09-26T15:16:26Z</time>
      </trkpt>
      <trkpt lat="48.44378" lon="2.6702">
        <ele>87</ele>
        <time>2013-09-26T15:16:28Z</time>
      </trkpt>
      <trkpt lat="48.44379" lon="2.67025">
        <ele>87</ele>
        <time>2013-09-26T15:16:29Z</time>
      </trkpt>
      <trkpt lat="48.44379" lon="2.67035">
        <ele>87</ele>
        <time>2013-09-26T15:16:31Z</time>
      </trkpt>
      <trkpt lat="48.44379" lon="2.67044">
        <ele>87</ele>
        <time>2013-09-26T15:16:33Z</time>
      </trkpt>
      <trkpt lat="48.44379" lon="2.67049">
        <ele>87</ele>
        <time>2013-09-26T15:16:34Z</time>
      </trkpt>
      <trkpt lat="48.4438" lon="2.67058">
        <ele>87</ele>
        <time>2013-09-26T15:16:36Z</time>
      </trkpt>
      <trkpt lat="48.4438" lon="2.67063">
        <ele>87</ele>
        <time>2013-09-26T15:16:37Z</time>
      </trkpt>
      <trkpt lat="48.4438" lon="2.67072">
        <ele>87</ele>
        <time>2013-09-26T15:16:39Z</time>
      </trkpt>
      <trkpt lat="48.4438" lon="2.67077">
        <ele>87</ele>
        <time>2013-09-26T15:16:40Z</time>
      </trkpt>
      <trkpt lat="48.44381" lon="2.67083">
        <ele>87</ele>
        <time>2013-09-26T15:16:41Z</time>
      </trkpt>
      <trkpt lat="48.44382" lon="2.67095">
        <ele>87</ele>
        <time>2013-09-26T15:16:43Z</time>
      </trkpt>
      <trkpt lat="48.44382" lon="2.67101">
        <ele>87</ele>
        <time>2013-09-26T15:16:44Z</time>
      </trkpt>
      <trkpt lat="48.44383" lon="2.67113">
        <ele>86.4</ele>
        <time>2013-09-26T15:16:46Z</time>
      </trkpt>
      <trkpt lat="48.44384" lon="2.67125">
        <ele>86</ele>
        <time>2013-09-26T15:16:48Z</time>
      </trkpt>
      <trkpt lat="48.44384" lon="2.67138">
        <ele>86</ele>
        <time>2013-09-26T15:16:50Z</time>
      </trkpt>
      <trkpt lat="48.44384" lon="2.67145">
        <ele>86</ele>
        <time>2013-09-26T15:16:51Z</time>
      </trkpt>
      <trkpt lat="48.44385" lon="2.67158">
        <ele>86</ele>
        <time>2013-09-26T15:16:53Z</time>
      </trkpt>
      <trkpt lat="48.44386" lon="2.67171">
        <ele>86</ele>
        <time>2013-09-26T15:16:55Z</time>
      </trkpt>
      <trkpt lat="48.44386" lon="2.67182">
        <ele>87</ele>
        <time>2013-09-26T15:16:57Z</time>
      </trkpt>
      <trkpt lat="48.44385" lon="2.67188">
        <ele>87</ele>
        <time>2013-09-26T15:16:59Z</time>
      </trkpt>
      <trkpt lat="48.44385" lon="2.6719">
        <ele>87</ele>
        <time>2013-09-26T15:17:00Z</time>
      </trkpt>
      <trkpt lat="48.44386" lon="2.67193">
        <ele>88</ele>
        <time>2013-09-26T15:17:32Z</time>
      </trkpt>
      <trkpt lat="48.44386" lon="2.67193">
        <ele>87</ele>
        <time>2013-09-26T15:19:01Z</time>
      </trkpt>
      <trkpt lat="48.44386" lon="2.67195">
        <ele>88</ele>
        <time>2013-09-26T15:20:00Z</time>
      </trkpt>
      <trkpt lat="48.44384" lon="2.67197">
        <ele>88</ele>
        <time>2013-09-26T15:20:02Z</time>
      </trkpt>
      <trkpt lat="48.44382" lon="2.672">
        <ele>88</ele>
        <time>2013-09-26T15:20:04Z</time>
      </trkpt>
      <trkpt lat="48.44379" lon="2.67203">
        <ele>88</ele>
        <time>2013-09-26T15:20:06Z</time>
      </trkpt>
      <trkpt lat="48.44377" lon="2.67205">
        <ele>88</ele>
        <time>2013-09-26T15:20:07Z</time>
      </trkpt>
      <trkpt lat="48.44373" lon="2.67208">
        <ele>88</ele>
        <time>2013-09-26T15:20:09Z</time>
      </trkpt>
      <trkpt lat="48.44371" lon="2.6721">
        <ele>88</ele>
        <time>2013-09-26T15:20:10Z</time>
      </trkpt>
      <trkpt lat="48.44369" lon="2.67212">
        <ele>88</ele>
        <time>2013-09-26T15:20:11Z</time>
      </trkpt>
      <trkpt lat="48.44365" lon="2.67221">
        <ele>88</ele>
        <time>2013-09-26T15:20:14Z</time>
      </trkpt>
      <trkpt lat="48.44363" lon="2.67224">
        <ele>88</ele>
        <time>2013-09-26T15:20:15Z</time>
      </trkpt>
      <trkpt lat="48.44362" lon="2.67227">
        <ele>88</ele>
        <time>2013-09-26T15:20:16Z</time>
      </trkpt>
      <trkpt lat="48.4436" lon="2.6723">
        <ele>88</ele>
        <time>2013-09-26T15:20:17Z</time>
      </trkpt>
      <trkpt lat="48.44358" lon="2.67237">
        <ele>88</ele>
        <time>2013-09-26T15:20:19Z</time>
      </trkpt>
      <trkpt lat="48.44355" lon="2.67243">
        <ele>88</ele>
        <time>2013-09-26T15:20:21Z</time>
      </trkpt>
      <trkpt lat="48.44354" lon="2.67247">
        <ele>88</ele>
        <time>2013-09-26T15:20:22Z</time>
      </trkpt>
      <trkpt lat="48.44354" lon="2.67251">
        <ele>88</ele>
        <time>2013-09-26T15:20:23Z</time>
      </trkpt>
      <trkpt lat="48.44352" lon="2.67258">
        <ele>88</ele>
        <time>2013-09-26T15:20:25Z</time>
      </trkpt>
      <trkpt lat="48.4435" lon="2.67261">
        <ele>88</ele>
        <time>2013-09-26T15:20:26Z</time>
      </trkpt>
      <trkpt lat="48.44348" lon="2.67263">
        <ele>88</ele>
        <time>2013-09-26T15:20:27Z</time>
      </trkpt>
      <trkpt lat="48.44346" lon="2.6727">
        <ele>88</ele>
        <time>2013-09-26T15:20:29Z</time>
      </trkpt>
      <trkpt lat="48.44343" lon="2.67276">
        <ele>88</ele>
        <time>2013-09-26T15:20:31Z</time>
      </trkpt>
      <trkpt lat="48.44341" lon="2.6728">
        <ele>88</ele>
        <time>2013-09-26T15:20:32Z</time>
      </trkpt>
      <trkpt lat="48.4434" lon="2.67284">
        <ele>88</ele>
        <time>2013-09-26T15:20:33Z</time>
      </trkpt>
      <trkpt lat="48.44338" lon="2.67287">
        <ele>88</ele>
        <time>2013-09-26T15:20:34Z</time>
      </trkpt>
      <trkpt lat="48.44336" lon="2.67289">
        <ele>88</ele>
        <time>2013-09-26T15:20:35Z</time>
      </trkpt>
      <trkpt lat="48.44331" lon="2.67294">
        <ele>88</ele>
        <time>2013-09-26T15:20:37Z</time>
      </trkpt>
      <trkpt lat="48.44326" lon="2.67299">
        <ele>88</ele>
        <time>2013-09-26T15:20:39Z</time>
      </trkpt>
      <trkpt lat="48.44321" lon="2.67304">
        <ele>88</ele>
        <time>2013-09-26T15:20:41Z</time>
      </trkpt>
      <trkpt lat="48.44317" lon="2.6731">
        <ele>88</ele>
        <time>2013-09-26T15:20:43Z</time>
      </trkpt>
      <trkpt lat="48.44315" lon="2.67313">
        <ele>88</ele>
        <time>2013-09-26T15:20:44Z</time>
      </trkpt>
      <trkpt lat="48.44314" lon="2.67317">
        <ele>88</ele>
        <time>2013-09-26T15:20:45Z</time>
      </trkpt>
      <trkpt lat="48.4431" lon="2.67325">
        <ele>88</ele>
        <time>2013-09-26T15:20:47Z</time>
      </trkpt>
      <trkpt lat="48.44309" lon="2.6733">
        <ele>88</ele>
        <time>2013-09-26T15:20:48Z</time>
      </trkpt>
      <trkpt lat="48.44308" lon="2.67334">
        <ele>88</ele>
        <time>2013-09-26T15:20:49Z</time>
      </trkpt>
      <trkpt lat="48.44307" lon="2.67337">
        <ele>88</ele>
        <time>2013-09-26T15:20:50Z</time>
      </trkpt>
      <trkpt lat="48.44306" lon="2.6734">
        <ele>88</ele>
        <time>2013-09-26T15:20:51Z</time>
      </trkpt>
      <trkpt lat="48.44305" lon="2.67344">
        <ele>88</ele>
        <time>2013-09-26T15:20:52Z</time>
      </trkpt>
      <trkpt lat="48.44304" lon="2.67347">
        <ele>88</ele>
        <time>2013-09-26T15:20:53Z</time>
      </trkpt>
      <trkpt lat="48.44302" lon="2.67349">
        <ele>88</ele>
        <time>2013-09-26T15:20:55Z</time>
      </trkpt>
      <trkpt lat="48.44301" lon="2.67354">
        <ele>88</ele>
        <time>2013-09-26T15:20:57Z</time>
      </trkpt>
      <trkpt lat="48.443" lon="2.67356">
        <ele>81</ele>
        <time>2013-09-26T15:21:22Z</time>
      </trkpt>
      <trkpt lat="48.44299" lon="2.67361">
        <ele>81</ele>
        <time>2013-09-26T15:21:27Z</time>
      </trkpt>
      <trkpt lat="48.44296" lon="2.67364">
        <ele>81</ele>
        <time>2013-09-26T15:21:29Z</time>
      </trkpt>
      <trkpt lat="48.44294" lon="2.67368">
        <ele>81</ele>
        <time>2013-09-26T15:21:31Z</time>
      </trkpt>
      <trkpt lat="48.44293" lon="2.6737">
        <ele>81</ele>
        <time>2013-09-26T15:21:32Z</time>
      </trkpt>
      <trkpt lat="48.4429" lon="2.67376">
        <ele>81</ele>
        <time>2013-09-26T15:21:34Z</time>
      </trkpt>
      <trkpt lat="48.44289" lon="2.67378">
        <ele>81</ele>
        <time>2013-09-26T15:21:35Z</time>
      </trkpt>
      <trkpt lat="48.44287" lon="2.6738">
        <ele>79.8</ele>
        <time>2013-09-26T15:21:36Z</time>
      </trkpt>
      <trkpt lat="48.44286" lon="2.67382">
        <ele>79</ele>
        <time>2013-09-26T15:21:37Z</time>
      </trkpt>
      <trkpt lat="48.44283" lon="2.67386">
        <ele>79</ele>
        <time>2013-09-26T15:21:40Z</time>
      </trkpt>
      <trkpt lat="48.44282" lon="2.67389">
        <ele>79</ele>
        <time>2013-09-26T15:21:42Z</time>
      </trkpt>
      <trkpt lat="48.44279" lon="2.67392">
        <ele>79</ele>
        <time>2013-09-26T15:21:44Z</time>
      </trkpt>
      <trkpt lat="48.44277" lon="2.67393">
        <ele>79</ele>
        <time>2013-09-26T15:21:45Z</time>
      </trkpt>
      <trkpt lat="48.44275" lon="2.67393">
        <ele>77.8</ele>
        <time>2013-09-26T15:21:46Z</time>
      </trkpt>
      <trkpt lat="48.44273" lon="2.67392">
        <ele>77</ele>
        <time>2013-09-26T15:21:47Z</time>
      </trkpt>
      <trkpt lat="48.44271" lon="2.67392">
        <ele>77</ele>
        <time>2013-09-26T15:21:48Z</time>
      </trkpt>
      <trkpt lat="48.44269" lon="2.67391">
        <ele>77</ele>
        <time>2013-09-26T15:21:49Z</time>
      </trkpt>
      <trkpt lat="48.44265" lon="2.67388">
        <ele>77</ele>
        <time>2013-09-26T15:21:51Z</time>
      </trkpt>
      <trkpt lat="48.44263" lon="2.67388">
        <ele>77</ele>
        <time>2013-09-26T15:21:52Z</time>
      </trkpt>
      <trkpt lat="48.44259" lon="2.67388">
        <ele>77</ele>
        <time>2013-09-26T15:21:54Z</time>
      </trkpt>
      <trkpt lat="48.44257" lon="2.67389">
        <ele>77</ele>
        <time>2013-09-26T15:21:55Z</time>
      </trkpt>
      <trkpt lat="48.44255" lon="2.6739">
        <ele>74.6</ele>
        <time>2013-09-26T15:21:56Z</time>
      </trkpt>
      <trkpt lat="48.44254" lon="2.67392">
        <ele>73</ele>
        <time>2013-09-26T15:21:57Z</time>
      </trkpt>
      <trkpt lat="48.44252" lon="2.67395">
        <ele>73</ele>
        <time>2013-09-26T15:21:58Z</time>
      </trkpt>
      <trkpt lat="48.44251" lon="2.67397">
        <ele>73</ele>
        <time>2013-09-26T15:21:59Z</time>
      </trkpt>
      <trkpt lat="48.44249" lon="2.674">
        <ele>73</ele>
        <time>2013-09-26T15:22:00Z</time>
      </trkpt>
      <trkpt lat="48.44247" lon="2.67404">
        <ele>71.2</ele>
        <time>2013-09-26T15:22:01Z</time>
      </trkpt>
      <trkpt lat="48.44244" lon="2.6741">
        <ele>70</ele>
        <time>2013-09-26T15:22:03Z</time>
      </trkpt>
      <trkpt lat="48.44242" lon="2.67413">
        <ele>70</ele>
        <time>2013-09-26T15:22:04Z</time>
      </trkpt>
      <trkpt lat="48.44241" lon="2.67416">
        <ele>70</ele>
        <time>2013-09-26T15:22:05Z</time>
      </trkpt>
      <trkpt lat="48.44239" lon="2.67419">
        <ele>68.2</ele>
        <time>2013-09-26T15:22:06Z</time>
      </trkpt>
      <trkpt lat="48.44237" lon="2.67421">
        <ele>67</ele>
        <time>2013-09-26T15:22:08Z</time>
      </trkpt>
      <trkpt lat="48.44235" lon="2.67422">
        <ele>66.4</ele>
        <time>2013-09-26T15:22:09Z</time>
      </trkpt>
      <trkpt lat="48.44233" lon="2.67426">
        <ele>66</ele>
        <time>2013-09-26T15:22:10Z</time>
      </trkpt>
      <trkpt lat="48.4423" lon="2.67432">
        <ele>65</ele>
        <time>2013-09-26T15:22:12Z</time>
      </trkpt>
      <trkpt lat="48.44226" lon="2.6744">
        <ele>65</ele>
        <time>2013-09-26T15:22:14Z</time>
      </trkpt>
      <trkpt lat="48.44224" lon="2.67451">
        <ele>65</ele>
        <time>2013-09-26T15:22:16Z</time>
      </trkpt>
      <trkpt lat="48.44221" lon="2.6746">
        <ele>65</ele>
        <time>2013-09-26T15:22:18Z</time>
      </trkpt>
      <trkpt lat="48.4422" lon="2.67464">
        <ele>65</ele>
        <time>2013-09-26T15:22:19Z</time>
      </trkpt>
      <trkpt lat="48.44217" lon="2.67473">
        <ele>65</ele>
        <time>2013-09-26T15:22:21Z</time>
      </trkpt>
      <trkpt lat="48.44217" lon="2.67476">
        <ele>65</ele>
        <time>2013-09-26T15:22:22Z</time>
      </trkpt>
      <trkpt lat="48.44216" lon="2.67481">
        <ele>65</ele>
        <time>2013-09-26T15:22:23Z</time>
      </trkpt>
      <trkpt lat="48.44217" lon="2.67489">
        <ele>65</ele>
        <time>2013-09-26T15:22:25Z</time>
      </trkpt>
      <trkpt lat="48.44217" lon="2.67495">
        <ele>64.3</ele>
        <time>2013-09-26T15:22:26Z</time>
      </trkpt>
      <trkpt lat="48.44217" lon="2.67504">
        <ele>64</ele>
        <time>2013-09-26T15:22:28Z</time>
      </trkpt>
      <trkpt lat="48.44218" lon="2.67509">
        <ele>64</ele>
        <time>2013-09-26T15:22:29Z</time>
      </trkpt>
      <trkpt lat="48.4422" lon="2.67514">
        <ele>64</ele>
        <time>2013-09-26T15:22:30Z</time>
      </trkpt>
      <trkpt lat="48.44221" lon="2.67518">
        <ele>64</ele>
        <time>2013-09-26T15:22:31Z</time>
      </trkpt>
      <trkpt lat="48.44223" lon="2.67529">
        <ele>64</ele>
        <time>2013-09-26T15:22:33Z</time>
      </trkpt>
      <trkpt lat="48.44222" lon="2.67538">
        <ele>64</ele>
        <time>2013-09-26T15:22:35Z</time>
      </trkpt>
      <trkpt lat="48.44222" lon="2.67543">
        <ele>62.8</ele>
        <time>2013-09-26T15:22:36Z</time>
      </trkpt>
      <trkpt lat="48.44221" lon="2.67551">
        <ele>62</ele>
        <time>2013-09-26T15:22:38Z</time>
      </trkpt>
      <trkpt lat="48.4422" lon="2.67555">
        <ele>62</ele>
        <time>2013-09-26T15:22:39Z</time>
      </trkpt>
      <trkpt lat="48.4422" lon="2.67559">
        <ele>62</ele>
        <time>2013-09-26T15:22:40Z</time>
      </trkpt>
      <trkpt lat="48.44218" lon="2.67563">
        <ele>62</ele>
        <time>2013-09-26T15:22:41Z</time>
      </trkpt>
      <trkpt lat="48.44217" lon="2.67568">
        <ele>62</ele>
        <time>2013-09-26T15:22:42Z</time>
      </trkpt>
      <trkpt lat="48.44212" lon="2.67577">
        <ele>62</ele>
        <time>2013-09-26T15:22:44Z</time>
      </trkpt>
      <trkpt lat="48.44209" lon="2.67587">
        <ele>59.7</ele>
        <time>2013-09-26T15:22:46Z</time>
      </trkpt>
      <trkpt lat="48.44204" lon="2.67596">
        <ele>58</ele>
        <time>2013-09-26T15:22:48Z</time>
      </trkpt>
      <trkpt lat="48.442" lon="2.67604">
        <ele>58</ele>
        <time>2013-09-26T15:22:50Z</time>
      </trkpt>
      <trkpt lat="48.44198" lon="2.67608">
        <ele>57.4</ele>
        <time>2013-09-26T15:22:51Z</time>
      </trkpt>
      <trkpt lat="48.44196" lon="2.67611">
        <ele>57</ele>
        <time>2013-09-26T15:22:52Z</time>
      </trkpt>
      <trkpt lat="48.4419" lon="2.67614">
        <ele>57</ele>
        <time>2013-09-26T15:22:54Z</time>
      </trkpt>
      <trkpt lat="48.44183" lon="2.67618">
        <ele>56.4</ele>
        <time>2013-09-26T15:22:56Z</time>
      </trkpt>
      <trkpt lat="48.4418" lon="2.67618">
        <ele>56</ele>
        <time>2013-09-26T15:22:57Z</time>
      </trkpt>
      <trkpt lat="48.44176" lon="2.6762">
        <ele>56</ele>
        <time>2013-09-26T15:22:58Z</time>
      </trkpt>
      <trkpt lat="48.44173" lon="2.67622">
        <ele>56</ele>
        <time>2013-09-26T15:22:59Z</time>
      </trkpt>
      <trkpt lat="48.44168" lon="2.67627">
        <ele>56</ele>
        <time>2013-09-26T15:23:01Z</time>
      </trkpt>
      <trkpt lat="48.44166" lon="2.67629">
        <ele>56</ele>
        <time>2013-09-26T15:23:02Z</time>
      </trkpt>
      <trkpt lat="48.44161" lon="2.67637">
        <ele>56</ele>
        <time>2013-09-26T15:23:04Z</time>
      </trkpt>
      <trkpt lat="48.44159" lon="2.6764">
        <ele>56</ele>
        <time>2013-09-26T15:23:05Z</time>
      </trkpt>
      <trkpt lat="48.44158" lon="2.67644">
        <ele>54.8</ele>
        <time>2013-09-26T15:23:06Z</time>
      </trkpt>
      <trkpt lat="48.44156" lon="2.67652">
        <ele>54</ele>
        <time>2013-09-26T15:23:08Z</time>
      </trkpt>
      <trkpt lat="48.44153" lon="2.67661">
        <ele>54</ele>
        <time>2013-09-26T15:23:10Z</time>
      </trkpt>
      <trkpt lat="48.44151" lon="2.67665">
        <ele>54</ele>
        <time>2013-09-26T15:23:11Z</time>
      </trkpt>
      <trkpt lat="48.4415" lon="2.67669">
        <ele>54</ele>
        <time>2013-09-26T15:23:12Z</time>
      </trkpt>
      <trkpt lat="48.44149" lon="2.67673">
        <ele>54</ele>
        <time>2013-09-26T15:23:13Z</time>
      </trkpt>
      <trkpt lat="48.44147" lon="2.67678">
        <ele>54</ele>
        <time>2013-09-26T15:23:14Z</time>
      </trkpt>
      <trkpt lat="48.44141" lon="2.67687">
        <ele>52.8</ele>
        <time>2013-09-26T15:23:16Z</time>
      </trkpt>
      <trkpt lat="48.44139" lon="2.6769">
        <ele>52</ele>
        <time>2013-09-26T15:23:17Z</time>
      </trkpt>
      <trkpt lat="48.44134" lon="2.67696">
        <ele>52</ele>
        <time>2013-09-26T15:23:19Z</time>
      </trkpt>
      <trkpt lat="48.44131" lon="2.67698">
        <ele>52</ele>
        <time>2013-09-26T15:23:20Z</time>
      </trkpt>
      <trkpt lat="48.44128" lon="2.677">
        <ele>52</ele>
        <time>2013-09-26T15:23:21Z</time>
      </trkpt>
      <trkpt lat="48.44125" lon="2.67702">
        <ele>52</ele>
        <time>2013-09-26T15:23:22Z</time>
      </trkpt>
      <trkpt lat="48.44121" lon="2.67706">
        <ele>52</ele>
        <time>2013-09-26T15:23:24Z</time>
      </trkpt>
      <trkpt lat="48.44118" lon="2.67708">
        <ele>49</ele>
        <time>2013-09-26T15:23:27Z</time>
      </trkpt>
      <trkpt lat="48.44115" lon="2.67708">
        <ele>49</ele>
        <time>2013-09-26T15:23:31Z</time>
      </trkpt>
      <trkpt lat="48.44113" lon="2.67707">
        <ele>49</ele>
        <time>2013-09-26T15:23:32Z</time>
      </trkpt>
      <trkpt lat="48.44108" lon="2.67704">
        <ele>49</ele>
        <time>2013-09-26T15:23:34Z</time>
      </trkpt>
      <trkpt lat="48.44106" lon="2.67702">
        <ele>49</ele>
        <time>2013-09-26T15:23:35Z</time>
      </trkpt>
      <trkpt lat="48.44103" lon="2.677">
        <ele>49</ele>
        <time>2013-09-26T15:23:36Z</time>
      </trkpt>
      <trkpt lat="48.44101" lon="2.67698">
        <ele>49</ele>
        <time>2013-09-26T15:23:37Z</time>
      </trkpt>
      <trkpt lat="48.44099" lon="2.67696">
        <ele>49</ele>
        <time>2013-09-26T15:23:38Z</time>
      </trkpt>
      <trkpt lat="48.44094" lon="2.67691">
        <ele>49</ele>
        <time>2013-09-26T15:23:40Z</time>
      </trkpt>
      <trkpt lat="48.44092" lon="2.6769">
        <ele>49</ele>
        <time>2013-09-26T15:23:41Z</time>
      </trkpt>
      <trkpt lat="48.44089" lon="2.67688">
        <ele>49</ele>
        <time>2013-09-26T15:23:43Z</time>
      </trkpt>
      <trkpt lat="48.44087" lon="2.67686">
        <ele>49</ele>
        <time>2013-09-26T15:23:44Z</time>
      </trkpt>
      <trkpt lat="48.44085" lon="2.67685">
        <ele>49</ele>
        <time>2013-09-26T15:23:45Z</time>
      </trkpt>
      <trkpt lat="48.44083" lon="2.67683">
        <ele>49</ele>
        <time>2013-09-26T15:23:46Z</time>
      </trkpt>
      <trkpt lat="48.44082" lon="2.67685">
        <ele>49</ele>
        <time>2013-09-26T15:23:48Z</time>
      </trkpt>
      <trkpt lat="48.4408" lon="2.67686">
        <ele>49</ele>
        <time>2013-09-26T15:23:49Z</time>
      </trkpt>
      <trkpt lat="48.44078" lon="2.67688">
        <ele>49</ele>
        <time>2013-09-26T15:23:50Z</time>
      </trkpt>
      <trkpt lat="48.44076" lon="2.67687">
        <ele>49</ele>
        <time>2013-09-26T15:23:51Z</time>
      </trkpt>
      <trkpt lat="48.44072" lon="2.67685">
        <ele>49</ele>
        <time>2013-09-26T15:23:53Z</time>
      </trkpt>
      <trkpt lat="48.4407" lon="2.67684">
        <ele>49</ele>
        <time>2013-09-26T15:23:54Z</time>
      </trkpt>
      <trkpt lat="48.44068" lon="2.67684">
        <ele>49</ele>
        <time>2013-09-26T15:23:55Z</time>
      </trkpt>
      <trkpt lat="48.44065" lon="2.67685">
        <ele>48.3</ele>
        <time>2013-09-26T15:23:56Z</time>
      </trkpt>
      <trkpt lat="48.44062" lon="2.67685">
        <ele>48</ele>
        <time>2013-09-26T15:23:57Z</time>
      </trkpt>
      <trkpt lat="48.44059" lon="2.67685">
        <ele>48</ele>
        <time>2013-09-26T15:23:58Z</time>
      </trkpt>
      <trkpt lat="48.44057" lon="2.67683">
        <ele>48</ele>
        <time>2013-09-26T15:23:59Z</time>
      </trkpt>
      <trkpt lat="48.44054" lon="2.6768">
        <ele>48</ele>
        <time>2013-09-26T15:24:01Z</time>
      </trkpt>
      <trkpt lat="48.44053" lon="2.67674">
        <ele>48</ele>
        <time>2013-09-26T15:24:03Z</time>
      </trkpt>
      <trkpt lat="48.44051" lon="2.67671">
        <ele>48</ele>
        <time>2013-09-26T15:24:04Z</time>
      </trkpt>
      <trkpt lat="48.44047" lon="2.67668">
        <ele>48</ele>
        <time>2013-09-26T15:24:06Z</time>
      </trkpt>
      <trkpt lat="48.44042" lon="2.67666">
        <ele>48</ele>
        <time>2013-09-26T15:24:08Z</time>
      </trkpt>
      <trkpt lat="48.4404" lon="2.67665">
        <ele>48</ele>
        <time>2013-09-26T15:24:09Z</time>
      </trkpt>
      <trkpt lat="48.44036" lon="2.67663">
        <ele>48</ele>
        <time>2013-09-26T15:24:11Z</time>
      </trkpt>
      <trkpt lat="48.44035" lon="2.67663">
        <ele>48</ele>
        <time>2013-09-26T15:24:12Z</time>
      </trkpt>
      <trkpt lat="48.44032" lon="2.67664">
        <ele>48</ele>
        <time>2013-09-26T15:24:14Z</time>
      </trkpt>
      <trkpt lat="48.4403" lon="2.67665">
        <ele>48</ele>
        <time>2013-09-26T15:24:15Z</time>
      </trkpt>
      <trkpt lat="48.44028" lon="2.67666">
        <ele>47.4</ele>
        <time>2013-09-26T15:24:16Z</time>
      </trkpt>
      <trkpt lat="48.44025" lon="2.67669">
        <ele>47</ele>
        <time>2013-09-26T15:24:18Z</time>
      </trkpt>
      <trkpt lat="48.44024" lon="2.67669">
        <ele>47</ele>
        <time>2013-09-26T15:24:19Z</time>
      </trkpt>
      <trkpt lat="48.44022" lon="2.67669">
        <ele>46</ele>
        <time>2013-09-26T15:24:37Z</time>
      </trkpt>
      <trkpt lat="48.4402" lon="2.6767">
        <ele>46</ele>
        <time>2013-09-26T15:24:42Z</time>
      </trkpt>
      <trkpt lat="48.44018" lon="2.6767">
        <ele>46</ele>
        <time>2013-09-26T15:24:43Z</time>
      </trkpt>
      <trkpt lat="48.44014" lon="2.67669">
        <ele>46</ele>
        <time>2013-09-26T15:24:45Z</time>
      </trkpt>
      <trkpt lat="48.44012" lon="2.67669">
        <ele>46.6</ele>
        <time>2013-09-26T15:24:46Z</time>
      </trkpt>
      <trkpt lat="48.4401" lon="2.67669">
        <ele>47</ele>
        <time>2013-09-26T15:24:47Z</time>
      </trkpt>
      <trkpt lat="48.44008" lon="2.6767">
        <ele>47</ele>
        <time>2013-09-26T15:24:48Z</time>
      </trkpt>
      <trkpt lat="48.44006" lon="2.6767">
        <ele>47</ele>
        <time>2013-09-26T15:24:49Z</time>
      </trkpt>
      <trkpt lat="48.44002" lon="2.6767">
        <ele>47</ele>
        <time>2013-09-26T15:24:51Z</time>
      </trkpt>
      <trkpt lat="48.43999" lon="2.6767">
        <ele>47</ele>
        <time>2013-09-26T15:24:52Z</time>
      </trkpt>
      <trkpt lat="48.43994" lon="2.67671">
        <ele>47</ele>
        <time>2013-09-26T15:24:54Z</time>
      </trkpt>
      <trkpt lat="48.43992" lon="2.67671">
        <ele>47</ele>
        <time>2013-09-26T15:24:55Z</time>
      </trkpt>
      <trkpt lat="48.43988" lon="2.67673">
        <ele>46</ele>
        <time>2013-09-26T15:24:57Z</time>
      </trkpt>
      <trkpt lat="48.43986" lon="2.67676">
        <ele>46</ele>
        <time>2013-09-26T15:24:58Z</time>
      </trkpt>
      <trkpt lat="48.43985" lon="2.67677">
        <ele>46</ele>
        <time>2013-09-26T15:24:59Z</time>
      </trkpt>
      <trkpt lat="48.43982" lon="2.67679">
        <ele>45</ele>
        <time>2013-09-26T15:25:07Z</time>
      </trkpt>
      <trkpt lat="48.4398" lon="2.67677">
        <ele>45</ele>
        <time>2013-09-26T15:25:11Z</time>
      </trkpt>
      <trkpt lat="48.4398" lon="2.67674">
        <ele>45</ele>
        <time>2013-09-26T15:25:13Z</time>
      </trkpt>
      <trkpt lat="48.4398" lon="2.6767">
        <ele>45</ele>
        <time>2013-09-26T15:25:15Z</time>
      </trkpt>
      <trkpt lat="48.43979" lon="2.67664">
        <ele>45</ele>
        <time>2013-09-26T15:25:17Z</time>
      </trkpt>
      <trkpt lat="48.43978" lon="2.67662">
        <ele>45</ele>
        <time>2013-09-26T15:25:18Z</time>
      </trkpt>
      <trkpt lat="48.43976" lon="2.67663">
        <ele>45</ele>
        <time>2013-09-26T15:25:20Z</time>
      </trkpt>
      <trkpt lat="48.43975" lon="2.67665">
        <ele>45</ele>
        <time>2013-09-26T15:25:21Z</time>
      </trkpt>
      <trkpt lat="48.43971" lon="2.67666">
        <ele>45</ele>
        <time>2013-09-26T15:25:23Z</time>
      </trkpt>
      <trkpt lat="48.43966" lon="2.67665">
        <ele>45</ele>
        <time>2013-09-26T15:25:25Z</time>
      </trkpt>
      <trkpt lat="48.43963" lon="2.67663">
        <ele>45</ele>
        <time>2013-09-26T15:25:26Z</time>
      </trkpt>
      <trkpt lat="48.4396" lon="2.67661">
        <ele>45</ele>
        <time>2013-09-26T15:25:27Z</time>
      </trkpt>
      <trkpt lat="48.43954" lon="2.67655">
        <ele>45</ele>
        <time>2013-09-26T15:25:29Z</time>
      </trkpt>
      <trkpt lat="48.43949" lon="2.6765">
        <ele>45</ele>
        <time>2013-09-26T15:25:31Z</time>
      </trkpt>
      <trkpt lat="48.43946" lon="2.67649">
        <ele>45</ele>
        <time>2013-09-26T15:25:32Z</time>
      </trkpt>
      <trkpt lat="48.4394" lon="2.67648">
        <ele>45</ele>
        <time>2013-09-26T15:25:34Z</time>
      </trkpt>
      <trkpt lat="48.43937" lon="2.67648">
        <ele>45</ele>
        <time>2013-09-26T15:25:35Z</time>
      </trkpt>
      <trkpt lat="48.43934" lon="2.67647">
        <ele>43.6</ele>
        <time>2013-09-26T15:25:36Z</time>
      </trkpt>
      <trkpt lat="48.43932" lon="2.67645">
        <ele>43</ele>
        <time>2013-09-26T15:25:37Z</time>
      </trkpt>
      <trkpt lat="48.4393" lon="2.67645">
        <ele>43</ele>
        <time>2013-09-26T15:25:38Z</time>
      </trkpt>
      <trkpt lat="48.43927" lon="2.67643">
        <ele>43</ele>
        <time>2013-09-26T15:25:40Z</time>
      </trkpt>
      <trkpt lat="48.43926" lon="2.67643">
        <ele>43</ele>
        <time>2013-09-26T15:25:41Z</time>
      </trkpt>
      <trkpt lat="48.43924" lon="2.67639">
        <ele>43</ele>
        <time>2013-09-26T15:25:43Z</time>
      </trkpt>
      <trkpt lat="48.43923" lon="2.67635">
        <ele>43</ele>
        <time>2013-09-26T15:25:45Z</time>
      </trkpt>
      <trkpt lat="48.43924" lon="2.6763">
        <ele>42</ele>
        <time>2013-09-26T15:25:47Z</time>
      </trkpt>
      <trkpt lat="48.43926" lon="2.67626">
        <ele>42</ele>
        <time>2013-09-26T15:25:49Z</time>
      </trkpt>
      <trkpt lat="48.43926" lon="2.67623">
        <ele>42</ele>
        <time>2013-09-26T15:25:52Z</time>
      </trkpt>
      <trkpt lat="48.43925" lon="2.67623">
        <ele>42</ele>
        <time>2013-09-26T15:25:56Z</time>
      </trkpt>
      <trkpt lat="48.43924" lon="2.67625">
        <ele>42</ele>
        <time>2013-09-26T15:25:57Z</time>
      </trkpt>
      <trkpt lat="48.43923" lon="2.6763">
        <ele>42</ele>
        <time>2013-09-26T15:25:59Z</time>
      </trkpt>
      <trkpt lat="48.43923" lon="2.67633">
        <ele>42</ele>
        <time>2013-09-26T15:26:00Z</time>
      </trkpt>
      <trkpt lat="48.43923" lon="2.67637">
        <ele>42</ele>
        <time>2013-09-26T15:26:01Z</time>
      </trkpt>
      <trkpt lat="48.43922" lon="2.6764">
        <ele>42</ele>
        <time>2013-09-26T15:26:02Z</time>
      </trkpt>
      <trkpt lat="48.43921" lon="2.67643">
        <ele>42</ele>
        <time>2013-09-26T15:26:03Z</time>
      </trkpt>
      <trkpt lat="48.43921" lon="2.67646">
        <ele>42</ele>
        <time>2013-09-26T15:26:04Z</time>
      </trkpt>
      <trkpt lat="48.4392" lon="2.67649">
        <ele>42</ele>
        <time>2013-09-26T15:26:05Z</time>
      </trkpt>
      <trkpt lat="48.4392" lon="2.67652">
        <ele>42</ele>
        <time>2013-09-26T15:26:06Z</time>
      </trkpt>
      <trkpt lat="48.4392" lon="2.6766">
        <ele>42</ele>
        <time>2013-09-26T15:26:08Z</time>
      </trkpt>
      <trkpt lat="48.43919" lon="2.67664">
        <ele>42</ele>
        <time>2013-09-26T15:26:09Z</time>
      </trkpt>
      <trkpt lat="48.43919" lon="2.67671">
        <ele>42</ele>
        <time>2013-09-26T15:26:11Z</time>
      </trkpt>
      <trkpt lat="48.43918" lon="2.67675">
        <ele>42</ele>
        <time>2013-09-26T15:26:12Z</time>
      </trkpt>
      <trkpt lat="48.43919" lon="2.67688">
        <ele>42</ele>
        <time>2013-09-26T15:26:15Z</time>
      </trkpt>
      <trkpt lat="48.43918" lon="2.67693">
        <ele>41.4</ele>
        <time>2013-09-26T15:26:16Z</time>
      </trkpt>
      <trkpt lat="48.43918" lon="2.67703">
        <ele>41</ele>
        <time>2013-09-26T15:26:18Z</time>
      </trkpt>
      <trkpt lat="48.43918" lon="2.67707">
        <ele>41</ele>
        <time>2013-09-26T15:26:19Z</time>
      </trkpt>
      <trkpt lat="48.43918" lon="2.67715">
        <ele>41</ele>
        <time>2013-09-26T15:26:21Z</time>
      </trkpt>
      <trkpt lat="48.43917" lon="2.67723">
        <ele>41</ele>
        <time>2013-09-26T15:26:23Z</time>
      </trkpt>
      <trkpt lat="48.43917" lon="2.67731">
        <ele>41</ele>
        <time>2013-09-26T15:26:25Z</time>
      </trkpt>
      <trkpt lat="48.43917" lon="2.6774">
        <ele>41</ele>
        <time>2013-09-26T15:26:27Z</time>
      </trkpt>
      <trkpt lat="48.43917" lon="2.67748">
        <ele>41</ele>
        <time>2013-09-26T15:26:29Z</time>
      </trkpt>
      <trkpt lat="48.43917" lon="2.67753">
        <ele>41</ele>
        <time>2013-09-26T15:26:30Z</time>
      </trkpt>
      <trkpt lat="48.43916" lon="2.67757">
        <ele>41</ele>
        <time>2013-09-26T15:26:31Z</time>
      </trkpt>
      <trkpt lat="48.43916" lon="2.67762">
        <ele>41</ele>
        <time>2013-09-26T15:26:32Z</time>
      </trkpt>
      <trkpt lat="48.43916" lon="2.67766">
        <ele>41</ele>
        <time>2013-09-26T15:26:33Z</time>
      </trkpt>
      <trkpt lat="48.43916" lon="2.67771">
        <ele>41</ele>
        <time>2013-09-26T15:26:34Z</time>
      </trkpt>
      <trkpt lat="48.43915" lon="2.67779">
        <ele>41</ele>
        <time>2013-09-26T15:26:36Z</time>
      </trkpt>
      <trkpt lat="48.43915" lon="2.67784">
        <ele>41</ele>
        <time>2013-09-26T15:26:37Z</time>
      </trkpt>
      <trkpt lat="48.43915" lon="2.67788">
        <ele>41</ele>
        <time>2013-09-26T15:26:38Z</time>
      </trkpt>
      <trkpt lat="48.43915" lon="2.67796">
        <ele>41</ele>
        <time>2013-09-26T15:26:40Z</time>
      </trkpt>
      <trkpt lat="48.43914" lon="2.67805">
        <ele>41</ele>
        <time>2013-09-26T15:26:42Z</time>
      </trkpt>
      <trkpt lat="48.43913" lon="2.67815">
        <ele>41</ele>
        <time>2013-09-26T15:26:44Z</time>
      </trkpt>
      <trkpt lat="48.43913" lon="2.6782">
        <ele>41</ele>
        <time>2013-09-26T15:26:45Z</time>
      </trkpt>
      <trkpt lat="48.43914" lon="2.67825">
        <ele>41.6</ele>
        <time>2013-09-26T15:26:46Z</time>
      </trkpt>
      <trkpt lat="48.43914" lon="2.67836">
        <ele>42</ele>
        <time>2013-09-26T15:26:48Z</time>
      </trkpt>
      <trkpt lat="48.43913" lon="2.67848">
        <ele>42</ele>
        <time>2013-09-26T15:26:50Z</time>
      </trkpt>
      <trkpt lat="48.43913" lon="2.67854">
        <ele>42</ele>
        <time>2013-09-26T15:26:51Z</time>
      </trkpt>
      <trkpt lat="48.43913" lon="2.67861">
        <ele>42</ele>
        <time>2013-09-26T15:26:52Z</time>
      </trkpt>
      <trkpt lat="48.43912" lon="2.67874">
        <ele>42</ele>
        <time>2013-09-26T15:26:54Z</time>
      </trkpt>
      <trkpt lat="48.43911" lon="2.67892">
        <ele>41</ele>
        <time>2013-09-26T15:26:57Z</time>
      </trkpt>
      <trkpt lat="48.43911" lon="2.67897">
        <ele>41</ele>
        <time>2013-09-26T15:26:58Z</time>
      </trkpt>
      <trkpt lat="48.4391" lon="2.67909">
        <ele>41</ele>
        <time>2013-09-26T15:27:00Z</time>
      </trkpt>
      <trkpt lat="48.43909" lon="2.67921">
        <ele>41</ele>
        <time>2013-09-26T15:27:02Z</time>
      </trkpt>
      <trkpt lat="48.43909" lon="2.67926">
        <ele>41</ele>
        <time>2013-09-26T15:27:03Z</time>
      </trkpt>
      <trkpt lat="48.4391" lon="2.67939">
        <ele>41</ele>
        <time>2013-09-26T15:27:05Z</time>
      </trkpt>
      <trkpt lat="48.4391" lon="2.67945">
        <ele>41</ele>
        <time>2013-09-26T15:27:06Z</time>
      </trkpt>
      <trkpt lat="48.4391" lon="2.67951">
        <ele>41</ele>
        <time>2013-09-26T15:27:07Z</time>
      </trkpt>
      <trkpt lat="48.43909" lon="2.67968">
        <ele>41</ele>
        <time>2013-09-26T15:27:10Z</time>
      </trkpt>
      <trkpt lat="48.43908" lon="2.67973">
        <ele>41</ele>
        <time>2013-09-26T15:27:11Z</time>
      </trkpt>
      <trkpt lat="48.43907" lon="2.67983">
        <ele>41</ele>
        <time>2013-09-26T15:27:13Z</time>
      </trkpt>
      <trkpt lat="48.43907" lon="2.67988">
        <ele>41</ele>
        <time>2013-09-26T15:27:14Z</time>
      </trkpt>
      <trkpt lat="48.43907" lon="2.67999">
        <ele>41</ele>
        <time>2013-09-26T15:27:16Z</time>
      </trkpt>
      <trkpt lat="48.43906" lon="2.68015">
        <ele>41</ele>
        <time>2013-09-26T15:27:19Z</time>
      </trkpt>
      <trkpt lat="48.43907" lon="2.68027">
        <ele>41</ele>
        <time>2013-09-26T15:27:21Z</time>
      </trkpt>
      <trkpt lat="48.43906" lon="2.68033">
        <ele>41</ele>
        <time>2013-09-26T15:27:22Z</time>
      </trkpt>
      <trkpt lat="48.43907" lon="2.68041">
        <ele>41</ele>
        <time>2013-09-26T15:27:23Z</time>
      </trkpt>
      <trkpt lat="48.43906" lon="2.68057">
        <ele>41</ele>
        <time>2013-09-26T15:27:25Z</time>
      </trkpt>
      <trkpt lat="48.43906" lon="2.68073">
        <ele>41</ele>
        <time>2013-09-26T15:27:27Z</time>
      </trkpt>
      <trkpt lat="48.43906" lon="2.6808">
        <ele>41</ele>
        <time>2013-09-26T15:27:28Z</time>
      </trkpt>
      <trkpt lat="48.43904" lon="2.68096">
        <ele>41</ele>
        <time>2013-09-26T15:27:30Z</time>
      </trkpt>
      <trkpt lat="48.43902" lon="2.68112">
        <ele>41</ele>
        <time>2013-09-26T15:27:32Z</time>
      </trkpt>
      <trkpt lat="48.43901" lon="2.6812">
        <ele>41</ele>
        <time>2013-09-26T15:27:33Z</time>
      </trkpt>
      <trkpt lat="48.43898" lon="2.68135">
        <ele>41</ele>
        <time>2013-09-26T15:27:35Z</time>
      </trkpt>
      <trkpt lat="48.43895" lon="2.68149">
        <ele>40</ele>
        <time>2013-09-26T15:27:37Z</time>
      </trkpt>
      <trkpt lat="48.43893" lon="2.68163">
        <ele>40</ele>
        <time>2013-09-26T15:27:39Z</time>
      </trkpt>
      <trkpt lat="48.43893" lon="2.6817">
        <ele>40</ele>
        <time>2013-09-26T15:27:40Z</time>
      </trkpt>
      <trkpt lat="48.43892" lon="2.68184">
        <ele>40</ele>
        <time>2013-09-26T15:27:42Z</time>
      </trkpt>
      <trkpt lat="48.4389" lon="2.68197">
        <ele>40</ele>
        <time>2013-09-26T15:27:44Z</time>
      </trkpt>
      <trkpt lat="48.43889" lon="2.68211">
        <ele>40</ele>
        <time>2013-09-26T15:27:46Z</time>
      </trkpt>
      <trkpt lat="48.43887" lon="2.68219">
        <ele>40</ele>
        <time>2013-09-26T15:27:47Z</time>
      </trkpt>
      <trkpt lat="48.43887" lon="2.68227">
        <ele>40</ele>
        <time>2013-09-26T15:27:48Z</time>
      </trkpt>
      <trkpt lat="48.43887" lon="2.68236">
        <ele>40</ele>
        <time>2013-09-26T15:27:49Z</time>
      </trkpt>
      <trkpt lat="48.43885" lon="2.68251">
        <ele>40</ele>
        <time>2013-09-26T15:27:51Z</time>
      </trkpt>
      <trkpt lat="48.43885" lon="2.68259">
        <ele>40</ele>
        <time>2013-09-26T15:27:52Z</time>
      </trkpt>
      <trkpt lat="48.43884" lon="2.68274">
        <ele>40</ele>
        <time>2013-09-26T15:27:54Z</time>
      </trkpt>
      <trkpt lat="48.43882" lon="2.68288">
        <ele>39.3</ele>
        <time>2013-09-26T15:27:56Z</time>
      </trkpt>
      <trkpt lat="48.43881" lon="2.68301">
        <ele>39</ele>
        <time>2013-09-26T15:27:58Z</time>
      </trkpt>
      <trkpt lat="48.43878" lon="2.68321">
        <ele>39</ele>
        <time>2013-09-26T15:28:01Z</time>
      </trkpt>
      <trkpt lat="48.43876" lon="2.68334">
        <ele>39</ele>
        <time>2013-09-26T15:28:03Z</time>
      </trkpt>
      <trkpt lat="48.43875" lon="2.68341">
        <ele>39</ele>
        <time>2013-09-26T15:28:04Z</time>
      </trkpt>
      <trkpt lat="48.43874" lon="2.68354">
        <ele>38.4</ele>
        <time>2013-09-26T15:28:06Z</time>
      </trkpt>
      <trkpt lat="48.43873" lon="2.68367">
        <ele>38</ele>
        <time>2013-09-26T15:28:08Z</time>
      </trkpt>
      <trkpt lat="48.43872" lon="2.6838">
        <ele>38</ele>
        <time>2013-09-26T15:28:10Z</time>
      </trkpt>
      <trkpt lat="48.43871" lon="2.68393">
        <ele>38</ele>
        <time>2013-09-26T15:28:12Z</time>
      </trkpt>
      <trkpt lat="48.43869" lon="2.68406">
        <ele>38</ele>
        <time>2013-09-26T15:28:14Z</time>
      </trkpt>
      <trkpt lat="48.43869" lon="2.68412">
        <ele>38</ele>
        <time>2013-09-26T15:28:15Z</time>
      </trkpt>
      <trkpt lat="48.43867" lon="2.68423">
        <ele>38</ele>
        <time>2013-09-26T15:28:17Z</time>
      </trkpt>
      <trkpt lat="48.43863" lon="2.68433">
        <ele>38</ele>
        <time>2013-09-26T15:28:19Z</time>
      </trkpt>
      <trkpt lat="48.4386" lon="2.68444">
        <ele>38</ele>
        <time>2013-09-26T15:28:21Z</time>
      </trkpt>
      <trkpt lat="48.43857" lon="2.68457">
        <ele>38</ele>
        <time>2013-09-26T15:28:23Z</time>
      </trkpt>
      <trkpt lat="48.43856" lon="2.68464">
        <ele>38</ele>
        <time>2013-09-26T15:28:24Z</time>
      </trkpt>
      <trkpt lat="48.43855" lon="2.68478">
        <ele>38</ele>
        <time>2013-09-26T15:28:26Z</time>
      </trkpt>
      <trkpt lat="48.43854" lon="2.68484">
        <ele>38</ele>
        <time>2013-09-26T15:28:27Z</time>
      </trkpt>
      <trkpt lat="48.43855" lon="2.68496">
        <ele>38</ele>
        <time>2013-09-26T15:28:29Z</time>
      </trkpt>
      <trkpt lat="48.43856" lon="2.68502">
        <ele>38</ele>
        <time>2013-09-26T15:28:30Z</time>
      </trkpt>
      <trkpt lat="48.43857" lon="2.68508">
        <ele>38</ele>
        <time>2013-09-26T15:28:31Z</time>
      </trkpt>
      <trkpt lat="48.43858" lon="2.68514">
        <ele>38</ele>
        <time>2013-09-26T15:28:32Z</time>
      </trkpt>
      <trkpt lat="48.43859" lon="2.6852">
        <ele>38</ele>
        <time>2013-09-26T15:28:33Z</time>
      </trkpt>
      <trkpt lat="48.43862" lon="2.68532">
        <ele>38</ele>
        <time>2013-09-26T15:28:35Z</time>
      </trkpt>
      <trkpt lat="48.43864" lon="2.68544">
        <ele>37</ele>
        <time>2013-09-26T15:28:37Z</time>
      </trkpt>
      <trkpt lat="48.43866" lon="2.68563">
        <ele>37</ele>
        <time>2013-09-26T15:28:40Z</time>
      </trkpt>
      <trkpt lat="48.43867" lon="2.68576">
        <ele>37</ele>
        <time>2013-09-26T15:28:42Z</time>
      </trkpt>
      <trkpt lat="48.43867" lon="2.68587">
        <ele>37</ele>
        <time>2013-09-26T15:28:44Z</time>
      </trkpt>
      <trkpt lat="48.43866" lon="2.68597">
        <ele>37</ele>
        <time>2013-09-26T15:28:46Z</time>
      </trkpt>
      <trkpt lat="48.43866" lon="2.68601">
        <ele>37</ele>
        <time>2013-09-26T15:28:47Z</time>
      </trkpt>
      <trkpt lat="48.43867" lon="2.68609">
        <ele>37</ele>
        <time>2013-09-26T15:28:49Z</time>
      </trkpt>
      <trkpt lat="48.43868" lon="2.68612">
        <ele>37</ele>
        <time>2013-09-26T15:28:50Z</time>
      </trkpt>
      <trkpt lat="48.43867" lon="2.6862">
        <ele>37</ele>
        <time>2013-09-26T15:28:52Z</time>
      </trkpt>
      <trkpt lat="48.43867" lon="2.68628">
        <ele>37</ele>
        <time>2013-09-26T15:28:54Z</time>
      </trkpt>
      <trkpt lat="48.43866" lon="2.68634">
        <ele>37</ele>
        <time>2013-09-26T15:28:56Z</time>
      </trkpt>
      <trkpt lat="48.43866" lon="2.6864">
        <ele>37</ele>
        <time>2013-09-26T15:28:58Z</time>
      </trkpt>
      <trkpt lat="48.43865" lon="2.68644">
        <ele>37</ele>
        <time>2013-09-26T15:28:59Z</time>
      </trkpt>
      <trkpt lat="48.43864" lon="2.68648">
        <ele>37</ele>
        <time>2013-09-26T15:29:00Z</time>
      </trkpt>
      <trkpt lat="48.43864" lon="2.68652">
        <ele>37</ele>
        <time>2013-09-26T15:29:01Z</time>
      </trkpt>
      <trkpt lat="48.43865" lon="2.68656">
        <ele>37</ele>
        <time>2013-09-26T15:29:02Z</time>
      </trkpt>
      <trkpt lat="48.43866" lon="2.68665">
        <ele>37</ele>
        <time>2013-09-26T15:29:04Z</time>
      </trkpt>
      <trkpt lat="48.43866" lon="2.68671">
        <ele>36.3</ele>
        <time>2013-09-26T15:29:06Z</time>
      </trkpt>
      <trkpt lat="48.43867" lon="2.68672">
        <ele>36</ele>
        <time>2013-09-26T15:29:29Z</time>
      </trkpt>
      <trkpt lat="48.43865" lon="2.68673">
        <ele>36</ele>
        <time>2013-09-26T15:29:32Z</time>
      </trkpt>
      <trkpt lat="48.43863" lon="2.68673">
        <ele>35.3</ele>
        <time>2013-09-26T15:29:36Z</time>
      </trkpt>
      <trkpt lat="48.43864" lon="2.68674">
        <ele>35</ele>
        <time>2013-09-26T15:30:00Z</time>
      </trkpt>
      <trkpt lat="48.43864" lon="2.68675">
        <ele>37</ele>
        <time>2013-09-26T15:30:24Z</time>
      </trkpt>
      <trkpt lat="48.43865" lon="2.68673">
        <ele>36</ele>
        <time>2013-09-26T15:30:43Z</time>
      </trkpt>
      <trkpt lat="48.43864" lon="2.68675">
        <ele>36</ele>
        <time>2013-09-26T15:30:50Z</time>
      </trkpt>
      <trkpt lat="48.43863" lon="2.68673">
        <ele>36</ele>
        <time>2013-09-26T15:30:57Z</time>
      </trkpt>
      <trkpt lat="48.43863" lon="2.68673">
        <ele>37</ele>
        <time>2013-09-26T15:32:00Z</time>
      </trkpt>
      <trkpt lat="48.43865" lon="2.68675">
        <ele>35.6</ele>
        <time>2013-09-26T15:33:26Z</time>
      </trkpt>
      <trkpt lat="48.43866" lon="2.68675">
        <ele>36</ele>
        <time>2013-09-26T15:34:00Z</time>
      </trkpt>
      <trkpt lat="48.43866" lon="2.68676">
        <ele>36</ele>
        <time>2013-09-26T15:35:00Z</time>
      </trkpt>
      <trkpt lat="48.43865" lon="2.68676">
        <ele>36</ele>
        <time>2013-09-26T15:35:38Z</time>
      </trkpt>
      <trkpt lat="48.43865" lon="2.68675">
        <ele>36</ele>
        <time>2013-09-26T15:36:08Z</time>
      </trkpt>
      <trkpt lat="48.43866" lon="2.68677">
        <ele>36</ele>
        <time>2013-09-26T15:37:00Z</time>
      </trkpt>
      <trkpt lat="48.43865" lon="2.68675">
        <ele>37</ele>
        <time>2013-09-26T15:37:30Z</time>
      </trkpt>
      <trkpt lat="48.43865" lon="2.68675">
        <ele>36</ele>
        <time>2013-09-26T15:38:00Z</time>
      </trkpt>
      <trkpt lat="48.43865" lon="2.68673">
        <ele>36</ele>
        <time>2013-09-26T15:38:11Z</time>
      </trkpt>
      <trkpt lat="48.43864" lon="2.68674">
        <ele>35</ele>
        <time>2013-09-26T15:38:22Z</time>
      </trkpt>
      <trkpt lat="48.43865" lon="2.68676">
        <ele>35</ele>
        <time>2013-09-26T15:39:45Z</time>
      </trkpt>
      <trkpt lat="48.43867" lon="2.68679">
        <ele>36</ele>
        <time>2013-09-26T15:39:48Z</time>
      </trkpt>
      <trkpt lat="48.4387" lon="2.68681">
        <ele>36</ele>
        <time>2013-09-26T15:39:50Z</time>
      </trkpt>
      <trkpt lat="48.43874" lon="2.68682">
        <ele>36</ele>
        <time>2013-09-26T15:39:52Z</time>
      </trkpt>
      <trkpt lat="48.43877" lon="2.68684">
        <ele>36</ele>
        <time>2013-09-26T15:39:54Z</time>
      </trkpt>
      <trkpt lat="48.4388" lon="2.68684">
        <ele>36</ele>
        <time>2013-09-26T15:39:56Z</time>
      </trkpt>
      <trkpt lat="48.43885" lon="2.68686">
        <ele>36</ele>
        <time>2013-09-26T15:39:58Z</time>
      </trkpt>
      <trkpt lat="48.43889" lon="2.68688">
        <ele>36</ele>
        <time>2013-09-26T15:40:00Z</time>
      </trkpt>
      <trkpt lat="48.43892" lon="2.68689">
        <ele>36</ele>
        <time>2013-09-26T15:40:02Z</time>
      </trkpt>
      <trkpt lat="48.43893" lon="2.6869">
        <ele>36</ele>
        <time>2013-09-26T15:40:03Z</time>
      </trkpt>
      <trkpt lat="48.43897" lon="2.68693">
        <ele>36</ele>
        <time>2013-09-26T15:40:05Z</time>
      </trkpt>
      <trkpt lat="48.43899" lon="2.68694">
        <ele>36</ele>
        <time>2013-09-26T15:40:06Z</time>
      </trkpt>
      <trkpt lat="48.43904" lon="2.68696">
        <ele>36</ele>
        <time>2013-09-26T15:40:08Z</time>
      </trkpt>
      <trkpt lat="48.43906" lon="2.68698">
        <ele>36</ele>
        <time>2013-09-26T15:40:09Z</time>
      </trkpt>
      <trkpt lat="48.43907" lon="2.68701">
        <ele>36</ele>
        <time>2013-09-26T15:40:10Z</time>
      </trkpt>
      <trkpt lat="48.43908" lon="2.68704">
        <ele>36</ele>
        <time>2013-09-26T15:40:11Z</time>
      </trkpt>
      <trkpt lat="48.43909" lon="2.68708">
        <ele>36</ele>
        <time>2013-09-26T15:40:12Z</time>
      </trkpt>
      <trkpt lat="48.4391" lon="2.68716">
        <ele>36</ele>
        <time>2013-09-26T15:40:14Z</time>
      </trkpt>
      <trkpt lat="48.43912" lon="2.68729">
        <ele>36</ele>
        <time>2013-09-26T15:40:17Z</time>
      </trkpt>
      <trkpt lat="48.43913" lon="2.68733">
        <ele>36</ele>
        <time>2013-09-26T15:40:18Z</time>
      </trkpt>
      <trkpt lat="48.43915" lon="2.68741">
        <ele>36</ele>
        <time>2013-09-26T15:40:20Z</time>
      </trkpt>
      <trkpt lat="48.43916" lon="2.68744">
        <ele>36</ele>
        <time>2013-09-26T15:40:21Z</time>
      </trkpt>
      <trkpt lat="48.43918" lon="2.68752">
        <ele>36</ele>
        <time>2013-09-26T15:40:23Z</time>
      </trkpt>
      <trkpt lat="48.43919" lon="2.6876">
        <ele>36</ele>
        <time>2013-09-26T15:40:25Z</time>
      </trkpt>
      <trkpt lat="48.43921" lon="2.68768">
        <ele>36</ele>
        <time>2013-09-26T15:40:27Z</time>
      </trkpt>
      <trkpt lat="48.43923" lon="2.68776">
        <ele>36</ele>
        <time>2013-09-26T15:40:29Z</time>
      </trkpt>
      <trkpt lat="48.43924" lon="2.68784">
        <ele>36</ele>
        <time>2013-09-26T15:40:31Z</time>
      </trkpt>
      <trkpt lat="48.43925" lon="2.68788">
        <ele>36</ele>
        <time>2013-09-26T15:40:32Z</time>
      </trkpt>
      <trkpt lat="48.43926" lon="2.68797">
        <ele>36</ele>
        <time>2013-09-26T15:40:34Z</time>
      </trkpt>
      <trkpt lat="48.43927" lon="2.68801">
        <ele>36</ele>
        <time>2013-09-26T15:40:35Z</time>
      </trkpt>
      <trkpt lat="48.43927" lon="2.68805">
        <ele>36.6</ele>
        <time>2013-09-26T15:40:36Z</time>
      </trkpt>
      <trkpt lat="48.43928" lon="2.68809">
        <ele>37</ele>
        <time>2013-09-26T15:40:37Z</time>
      </trkpt>
      <trkpt lat="48.43928" lon="2.68818">
        <ele>37</ele>
        <time>2013-09-26T15:40:39Z</time>
      </trkpt>
      <trkpt lat="48.43929" lon="2.68826">
        <ele>37</ele>
        <time>2013-09-26T15:40:41Z</time>
      </trkpt>
      <trkpt lat="48.43929" lon="2.6883">
        <ele>37</ele>
        <time>2013-09-26T15:40:42Z</time>
      </trkpt>
      <trkpt lat="48.4393" lon="2.68837">
        <ele>37</ele>
        <time>2013-09-26T15:40:44Z</time>
      </trkpt>
      <trkpt lat="48.43931" lon="2.68841">
        <ele>37</ele>
        <time>2013-09-26T15:40:45Z</time>
      </trkpt>
      <trkpt lat="48.43933" lon="2.6885">
        <ele>37</ele>
        <time>2013-09-26T15:40:47Z</time>
      </trkpt>
      <trkpt lat="48.43934" lon="2.68855">
        <ele>37</ele>
        <time>2013-09-26T15:40:48Z</time>
      </trkpt>
      <trkpt lat="48.43935" lon="2.68859">
        <ele>37</ele>
        <time>2013-09-26T15:40:49Z</time>
      </trkpt>
      <trkpt lat="48.43936" lon="2.68867">
        <ele>37</ele>
        <time>2013-09-26T15:40:51Z</time>
      </trkpt>
      <trkpt lat="48.43938" lon="2.68875">
        <ele>37</ele>
        <time>2013-09-26T15:40:53Z</time>
      </trkpt>
      <trkpt lat="48.43939" lon="2.68884">
        <ele>37</ele>
        <time>2013-09-26T15:40:55Z</time>
      </trkpt>
      <trkpt lat="48.43941" lon="2.68893">
        <ele>37</ele>
        <time>2013-09-26T15:40:57Z</time>
      </trkpt>
      <trkpt lat="48.43942" lon="2.68898">
        <ele>37</ele>
        <time>2013-09-26T15:40:58Z</time>
      </trkpt>
      <trkpt lat="48.43943" lon="2.68909">
        <ele>37</ele>
        <time>2013-09-26T15:41:00Z</time>
      </trkpt>
      <trkpt lat="48.43943" lon="2.68913">
        <ele>37</ele>
        <time>2013-09-26T15:41:01Z</time>
      </trkpt>
      <trkpt lat="48.43943" lon="2.68923">
        <ele>37</ele>
        <time>2013-09-26T15:41:03Z</time>
      </trkpt>
      <trkpt lat="48.43943" lon="2.68929">
        <ele>37</ele>
        <time>2013-09-26T15:41:04Z</time>
      </trkpt>
      <trkpt lat="48.43943" lon="2.68939">
        <ele>37</ele>
        <time>2013-09-26T15:41:06Z</time>
      </trkpt>
      <trkpt lat="48.43943" lon="2.68948">
        <ele>37</ele>
        <time>2013-09-26T15:41:08Z</time>
      </trkpt>
      <trkpt lat="48.43942" lon="2.68952">
        <ele>37</ele>
        <time>2013-09-26T15:41:09Z</time>
      </trkpt>
      <trkpt lat="48.43942" lon="2.68956">
        <ele>37</ele>
        <time>2013-09-26T15:41:10Z</time>
      </trkpt>
      <trkpt lat="48.43942" lon="2.68959">
        <ele>37</ele>
        <time>2013-09-26T15:41:11Z</time>
      </trkpt>
      <trkpt lat="48.43943" lon="2.68963">
        <ele>37</ele>
        <time>2013-09-26T15:41:12Z</time>
      </trkpt>
      <trkpt lat="48.43943" lon="2.68969">
        <ele>37</ele>
        <time>2013-09-26T15:41:14Z</time>
      </trkpt>
      <trkpt lat="48.43943" lon="2.68972">
        <ele>37</ele>
        <time>2013-09-26T15:41:15Z</time>
      </trkpt>
      <trkpt lat="48.43943" lon="2.68978">
        <ele>37</ele>
        <time>2013-09-26T15:41:17Z</time>
      </trkpt>
      <trkpt lat="48.43942" lon="2.68981">
        <ele>37</ele>
        <time>2013-09-26T15:41:18Z</time>
      </trkpt>
      <trkpt lat="48.4394" lon="2.68987">
        <ele>37</ele>
        <time>2013-09-26T15:41:20Z</time>
      </trkpt>
      <trkpt lat="48.43939" lon="2.68989">
        <ele>37</ele>
        <time>2013-09-26T15:41:21Z</time>
      </trkpt>
      <trkpt lat="48.43938" lon="2.68991">
        <ele>37</ele>
        <time>2013-09-26T15:41:22Z</time>
      </trkpt>
      <trkpt lat="48.43935" lon="2.68994">
        <ele>37</ele>
        <time>2013-09-26T15:41:24Z</time>
      </trkpt>
      <trkpt lat="48.43934" lon="2.68995">
        <ele>37</ele>
        <time>2013-09-26T15:41:25Z</time>
      </trkpt>
      <trkpt lat="48.43931" lon="2.68995">
        <ele>37</ele>
        <time>2013-09-26T15:41:26Z</time>
      </trkpt>
      <trkpt lat="48.4393" lon="2.68993">
        <ele>37</ele>
        <time>2013-09-26T15:41:27Z</time>
      </trkpt>
      <trkpt lat="48.43928" lon="2.68991">
        <ele>37</ele>
        <time>2013-09-26T15:41:28Z</time>
      </trkpt>
      <trkpt lat="48.43926" lon="2.68989">
        <ele>37</ele>
        <time>2013-09-26T15:41:30Z</time>
      </trkpt>
      <trkpt lat="48.43924" lon="2.68992">
        <ele>37</ele>
        <time>2013-09-26T15:41:32Z</time>
      </trkpt>
      <trkpt lat="48.43925" lon="2.68995">
        <ele>37</ele>
        <time>2013-09-26T15:41:34Z</time>
      </trkpt>
      <trkpt lat="48.43927" lon="2.68995">
        <ele>37</ele>
        <time>2013-09-26T15:41:35Z</time>
      </trkpt>
      <trkpt lat="48.43931" lon="2.68995">
        <ele>37</ele>
        <time>2013-09-26T15:41:37Z</time>
      </trkpt>
      <trkpt lat="48.43933" lon="2.68995">
        <ele>37</ele>
        <time>2013-09-26T15:41:38Z</time>
      </trkpt>
      <trkpt lat="48.43936" lon="2.68996">
        <ele>37</ele>
        <time>2013-09-26T15:41:39Z</time>
      </trkpt>
      <trkpt lat="48.43939" lon="2.68998">
        <ele>37</ele>
        <time>2013-09-26T15:41:40Z</time>
      </trkpt>
      <trkpt lat="48.43941" lon="2.69">
        <ele>37</ele>
        <time>2013-09-26T15:41:41Z</time>
      </trkpt>
      <trkpt lat="48.43943" lon="2.69004">
        <ele>37</ele>
        <time>2013-09-26T15:41:42Z</time>
      </trkpt>
      <trkpt lat="48.43947" lon="2.69009">
        <ele>37</ele>
        <time>2013-09-26T15:41:44Z</time>
      </trkpt>
      <trkpt lat="48.43952" lon="2.69013">
        <ele>37</ele>
        <time>2013-09-26T15:41:46Z</time>
      </trkpt>
      <trkpt lat="48.43955" lon="2.69015">
        <ele>37</ele>
        <time>2013-09-26T15:41:47Z</time>
      </trkpt>
      <trkpt lat="48.43957" lon="2.69015">
        <ele>37</ele>
        <time>2013-09-26T15:41:48Z</time>
      </trkpt>
      <trkpt lat="48.43959" lon="2.69016">
        <ele>37</ele>
        <time>2013-09-26T15:41:49Z</time>
      </trkpt>
      <trkpt lat="48.43961" lon="2.69018">
        <ele>37</ele>
        <time>2013-09-26T15:41:50Z</time>
      </trkpt>
      <trkpt lat="48.43963" lon="2.69021">
        <ele>37</ele>
        <time>2013-09-26T15:41:52Z</time>
      </trkpt>
      <trkpt lat="48.43963" lon="2.69023">
        <ele>37</ele>
        <time>2013-09-26T15:41:53Z</time>
      </trkpt>
      <trkpt lat="48.43965" lon="2.69028">
        <ele>37</ele>
        <time>2013-09-26T15:41:56Z</time>
      </trkpt>
      <trkpt lat="48.43966" lon="2.69034">
        <ele>37</ele>
        <time>2013-09-26T15:42:01Z</time>
      </trkpt>
      <trkpt lat="48.43968" lon="2.69043">
        <ele>37</ele>
        <time>2013-09-26T15:42:03Z</time>
      </trkpt>
      <trkpt lat="48.43969" lon="2.69047">
        <ele>37</ele>
        <time>2013-09-26T15:42:04Z</time>
      </trkpt>
      <trkpt lat="48.4397" lon="2.69051">
        <ele>37</ele>
        <time>2013-09-26T15:42:05Z</time>
      </trkpt>
      <trkpt lat="48.43973" lon="2.69059">
        <ele>37</ele>
        <time>2013-09-26T15:42:07Z</time>
      </trkpt>
      <trkpt lat="48.43975" lon="2.69063">
        <ele>37</ele>
        <time>2013-09-26T15:42:08Z</time>
      </trkpt>
      <trkpt lat="48.43977" lon="2.69072">
        <ele>37</ele>
        <time>2013-09-26T15:42:10Z</time>
      </trkpt>
      <trkpt lat="48.4398" lon="2.6908">
        <ele>37</ele>
        <time>2013-09-26T15:42:12Z</time>
      </trkpt>
      <trkpt lat="48.43981" lon="2.69084">
        <ele>37</ele>
        <time>2013-09-26T15:42:13Z</time>
      </trkpt>
      <trkpt lat="48.43984" lon="2.69093">
        <ele>37</ele>
        <time>2013-09-26T15:42:15Z</time>
      </trkpt>
      <trkpt lat="48.43986" lon="2.69098">
        <ele>37</ele>
        <time>2013-09-26T15:42:16Z</time>
      </trkpt>
      <trkpt lat="48.43989" lon="2.69107">
        <ele>37</ele>
        <time>2013-09-26T15:42:18Z</time>
      </trkpt>
      <trkpt lat="48.43991" lon="2.69112">
        <ele>37</ele>
        <time>2013-09-26T15:42:19Z</time>
      </trkpt>
      <trkpt lat="48.43994" lon="2.69122">
        <ele>37</ele>
        <time>2013-09-26T15:42:21Z</time>
      </trkpt>
      <trkpt lat="48.43998" lon="2.69133">
        <ele>37</ele>
        <time>2013-09-26T15:42:23Z</time>
      </trkpt>
      <trkpt lat="48.43999" lon="2.69139">
        <ele>37</ele>
        <time>2013-09-26T15:42:24Z</time>
      </trkpt>
      <trkpt lat="48.44003" lon="2.6915">
        <ele>37</ele>
        <time>2013-09-26T15:42:26Z</time>
      </trkpt>
      <trkpt lat="48.44006" lon="2.6916">
        <ele>37</ele>
        <time>2013-09-26T15:42:28Z</time>
      </trkpt>
      <trkpt lat="48.44008" lon="2.69165">
        <ele>37</ele>
        <time>2013-09-26T15:42:29Z</time>
      </trkpt>
      <trkpt lat="48.44011" lon="2.69175">
        <ele>37</ele>
        <time>2013-09-26T15:42:31Z</time>
      </trkpt>
      <trkpt lat="48.44014" lon="2.69186">
        <ele>37</ele>
        <time>2013-09-26T15:42:33Z</time>
      </trkpt>
      <trkpt lat="48.44016" lon="2.69191">
        <ele>37</ele>
        <time>2013-09-26T15:42:34Z</time>
      </trkpt>
      <trkpt lat="48.4402" lon="2.69201">
        <ele>37</ele>
        <time>2013-09-26T15:42:36Z</time>
      </trkpt>
      <trkpt lat="48.44023" lon="2.6921">
        <ele>37</ele>
        <time>2013-09-26T15:42:38Z</time>
      </trkpt>
      <trkpt lat="48.44025" lon="2.69214">
        <ele>37</ele>
        <time>2013-09-26T15:42:39Z</time>
      </trkpt>
      <trkpt lat="48.44026" lon="2.69219">
        <ele>37</ele>
        <time>2013-09-26T15:42:40Z</time>
      </trkpt>
      <trkpt lat="48.44029" lon="2.69229">
        <ele>37</ele>
        <time>2013-09-26T15:42:42Z</time>
      </trkpt>
      <trkpt lat="48.4403" lon="2.69233">
        <ele>37</ele>
        <time>2013-09-26T15:42:43Z</time>
      </trkpt>
      <trkpt lat="48.44033" lon="2.69243">
        <ele>37</ele>
        <time>2013-09-26T15:42:45Z</time>
      </trkpt>
      <trkpt lat="48.44034" lon="2.69247">
        <ele>37</ele>
        <time>2013-09-26T15:42:46Z</time>
      </trkpt>
      <trkpt lat="48.44037" lon="2.69257">
        <ele>37</ele>
        <time>2013-09-26T15:42:48Z</time>
      </trkpt>
      <trkpt lat="48.44039" lon="2.69267">
        <ele>37</ele>
        <time>2013-09-26T15:42:50Z</time>
      </trkpt>
      <trkpt lat="48.44042" lon="2.69277">
        <ele>37</ele>
        <time>2013-09-26T15:42:52Z</time>
      </trkpt>
      <trkpt lat="48.44043" lon="2.69282">
        <ele>37</ele>
        <time>2013-09-26T15:42:53Z</time>
      </trkpt>
      <trkpt lat="48.44047" lon="2.69293">
        <ele>37</ele>
        <time>2013-09-26T15:42:55Z</time>
      </trkpt>
      <trkpt lat="48.4405" lon="2.69305">
        <ele>37</ele>
        <time>2013-09-26T15:42:57Z</time>
      </trkpt>
      <trkpt lat="48.44054" lon="2.69316">
        <ele>37</ele>
        <time>2013-09-26T15:42:59Z</time>
      </trkpt>
      <trkpt lat="48.44056" lon="2.69322">
        <ele>37</ele>
        <time>2013-09-26T15:43:00Z</time>
      </trkpt>
      <trkpt lat="48.44059" lon="2.69333">
        <ele>37</ele>
        <time>2013-09-26T15:43:02Z</time>
      </trkpt>
      <trkpt lat="48.44062" lon="2.69344">
        <ele>37</ele>
        <time>2013-09-26T15:43:04Z</time>
      </trkpt>
      <trkpt lat="48.44064" lon="2.6935">
        <ele>37</ele>
        <time>2013-09-26T15:43:05Z</time>
      </trkpt>
      <trkpt lat="48.44067" lon="2.69361">
        <ele>37</ele>
        <time>2013-09-26T15:43:07Z</time>
      </trkpt>
      <trkpt lat="48.44069" lon="2.69367">
        <ele>37</ele>
        <time>2013-09-26T15:43:08Z</time>
      </trkpt>
      <trkpt lat="48.44073" lon="2.69377">
        <ele>37</ele>
        <time>2013-09-26T15:43:10Z</time>
      </trkpt>
      <trkpt lat="48.44074" lon="2.69383">
        <ele>37</ele>
        <time>2013-09-26T15:43:11Z</time>
      </trkpt>
      <trkpt lat="48.44079" lon="2.69398">
        <ele>37</ele>
        <time>2013-09-26T15:43:14Z</time>
      </trkpt>
      <trkpt lat="48.44081" lon="2.69404">
        <ele>37</ele>
        <time>2013-09-26T15:43:15Z</time>
      </trkpt>
      <trkpt lat="48.44084" lon="2.69414">
        <ele>37</ele>
        <time>2013-09-26T15:43:17Z</time>
      </trkpt>
      <trkpt lat="48.44087" lon="2.69426">
        <ele>37</ele>
        <time>2013-09-26T15:43:19Z</time>
      </trkpt>
      <trkpt lat="48.44088" lon="2.69431">
        <ele>37</ele>
        <time>2013-09-26T15:43:20Z</time>
      </trkpt>
      <trkpt lat="48.44089" lon="2.69437">
        <ele>37</ele>
        <time>2013-09-26T15:43:21Z</time>
      </trkpt>
      <trkpt lat="48.44089" lon="2.69442">
        <ele>37</ele>
        <time>2013-09-26T15:43:22Z</time>
      </trkpt>
      <trkpt lat="48.44089" lon="2.69453">
        <ele>37</ele>
        <time>2013-09-26T15:43:24Z</time>
      </trkpt>
      <trkpt lat="48.44088" lon="2.69458">
        <ele>37</ele>
        <time>2013-09-26T15:43:25Z</time>
      </trkpt>
      <trkpt lat="48.44086" lon="2.6947">
        <ele>37</ele>
        <time>2013-09-26T15:43:27Z</time>
      </trkpt>
      <trkpt lat="48.44085" lon="2.69476">
        <ele>37</ele>
        <time>2013-09-26T15:43:28Z</time>
      </trkpt>
      <trkpt lat="48.44083" lon="2.69487">
        <ele>37</ele>
        <time>2013-09-26T15:43:30Z</time>
      </trkpt>
      <trkpt lat="48.44082" lon="2.69499">
        <ele>37</ele>
        <time>2013-09-26T15:43:32Z</time>
      </trkpt>
      <trkpt lat="48.4408" lon="2.6951">
        <ele>37</ele>
        <time>2013-09-26T15:43:34Z</time>
      </trkpt>
      <trkpt lat="48.4408" lon="2.69515">
        <ele>37</ele>
        <time>2013-09-26T15:43:35Z</time>
      </trkpt>
      <trkpt lat="48.44079" lon="2.69526">
        <ele>37</ele>
        <time>2013-09-26T15:43:37Z</time>
      </trkpt>
      <trkpt lat="48.44078" lon="2.69537">
        <ele>37</ele>
        <time>2013-09-26T15:43:39Z</time>
      </trkpt>
      <trkpt lat="48.44078" lon="2.69542">
        <ele>37</ele>
        <time>2013-09-26T15:43:40Z</time>
      </trkpt>
      <trkpt lat="48.44076" lon="2.69547">
        <ele>37</ele>
        <time>2013-09-26T15:43:41Z</time>
      </trkpt>
      <trkpt lat="48.44075" lon="2.69552">
        <ele>37</ele>
        <time>2013-09-26T15:43:42Z</time>
      </trkpt>
      <trkpt lat="48.44073" lon="2.69568">
        <ele>37</ele>
        <time>2013-09-26T15:43:45Z</time>
      </trkpt>
      <trkpt lat="48.44072" lon="2.69579">
        <ele>37</ele>
        <time>2013-09-26T15:43:47Z</time>
      </trkpt>
      <trkpt lat="48.44071" lon="2.69589">
        <ele>37</ele>
        <time>2013-09-26T15:43:49Z</time>
      </trkpt>
      <trkpt lat="48.44069" lon="2.69598">
        <ele>37</ele>
        <time>2013-09-26T15:43:51Z</time>
      </trkpt>
      <trkpt lat="48.44068" lon="2.69603">
        <ele>37</ele>
        <time>2013-09-26T15:43:52Z</time>
      </trkpt>
      <trkpt lat="48.44067" lon="2.69612">
        <ele>37</ele>
        <time>2013-09-26T15:43:54Z</time>
      </trkpt>
      <trkpt lat="48.44066" lon="2.69621">
        <ele>37</ele>
        <time>2013-09-26T15:43:56Z</time>
      </trkpt>
      <trkpt lat="48.44065" lon="2.69626">
        <ele>37</ele>
        <time>2013-09-26T15:43:57Z</time>
      </trkpt>
      <trkpt lat="48.44064" lon="2.69636">
        <ele>37</ele>
        <time>2013-09-26T15:43:59Z</time>
      </trkpt>
      <trkpt lat="48.44064" lon="2.6964">
        <ele>37</ele>
        <time>2013-09-26T15:44:00Z</time>
      </trkpt>
      <trkpt lat="48.44063" lon="2.6965">
        <ele>37</ele>
        <time>2013-09-26T15:44:02Z</time>
      </trkpt>
      <trkpt lat="48.44061" lon="2.69659">
        <ele>37</ele>
        <time>2013-09-26T15:44:04Z</time>
      </trkpt>
      <trkpt lat="48.44061" lon="2.69665">
        <ele>37</ele>
        <time>2013-09-26T15:44:05Z</time>
      </trkpt>
      <trkpt lat="48.44059" lon="2.69675">
        <ele>37</ele>
        <time>2013-09-26T15:44:07Z</time>
      </trkpt>
      <trkpt lat="48.44058" lon="2.69685">
        <ele>37</ele>
        <time>2013-09-26T15:44:09Z</time>
      </trkpt>
      <trkpt lat="48.44057" lon="2.6969">
        <ele>37</ele>
        <time>2013-09-26T15:44:10Z</time>
      </trkpt>
      <trkpt lat="48.44057" lon="2.697">
        <ele>37</ele>
        <time>2013-09-26T15:44:12Z</time>
      </trkpt>
      <trkpt lat="48.44057" lon="2.69705">
        <ele>37</ele>
        <time>2013-09-26T15:44:13Z</time>
      </trkpt>
      <trkpt lat="48.44055" lon="2.69715">
        <ele>37</ele>
        <time>2013-09-26T15:44:15Z</time>
      </trkpt>
      <trkpt lat="48.44054" lon="2.69719">
        <ele>37</ele>
        <time>2013-09-26T15:44:16Z</time>
      </trkpt>
      <trkpt lat="48.44053" lon="2.69729">
        <ele>37</ele>
        <time>2013-09-26T15:44:18Z</time>
      </trkpt>
      <trkpt lat="48.44052" lon="2.69738">
        <ele>37</ele>
        <time>2013-09-26T15:44:20Z</time>
      </trkpt>
      <trkpt lat="48.44051" lon="2.69743">
        <ele>37</ele>
        <time>2013-09-26T15:44:21Z</time>
      </trkpt>
      <trkpt lat="48.44049" lon="2.69752">
        <ele>37</ele>
        <time>2013-09-26T15:44:23Z</time>
      </trkpt>
      <trkpt lat="48.44048" lon="2.69762">
        <ele>37</ele>
        <time>2013-09-26T15:44:25Z</time>
      </trkpt>
      <trkpt lat="48.44047" lon="2.69766">
        <ele>37</ele>
        <time>2013-09-26T15:44:26Z</time>
      </trkpt>
      <trkpt lat="48.44047" lon="2.6977">
        <ele>37</ele>
        <time>2013-09-26T15:44:27Z</time>
      </trkpt>
      <trkpt lat="48.44046" lon="2.69779">
        <ele>37</ele>
        <time>2013-09-26T15:44:29Z</time>
      </trkpt>
      <trkpt lat="48.44045" lon="2.69784">
        <ele>37</ele>
        <time>2013-09-26T15:44:30Z</time>
      </trkpt>
      <trkpt lat="48.44044" lon="2.69788">
        <ele>37</ele>
        <time>2013-09-26T15:44:31Z</time>
      </trkpt>
      <trkpt lat="48.44043" lon="2.69792">
        <ele>37</ele>
        <time>2013-09-26T15:44:32Z</time>
      </trkpt>
      <trkpt lat="48.44043" lon="2.69795">
        <ele>37</ele>
        <time>2013-09-26T15:44:33Z</time>
      </trkpt>
      <trkpt lat="48.44042" lon="2.69799">
        <ele>37</ele>
        <time>2013-09-26T15:44:34Z</time>
      </trkpt>
      <trkpt lat="48.44041" lon="2.69806">
        <ele>37</ele>
        <time>2013-09-26T15:44:36Z</time>
      </trkpt>
      <trkpt lat="48.44041" lon="2.69813">
        <ele>37</ele>
        <time>2013-09-26T15:44:38Z</time>
      </trkpt>
      <trkpt lat="48.4404" lon="2.69817">
        <ele>37</ele>
        <time>2013-09-26T15:44:39Z</time>
      </trkpt>
      <trkpt lat="48.4404" lon="2.69822">
        <ele>37</ele>
        <time>2013-09-26T15:44:41Z</time>
      </trkpt>
      <trkpt lat="48.44039" lon="2.69829">
        <ele>37</ele>
        <time>2013-09-26T15:44:43Z</time>
      </trkpt>
      <trkpt lat="48.44039" lon="2.69836">
        <ele>37</ele>
        <time>2013-09-26T15:44:45Z</time>
      </trkpt>
      <trkpt lat="48.44039" lon="2.69839">
        <ele>37</ele>
        <time>2013-09-26T15:44:46Z</time>
      </trkpt>
      <trkpt lat="48.44038" lon="2.69845">
        <ele>37</ele>
        <time>2013-09-26T15:44:48Z</time>
      </trkpt>
      <trkpt lat="48.44037" lon="2.69848">
        <ele>37</ele>
        <time>2013-09-26T15:44:49Z</time>
      </trkpt>
      <trkpt lat="48.44037" lon="2.69853">
        <ele>37</ele>
        <time>2013-09-26T15:44:51Z</time>
      </trkpt>
      <trkpt lat="48.44036" lon="2.69855">
        <ele>37</ele>
        <time>2013-09-26T15:44:52Z</time>
      </trkpt>
      <trkpt lat="48.44036" lon="2.69861">
        <ele>37</ele>
        <time>2013-09-26T15:44:54Z</time>
      </trkpt>
      <trkpt lat="48.44034" lon="2.69867">
        <ele>37</ele>
        <time>2013-09-26T15:44:56Z</time>
      </trkpt>
      <trkpt lat="48.44034" lon="2.69871">
        <ele>37</ele>
        <time>2013-09-26T15:44:57Z</time>
      </trkpt>
      <trkpt lat="48.44033" lon="2.69875">
        <ele>37</ele>
        <time>2013-09-26T15:44:58Z</time>
      </trkpt>
      <trkpt lat="48.44033" lon="2.69879">
        <ele>37</ele>
        <time>2013-09-26T15:44:59Z</time>
      </trkpt>
      <trkpt lat="48.44032" lon="2.69888">
        <ele>37</ele>
        <time>2013-09-26T15:45:01Z</time>
      </trkpt>
      <trkpt lat="48.44031" lon="2.69892">
        <ele>37</ele>
        <time>2013-09-26T15:45:02Z</time>
      </trkpt>
      <trkpt lat="48.44031" lon="2.699">
        <ele>37</ele>
        <time>2013-09-26T15:45:04Z</time>
      </trkpt>
      <trkpt lat="48.44029" lon="2.69908">
        <ele>37</ele>
        <time>2013-09-26T15:45:06Z</time>
      </trkpt>
      <trkpt lat="48.44029" lon="2.69913">
        <ele>37</ele>
        <time>2013-09-26T15:45:07Z</time>
      </trkpt>
      <trkpt lat="48.44029" lon="2.69917">
        <ele>37</ele>
        <time>2013-09-26T15:45:08Z</time>
      </trkpt>
      <trkpt lat="48.44028" lon="2.69921">
        <ele>37</ele>
        <time>2013-09-26T15:45:09Z</time>
      </trkpt>
      <trkpt lat="48.44026" lon="2.69928">
        <ele>37</ele>
        <time>2013-09-26T15:45:11Z</time>
      </trkpt>
      <trkpt lat="48.44025" lon="2.69932">
        <ele>37</ele>
        <time>2013-09-26T15:45:12Z</time>
      </trkpt>
      <trkpt lat="48.44024" lon="2.69935">
        <ele>37</ele>
        <time>2013-09-26T15:45:13Z</time>
      </trkpt>
      <trkpt lat="48.44024" lon="2.69939">
        <ele>37</ele>
        <time>2013-09-26T15:45:14Z</time>
      </trkpt>
      <trkpt lat="48.44024" lon="2.69943">
        <ele>37</ele>
        <time>2013-09-26T15:45:15Z</time>
      </trkpt>
      <trkpt lat="48.44024" lon="2.69948">
        <ele>37</ele>
        <time>2013-09-26T15:45:16Z</time>
      </trkpt>
      <trkpt lat="48.44023" lon="2.69954">
        <ele>37</ele>
        <time>2013-09-26T15:45:18Z</time>
      </trkpt>
      <trkpt lat="48.44022" lon="2.69963">
        <ele>37</ele>
        <time>2013-09-26T15:45:20Z</time>
      </trkpt>
      <trkpt lat="48.44022" lon="2.69967">
        <ele>37</ele>
        <time>2013-09-26T15:45:21Z</time>
      </trkpt>
      <trkpt lat="48.4402" lon="2.69975">
        <ele>37</ele>
        <time>2013-09-26T15:45:23Z</time>
      </trkpt>
      <trkpt lat="48.4402" lon="2.69979">
        <ele>37</ele>
        <time>2013-09-26T15:45:24Z</time>
      </trkpt>
      <trkpt lat="48.44019" lon="2.69986">
        <ele>37</ele>
        <time>2013-09-26T15:45:26Z</time>
      </trkpt>
      <trkpt lat="48.44018" lon="2.69995">
        <ele>37</ele>
        <time>2013-09-26T15:45:28Z</time>
      </trkpt>
      <trkpt lat="48.44016" lon="2.70002">
        <ele>37</ele>
        <time>2013-09-26T15:45:30Z</time>
      </trkpt>
      <trkpt lat="48.44015" lon="2.70006">
        <ele>37</ele>
        <time>2013-09-26T15:45:31Z</time>
      </trkpt>
      <trkpt lat="48.44014" lon="2.70011">
        <ele>37</ele>
        <time>2013-09-26T15:45:32Z</time>
      </trkpt>
      <trkpt lat="48.44014" lon="2.70015">
        <ele>37</ele>
        <time>2013-09-26T15:45:33Z</time>
      </trkpt>
      <trkpt lat="48.44012" lon="2.70022">
        <ele>37</ele>
        <time>2013-09-26T15:45:35Z</time>
      </trkpt>
      <trkpt lat="48.44011" lon="2.7003">
        <ele>37</ele>
        <time>2013-09-26T15:45:37Z</time>
      </trkpt>
      <trkpt lat="48.44011" lon="2.70033">
        <ele>37</ele>
        <time>2013-09-26T15:45:38Z</time>
      </trkpt>
      <trkpt lat="48.44011" lon="2.70036">
        <ele>37</ele>
        <time>2013-09-26T15:45:39Z</time>
      </trkpt>
      <trkpt lat="48.4401" lon="2.70042">
        <ele>37</ele>
        <time>2013-09-26T15:45:41Z</time>
      </trkpt>
      <trkpt lat="48.4401" lon="2.70045">
        <ele>37</ele>
        <time>2013-09-26T15:45:42Z</time>
      </trkpt>
      <trkpt lat="48.44009" lon="2.70048">
        <ele>37</ele>
        <time>2013-09-26T15:45:43Z</time>
      </trkpt>
      <trkpt lat="48.44009" lon="2.70051">
        <ele>37</ele>
        <time>2013-09-26T15:45:44Z</time>
      </trkpt>
      <trkpt lat="48.44009" lon="2.70054">
        <ele>37</ele>
        <time>2013-09-26T15:45:45Z</time>
      </trkpt>
      <trkpt lat="48.44009" lon="2.7006">
        <ele>42</ele>
        <time>2013-09-26T15:45:47Z</time>
      </trkpt>
      <trkpt lat="48.44008" lon="2.70063">
        <ele>42</ele>
        <time>2013-09-26T15:45:48Z</time>
      </trkpt>
      <trkpt lat="48.44008" lon="2.70067">
        <ele>42</ele>
        <time>2013-09-26T15:45:49Z</time>
      </trkpt>
      <trkpt lat="48.44008" lon="2.7007">
        <ele>42</ele>
        <time>2013-09-26T15:45:50Z</time>
      </trkpt>
      <trkpt lat="48.44007" lon="2.70074">
        <ele>42</ele>
        <time>2013-09-26T15:45:51Z</time>
      </trkpt>
      <trkpt lat="48.44007" lon="2.70077">
        <ele>42</ele>
        <time>2013-09-26T15:45:52Z</time>
      </trkpt>
      <trkpt lat="48.44007" lon="2.70081">
        <ele>42</ele>
        <time>2013-09-26T15:45:53Z</time>
      </trkpt>
      <trkpt lat="48.44006" lon="2.70087">
        <ele>42</ele>
        <time>2013-09-26T15:45:55Z</time>
      </trkpt>
      <trkpt lat="48.44006" lon="2.70093">
        <ele>43</ele>
        <time>2013-09-26T15:45:57Z</time>
      </trkpt>
      <trkpt lat="48.44005" lon="2.701">
        <ele>43</ele>
        <time>2013-09-26T15:45:59Z</time>
      </trkpt>
      <trkpt lat="48.44005" lon="2.70103">
        <ele>43</ele>
        <time>2013-09-26T15:46:00Z</time>
      </trkpt>
      <trkpt lat="48.44005" lon="2.70106">
        <ele>43</ele>
        <time>2013-09-26T15:46:01Z</time>
      </trkpt>
      <trkpt lat="48.44003" lon="2.70112">
        <ele>43</ele>
        <time>2013-09-26T15:46:03Z</time>
      </trkpt>
      <trkpt lat="48.44003" lon="2.70116">
        <ele>43</ele>
        <time>2013-09-26T15:46:04Z</time>
      </trkpt>
      <trkpt lat="48.44003" lon="2.70118">
        <ele>43</ele>
        <time>2013-09-26T15:46:05Z</time>
      </trkpt>
      <trkpt lat="48.44002" lon="2.70122">
        <ele>43.7</ele>
        <time>2013-09-26T15:46:06Z</time>
      </trkpt>
      <trkpt lat="48.44002" lon="2.70125">
        <ele>44</ele>
        <time>2013-09-26T15:46:07Z</time>
      </trkpt>
      <trkpt lat="48.44001" lon="2.70133">
        <ele>44</ele>
        <time>2013-09-26T15:46:09Z</time>
      </trkpt>
      <trkpt lat="48.44" lon="2.70136">
        <ele>44</ele>
        <time>2013-09-26T15:46:10Z</time>
      </trkpt>
      <trkpt lat="48.43999" lon="2.70141">
        <ele>44</ele>
        <time>2013-09-26T15:46:12Z</time>
      </trkpt>
      <trkpt lat="48.43999" lon="2.70144">
        <ele>44</ele>
        <time>2013-09-26T15:46:13Z</time>
      </trkpt>
      <trkpt lat="48.43999" lon="2.70151">
        <ele>44</ele>
        <time>2013-09-26T15:46:15Z</time>
      </trkpt>
      <trkpt lat="48.43998" lon="2.70153">
        <ele>44.7</ele>
        <time>2013-09-26T15:46:16Z</time>
      </trkpt>
      <trkpt lat="48.43998" lon="2.70159">
        <ele>45</ele>
        <time>2013-09-26T15:46:18Z</time>
      </trkpt>
      <trkpt lat="48.43998" lon="2.70161">
        <ele>45</ele>
        <time>2013-09-26T15:46:19Z</time>
      </trkpt>
      <trkpt lat="48.43996" lon="2.70164">
        <ele>45</ele>
        <time>2013-09-26T15:46:20Z</time>
      </trkpt>
      <trkpt lat="48.43995" lon="2.7017">
        <ele>45</ele>
        <time>2013-09-26T15:46:22Z</time>
      </trkpt>
      <trkpt lat="48.43994" lon="2.70177">
        <ele>45</ele>
        <time>2013-09-26T15:46:24Z</time>
      </trkpt>
      <trkpt lat="48.43993" lon="2.7018">
        <ele>45</ele>
        <time>2013-09-26T15:46:25Z</time>
      </trkpt>
      <trkpt lat="48.43992" lon="2.70182">
        <ele>45</ele>
        <time>2013-09-26T15:46:26Z</time>
      </trkpt>
      <trkpt lat="48.43991" lon="2.70185">
        <ele>45</ele>
        <time>2013-09-26T15:46:27Z</time>
      </trkpt>
      <trkpt lat="48.4399" lon="2.70188">
        <ele>45</ele>
        <time>2013-09-26T15:46:28Z</time>
      </trkpt>
      <trkpt lat="48.43989" lon="2.70191">
        <ele>45</ele>
        <time>2013-09-26T15:46:29Z</time>
      </trkpt>
      <trkpt lat="48.43988" lon="2.70193">
        <ele>45</ele>
        <time>2013-09-26T15:46:30Z</time>
      </trkpt>
      <trkpt lat="48.43988" lon="2.70196">
        <ele>45</ele>
        <time>2013-09-26T15:46:31Z</time>
      </trkpt>
      <trkpt lat="48.43987" lon="2.70202">
        <ele>45</ele>
        <time>2013-09-26T15:46:33Z</time>
      </trkpt>
      <trkpt lat="48.43987" lon="2.70205">
        <ele>45</ele>
        <time>2013-09-26T15:46:34Z</time>
      </trkpt>
      <trkpt lat="48.43987" lon="2.70211">
        <ele>45</ele>
        <time>2013-09-26T15:46:36Z</time>
      </trkpt>
      <trkpt lat="48.43987" lon="2.70214">
        <ele>45</ele>
        <time>2013-09-26T15:46:37Z</time>
      </trkpt>
      <trkpt lat="48.43986" lon="2.7022">
        <ele>45</ele>
        <time>2013-09-26T15:46:39Z</time>
      </trkpt>
      <trkpt lat="48.43986" lon="2.70222">
        <ele>45</ele>
        <time>2013-09-26T15:46:40Z</time>
      </trkpt>
      <trkpt lat="48.43985" lon="2.70228">
        <ele>45</ele>
        <time>2013-09-26T15:46:42Z</time>
      </trkpt>
      <trkpt lat="48.43984" lon="2.70234">
        <ele>45</ele>
        <time>2013-09-26T15:46:44Z</time>
      </trkpt>
      <trkpt lat="48.43984" lon="2.70237">
        <ele>45</ele>
        <time>2013-09-26T15:46:45Z</time>
      </trkpt>
      <trkpt lat="48.43984" lon="2.7024">
        <ele>46.4</ele>
        <time>2013-09-26T15:46:46Z</time>
      </trkpt>
      <trkpt lat="48.43985" lon="2.70243">
        <ele>47</ele>
        <time>2013-09-26T15:46:47Z</time>
      </trkpt>
      <trkpt lat="48.43985" lon="2.70246">
        <ele>47</ele>
        <time>2013-09-26T15:46:48Z</time>
      </trkpt>
      <trkpt lat="48.43984" lon="2.70249">
        <ele>47</ele>
        <time>2013-09-26T15:46:49Z</time>
      </trkpt>
      <trkpt lat="48.43984" lon="2.70255">
        <ele>47</ele>
        <time>2013-09-26T15:46:51Z</time>
      </trkpt>
      <trkpt lat="48.43984" lon="2.70257">
        <ele>47</ele>
        <time>2013-09-26T15:46:52Z</time>
      </trkpt>
      <trkpt lat="48.43984" lon="2.70262">
        <ele>47</ele>
        <time>2013-09-26T15:46:54Z</time>
      </trkpt>
      <trkpt lat="48.43984" lon="2.70268">
        <ele>47</ele>
        <time>2013-09-26T15:46:56Z</time>
      </trkpt>
      <trkpt lat="48.43982" lon="2.70273">
        <ele>47</ele>
        <time>2013-09-26T15:46:58Z</time>
      </trkpt>
      <trkpt lat="48.43981" lon="2.70276">
        <ele>47</ele>
        <time>2013-09-26T15:46:59Z</time>
      </trkpt>
      <trkpt lat="48.4398" lon="2.70279">
        <ele>47</ele>
        <time>2013-09-26T15:47:00Z</time>
      </trkpt>
      <trkpt lat="48.43979" lon="2.70281">
        <ele>47</ele>
        <time>2013-09-26T15:47:01Z</time>
      </trkpt>
      <trkpt lat="48.43978" lon="2.70286">
        <ele>47</ele>
        <time>2013-09-26T15:47:03Z</time>
      </trkpt>
      <trkpt lat="48.43978" lon="2.70289">
        <ele>47</ele>
        <time>2013-09-26T15:47:04Z</time>
      </trkpt>
      <trkpt lat="48.43977" lon="2.70292">
        <ele>47</ele>
        <time>2013-09-26T15:47:05Z</time>
      </trkpt>
      <trkpt lat="48.43975" lon="2.70295">
        <ele>47.7</ele>
        <time>2013-09-26T15:47:06Z</time>
      </trkpt>
      <trkpt lat="48.43974" lon="2.70298">
        <ele>48</ele>
        <time>2013-09-26T15:47:07Z</time>
      </trkpt>
      <trkpt lat="48.43972" lon="2.70303">
        <ele>48</ele>
        <time>2013-09-26T15:47:09Z</time>
      </trkpt>
      <trkpt lat="48.43971" lon="2.70303">
        <ele>48</ele>
        <time>2013-09-26T15:47:10Z</time>
      </trkpt>
      <trkpt lat="48.43969" lon="2.70306">
        <ele>48</ele>
        <time>2013-09-26T15:47:12Z</time>
      </trkpt>
      <trkpt lat="48.43966" lon="2.70309">
        <ele>48</ele>
        <time>2013-09-26T15:47:14Z</time>
      </trkpt>
      <trkpt lat="48.43963" lon="2.70312">
        <ele>48.7</ele>
        <time>2013-09-26T15:47:16Z</time>
      </trkpt>
      <trkpt lat="48.43961" lon="2.70313">
        <ele>49</ele>
        <time>2013-09-26T15:47:17Z</time>
      </trkpt>
      <trkpt lat="48.43959" lon="2.70314">
        <ele>49</ele>
        <time>2013-09-26T15:47:18Z</time>
      </trkpt>
      <trkpt lat="48.43955" lon="2.70316">
        <ele>49</ele>
        <time>2013-09-26T15:47:20Z</time>
      </trkpt>
      <trkpt lat="48.43951" lon="2.70319">
        <ele>49</ele>
        <time>2013-09-26T15:47:22Z</time>
      </trkpt>
      <trkpt lat="48.43949" lon="2.70321">
        <ele>49</ele>
        <time>2013-09-26T15:47:23Z</time>
      </trkpt>
      <trkpt lat="48.43943" lon="2.70325">
        <ele>49</ele>
        <time>2013-09-26T15:47:26Z</time>
      </trkpt>
      <trkpt lat="48.4394" lon="2.70328">
        <ele>49</ele>
        <time>2013-09-26T15:47:28Z</time>
      </trkpt>
      <trkpt lat="48.43938" lon="2.70328">
        <ele>49</ele>
        <time>2013-09-26T15:47:29Z</time>
      </trkpt>
      <trkpt lat="48.43934" lon="2.7033">
        <ele>49</ele>
        <time>2013-09-26T15:47:31Z</time>
      </trkpt>
      <trkpt lat="48.43932" lon="2.70331">
        <ele>49</ele>
        <time>2013-09-26T15:47:32Z</time>
      </trkpt>
      <trkpt lat="48.43929" lon="2.70335">
        <ele>49</ele>
        <time>2013-09-26T15:47:34Z</time>
      </trkpt>
      <trkpt lat="48.43927" lon="2.70337">
        <ele>49</ele>
        <time>2013-09-26T15:47:35Z</time>
      </trkpt>
      <trkpt lat="48.43925" lon="2.70342">
        <ele>49</ele>
        <time>2013-09-26T15:47:37Z</time>
      </trkpt>
      <trkpt lat="48.43922" lon="2.70348">
        <ele>49</ele>
        <time>2013-09-26T15:47:39Z</time>
      </trkpt>
      <trkpt lat="48.43921" lon="2.7035">
        <ele>49</ele>
        <time>2013-09-26T15:47:40Z</time>
      </trkpt>
      <trkpt lat="48.4392" lon="2.70353">
        <ele>49</ele>
        <time>2013-09-26T15:47:41Z</time>
      </trkpt>
      <trkpt lat="48.4392" lon="2.70357">
        <ele>49</ele>
        <time>2013-09-26T15:47:42Z</time>
      </trkpt>
      <trkpt lat="48.4392" lon="2.7036">
        <ele>49</ele>
        <time>2013-09-26T15:47:43Z</time>
      </trkpt>
      <trkpt lat="48.4392" lon="2.70364">
        <ele>49</ele>
        <time>2013-09-26T15:47:44Z</time>
      </trkpt>
      <trkpt lat="48.4392" lon="2.70367">
        <ele>49</ele>
        <time>2013-09-26T15:47:45Z</time>
      </trkpt>
      <trkpt lat="48.43921" lon="2.7037">
        <ele>49</ele>
        <time>2013-09-26T15:47:46Z</time>
      </trkpt>
      <trkpt lat="48.4392" lon="2.70373">
        <ele>49</ele>
        <time>2013-09-26T15:47:47Z</time>
      </trkpt>
      <trkpt lat="48.4392" lon="2.70379">
        <ele>49</ele>
        <time>2013-09-26T15:47:49Z</time>
      </trkpt>
      <trkpt lat="48.43919" lon="2.70382">
        <ele>49</ele>
        <time>2013-09-26T15:47:50Z</time>
      </trkpt>
      <trkpt lat="48.4392" lon="2.70389">
        <ele>49</ele>
        <time>2013-09-26T15:47:52Z</time>
      </trkpt>
      <trkpt lat="48.4392" lon="2.70393">
        <ele>49</ele>
        <time>2013-09-26T15:47:53Z</time>
      </trkpt>
      <trkpt lat="48.43919" lon="2.70396">
        <ele>49</ele>
        <time>2013-09-26T15:47:54Z</time>
      </trkpt>
      <trkpt lat="48.43918" lon="2.70403">
        <ele>50.2</ele>
        <time>2013-09-26T15:47:56Z</time>
      </trkpt>
      <trkpt lat="48.43918" lon="2.7041">
        <ele>51</ele>
        <time>2013-09-26T15:47:58Z</time>
      </trkpt>
      <trkpt lat="48.43918" lon="2.70413">
        <ele>51</ele>
        <time>2013-09-26T15:47:59Z</time>
      </trkpt>
      <trkpt lat="48.43918" lon="2.70417">
        <ele>51</ele>
        <time>2013-09-26T15:48:00Z</time>
      </trkpt>
      <trkpt lat="48.43918" lon="2.70424">
        <ele>51</ele>
        <time>2013-09-26T15:48:02Z</time>
      </trkpt>
      <trkpt lat="48.43919" lon="2.70431">
        <ele>51</ele>
        <time>2013-09-26T15:48:04Z</time>
      </trkpt>
      <trkpt lat="48.43921" lon="2.70437">
        <ele>51</ele>
        <time>2013-09-26T15:48:06Z</time>
      </trkpt>
      <trkpt lat="48.43921" lon="2.7044">
        <ele>51</ele>
        <time>2013-09-26T15:48:07Z</time>
      </trkpt>
      <trkpt lat="48.43922" lon="2.70443">
        <ele>51</ele>
        <time>2013-09-26T15:48:08Z</time>
      </trkpt>
      <trkpt lat="48.43924" lon="2.7045">
        <ele>51</ele>
        <time>2013-09-26T15:48:10Z</time>
      </trkpt>
      <trkpt lat="48.43925" lon="2.70453">
        <ele>51</ele>
        <time>2013-09-26T15:48:11Z</time>
      </trkpt>
      <trkpt lat="48.43926" lon="2.70456">
        <ele>51</ele>
        <time>2013-09-26T15:48:12Z</time>
      </trkpt>
      <trkpt lat="48.43927" lon="2.7046">
        <ele>51</ele>
        <time>2013-09-26T15:48:13Z</time>
      </trkpt>
      <trkpt lat="48.43929" lon="2.70466">
        <ele>51</ele>
        <time>2013-09-26T15:48:15Z</time>
      </trkpt>
      <trkpt lat="48.4393" lon="2.70474">
        <ele>50</ele>
        <time>2013-09-26T15:48:17Z</time>
      </trkpt>
      <trkpt lat="48.43931" lon="2.70478">
        <ele>50</ele>
        <time>2013-09-26T15:48:18Z</time>
      </trkpt>
      <trkpt lat="48.43931" lon="2.70481">
        <ele>50</ele>
        <time>2013-09-26T15:48:19Z</time>
      </trkpt>
      <trkpt lat="48.4393" lon="2.70485">
        <ele>50</ele>
        <time>2013-09-26T15:48:20Z</time>
      </trkpt>
      <trkpt lat="48.4393" lon="2.70489">
        <ele>50</ele>
        <time>2013-09-26T15:48:21Z</time>
      </trkpt>
      <trkpt lat="48.4393" lon="2.70493">
        <ele>50</ele>
        <time>2013-09-26T15:48:22Z</time>
      </trkpt>
      <trkpt lat="48.43928" lon="2.705">
        <ele>50</ele>
        <time>2013-09-26T15:48:24Z</time>
      </trkpt>
      <trkpt lat="48.43928" lon="2.70504">
        <ele>50</ele>
        <time>2013-09-26T15:48:25Z</time>
      </trkpt>
      <trkpt lat="48.43928" lon="2.70507">
        <ele>50</ele>
        <time>2013-09-26T15:48:26Z</time>
      </trkpt>
      <trkpt lat="48.43927" lon="2.70511">
        <ele>50</ele>
        <time>2013-09-26T15:48:27Z</time>
      </trkpt>
      <trkpt lat="48.43927" lon="2.70518">
        <ele>50</ele>
        <time>2013-09-26T15:48:29Z</time>
      </trkpt>
      <trkpt lat="48.43926" lon="2.70521">
        <ele>50</ele>
        <time>2013-09-26T15:48:30Z</time>
      </trkpt>
      <trkpt lat="48.43925" lon="2.70524">
        <ele>50</ele>
        <time>2013-09-26T15:48:31Z</time>
      </trkpt>
      <trkpt lat="48.43924" lon="2.7053">
        <ele>50</ele>
        <time>2013-09-26T15:48:33Z</time>
      </trkpt>
      <trkpt lat="48.43924" lon="2.70533">
        <ele>50</ele>
        <time>2013-09-26T15:48:34Z</time>
      </trkpt>
      <trkpt lat="48.43923" lon="2.70538">
        <ele>50</ele>
        <time>2013-09-26T15:48:36Z</time>
      </trkpt>
      <trkpt lat="48.43923" lon="2.70541">
        <ele>50</ele>
        <time>2013-09-26T15:48:37Z</time>
      </trkpt>
      <trkpt lat="48.43922" lon="2.70546">
        <ele>50</ele>
        <time>2013-09-26T15:48:39Z</time>
      </trkpt>
      <trkpt lat="48.43921" lon="2.70549">
        <ele>50</ele>
        <time>2013-09-26T15:48:40Z</time>
      </trkpt>
      <trkpt lat="48.43921" lon="2.70552">
        <ele>50</ele>
        <time>2013-09-26T15:48:41Z</time>
      </trkpt>
      <trkpt lat="48.4392" lon="2.70555">
        <ele>50</ele>
        <time>2013-09-26T15:48:42Z</time>
      </trkpt>
      <trkpt lat="48.43919" lon="2.7056">
        <ele>50</ele>
        <time>2013-09-26T15:48:44Z</time>
      </trkpt>
      <trkpt lat="48.43918" lon="2.70564">
        <ele>50.7</ele>
        <time>2013-09-26T15:48:46Z</time>
      </trkpt>
      <trkpt lat="48.43917" lon="2.70566">
        <ele>51</ele>
        <time>2013-09-26T15:48:48Z</time>
      </trkpt>
      <trkpt lat="48.43916" lon="2.70569">
        <ele>51</ele>
        <time>2013-09-26T15:48:54Z</time>
      </trkpt>
      <trkpt lat="48.43915" lon="2.70573">
        <ele>51</ele>
        <time>2013-09-26T15:48:58Z</time>
      </trkpt>
      <trkpt lat="48.43915" lon="2.70576">
        <ele>51</ele>
        <time>2013-09-26T15:49:01Z</time>
      </trkpt>
      <trkpt lat="48.43915" lon="2.7058">
        <ele>51</ele>
        <time>2013-09-26T15:49:04Z</time>
      </trkpt>
      <trkpt lat="48.43913" lon="2.70584">
        <ele>51</ele>
        <time>2013-09-26T15:49:06Z</time>
      </trkpt>
      <trkpt lat="48.43912" lon="2.70587">
        <ele>51</ele>
        <time>2013-09-26T15:49:08Z</time>
      </trkpt>
      <trkpt lat="48.43912" lon="2.7059">
        <ele>51</ele>
        <time>2013-09-26T15:49:10Z</time>
      </trkpt>
      <trkpt lat="48.43911" lon="2.70593">
        <ele>51</ele>
        <time>2013-09-26T15:49:12Z</time>
      </trkpt>
      <trkpt lat="48.4391" lon="2.70596">
        <ele>51</ele>
        <time>2013-09-26T15:49:14Z</time>
      </trkpt>
      <trkpt lat="48.43911" lon="2.706">
        <ele>51</ele>
        <time>2013-09-26T15:49:17Z</time>
      </trkpt>
      <trkpt lat="48.4391" lon="2.70605">
        <ele>51</ele>
        <time>2013-09-26T15:49:20Z</time>
      </trkpt>
      <trkpt lat="48.4391" lon="2.70609">
        <ele>51</ele>
        <time>2013-09-26T15:49:23Z</time>
      </trkpt>
      <trkpt lat="48.4391" lon="2.70614">
        <ele>51</ele>
        <time>2013-09-26T15:49:27Z</time>
      </trkpt>
      <trkpt lat="48.43908" lon="2.70619">
        <ele>51</ele>
        <time>2013-09-26T15:49:30Z</time>
      </trkpt>
      <trkpt lat="48.43908" lon="2.70623">
        <ele>51</ele>
        <time>2013-09-26T15:49:32Z</time>
      </trkpt>
      <trkpt lat="48.43908" lon="2.70627">
        <ele>51</ele>
        <time>2013-09-26T15:49:34Z</time>
      </trkpt>
      <trkpt lat="48.43907" lon="2.7063">
        <ele>51</ele>
        <time>2013-09-26T15:49:42Z</time>
      </trkpt>
      <trkpt lat="48.43907" lon="2.70633">
        <ele>51</ele>
        <time>2013-09-26T15:49:44Z</time>
      </trkpt>
      <trkpt lat="48.43906" lon="2.70637">
        <ele>53</ele>
        <time>2013-09-26T15:49:47Z</time>
      </trkpt>
      <trkpt lat="48.43906" lon="2.7064">
        <ele>53</ele>
        <time>2013-09-26T15:49:50Z</time>
      </trkpt>
      <trkpt lat="48.43905" lon="2.70645">
        <ele>53</ele>
        <time>2013-09-26T15:49:54Z</time>
      </trkpt>
      <trkpt lat="48.43905" lon="2.7065">
        <ele>53</ele>
        <time>2013-09-26T15:49:58Z</time>
      </trkpt>
      <trkpt lat="48.43905" lon="2.70655">
        <ele>53</ele>
        <time>2013-09-26T15:50:02Z</time>
      </trkpt>
      <trkpt lat="48.43906" lon="2.70658">
        <ele>53</ele>
        <time>2013-09-26T15:50:04Z</time>
      </trkpt>
      <trkpt lat="48.43906" lon="2.70661">
        <ele>52.4</ele>
        <time>2013-09-26T15:50:06Z</time>
      </trkpt>
      <trkpt lat="48.43906" lon="2.70665">
        <ele>52</ele>
        <time>2013-09-26T15:50:08Z</time>
      </trkpt>
      <trkpt lat="48.43907" lon="2.70669">
        <ele>52</ele>
        <time>2013-09-26T15:50:11Z</time>
      </trkpt>
      <trkpt lat="48.43907" lon="2.70671">
        <ele>52</ele>
        <time>2013-09-26T15:50:13Z</time>
      </trkpt>
      <trkpt lat="48.43907" lon="2.70675">
        <ele>52.7</ele>
        <time>2013-09-26T15:50:16Z</time>
      </trkpt>
      <trkpt lat="48.43907" lon="2.70678">
        <ele>53</ele>
        <time>2013-09-26T15:50:18Z</time>
      </trkpt>
      <trkpt lat="48.43906" lon="2.7068">
        <ele>53</ele>
        <time>2013-09-26T15:50:19Z</time>
      </trkpt>
      <trkpt lat="48.43905" lon="2.70683">
        <ele>53</ele>
        <time>2013-09-26T15:50:21Z</time>
      </trkpt>
      <trkpt lat="48.43904" lon="2.70686">
        <ele>53</ele>
        <time>2013-09-26T15:50:23Z</time>
      </trkpt>
      <trkpt lat="48.43903" lon="2.70689">
        <ele>53</ele>
        <time>2013-09-26T15:50:25Z</time>
      </trkpt>
      <trkpt lat="48.439" lon="2.7069">
        <ele>54</ele>
        <time>2013-09-26T15:50:27Z</time>
      </trkpt>
      <trkpt lat="48.43899" lon="2.70694">
        <ele>54</ele>
        <time>2013-09-26T15:50:29Z</time>
      </trkpt>
      <trkpt lat="48.43898" lon="2.70697">
        <ele>54</ele>
        <time>2013-09-26T15:50:31Z</time>
      </trkpt>
      <trkpt lat="48.43897" lon="2.70699">
        <ele>54</ele>
        <time>2013-09-26T15:50:33Z</time>
      </trkpt>
      <trkpt lat="48.43895" lon="2.70703">
        <ele>54</ele>
        <time>2013-09-26T15:50:35Z</time>
      </trkpt>
      <trkpt lat="48.43893" lon="2.70703">
        <ele>54</ele>
        <time>2013-09-26T15:50:41Z</time>
      </trkpt>
      <trkpt lat="48.43891" lon="2.70707">
        <ele>54</ele>
        <time>2013-09-26T15:50:50Z</time>
      </trkpt>
      <trkpt lat="48.4389" lon="2.70712">
        <ele>54</ele>
        <time>2013-09-26T15:50:53Z</time>
      </trkpt>
      <trkpt lat="48.43888" lon="2.70716">
        <ele>54</ele>
        <time>2013-09-26T15:50:55Z</time>
      </trkpt>
      <trkpt lat="48.43887" lon="2.70718">
        <ele>54</ele>
        <time>2013-09-26T15:50:56Z</time>
      </trkpt>
      <trkpt lat="48.43885" lon="2.70721">
        <ele>54</ele>
        <time>2013-09-26T15:50:58Z</time>
      </trkpt>
      <trkpt lat="48.43882" lon="2.70729">
        <ele>54</ele>
        <time>2013-09-26T15:51:01Z</time>
      </trkpt>
      <trkpt lat="48.43881" lon="2.70732">
        <ele>54</ele>
        <time>2013-09-26T15:51:03Z</time>
      </trkpt>
      <trkpt lat="48.4388" lon="2.70737">
        <ele>54</ele>
        <time>2013-09-26T15:51:05Z</time>
      </trkpt>
      <trkpt lat="48.4388" lon="2.70742">
        <ele>56</ele>
        <time>2013-09-26T15:51:07Z</time>
      </trkpt>
      <trkpt lat="48.43879" lon="2.70745">
        <ele>56</ele>
        <time>2013-09-26T15:51:08Z</time>
      </trkpt>
      <trkpt lat="48.43879" lon="2.70751">
        <ele>56</ele>
        <time>2013-09-26T15:51:10Z</time>
      </trkpt>
      <trkpt lat="48.4388" lon="2.70754">
        <ele>56</ele>
        <time>2013-09-26T15:51:11Z</time>
      </trkpt>
      <trkpt lat="48.4388" lon="2.70759">
        <ele>56</ele>
        <time>2013-09-26T15:51:13Z</time>
      </trkpt>
      <trkpt lat="48.4388" lon="2.70765">
        <ele>56</ele>
        <time>2013-09-26T15:51:15Z</time>
      </trkpt>
      <trkpt lat="48.4388" lon="2.70768">
        <ele>56</ele>
        <time>2013-09-26T15:51:16Z</time>
      </trkpt>
      <trkpt lat="48.4388" lon="2.70772">
        <ele>56</ele>
        <time>2013-09-26T15:51:17Z</time>
      </trkpt>
      <trkpt lat="48.4388" lon="2.70777">
        <ele>56</ele>
        <time>2013-09-26T15:51:19Z</time>
      </trkpt>
      <trkpt lat="48.43878" lon="2.70782">
        <ele>56</ele>
        <time>2013-09-26T15:51:21Z</time>
      </trkpt>
      <trkpt lat="48.43878" lon="2.70785">
        <ele>56</ele>
        <time>2013-09-26T15:51:22Z</time>
      </trkpt>
      <trkpt lat="48.43877" lon="2.7079">
        <ele>56</ele>
        <time>2013-09-26T15:51:24Z</time>
      </trkpt>
      <trkpt lat="48.43877" lon="2.70793">
        <ele>56</ele>
        <time>2013-09-26T15:51:25Z</time>
      </trkpt>
      <trkpt lat="48.43877" lon="2.70796">
        <ele>56</ele>
        <time>2013-09-26T15:51:26Z</time>
      </trkpt>
      <trkpt lat="48.43876" lon="2.708">
        <ele>56</ele>
        <time>2013-09-26T15:51:28Z</time>
      </trkpt>
      <trkpt lat="48.43875" lon="2.70805">
        <ele>56</ele>
        <time>2013-09-26T15:51:30Z</time>
      </trkpt>
      <trkpt lat="48.43875" lon="2.70815">
        <ele>56</ele>
        <time>2013-09-26T15:51:33Z</time>
      </trkpt>
      <trkpt lat="48.43874" lon="2.70818">
        <ele>56</ele>
        <time>2013-09-26T15:51:34Z</time>
      </trkpt>
      <trkpt lat="48.43873" lon="2.70823">
        <ele>56.7</ele>
        <time>2013-09-26T15:51:36Z</time>
      </trkpt>
      <trkpt lat="48.43872" lon="2.70829">
        <ele>57</ele>
        <time>2013-09-26T15:51:38Z</time>
      </trkpt>
      <trkpt lat="48.43869" lon="2.70836">
        <ele>57</ele>
        <time>2013-09-26T15:51:40Z</time>
      </trkpt>
      <trkpt lat="48.43868" lon="2.7084">
        <ele>57</ele>
        <time>2013-09-26T15:51:41Z</time>
      </trkpt>
      <trkpt lat="48.43867" lon="2.70843">
        <ele>57</ele>
        <time>2013-09-26T15:51:42Z</time>
      </trkpt>
      <trkpt lat="48.43865" lon="2.70849">
        <ele>57</ele>
        <time>2013-09-26T15:51:44Z</time>
      </trkpt>
      <trkpt lat="48.43865" lon="2.70852">
        <ele>57</ele>
        <time>2013-09-26T15:51:45Z</time>
      </trkpt>
      <trkpt lat="48.43863" lon="2.70859">
        <ele>58</ele>
        <time>2013-09-26T15:51:47Z</time>
      </trkpt>
      <trkpt lat="48.43863" lon="2.70862">
        <ele>58</ele>
        <time>2013-09-26T15:51:48Z</time>
      </trkpt>
      <trkpt lat="48.43861" lon="2.7087">
        <ele>58</ele>
        <time>2013-09-26T15:51:50Z</time>
      </trkpt>
      <trkpt lat="48.43859" lon="2.70878">
        <ele>58</ele>
        <time>2013-09-26T15:51:52Z</time>
      </trkpt>
      <trkpt lat="48.43857" lon="2.70887">
        <ele>58</ele>
        <time>2013-09-26T15:51:54Z</time>
      </trkpt>
      <trkpt lat="48.43856" lon="2.70896">
        <ele>58</ele>
        <time>2013-09-26T15:51:56Z</time>
      </trkpt>
      <trkpt lat="48.43854" lon="2.70903">
        <ele>58</ele>
        <time>2013-09-26T15:51:58Z</time>
      </trkpt>
      <trkpt lat="48.43852" lon="2.70912">
        <ele>58</ele>
        <time>2013-09-26T15:52:00Z</time>
      </trkpt>
      <trkpt lat="48.4385" lon="2.70921">
        <ele>58</ele>
        <time>2013-09-26T15:52:02Z</time>
      </trkpt>
      <trkpt lat="48.4385" lon="2.70925">
        <ele>58</ele>
        <time>2013-09-26T15:52:03Z</time>
      </trkpt>
      <trkpt lat="48.43848" lon="2.70935">
        <ele>58</ele>
        <time>2013-09-26T15:52:05Z</time>
      </trkpt>
      <trkpt lat="48.43847" lon="2.7094">
        <ele>58</ele>
        <time>2013-09-26T15:52:06Z</time>
      </trkpt>
      <trkpt lat="48.43847" lon="2.70944">
        <ele>58</ele>
        <time>2013-09-26T15:52:07Z</time>
      </trkpt>
      <trkpt lat="48.43847" lon="2.70948">
        <ele>58</ele>
        <time>2013-09-26T15:52:08Z</time>
      </trkpt>
      <trkpt lat="48.43846" lon="2.70953">
        <ele>58</ele>
        <time>2013-09-26T15:52:09Z</time>
      </trkpt>
      <trkpt lat="48.43844" lon="2.70964">
        <ele>58</ele>
        <time>2013-09-26T15:52:11Z</time>
      </trkpt>
      <trkpt lat="48.43842" lon="2.70969">
        <ele>58</ele>
        <time>2013-09-26T15:52:12Z</time>
      </trkpt>
      <trkpt lat="48.43839" lon="2.70981">
        <ele>58</ele>
        <time>2013-09-26T15:52:14Z</time>
      </trkpt>
      <trkpt lat="48.43836" lon="2.70995">
        <ele>56.8</ele>
        <time>2013-09-26T15:52:16Z</time>
      </trkpt>
      <trkpt lat="48.43835" lon="2.71001">
        <ele>56</ele>
        <time>2013-09-26T15:52:17Z</time>
      </trkpt>
      <trkpt lat="48.43832" lon="2.71012">
        <ele>56</ele>
        <time>2013-09-26T15:52:19Z</time>
      </trkpt>
      <trkpt lat="48.43829" lon="2.71022">
        <ele>56</ele>
        <time>2013-09-26T15:52:21Z</time>
      </trkpt>
      <trkpt lat="48.43828" lon="2.71028">
        <ele>56</ele>
        <time>2013-09-26T15:52:22Z</time>
      </trkpt>
      <trkpt lat="48.43827" lon="2.71041">
        <ele>56</ele>
        <time>2013-09-26T15:52:24Z</time>
      </trkpt>
      <trkpt lat="48.43825" lon="2.71055">
        <ele>54.2</ele>
        <time>2013-09-26T15:52:26Z</time>
      </trkpt>
      <trkpt lat="48.43822" lon="2.7107">
        <ele>53</ele>
        <time>2013-09-26T15:52:28Z</time>
      </trkpt>
      <trkpt lat="48.43821" lon="2.71083">
        <ele>53</ele>
        <time>2013-09-26T15:52:30Z</time>
      </trkpt>
      <trkpt lat="48.43819" lon="2.71091">
        <ele>50.7</ele>
        <time>2013-09-26T15:52:31Z</time>
      </trkpt>
      <trkpt lat="48.43816" lon="2.71105">
        <ele>49</ele>
        <time>2013-09-26T15:52:33Z</time>
      </trkpt>
      <trkpt lat="48.43814" lon="2.71112">
        <ele>49</ele>
        <time>2013-09-26T15:52:34Z</time>
      </trkpt>
      <trkpt lat="48.4381" lon="2.71125">
        <ele>48.4</ele>
        <time>2013-09-26T15:52:36Z</time>
      </trkpt>
      <trkpt lat="48.43809" lon="2.71132">
        <ele>48</ele>
        <time>2013-09-26T15:52:37Z</time>
      </trkpt>
      <trkpt lat="48.43806" lon="2.71143">
        <ele>48</ele>
        <time>2013-09-26T15:52:39Z</time>
      </trkpt>
      <trkpt lat="48.43805" lon="2.71148">
        <ele>48</ele>
        <time>2013-09-26T15:52:40Z</time>
      </trkpt>
      <trkpt lat="48.43802" lon="2.71161">
        <ele>47</ele>
        <time>2013-09-26T15:52:42Z</time>
      </trkpt>
      <trkpt lat="48.43801" lon="2.71168">
        <ele>47</ele>
        <time>2013-09-26T15:52:43Z</time>
      </trkpt>
      <trkpt lat="48.43801" lon="2.71181">
        <ele>47</ele>
        <time>2013-09-26T15:52:45Z</time>
      </trkpt>
      <trkpt lat="48.438" lon="2.71187">
        <ele>46.4</ele>
        <time>2013-09-26T15:52:46Z</time>
      </trkpt>
      <trkpt lat="48.438" lon="2.71193">
        <ele>46</ele>
        <time>2013-09-26T15:52:47Z</time>
      </trkpt>
      <trkpt lat="48.43798" lon="2.71205">
        <ele>46</ele>
        <time>2013-09-26T15:52:49Z</time>
      </trkpt>
      <trkpt lat="48.43797" lon="2.71211">
        <ele>46</ele>
        <time>2013-09-26T15:52:50Z</time>
      </trkpt>
      <trkpt lat="48.43796" lon="2.71223">
        <ele>46</ele>
        <time>2013-09-26T15:52:52Z</time>
      </trkpt>
      <trkpt lat="48.43794" lon="2.71233">
        <ele>46</ele>
        <time>2013-09-26T15:52:54Z</time>
      </trkpt>
      <trkpt lat="48.43793" lon="2.71237">
        <ele>46</ele>
        <time>2013-09-26T15:52:55Z</time>
      </trkpt>
      <trkpt lat="48.43793" lon="2.71241">
        <ele>45.3</ele>
        <time>2013-09-26T15:52:56Z</time>
      </trkpt>
      <trkpt lat="48.43793" lon="2.71244">
        <ele>45</ele>
        <time>2013-09-26T15:52:57Z</time>
      </trkpt>
      <trkpt lat="48.43792" lon="2.71247">
        <ele>45</ele>
        <time>2013-09-26T15:52:58Z</time>
      </trkpt>
      <trkpt lat="48.43792" lon="2.71251">
        <ele>45</ele>
        <time>2013-09-26T15:52:59Z</time>
      </trkpt>
      <trkpt lat="48.43791" lon="2.71258">
        <ele>45</ele>
        <time>2013-09-26T15:53:01Z</time>
      </trkpt>
      <trkpt lat="48.4379" lon="2.71262">
        <ele>45</ele>
        <time>2013-09-26T15:53:02Z</time>
      </trkpt>
      <trkpt lat="48.43788" lon="2.71266">
        <ele>45</ele>
        <time>2013-09-26T15:53:03Z</time>
      </trkpt>
      <trkpt lat="48.43788" lon="2.7127">
        <ele>45</ele>
        <time>2013-09-26T15:53:04Z</time>
      </trkpt>
      <trkpt lat="48.43787" lon="2.71275">
        <ele>45</ele>
        <time>2013-09-26T15:53:05Z</time>
      </trkpt>
      <trkpt lat="48.43786" lon="2.7128">
        <ele>44.3</ele>
        <time>2013-09-26T15:53:06Z</time>
      </trkpt>
      <trkpt lat="48.43786" lon="2.7129">
        <ele>44</ele>
        <time>2013-09-26T15:53:08Z</time>
      </trkpt>
      <trkpt lat="48.43785" lon="2.71295">
        <ele>44</ele>
        <time>2013-09-26T15:53:09Z</time>
      </trkpt>
      <trkpt lat="48.43784" lon="2.71304">
        <ele>44</ele>
        <time>2013-09-26T15:53:11Z</time>
      </trkpt>
      <trkpt lat="48.43784" lon="2.71309">
        <ele>44</ele>
        <time>2013-09-26T15:53:12Z</time>
      </trkpt>
      <trkpt lat="48.43783" lon="2.71319">
        <ele>44</ele>
        <time>2013-09-26T15:53:14Z</time>
      </trkpt>
      <trkpt lat="48.43782" lon="2.71328">
        <ele>44</ele>
        <time>2013-09-26T15:53:16Z</time>
      </trkpt>
      <trkpt lat="48.43782" lon="2.71333">
        <ele>44</ele>
        <time>2013-09-26T15:53:17Z</time>
      </trkpt>
      <trkpt lat="48.4378" lon="2.71341">
        <ele>44</ele>
        <time>2013-09-26T15:53:19Z</time>
      </trkpt>
      <trkpt lat="48.43778" lon="2.71351">
        <ele>44</ele>
        <time>2013-09-26T15:53:21Z</time>
      </trkpt>
      <trkpt lat="48.43778" lon="2.7136">
        <ele>44</ele>
        <time>2013-09-26T15:53:23Z</time>
      </trkpt>
      <trkpt lat="48.43776" lon="2.7137">
        <ele>44</ele>
        <time>2013-09-26T15:53:25Z</time>
      </trkpt>
      <trkpt lat="48.43776" lon="2.71375">
        <ele>44</ele>
        <time>2013-09-26T15:53:26Z</time>
      </trkpt>
      <trkpt lat="48.43775" lon="2.71384">
        <ele>44</ele>
        <time>2013-09-26T15:53:28Z</time>
      </trkpt>
      <trkpt lat="48.43773" lon="2.71393">
        <ele>44</ele>
        <time>2013-09-26T15:53:30Z</time>
      </trkpt>
      <trkpt lat="48.43772" lon="2.71403">
        <ele>44</ele>
        <time>2013-09-26T15:53:32Z</time>
      </trkpt>
      <trkpt lat="48.43771" lon="2.71408">
        <ele>44</ele>
        <time>2013-09-26T15:53:33Z</time>
      </trkpt>
      <trkpt lat="48.4377" lon="2.71417">
        <ele>44</ele>
        <time>2013-09-26T15:53:35Z</time>
      </trkpt>
      <trkpt lat="48.43769" lon="2.71427">
        <ele>44</ele>
        <time>2013-09-26T15:53:37Z</time>
      </trkpt>
      <trkpt lat="48.43768" lon="2.71431">
        <ele>44</ele>
        <time>2013-09-26T15:53:38Z</time>
      </trkpt>
      <trkpt lat="48.43768" lon="2.71436">
        <ele>44</ele>
        <time>2013-09-26T15:53:39Z</time>
      </trkpt>
      <trkpt lat="48.43767" lon="2.71446">
        <ele>44</ele>
        <time>2013-09-26T15:53:41Z</time>
      </trkpt>
      <trkpt lat="48.43765" lon="2.71455">
        <ele>44</ele>
        <time>2013-09-26T15:53:43Z</time>
      </trkpt>
      <trkpt lat="48.43765" lon="2.71459">
        <ele>44</ele>
        <time>2013-09-26T15:53:44Z</time>
      </trkpt>
      <trkpt lat="48.43764" lon="2.71469">
        <ele>44</ele>
        <time>2013-09-26T15:53:46Z</time>
      </trkpt>
      <trkpt lat="48.43764" lon="2.71478">
        <ele>44</ele>
        <time>2013-09-26T15:53:48Z</time>
      </trkpt>
      <trkpt lat="48.43763" lon="2.71489">
        <ele>44</ele>
        <time>2013-09-26T15:53:51Z</time>
      </trkpt>
      <trkpt lat="48.43762" lon="2.71493">
        <ele>44</ele>
        <time>2013-09-26T15:53:52Z</time>
      </trkpt>
      <trkpt lat="48.43763" lon="2.71496">
        <ele>44</ele>
        <time>2013-09-26T15:53:53Z</time>
      </trkpt>
      <trkpt lat="48.43763" lon="2.71502">
        <ele>44</ele>
        <time>2013-09-26T15:53:55Z</time>
      </trkpt>
      <trkpt lat="48.43762" lon="2.71505">
        <ele>44</ele>
        <time>2013-09-26T15:53:57Z</time>
      </trkpt>
      <trkpt lat="48.43762" lon="2.71507">
        <ele>44</ele>
        <time>2013-09-26T15:53:58Z</time>
      </trkpt>
      <trkpt lat="48.4376" lon="2.71511">
        <ele>44</ele>
        <time>2013-09-26T15:54:00Z</time>
      </trkpt>
      <trkpt lat="48.4376" lon="2.71513">
        <ele>44</ele>
        <time>2013-09-26T15:54:01Z</time>
      </trkpt>
      <trkpt lat="48.4376" lon="2.71518">
        <ele>44</ele>
        <time>2013-09-26T15:54:03Z</time>
      </trkpt>
      <trkpt lat="48.4376" lon="2.71522">
        <ele>44</ele>
        <time>2013-09-26T15:54:10Z</time>
      </trkpt>
      <trkpt lat="48.4376" lon="2.71524">
        <ele>44</ele>
        <time>2013-09-26T15:54:11Z</time>
      </trkpt>
      <trkpt lat="48.4376" lon="2.71531">
        <ele>44</ele>
        <time>2013-09-26T15:54:13Z</time>
      </trkpt>
      <trkpt lat="48.43759" lon="2.71534">
        <ele>44</ele>
        <time>2013-09-26T15:54:14Z</time>
      </trkpt>
      <trkpt lat="48.43759" lon="2.71545">
        <ele>44</ele>
        <time>2013-09-26T15:54:17Z</time>
      </trkpt>
      <trkpt lat="48.43758" lon="2.71548">
        <ele>44</ele>
        <time>2013-09-26T15:54:18Z</time>
      </trkpt>
      <trkpt lat="48.43757" lon="2.71554">
        <ele>44</ele>
        <time>2013-09-26T15:54:20Z</time>
      </trkpt>
      <trkpt lat="48.43756" lon="2.71561">
        <ele>44</ele>
        <time>2013-09-26T15:54:22Z</time>
      </trkpt>
      <trkpt lat="48.43754" lon="2.71568">
        <ele>44</ele>
        <time>2013-09-26T15:54:24Z</time>
      </trkpt>
      <trkpt lat="48.43752" lon="2.71576">
        <ele>44</ele>
        <time>2013-09-26T15:54:26Z</time>
      </trkpt>
      <trkpt lat="48.4375" lon="2.71584">
        <ele>44</ele>
        <time>2013-09-26T15:54:28Z</time>
      </trkpt>
      <trkpt lat="48.43749" lon="2.71592">
        <ele>44</ele>
        <time>2013-09-26T15:54:30Z</time>
      </trkpt>
      <trkpt lat="48.4375" lon="2.716">
        <ele>44</ele>
        <time>2013-09-26T15:54:32Z</time>
      </trkpt>
      <trkpt lat="48.43749" lon="2.71605">
        <ele>44</ele>
        <time>2013-09-26T15:54:33Z</time>
      </trkpt>
      <trkpt lat="48.43749" lon="2.7161">
        <ele>44</ele>
        <time>2013-09-26T15:54:34Z</time>
      </trkpt>
      <trkpt lat="48.43748" lon="2.71619">
        <ele>44</ele>
        <time>2013-09-26T15:54:36Z</time>
      </trkpt>
      <trkpt lat="48.43747" lon="2.71627">
        <ele>44</ele>
        <time>2013-09-26T15:54:38Z</time>
      </trkpt>
      <trkpt lat="48.43746" lon="2.71631">
        <ele>44</ele>
        <time>2013-09-26T15:54:39Z</time>
      </trkpt>
      <trkpt lat="48.43746" lon="2.71639">
        <ele>44</ele>
        <time>2013-09-26T15:54:41Z</time>
      </trkpt>
      <trkpt lat="48.43744" lon="2.71646">
        <ele>44</ele>
        <time>2013-09-26T15:54:43Z</time>
      </trkpt>
      <trkpt lat="48.43743" lon="2.7165">
        <ele>44</ele>
        <time>2013-09-26T15:54:44Z</time>
      </trkpt>
      <trkpt lat="48.43743" lon="2.71655">
        <ele>44</ele>
        <time>2013-09-26T15:54:45Z</time>
      </trkpt>
      <trkpt lat="48.43741" lon="2.71668">
        <ele>45</ele>
        <time>2013-09-26T15:54:48Z</time>
      </trkpt>
      <trkpt lat="48.4374" lon="2.71676">
        <ele>45</ele>
        <time>2013-09-26T15:54:50Z</time>
      </trkpt>
      <trkpt lat="48.43739" lon="2.71681">
        <ele>45</ele>
        <time>2013-09-26T15:54:51Z</time>
      </trkpt>
      <trkpt lat="48.43739" lon="2.71686">
        <ele>45</ele>
        <time>2013-09-26T15:54:52Z</time>
      </trkpt>
      <trkpt lat="48.43739" lon="2.71691">
        <ele>45</ele>
        <time>2013-09-26T15:54:53Z</time>
      </trkpt>
      <trkpt lat="48.43738" lon="2.71695">
        <ele>45</ele>
        <time>2013-09-26T15:54:54Z</time>
      </trkpt>
      <trkpt lat="48.43737" lon="2.71704">
        <ele>45</ele>
        <time>2013-09-26T15:54:56Z</time>
      </trkpt>
      <trkpt lat="48.43736" lon="2.71712">
        <ele>45</ele>
        <time>2013-09-26T15:54:58Z</time>
      </trkpt>
      <trkpt lat="48.43735" lon="2.71716">
        <ele>45</ele>
        <time>2013-09-26T15:54:59Z</time>
      </trkpt>
      <trkpt lat="48.43734" lon="2.71724">
        <ele>45</ele>
        <time>2013-09-26T15:55:01Z</time>
      </trkpt>
      <trkpt lat="48.43732" lon="2.71733">
        <ele>45</ele>
        <time>2013-09-26T15:55:03Z</time>
      </trkpt>
      <trkpt lat="48.43732" lon="2.71742">
        <ele>45</ele>
        <time>2013-09-26T15:55:05Z</time>
      </trkpt>
      <trkpt lat="48.43732" lon="2.71747">
        <ele>45</ele>
        <time>2013-09-26T15:55:06Z</time>
      </trkpt>
      <trkpt lat="48.4373" lon="2.71756">
        <ele>45</ele>
        <time>2013-09-26T15:55:08Z</time>
      </trkpt>
      <trkpt lat="48.43729" lon="2.71765">
        <ele>45</ele>
        <time>2013-09-26T15:55:10Z</time>
      </trkpt>
      <trkpt lat="48.43728" lon="2.71769">
        <ele>45</ele>
        <time>2013-09-26T15:55:11Z</time>
      </trkpt>
      <trkpt lat="48.43728" lon="2.71776">
        <ele>45</ele>
        <time>2013-09-26T15:55:13Z</time>
      </trkpt>
      <trkpt lat="48.43728" lon="2.7178">
        <ele>45</ele>
        <time>2013-09-26T15:55:14Z</time>
      </trkpt>
      <trkpt lat="48.43728" lon="2.71784">
        <ele>45</ele>
        <time>2013-09-26T15:55:15Z</time>
      </trkpt>
      <trkpt lat="48.43727" lon="2.71792">
        <ele>45</ele>
        <time>2013-09-26T15:55:17Z</time>
      </trkpt>
      <trkpt lat="48.43726" lon="2.718">
        <ele>45</ele>
        <time>2013-09-26T15:55:19Z</time>
      </trkpt>
      <trkpt lat="48.43725" lon="2.71804">
        <ele>45</ele>
        <time>2013-09-26T15:55:20Z</time>
      </trkpt>
      <trkpt lat="48.43725" lon="2.71808">
        <ele>45</ele>
        <time>2013-09-26T15:55:21Z</time>
      </trkpt>
      <trkpt lat="48.43725" lon="2.71812">
        <ele>45</ele>
        <time>2013-09-26T15:55:22Z</time>
      </trkpt>
      <trkpt lat="48.43724" lon="2.71819">
        <ele>45</ele>
        <time>2013-09-26T15:55:24Z</time>
      </trkpt>
      <trkpt lat="48.43722" lon="2.71826">
        <ele>45</ele>
        <time>2013-09-26T15:55:26Z</time>
      </trkpt>
      <trkpt lat="48.43722" lon="2.71829">
        <ele>45</ele>
        <time>2013-09-26T15:55:27Z</time>
      </trkpt>
      <trkpt lat="48.43721" lon="2.71836">
        <ele>45</ele>
        <time>2013-09-26T15:55:29Z</time>
      </trkpt>
      <trkpt lat="48.43721" lon="2.71841">
        <ele>45</ele>
        <time>2013-09-26T15:55:31Z</time>
      </trkpt>
      <trkpt lat="48.43721" lon="2.71849">
        <ele>45</ele>
        <time>2013-09-26T15:55:33Z</time>
      </trkpt>
      <trkpt lat="48.43721" lon="2.71858">
        <ele>45</ele>
        <time>2013-09-26T15:55:35Z</time>
      </trkpt>
      <trkpt lat="48.43722" lon="2.71862">
        <ele>45</ele>
        <time>2013-09-26T15:55:36Z</time>
      </trkpt>
      <trkpt lat="48.43722" lon="2.71865">
        <ele>45</ele>
        <time>2013-09-26T15:55:37Z</time>
      </trkpt>
      <trkpt lat="48.43721" lon="2.71878">
        <ele>45</ele>
        <time>2013-09-26T15:55:40Z</time>
      </trkpt>
      <trkpt lat="48.43719" lon="2.71886">
        <ele>45</ele>
        <time>2013-09-26T15:55:42Z</time>
      </trkpt>
      <trkpt lat="48.43718" lon="2.7189">
        <ele>45</ele>
        <time>2013-09-26T15:55:43Z</time>
      </trkpt>
      <trkpt lat="48.43717" lon="2.71895">
        <ele>45</ele>
        <time>2013-09-26T15:55:44Z</time>
      </trkpt>
      <trkpt lat="48.43715" lon="2.71903">
        <ele>45</ele>
        <time>2013-09-26T15:55:46Z</time>
      </trkpt>
      <trkpt lat="48.43713" lon="2.71911">
        <ele>45</ele>
        <time>2013-09-26T15:55:48Z</time>
      </trkpt>
      <trkpt lat="48.43712" lon="2.71916">
        <ele>45</ele>
        <time>2013-09-26T15:55:49Z</time>
      </trkpt>
      <trkpt lat="48.43712" lon="2.71925">
        <ele>45</ele>
        <time>2013-09-26T15:55:51Z</time>
      </trkpt>
      <trkpt lat="48.4371" lon="2.71933">
        <ele>45</ele>
        <time>2013-09-26T15:55:53Z</time>
      </trkpt>
      <trkpt lat="48.43709" lon="2.71941">
        <ele>45</ele>
        <time>2013-09-26T15:55:55Z</time>
      </trkpt>
      <trkpt lat="48.43708" lon="2.71946">
        <ele>45</ele>
        <time>2013-09-26T15:55:56Z</time>
      </trkpt>
      <trkpt lat="48.43707" lon="2.71954">
        <ele>45</ele>
        <time>2013-09-26T15:55:58Z</time>
      </trkpt>
      <trkpt lat="48.43706" lon="2.71959">
        <ele>45</ele>
        <time>2013-09-26T15:55:59Z</time>
      </trkpt>
      <trkpt lat="48.43705" lon="2.71967">
        <ele>45</ele>
        <time>2013-09-26T15:56:01Z</time>
      </trkpt>
      <trkpt lat="48.43705" lon="2.71971">
        <ele>45</ele>
        <time>2013-09-26T15:56:02Z</time>
      </trkpt>
      <trkpt lat="48.43704" lon="2.71975">
        <ele>45</ele>
        <time>2013-09-26T15:56:03Z</time>
      </trkpt>
      <trkpt lat="48.43703" lon="2.71982">
        <ele>45</ele>
        <time>2013-09-26T15:56:05Z</time>
      </trkpt>
      <trkpt lat="48.43702" lon="2.71985">
        <ele>45</ele>
        <time>2013-09-26T15:56:06Z</time>
      </trkpt>
      <trkpt lat="48.43702" lon="2.71988">
        <ele>45</ele>
        <time>2013-09-26T15:56:07Z</time>
      </trkpt>
      <trkpt lat="48.43703" lon="2.71993">
        <ele>45</ele>
        <time>2013-09-26T15:56:09Z</time>
      </trkpt>
      <trkpt lat="48.43706" lon="2.71995">
        <ele>45</ele>
        <time>2013-09-26T15:56:11Z</time>
      </trkpt>
      <trkpt lat="48.43708" lon="2.71996">
        <ele>45</ele>
        <time>2013-09-26T15:56:12Z</time>
      </trkpt>
      <trkpt lat="48.4371" lon="2.71996">
        <ele>45</ele>
        <time>2013-09-26T15:56:13Z</time>
      </trkpt>
      <trkpt lat="48.43713" lon="2.71996">
        <ele>45</ele>
        <time>2013-09-26T15:56:14Z</time>
      </trkpt>
      <trkpt lat="48.43719" lon="2.71995">
        <ele>45</ele>
        <time>2013-09-26T15:56:16Z</time>
      </trkpt>
      <trkpt lat="48.43722" lon="2.71996">
        <ele>45</ele>
        <time>2013-09-26T15:56:17Z</time>
      </trkpt>
      <trkpt lat="48.43728" lon="2.71995">
        <ele>45</ele>
        <time>2013-09-26T15:56:19Z</time>
      </trkpt>
      <trkpt lat="48.43731" lon="2.71995">
        <ele>45</ele>
        <time>2013-09-26T15:56:20Z</time>
      </trkpt>
      <trkpt lat="48.43738" lon="2.71994">
        <ele>45</ele>
        <time>2013-09-26T15:56:22Z</time>
      </trkpt>
      <trkpt lat="48.43741" lon="2.71994">
        <ele>45</ele>
        <time>2013-09-26T15:56:23Z</time>
      </trkpt>
      <trkpt lat="48.43747" lon="2.71994">
        <ele>45</ele>
        <time>2013-09-26T15:56:25Z</time>
      </trkpt>
      <trkpt lat="48.43755" lon="2.71994">
        <ele>45</ele>
        <time>2013-09-26T15:56:27Z</time>
      </trkpt>
      <trkpt lat="48.43758" lon="2.71993">
        <ele>45</ele>
        <time>2013-09-26T15:56:28Z</time>
      </trkpt>
      <trkpt lat="48.43766" lon="2.71993">
        <ele>45</ele>
        <time>2013-09-26T15:56:30Z</time>
      </trkpt>
      <trkpt lat="48.43773" lon="2.71992">
        <ele>45</ele>
        <time>2013-09-26T15:56:32Z</time>
      </trkpt>
      <trkpt lat="48.43782" lon="2.71991">
        <ele>45</ele>
        <time>2013-09-26T15:56:34Z</time>
      </trkpt>
      <trkpt lat="48.43786" lon="2.71991">
        <ele>45</ele>
        <time>2013-09-26T15:56:35Z</time>
      </trkpt>
      <trkpt lat="48.43793" lon="2.71992">
        <ele>45</ele>
        <time>2013-09-26T15:56:37Z</time>
      </trkpt>
      <trkpt lat="48.43801" lon="2.71992">
        <ele>45</ele>
        <time>2013-09-26T15:56:39Z</time>
      </trkpt>
      <trkpt lat="48.4381" lon="2.71992">
        <ele>45</ele>
        <time>2013-09-26T15:56:41Z</time>
      </trkpt>
      <trkpt lat="48.43819" lon="2.71992">
        <ele>45</ele>
        <time>2013-09-26T15:56:43Z</time>
      </trkpt>
      <trkpt lat="48.43828" lon="2.71994">
        <ele>45</ele>
        <time>2013-09-26T15:56:45Z</time>
      </trkpt>
      <trkpt lat="48.43837" lon="2.71997">
        <ele>44</ele>
        <time>2013-09-26T15:56:47Z</time>
      </trkpt>
      <trkpt lat="48.43842" lon="2.72">
        <ele>44</ele>
        <time>2013-09-26T15:56:48Z</time>
      </trkpt>
      <trkpt lat="48.43851" lon="2.72003">
        <ele>44</ele>
        <time>2013-09-26T15:56:50Z</time>
      </trkpt>
      <trkpt lat="48.43865" lon="2.72009">
        <ele>44</ele>
        <time>2013-09-26T15:56:53Z</time>
      </trkpt>
      <trkpt lat="48.43875" lon="2.72014">
        <ele>44</ele>
        <time>2013-09-26T15:56:55Z</time>
      </trkpt>
      <trkpt lat="48.43886" lon="2.72018">
        <ele>43</ele>
        <time>2013-09-26T15:56:57Z</time>
      </trkpt>
      <trkpt lat="48.43901" lon="2.72023">
        <ele>43</ele>
        <time>2013-09-26T15:57:00Z</time>
      </trkpt>
      <trkpt lat="48.43907" lon="2.72025">
        <ele>43</ele>
        <time>2013-09-26T15:57:01Z</time>
      </trkpt>
      <trkpt lat="48.43913" lon="2.72026">
        <ele>43</ele>
        <time>2013-09-26T15:57:02Z</time>
      </trkpt>
      <trkpt lat="48.43919" lon="2.72026">
        <ele>43</ele>
        <time>2013-09-26T15:57:03Z</time>
      </trkpt>
      <trkpt lat="48.43931" lon="2.72025">
        <ele>43</ele>
        <time>2013-09-26T15:57:05Z</time>
      </trkpt>
      <trkpt lat="48.43936" lon="2.72024">
        <ele>42.3</ele>
        <time>2013-09-26T15:57:06Z</time>
      </trkpt>
      <trkpt lat="48.43954" lon="2.72018">
        <ele>42</ele>
        <time>2013-09-26T15:57:09Z</time>
      </trkpt>
      <trkpt lat="48.43966" lon="2.72014">
        <ele>42</ele>
        <time>2013-09-26T15:57:11Z</time>
      </trkpt>
      <trkpt lat="48.43971" lon="2.72011">
        <ele>42</ele>
        <time>2013-09-26T15:57:12Z</time>
      </trkpt>
      <trkpt lat="48.43982" lon="2.72006">
        <ele>42</ele>
        <time>2013-09-26T15:57:14Z</time>
      </trkpt>
      <trkpt lat="48.43992" lon="2.72001">
        <ele>41.3</ele>
        <time>2013-09-26T15:57:16Z</time>
      </trkpt>
      <trkpt lat="48.44001" lon="2.71996">
        <ele>41</ele>
        <time>2013-09-26T15:57:18Z</time>
      </trkpt>
      <trkpt lat="48.44015" lon="2.7199">
        <ele>41</ele>
        <time>2013-09-26T15:57:21Z</time>
      </trkpt>
      <trkpt lat="48.44024" lon="2.71987">
        <ele>41</ele>
        <time>2013-09-26T15:57:23Z</time>
      </trkpt>
      <trkpt lat="48.44029" lon="2.71986">
        <ele>41</ele>
        <time>2013-09-26T15:57:24Z</time>
      </trkpt>
      <trkpt lat="48.44034" lon="2.71985">
        <ele>41</ele>
        <time>2013-09-26T15:57:25Z</time>
      </trkpt>
      <trkpt lat="48.44044" lon="2.71981">
        <ele>41</ele>
        <time>2013-09-26T15:57:27Z</time>
      </trkpt>
      <trkpt lat="48.44055" lon="2.71977">
        <ele>41</ele>
        <time>2013-09-26T15:57:29Z</time>
      </trkpt>
      <trkpt lat="48.44065" lon="2.71973">
        <ele>41</ele>
        <time>2013-09-26T15:57:31Z</time>
      </trkpt>
      <trkpt lat="48.44071" lon="2.7197">
        <ele>41</ele>
        <time>2013-09-26T15:57:32Z</time>
      </trkpt>
      <trkpt lat="48.44081" lon="2.71966">
        <ele>41</ele>
        <time>2013-09-26T15:57:34Z</time>
      </trkpt>
      <trkpt lat="48.44086" lon="2.71964">
        <ele>41</ele>
        <time>2013-09-26T15:57:35Z</time>
      </trkpt>
      <trkpt lat="48.44096" lon="2.71958">
        <ele>41</ele>
        <time>2013-09-26T15:57:37Z</time>
      </trkpt>
      <trkpt lat="48.441" lon="2.71955">
        <ele>41</ele>
        <time>2013-09-26T15:57:38Z</time>
      </trkpt>
      <trkpt lat="48.4411" lon="2.71951">
        <ele>41</ele>
        <time>2013-09-26T15:57:40Z</time>
      </trkpt>
      <trkpt lat="48.44121" lon="2.71947">
        <ele>41</ele>
        <time>2013-09-26T15:57:42Z</time>
      </trkpt>
      <trkpt lat="48.44132" lon="2.71943">
        <ele>41</ele>
        <time>2013-09-26T15:57:44Z</time>
      </trkpt>
      <trkpt lat="48.44137" lon="2.7194">
        <ele>41</ele>
        <time>2013-09-26T15:57:45Z</time>
      </trkpt>
      <trkpt lat="48.44149" lon="2.71937">
        <ele>41</ele>
        <time>2013-09-26T15:57:47Z</time>
      </trkpt>
      <trkpt lat="48.44161" lon="2.71933">
        <ele>41</ele>
        <time>2013-09-26T15:57:49Z</time>
      </trkpt>
      <trkpt lat="48.44173" lon="2.71929">
        <ele>41</ele>
        <time>2013-09-26T15:57:51Z</time>
      </trkpt>
      <trkpt lat="48.44184" lon="2.71925">
        <ele>41</ele>
        <time>2013-09-26T15:57:53Z</time>
      </trkpt>
      <trkpt lat="48.44196" lon="2.71922">
        <ele>41</ele>
        <time>2013-09-26T15:57:55Z</time>
      </trkpt>
      <trkpt lat="48.44208" lon="2.71917">
        <ele>41</ele>
        <time>2013-09-26T15:57:57Z</time>
      </trkpt>
      <trkpt lat="48.44214" lon="2.71914">
        <ele>41</ele>
        <time>2013-09-26T15:57:58Z</time>
      </trkpt>
      <trkpt lat="48.44225" lon="2.71908">
        <ele>41</ele>
        <time>2013-09-26T15:58:00Z</time>
      </trkpt>
      <trkpt lat="48.44236" lon="2.71903">
        <ele>41</ele>
        <time>2013-09-26T15:58:02Z</time>
      </trkpt>
      <trkpt lat="48.44254" lon="2.71897">
        <ele>41</ele>
        <time>2013-09-26T15:58:05Z</time>
      </trkpt>
      <trkpt lat="48.4426" lon="2.71895">
        <ele>40.4</ele>
        <time>2013-09-26T15:58:06Z</time>
      </trkpt>
      <trkpt lat="48.44266" lon="2.71893">
        <ele>40</ele>
        <time>2013-09-26T15:58:07Z</time>
      </trkpt>
      <trkpt lat="48.44272" lon="2.71891">
        <ele>40</ele>
        <time>2013-09-26T15:58:08Z</time>
      </trkpt>
      <trkpt lat="48.44285" lon="2.71887">
        <ele>40</ele>
        <time>2013-09-26T15:58:10Z</time>
      </trkpt>
      <trkpt lat="48.44291" lon="2.71885">
        <ele>40</ele>
        <time>2013-09-26T15:58:11Z</time>
      </trkpt>
      <trkpt lat="48.44302" lon="2.71879">
        <ele>40</ele>
        <time>2013-09-26T15:58:13Z</time>
      </trkpt>
      <trkpt lat="48.44313" lon="2.71874">
        <ele>40</ele>
        <time>2013-09-26T15:58:15Z</time>
      </trkpt>
      <trkpt lat="48.44328" lon="2.71868">
        <ele>39</ele>
        <time>2013-09-26T15:58:18Z</time>
      </trkpt>
      <trkpt lat="48.44333" lon="2.71866">
        <ele>39</ele>
        <time>2013-09-26T15:58:19Z</time>
      </trkpt>
      <trkpt lat="48.44341" lon="2.71862">
        <ele>39</ele>
        <time>2013-09-26T15:58:21Z</time>
      </trkpt>
      <trkpt lat="48.44347" lon="2.7186">
        <ele>39</ele>
        <time>2013-09-26T15:58:23Z</time>
      </trkpt>
      <trkpt lat="48.44352" lon="2.71857">
        <ele>39</ele>
        <time>2013-09-26T15:58:25Z</time>
      </trkpt>
      <trkpt lat="48.44355" lon="2.71855">
        <ele>39</ele>
        <time>2013-09-26T15:58:26Z</time>
      </trkpt>
      <trkpt lat="48.44356" lon="2.71852">
        <ele>39</ele>
        <time>2013-09-26T15:58:27Z</time>
      </trkpt>
      <trkpt lat="48.44357" lon="2.71848">
        <ele>39</ele>
        <time>2013-09-26T15:58:28Z</time>
      </trkpt>
      <trkpt lat="48.44358" lon="2.71844">
        <ele>39</ele>
        <time>2013-09-26T15:58:29Z</time>
      </trkpt>
      <trkpt lat="48.44359" lon="2.71837">
        <ele>39</ele>
        <time>2013-09-26T15:58:31Z</time>
      </trkpt>
      <trkpt lat="48.44359" lon="2.71831">
        <ele>39</ele>
        <time>2013-09-26T15:58:33Z</time>
      </trkpt>
      <trkpt lat="48.4436" lon="2.71828">
        <ele>39</ele>
        <time>2013-09-26T15:58:40Z</time>
      </trkpt>
      <trkpt lat="48.4436" lon="2.71826">
        <ele>39</ele>
        <time>2013-09-26T15:58:41Z</time>
      </trkpt>
      <trkpt lat="48.4436" lon="2.7182">
        <ele>39</ele>
        <time>2013-09-26T15:58:43Z</time>
      </trkpt>
      <trkpt lat="48.4436" lon="2.71816">
        <ele>39</ele>
        <time>2013-09-26T15:58:44Z</time>
      </trkpt>
      <trkpt lat="48.44361" lon="2.71812">
        <ele>39</ele>
        <time>2013-09-26T15:58:45Z</time>
      </trkpt>
      <trkpt lat="48.44362" lon="2.71804">
        <ele>39</ele>
        <time>2013-09-26T15:58:47Z</time>
      </trkpt>
      <trkpt lat="48.44363" lon="2.71801">
        <ele>39</ele>
        <time>2013-09-26T15:58:48Z</time>
      </trkpt>
      <trkpt lat="48.44364" lon="2.71799">
        <ele>39</ele>
        <time>2013-09-26T15:58:49Z</time>
      </trkpt>
      <trkpt lat="48.44365" lon="2.71796">
        <ele>39</ele>
        <time>2013-09-26T15:58:50Z</time>
      </trkpt>
      <trkpt lat="48.44367" lon="2.71794">
        <ele>39</ele>
        <time>2013-09-26T15:58:51Z</time>
      </trkpt>
      <trkpt lat="48.44369" lon="2.7179">
        <ele>39</ele>
        <time>2013-09-26T15:58:53Z</time>
      </trkpt>
      <trkpt lat="48.4437" lon="2.71789">
        <ele>39</ele>
        <time>2013-09-26T15:58:55Z</time>
      </trkpt>
      <trkpt lat="48.4437" lon="2.71789">
        <ele>40</ele>
        <time>2013-09-26T16:00:00Z</time>
      </trkpt>
    </trkseg>
  </trk>
</gpx>